source: josm/trunk/test/data/regress/1853/PosData-20081216-115434.gpx@ 10906

Last change on this file since 10906 was 10906, checked in by Don-vip, 8 years ago

add more non-regression NMEA unit tests

File size: 420.6 KB
Line 
1<?xml version="1.0" encoding="UTF-8"?>
2<gpx version="1.0" creator="GPSBabel - http://www.gpsbabel.org" xmlns="http://www.topografix.com/GPX/1/0">
3 <time>2016-08-27T14:55:29.820Z</time>
4 <bounds minlat="-30.113660000" minlon="-51.833450000" maxlat="-30.053190000" maxlon="-51.437880000"/>
5 <trk>
6 <trkseg>
7 <trkpt lat="-30.053190000" lon="-51.437880000">
8 <ele>46.100000</ele>
9 <time>2069-11-30T11:54:34Z</time>
10 <course>261.000000</course>
11 <speed>0.000000</speed>
12 <geoidheight>0.0</geoidheight>
13 <fix>3d</fix>
14 <sat>8</sat>
15 <hdop>0.800000</hdop>
16 </trkpt>
17 <trkpt lat="-30.053190000" lon="-51.437880000">
18 <ele>46.100000</ele>
19 <time>2069-11-30T11:54:34.139Z</time>
20 <course>261.000000</course>
21 <speed>0.000000</speed>
22 <geoidheight>0.0</geoidheight>
23 <fix>3d</fix>
24 <sat>8</sat>
25 <hdop>0.800000</hdop>
26 </trkpt>
27 <trkpt lat="-30.053190000" lon="-51.437890000">
28 <ele>46.100000</ele>
29 <time>2069-11-30T11:54:34.279Z</time>
30 <course>261.000000</course>
31 <speed>0.000000</speed>
32 <geoidheight>0.0</geoidheight>
33 <fix>3d</fix>
34 <sat>8</sat>
35 <hdop>0.800000</hdop>
36 </trkpt>
37 <trkpt lat="-30.053200000" lon="-51.437910000">
38 <ele>46.100000</ele>
39 <time>2069-11-30T11:54:34.419Z</time>
40 <course>261.000000</course>
41 <speed>0.823111</speed>
42 <geoidheight>0.0</geoidheight>
43 <fix>3d</fix>
44 <sat>8</sat>
45 <hdop>0.800000</hdop>
46 </trkpt>
47 <trkpt lat="-30.053200000" lon="-51.437940000">
48 <ele>46.100000</ele>
49 <time>2069-11-30T11:54:39.086Z</time>
50 <course>261.000000</course>
51 <speed>1.954889</speed>
52 <geoidheight>0.0</geoidheight>
53 <fix>3d</fix>
54 <sat>8</sat>
55 <hdop>0.800000</hdop>
56 </trkpt>
57 <trkpt lat="-30.053200000" lon="-51.437980000">
58 <ele>46.100000</ele>
59 <time>2069-11-30T11:54:42.197Z</time>
60 <course>261.000000</course>
61 <speed>1.954889</speed>
62 <geoidheight>0.0</geoidheight>
63 <fix>3d</fix>
64 <sat>8</sat>
65 <hdop>0.800000</hdop>
66 </trkpt>
67 <trkpt lat="-30.053210000" lon="-51.438030000">
68 <ele>46.100000</ele>
69 <time>2069-11-30T11:54:46.163Z</time>
70 <course>265.000000</course>
71 <speed>2.778000</speed>
72 <geoidheight>0.0</geoidheight>
73 <fix>3d</fix>
74 <sat>8</sat>
75 <hdop>0.800000</hdop>
76 </trkpt>
77 <trkpt lat="-30.053210000" lon="-51.438090000">
78 <ele>46.100000</ele>
79 <time>2069-11-30T11:54:49.274Z</time>
80 <course>265.000000</course>
81 <speed>3.909778</speed>
82 <geoidheight>0.0</geoidheight>
83 <fix>3d</fix>
84 <sat>8</sat>
85 <hdop>0.800000</hdop>
86 </trkpt>
87 <trkpt lat="-30.053220000" lon="-51.438170000">
88 <ele>46.100000</ele>
89 <time>2069-11-30T11:54:52.410Z</time>
90 <course>261.000000</course>
91 <speed>3.909778</speed>
92 <geoidheight>0.0</geoidheight>
93 <fix>3d</fix>
94 <sat>8</sat>
95 <hdop>0.800000</hdop>
96 </trkpt>
97 <trkpt lat="-30.053230000" lon="-51.438250000">
98 <ele>46.100000</ele>
99 <time>2069-11-30T11:54:55.545Z</time>
100 <course>262.000000</course>
101 <speed>4.990111</speed>
102 <geoidheight>0.0</geoidheight>
103 <fix>3d</fix>
104 <sat>8</sat>
105 <hdop>0.800000</hdop>
106 </trkpt>
107 <trkpt lat="-30.053240000" lon="-51.438340000">
108 <ele>46.100000</ele>
109 <time>2069-11-30T11:54:58.362Z</time>
110 <course>263.000000</course>
111 <speed>5.813222</speed>
112 <geoidheight>0.0</geoidheight>
113 <fix>3d</fix>
114 <sat>8</sat>
115 <hdop>0.800000</hdop>
116 </trkpt>
117 <trkpt lat="-30.053250000" lon="-51.438440000">
118 <ele>46.100000</ele>
119 <time>2069-11-30T11:55:00.968Z</time>
120 <course>264.000000</course>
121 <speed>6.945000</speed>
122 <geoidheight>0.0</geoidheight>
123 <fix>3d</fix>
124 <sat>8</sat>
125 <hdop>0.800000</hdop>
126 </trkpt>
127 <trkpt lat="-30.053260000" lon="-51.438560000">
128 <ele>46.100000</ele>
129 <time>2069-11-30T11:55:03.644Z</time>
130 <course>264.000000</course>
131 <speed>6.945000</speed>
132 <geoidheight>0.0</geoidheight>
133 <fix>3d</fix>
134 <sat>8</sat>
135 <hdop>0.800000</hdop>
136 </trkpt>
137 <trkpt lat="-30.053270000" lon="-51.438680000">
138 <ele>46.100000</ele>
139 <time>2069-11-30T11:55:06.320Z</time>
140 <course>265.000000</course>
141 <speed>7.768111</speed>
142 <geoidheight>0.0</geoidheight>
143 <fix>3d</fix>
144 <sat>8</sat>
145 <hdop>0.800000</hdop>
146 </trkpt>
147 <trkpt lat="-30.053280000" lon="-51.438820000">
148 <ele>46.100000</ele>
149 <time>2069-11-30T11:55:09.049Z</time>
150 <course>263.000000</course>
151 <speed>8.899889</speed>
152 <geoidheight>0.0</geoidheight>
153 <fix>3d</fix>
154 <sat>8</sat>
155 <hdop>0.800000</hdop>
156 </trkpt>
157 <trkpt lat="-30.053300000" lon="-51.438960000">
158 <ele>46.100000</ele>
159 <time>2069-11-30T11:55:11.493Z</time>
160 <course>263.000000</course>
161 <speed>8.899889</speed>
162 <geoidheight>0.0</geoidheight>
163 <fix>3d</fix>
164 <sat>8</sat>
165 <hdop>0.800000</hdop>
166 </trkpt>
167 <trkpt lat="-30.053310000" lon="-51.439120000">
168 <ele>46.100000</ele>
169 <time>2069-11-30T11:55:14.264Z</time>
170 <course>264.000000</course>
171 <speed>9.980222</speed>
172 <geoidheight>0.0</geoidheight>
173 <fix>3d</fix>
174 <sat>8</sat>
175 <hdop>0.800000</hdop>
176 </trkpt>
177 <trkpt lat="-30.053330000" lon="-51.439280000">
178 <ele>46.100000</ele>
179 <time>2069-11-30T11:55:16.772Z</time>
180 <course>262.000000</course>
181 <speed>10.854777</speed>
182 <geoidheight>0.0</geoidheight>
183 <fix>3d</fix>
184 <sat>8</sat>
185 <hdop>0.800000</hdop>
186 </trkpt>
187 <trkpt lat="-30.053350000" lon="-51.439460000">
188 <ele>46.100000</ele>
189 <time>2069-11-30T11:55:19.333Z</time>
190 <course>265.000000</course>
191 <speed>10.854777</speed>
192 <geoidheight>0.0</geoidheight>
193 <fix>3d</fix>
194 <sat>8</sat>
195 <hdop>0.800000</hdop>
196 </trkpt>
197 <trkpt lat="-30.053360000" lon="-51.439640000">
198 <ele>46.100000</ele>
199 <time>2069-11-30T11:55:21.883Z</time>
200 <course>265.000000</course>
201 <speed>11.935111</speed>
202 <geoidheight>0.0</geoidheight>
203 <fix>3d</fix>
204 <sat>8</sat>
205 <hdop>0.800000</hdop>
206 </trkpt>
207 <trkpt lat="-30.053380000" lon="-51.439840000">
208 <ele>46.100000</ele>
209 <time>2069-11-30T11:55:24.488Z</time>
210 <course>263.000000</course>
211 <speed>12.758223</speed>
212 <geoidheight>0.0</geoidheight>
213 <fix>3d</fix>
214 <sat>8</sat>
215 <hdop>0.800000</hdop>
216 </trkpt>
217 <trkpt lat="-30.053400000" lon="-51.440040000">
218 <ele>46.100000</ele>
219 <time>2069-11-30T11:55:26.893Z</time>
220 <course>264.000000</course>
221 <speed>13.890000</speed>
222 <geoidheight>0.0</geoidheight>
223 <fix>3d</fix>
224 <sat>8</sat>
225 <hdop>0.800000</hdop>
226 </trkpt>
227 <trkpt lat="-30.053420000" lon="-51.440260000">
228 <ele>46.100000</ele>
229 <time>2069-11-30T11:55:29.348Z</time>
230 <course>264.000000</course>
231 <speed>13.890000</speed>
232 <geoidheight>0.0</geoidheight>
233 <fix>3d</fix>
234 <sat>8</sat>
235 <hdop>0.800000</hdop>
236 </trkpt>
237 <trkpt lat="-30.053440000" lon="-51.440490000">
238 <ele>46.100000</ele>
239 <time>2069-11-30T11:55:31.913Z</time>
240 <course>263.000000</course>
241 <speed>15.021778</speed>
242 <geoidheight>0.0</geoidheight>
243 <fix>3d</fix>
244 <sat>8</sat>
245 <hdop>0.800000</hdop>
246 </trkpt>
247 <trkpt lat="-30.053470000" lon="-51.440720000">
248 <ele>46.100000</ele>
249 <time>2069-11-30T11:55:34.318Z</time>
250 <course>263.000000</course>
251 <speed>15.844889</speed>
252 <geoidheight>0.0</geoidheight>
253 <fix>3d</fix>
254 <sat>8</sat>
255 <hdop>0.800000</hdop>
256 </trkpt>
257 <trkpt lat="-30.053490000" lon="-51.440970000">
258 <ele>46.100000</ele>
259 <time>2069-11-30T11:55:36.757Z</time>
260 <course>265.000000</course>
261 <speed>15.844889</speed>
262 <geoidheight>0.0</geoidheight>
263 <fix>3d</fix>
264 <sat>8</sat>
265 <hdop>0.800000</hdop>
266 </trkpt>
267 <trkpt lat="-30.053510000" lon="-51.441230000">
268 <ele>46.100000</ele>
269 <time>2069-11-30T11:55:39.292Z</time>
270 <course>264.000000</course>
271 <speed>16.925222</speed>
272 <geoidheight>0.0</geoidheight>
273 <fix>3d</fix>
274 <sat>8</sat>
275 <hdop>0.800000</hdop>
276 </trkpt>
277 <trkpt lat="-30.053540000" lon="-51.441500000">
278 <ele>46.100000</ele>
279 <time>2069-11-30T11:55:41.778Z</time>
280 <course>263.000000</course>
281 <speed>17.799778</speed>
282 <geoidheight>0.0</geoidheight>
283 <fix>3d</fix>
284 <sat>8</sat>
285 <hdop>0.800000</hdop>
286 </trkpt>
287 <trkpt lat="-30.053570000" lon="-51.441780000">
288 <ele>46.100000</ele>
289 <time>2069-11-30T11:55:44.211Z</time>
290 <course>264.000000</course>
291 <speed>17.799778</speed>
292 <geoidheight>0.0</geoidheight>
293 <fix>3d</fix>
294 <sat>8</sat>
295 <hdop>0.800000</hdop>
296 </trkpt>
297 <trkpt lat="-30.053590000" lon="-51.442070000">
298 <ele>46.100000</ele>
299 <time>2069-11-30T11:55:46.723Z</time>
300 <course>264.000000</course>
301 <speed>18.880112</speed>
302 <geoidheight>0.0</geoidheight>
303 <fix>3d</fix>
304 <sat>8</sat>
305 <hdop>0.800000</hdop>
306 </trkpt>
307 <trkpt lat="-30.053620000" lon="-51.442360000">
308 <ele>46.100000</ele>
309 <time>2069-11-30T11:55:49.110Z</time>
310 <course>263.000000</course>
311 <speed>20.011889</speed>
312 <geoidheight>0.0</geoidheight>
313 <fix>3d</fix>
314 <sat>8</sat>
315 <hdop>0.800000</hdop>
316 </trkpt>
317 <trkpt lat="-30.053650000" lon="-51.442670000">
318 <ele>46.100000</ele>
319 <time>2069-11-30T11:55:51.533Z</time>
320 <course>264.000000</course>
321 <speed>20.834999</speed>
322 <geoidheight>0.0</geoidheight>
323 <fix>3d</fix>
324 <sat>8</sat>
325 <hdop>0.800000</hdop>
326 </trkpt>
327 <trkpt lat="-30.053680000" lon="-51.442990000">
328 <ele>46.100000</ele>
329 <time>2069-11-30T11:55:53.913Z</time>
330 <course>263.000000</course>
331 <speed>20.834999</speed>
332 <geoidheight>0.0</geoidheight>
333 <fix>3d</fix>
334 <sat>8</sat>
335 <hdop>0.800000</hdop>
336 </trkpt>
337 <trkpt lat="-30.053720000" lon="-51.443320000">
338 <ele>46.100000</ele>
339 <time>2069-11-30T11:55:56.376Z</time>
340 <course>263.000000</course>
341 <speed>21.966778</speed>
342 <geoidheight>0.0</geoidheight>
343 <fix>3d</fix>
344 <sat>8</sat>
345 <hdop>0.800000</hdop>
346 </trkpt>
347 <trkpt lat="-30.053750000" lon="-51.443660000">
348 <ele>46.100000</ele>
349 <time>2069-11-30T11:55:58.789Z</time>
350 <course>264.000000</course>
351 <speed>22.789888</speed>
352 <geoidheight>0.0</geoidheight>
353 <fix>3d</fix>
354 <sat>8</sat>
355 <hdop>0.800000</hdop>
356 </trkpt>
357 <trkpt lat="-30.053780000" lon="-51.444000000">
358 <ele>46.100000</ele>
359 <time>2069-11-30T11:56:01.098Z</time>
360 <course>263.000000</course>
361 <speed>22.789888</speed>
362 <geoidheight>0.0</geoidheight>
363 <fix>3d</fix>
364 <sat>8</sat>
365 <hdop>0.800000</hdop>
366 </trkpt>
367 <trkpt lat="-30.053820000" lon="-51.444350000">
368 <ele>46.100000</ele>
369 <time>2069-11-30T11:56:03.480Z</time>
370 <course>263.000000</course>
371 <speed>22.789888</speed>
372 <geoidheight>0.0</geoidheight>
373 <fix>3d</fix>
374 <sat>8</sat>
375 <hdop>0.800000</hdop>
376 </trkpt>
377 <trkpt lat="-30.053850000" lon="-51.444690000">
378 <ele>46.100000</ele>
379 <time>2069-11-30T11:56:05.789Z</time>
380 <course>264.000000</course>
381 <speed>22.789888</speed>
382 <geoidheight>0.0</geoidheight>
383 <fix>3d</fix>
384 <sat>8</sat>
385 <hdop>0.800000</hdop>
386 </trkpt>
387 <trkpt lat="-30.053880000" lon="-51.445030000">
388 <ele>46.100000</ele>
389 <time>2069-11-30T11:56:08.097Z</time>
390 <course>264.000000</course>
391 <speed>22.789888</speed>
392 <geoidheight>0.0</geoidheight>
393 <fix>3d</fix>
394 <sat>8</sat>
395 <hdop>0.800000</hdop>
396 </trkpt>
397 <trkpt lat="-30.053910000" lon="-51.445370000">
398 <ele>46.100000</ele>
399 <time>2069-11-30T11:56:10.406Z</time>
400 <course>263.000000</course>
401 <speed>22.789888</speed>
402 <geoidheight>0.0</geoidheight>
403 <fix>3d</fix>
404 <sat>8</sat>
405 <hdop>0.800000</hdop>
406 </trkpt>
407 <trkpt lat="-30.053950000" lon="-51.445710000">
408 <ele>46.100000</ele>
409 <time>2069-11-30T11:56:12.721Z</time>
410 <course>263.000000</course>
411 <speed>22.789888</speed>
412 <geoidheight>0.0</geoidheight>
413 <fix>3d</fix>
414 <sat>8</sat>
415 <hdop>0.800000</hdop>
416 </trkpt>
417 <trkpt lat="-30.053980000" lon="-51.446050000">
418 <ele>46.100000</ele>
419 <time>2069-11-30T11:56:15.029Z</time>
420 <course>264.000000</course>
421 <speed>22.789888</speed>
422 <geoidheight>0.0</geoidheight>
423 <fix>3d</fix>
424 <sat>8</sat>
425 <hdop>0.800000</hdop>
426 </trkpt>
427 <trkpt lat="-30.054010000" lon="-51.446390000">
428 <ele>46.100000</ele>
429 <time>2069-11-30T11:56:17.338Z</time>
430 <course>263.000000</course>
431 <speed>22.789888</speed>
432 <geoidheight>0.0</geoidheight>
433 <fix>3d</fix>
434 <sat>8</sat>
435 <hdop>0.800000</hdop>
436 </trkpt>
437 <trkpt lat="-30.054050000" lon="-51.446730000">
438 <ele>46.100000</ele>
439 <time>2069-11-30T11:56:19.653Z</time>
440 <course>263.000000</course>
441 <speed>22.789888</speed>
442 <geoidheight>0.0</geoidheight>
443 <fix>3d</fix>
444 <sat>8</sat>
445 <hdop>0.800000</hdop>
446 </trkpt>
447 <trkpt lat="-30.054080000" lon="-51.447070000">
448 <ele>46.100000</ele>
449 <time>2069-11-30T11:56:21.962Z</time>
450 <course>264.000000</course>
451 <speed>22.789888</speed>
452 <geoidheight>0.0</geoidheight>
453 <fix>3d</fix>
454 <sat>8</sat>
455 <hdop>0.800000</hdop>
456 </trkpt>
457 <trkpt lat="-30.054110000" lon="-51.447410000">
458 <ele>46.100000</ele>
459 <time>2069-11-30T11:56:24.270Z</time>
460 <course>263.000000</course>
461 <speed>22.789888</speed>
462 <geoidheight>0.0</geoidheight>
463 <fix>3d</fix>
464 <sat>8</sat>
465 <hdop>0.800000</hdop>
466 </trkpt>
467 <trkpt lat="-30.054150000" lon="-51.447750000">
468 <ele>46.100000</ele>
469 <time>2069-11-30T11:56:26.585Z</time>
470 <course>263.000000</course>
471 <speed>22.789888</speed>
472 <geoidheight>0.0</geoidheight>
473 <fix>3d</fix>
474 <sat>8</sat>
475 <hdop>0.800000</hdop>
476 </trkpt>
477 <trkpt lat="-30.054180000" lon="-51.448090000">
478 <ele>46.100000</ele>
479 <time>2069-11-30T11:56:28.894Z</time>
480 <course>264.000000</course>
481 <speed>22.789888</speed>
482 <geoidheight>0.0</geoidheight>
483 <fix>3d</fix>
484 <sat>8</sat>
485 <hdop>0.800000</hdop>
486 </trkpt>
487 <trkpt lat="-30.054210000" lon="-51.448430000">
488 <ele>46.100000</ele>
489 <time>2069-11-30T11:56:31.202Z</time>
490 <course>263.000000</course>
491 <speed>22.789888</speed>
492 <geoidheight>0.0</geoidheight>
493 <fix>3d</fix>
494 <sat>8</sat>
495 <hdop>0.800000</hdop>
496 </trkpt>
497 <trkpt lat="-30.054250000" lon="-51.448770000">
498 <ele>46.100000</ele>
499 <time>2069-11-30T11:56:33.518Z</time>
500 <course>263.000000</course>
501 <speed>22.789888</speed>
502 <geoidheight>0.0</geoidheight>
503 <fix>3d</fix>
504 <sat>8</sat>
505 <hdop>0.800000</hdop>
506 </trkpt>
507 <trkpt lat="-30.054280000" lon="-51.449110000">
508 <ele>46.100000</ele>
509 <time>2069-11-30T11:56:35.826Z</time>
510 <course>264.000000</course>
511 <speed>22.789888</speed>
512 <geoidheight>0.0</geoidheight>
513 <fix>3d</fix>
514 <sat>8</sat>
515 <hdop>0.800000</hdop>
516 </trkpt>
517 <trkpt lat="-30.054310000" lon="-51.449450000">
518 <ele>46.100000</ele>
519 <time>2069-11-30T11:56:38.135Z</time>
520 <course>265.000000</course>
521 <speed>22.789888</speed>
522 <geoidheight>0.0</geoidheight>
523 <fix>3d</fix>
524 <sat>8</sat>
525 <hdop>0.800000</hdop>
526 </trkpt>
527 <trkpt lat="-30.054330000" lon="-51.449790000">
528 <ele>46.100000</ele>
529 <time>2069-11-30T11:56:40.438Z</time>
530 <course>265.000000</course>
531 <speed>22.789888</speed>
532 <geoidheight>0.0</geoidheight>
533 <fix>3d</fix>
534 <sat>8</sat>
535 <hdop>0.800000</hdop>
536 </trkpt>
537 <trkpt lat="-30.054360000" lon="-51.450130000">
538 <ele>46.100000</ele>
539 <time>2069-11-30T11:56:42.747Z</time>
540 <course>265.000000</course>
541 <speed>22.789888</speed>
542 <geoidheight>0.0</geoidheight>
543 <fix>3d</fix>
544 <sat>8</sat>
545 <hdop>0.800000</hdop>
546 </trkpt>
547 <trkpt lat="-30.054380000" lon="-51.450480000">
548 <ele>46.100000</ele>
549 <time>2069-11-30T11:56:45.118Z</time>
550 <course>265.000000</course>
551 <speed>22.789888</speed>
552 <geoidheight>0.0</geoidheight>
553 <fix>3d</fix>
554 <sat>8</sat>
555 <hdop>0.800000</hdop>
556 </trkpt>
557 <trkpt lat="-30.054410000" lon="-51.450820000">
558 <ele>46.100000</ele>
559 <time>2069-11-30T11:56:47.426Z</time>
560 <course>265.000000</course>
561 <speed>22.789888</speed>
562 <geoidheight>0.0</geoidheight>
563 <fix>3d</fix>
564 <sat>8</sat>
565 <hdop>0.800000</hdop>
566 </trkpt>
567 <trkpt lat="-30.054430000" lon="-51.451160000">
568 <ele>46.100000</ele>
569 <time>2069-11-30T11:56:49.730Z</time>
570 <course>265.000000</course>
571 <speed>22.789888</speed>
572 <geoidheight>0.0</geoidheight>
573 <fix>3d</fix>
574 <sat>8</sat>
575 <hdop>0.800000</hdop>
576 </trkpt>
577 <trkpt lat="-30.054460000" lon="-51.451500000">
578 <ele>46.100000</ele>
579 <time>2069-11-30T11:56:52.038Z</time>
580 <course>265.000000</course>
581 <speed>22.789888</speed>
582 <geoidheight>0.0</geoidheight>
583 <fix>3d</fix>
584 <sat>8</sat>
585 <hdop>0.800000</hdop>
586 </trkpt>
587 <trkpt lat="-30.054480000" lon="-51.451840000">
588 <ele>46.100000</ele>
589 <time>2069-11-30T11:56:54.342Z</time>
590 <course>265.000000</course>
591 <speed>22.789888</speed>
592 <geoidheight>0.0</geoidheight>
593 <fix>3d</fix>
594 <sat>8</sat>
595 <hdop>0.800000</hdop>
596 </trkpt>
597 <trkpt lat="-30.054510000" lon="-51.452180000">
598 <ele>46.100000</ele>
599 <time>2069-11-30T11:56:56.650Z</time>
600 <course>265.000000</course>
601 <speed>22.789888</speed>
602 <geoidheight>0.0</geoidheight>
603 <fix>3d</fix>
604 <sat>8</sat>
605 <hdop>0.800000</hdop>
606 </trkpt>
607 <trkpt lat="-30.054530000" lon="-51.452520000">
608 <ele>46.100000</ele>
609 <time>2069-11-30T11:56:58.953Z</time>
610 <course>265.000000</course>
611 <speed>22.789888</speed>
612 <geoidheight>0.0</geoidheight>
613 <fix>3d</fix>
614 <sat>8</sat>
615 <hdop>0.800000</hdop>
616 </trkpt>
617 <trkpt lat="-30.054560000" lon="-51.452860000">
618 <ele>46.100000</ele>
619 <time>2069-11-30T11:57:01.262Z</time>
620 <course>265.000000</course>
621 <speed>22.789888</speed>
622 <geoidheight>0.0</geoidheight>
623 <fix>3d</fix>
624 <sat>8</sat>
625 <hdop>0.800000</hdop>
626 </trkpt>
627 <trkpt lat="-30.054580000" lon="-51.453210000">
628 <ele>46.100000</ele>
629 <time>2069-11-30T11:57:03.633Z</time>
630 <course>265.000000</course>
631 <speed>22.789888</speed>
632 <geoidheight>0.0</geoidheight>
633 <fix>3d</fix>
634 <sat>8</sat>
635 <hdop>0.800000</hdop>
636 </trkpt>
637 <trkpt lat="-30.054610000" lon="-51.453550000">
638 <ele>46.100000</ele>
639 <time>2069-11-30T11:57:05.941Z</time>
640 <course>265.000000</course>
641 <speed>22.789888</speed>
642 <geoidheight>0.0</geoidheight>
643 <fix>3d</fix>
644 <sat>8</sat>
645 <hdop>0.800000</hdop>
646 </trkpt>
647 <trkpt lat="-30.054630000" lon="-51.453890000">
648 <ele>46.100000</ele>
649 <time>2069-11-30T11:57:08.245Z</time>
650 <course>266.000000</course>
651 <speed>22.789888</speed>
652 <geoidheight>0.0</geoidheight>
653 <fix>3d</fix>
654 <sat>8</sat>
655 <hdop>0.800000</hdop>
656 </trkpt>
657 <trkpt lat="-30.054650000" lon="-51.454230000">
658 <ele>46.100000</ele>
659 <time>2069-11-30T11:57:10.548Z</time>
660 <course>265.000000</course>
661 <speed>22.789888</speed>
662 <geoidheight>0.0</geoidheight>
663 <fix>3d</fix>
664 <sat>8</sat>
665 <hdop>0.800000</hdop>
666 </trkpt>
667 <trkpt lat="-30.054680000" lon="-51.454570000">
668 <ele>46.100000</ele>
669 <time>2069-11-30T11:57:12.857Z</time>
670 <course>265.000000</course>
671 <speed>22.789888</speed>
672 <geoidheight>0.0</geoidheight>
673 <fix>3d</fix>
674 <sat>8</sat>
675 <hdop>0.800000</hdop>
676 </trkpt>
677 <trkpt lat="-30.054700000" lon="-51.454910000">
678 <ele>46.100000</ele>
679 <time>2069-11-30T11:57:15.160Z</time>
680 <course>265.000000</course>
681 <speed>22.789888</speed>
682 <geoidheight>0.0</geoidheight>
683 <fix>3d</fix>
684 <sat>8</sat>
685 <hdop>0.800000</hdop>
686 </trkpt>
687 <trkpt lat="-30.054730000" lon="-51.455250000">
688 <ele>46.100000</ele>
689 <time>2069-11-30T11:57:17.469Z</time>
690 <course>265.000000</course>
691 <speed>22.789888</speed>
692 <geoidheight>0.0</geoidheight>
693 <fix>3d</fix>
694 <sat>8</sat>
695 <hdop>0.800000</hdop>
696 </trkpt>
697 <trkpt lat="-30.054750000" lon="-51.455600000">
698 <ele>46.100000</ele>
699 <time>2069-11-30T11:57:19.840Z</time>
700 <course>265.000000</course>
701 <speed>22.789888</speed>
702 <geoidheight>0.0</geoidheight>
703 <fix>3d</fix>
704 <sat>8</sat>
705 <hdop>0.800000</hdop>
706 </trkpt>
707 <trkpt lat="-30.054780000" lon="-51.455940000">
708 <ele>46.100000</ele>
709 <time>2069-11-30T11:57:22.148Z</time>
710 <course>265.000000</course>
711 <speed>22.789888</speed>
712 <geoidheight>0.0</geoidheight>
713 <fix>3d</fix>
714 <sat>8</sat>
715 <hdop>0.800000</hdop>
716 </trkpt>
717 <trkpt lat="-30.054800000" lon="-51.456280000">
718 <ele>46.100000</ele>
719 <time>2069-11-30T11:57:24.452Z</time>
720 <course>265.000000</course>
721 <speed>22.789888</speed>
722 <geoidheight>0.0</geoidheight>
723 <fix>3d</fix>
724 <sat>8</sat>
725 <hdop>0.800000</hdop>
726 </trkpt>
727 <trkpt lat="-30.054830000" lon="-51.456620000">
728 <ele>46.100000</ele>
729 <time>2069-11-30T11:57:26.760Z</time>
730 <course>265.000000</course>
731 <speed>22.789888</speed>
732 <geoidheight>0.0</geoidheight>
733 <fix>3d</fix>
734 <sat>8</sat>
735 <hdop>0.800000</hdop>
736 </trkpt>
737 <trkpt lat="-30.054850000" lon="-51.456960000">
738 <ele>46.100000</ele>
739 <time>2069-11-30T11:57:29.064Z</time>
740 <course>265.000000</course>
741 <speed>22.789888</speed>
742 <geoidheight>0.0</geoidheight>
743 <fix>3d</fix>
744 <sat>8</sat>
745 <hdop>0.800000</hdop>
746 </trkpt>
747 <trkpt lat="-30.054880000" lon="-51.457300000">
748 <ele>46.100000</ele>
749 <time>2069-11-30T11:57:31.372Z</time>
750 <course>265.000000</course>
751 <speed>22.789888</speed>
752 <geoidheight>0.0</geoidheight>
753 <fix>3d</fix>
754 <sat>8</sat>
755 <hdop>0.800000</hdop>
756 </trkpt>
757 <trkpt lat="-30.054900000" lon="-51.457640000">
758 <ele>46.100000</ele>
759 <time>2069-11-30T11:57:33.676Z</time>
760 <course>266.000000</course>
761 <speed>22.789888</speed>
762 <geoidheight>0.0</geoidheight>
763 <fix>3d</fix>
764 <sat>8</sat>
765 <hdop>0.800000</hdop>
766 </trkpt>
767 <trkpt lat="-30.054920000" lon="-51.457990000">
768 <ele>46.100000</ele>
769 <time>2069-11-30T11:57:36.047Z</time>
770 <course>265.000000</course>
771 <speed>22.789888</speed>
772 <geoidheight>0.0</geoidheight>
773 <fix>3d</fix>
774 <sat>8</sat>
775 <hdop>0.800000</hdop>
776 </trkpt>
777 <trkpt lat="-30.054950000" lon="-51.458330000">
778 <ele>46.100000</ele>
779 <time>2069-11-30T11:57:38.355Z</time>
780 <course>265.000000</course>
781 <speed>22.789888</speed>
782 <geoidheight>0.0</geoidheight>
783 <fix>3d</fix>
784 <sat>8</sat>
785 <hdop>0.800000</hdop>
786 </trkpt>
787 <trkpt lat="-30.054970000" lon="-51.458670000">
788 <ele>46.100000</ele>
789 <time>2069-11-30T11:57:40.659Z</time>
790 <course>266.000000</course>
791 <speed>22.789888</speed>
792 <geoidheight>0.0</geoidheight>
793 <fix>3d</fix>
794 <sat>8</sat>
795 <hdop>0.800000</hdop>
796 </trkpt>
797 <trkpt lat="-30.054990000" lon="-51.459010000">
798 <ele>46.100000</ele>
799 <time>2069-11-30T11:57:42.962Z</time>
800 <course>266.000000</course>
801 <speed>22.789888</speed>
802 <geoidheight>0.0</geoidheight>
803 <fix>3d</fix>
804 <sat>8</sat>
805 <hdop>0.800000</hdop>
806 </trkpt>
807 <trkpt lat="-30.055010000" lon="-51.459350000">
808 <ele>46.100000</ele>
809 <time>2069-11-30T11:57:45.266Z</time>
810 <course>266.000000</course>
811 <speed>22.789888</speed>
812 <geoidheight>0.0</geoidheight>
813 <fix>3d</fix>
814 <sat>8</sat>
815 <hdop>0.800000</hdop>
816 </trkpt>
817 <trkpt lat="-30.055030000" lon="-51.459700000">
818 <ele>46.100000</ele>
819 <time>2069-11-30T11:57:47.637Z</time>
820 <course>266.000000</course>
821 <speed>22.789888</speed>
822 <geoidheight>0.0</geoidheight>
823 <fix>3d</fix>
824 <sat>8</sat>
825 <hdop>0.800000</hdop>
826 </trkpt>
827 <trkpt lat="-30.055050000" lon="-51.460040000">
828 <ele>46.100000</ele>
829 <time>2069-11-30T11:57:49.940Z</time>
830 <course>266.000000</course>
831 <speed>22.789888</speed>
832 <geoidheight>0.0</geoidheight>
833 <fix>3d</fix>
834 <sat>8</sat>
835 <hdop>0.800000</hdop>
836 </trkpt>
837 <trkpt lat="-30.055070000" lon="-51.460380000">
838 <ele>46.100000</ele>
839 <time>2069-11-30T11:57:52.244Z</time>
840 <course>266.000000</course>
841 <speed>22.789888</speed>
842 <geoidheight>0.0</geoidheight>
843 <fix>3d</fix>
844 <sat>8</sat>
845 <hdop>0.800000</hdop>
846 </trkpt>
847 <trkpt lat="-30.055090000" lon="-51.460720000">
848 <ele>46.100000</ele>
849 <time>2069-11-30T11:57:54.547Z</time>
850 <course>266.000000</course>
851 <speed>22.789888</speed>
852 <geoidheight>0.0</geoidheight>
853 <fix>3d</fix>
854 <sat>8</sat>
855 <hdop>0.800000</hdop>
856 </trkpt>
857 <trkpt lat="-30.055110000" lon="-51.461060000">
858 <ele>46.100000</ele>
859 <time>2069-11-30T11:57:56.850Z</time>
860 <course>265.000000</course>
861 <speed>22.789888</speed>
862 <geoidheight>0.0</geoidheight>
863 <fix>3d</fix>
864 <sat>8</sat>
865 <hdop>0.800000</hdop>
866 </trkpt>
867 <trkpt lat="-30.055140000" lon="-51.461410000">
868 <ele>46.100000</ele>
869 <time>2069-11-30T11:57:59.226Z</time>
870 <course>265.000000</course>
871 <speed>22.789888</speed>
872 <geoidheight>0.0</geoidheight>
873 <fix>3d</fix>
874 <sat>8</sat>
875 <hdop>0.800000</hdop>
876 </trkpt>
877 <trkpt lat="-30.055160000" lon="-51.461750000">
878 <ele>46.100000</ele>
879 <time>2069-11-30T11:58:01.530Z</time>
880 <course>266.000000</course>
881 <speed>22.789888</speed>
882 <geoidheight>0.0</geoidheight>
883 <fix>3d</fix>
884 <sat>8</sat>
885 <hdop>0.800000</hdop>
886 </trkpt>
887 <trkpt lat="-30.055180000" lon="-51.462090000">
888 <ele>46.100000</ele>
889 <time>2069-11-30T11:58:03.833Z</time>
890 <course>266.000000</course>
891 <speed>22.789888</speed>
892 <geoidheight>0.0</geoidheight>
893 <fix>3d</fix>
894 <sat>8</sat>
895 <hdop>0.800000</hdop>
896 </trkpt>
897 <trkpt lat="-30.055200000" lon="-51.462430000">
898 <ele>46.100000</ele>
899 <time>2069-11-30T11:58:06.137Z</time>
900 <course>266.000000</course>
901 <speed>22.789888</speed>
902 <geoidheight>0.0</geoidheight>
903 <fix>3d</fix>
904 <sat>8</sat>
905 <hdop>0.800000</hdop>
906 </trkpt>
907 <trkpt lat="-30.055220000" lon="-51.462770000">
908 <ele>46.100000</ele>
909 <time>2069-11-30T11:58:08.440Z</time>
910 <course>266.000000</course>
911 <speed>22.789888</speed>
912 <geoidheight>0.0</geoidheight>
913 <fix>3d</fix>
914 <sat>8</sat>
915 <hdop>0.800000</hdop>
916 </trkpt>
917 <trkpt lat="-30.055240000" lon="-51.463120000">
918 <ele>46.100000</ele>
919 <time>2069-11-30T11:58:10.811Z</time>
920 <course>266.000000</course>
921 <speed>22.789888</speed>
922 <geoidheight>0.0</geoidheight>
923 <fix>3d</fix>
924 <sat>8</sat>
925 <hdop>0.800000</hdop>
926 </trkpt>
927 <trkpt lat="-30.055260000" lon="-51.463460000">
928 <ele>46.100000</ele>
929 <time>2069-11-30T11:58:13.115Z</time>
930 <course>266.000000</course>
931 <speed>22.789888</speed>
932 <geoidheight>0.0</geoidheight>
933 <fix>3d</fix>
934 <sat>8</sat>
935 <hdop>0.800000</hdop>
936 </trkpt>
937 <trkpt lat="-30.055280000" lon="-51.463800000">
938 <ele>46.100000</ele>
939 <time>2069-11-30T11:58:15.418Z</time>
940 <course>266.000000</course>
941 <speed>22.789888</speed>
942 <geoidheight>0.0</geoidheight>
943 <fix>3d</fix>
944 <sat>8</sat>
945 <hdop>0.800000</hdop>
946 </trkpt>
947 <trkpt lat="-30.055300000" lon="-51.464140000">
948 <ele>46.100000</ele>
949 <time>2069-11-30T11:58:17.722Z</time>
950 <course>265.000000</course>
951 <speed>22.789888</speed>
952 <geoidheight>0.0</geoidheight>
953 <fix>3d</fix>
954 <sat>8</sat>
955 <hdop>0.800000</hdop>
956 </trkpt>
957 <trkpt lat="-30.055330000" lon="-51.464490000">
958 <ele>46.100000</ele>
959 <time>2069-11-30T11:58:20.098Z</time>
960 <course>265.000000</course>
961 <speed>22.789888</speed>
962 <geoidheight>0.0</geoidheight>
963 <fix>3d</fix>
964 <sat>8</sat>
965 <hdop>0.800000</hdop>
966 </trkpt>
967 <trkpt lat="-30.055350000" lon="-51.464830000">
968 <ele>46.100000</ele>
969 <time>2069-11-30T11:58:22.401Z</time>
970 <course>266.000000</course>
971 <speed>22.789888</speed>
972 <geoidheight>0.0</geoidheight>
973 <fix>3d</fix>
974 <sat>8</sat>
975 <hdop>0.800000</hdop>
976 </trkpt>
977 <trkpt lat="-30.055370000" lon="-51.465170000">
978 <ele>46.100000</ele>
979 <time>2069-11-30T11:58:24.705Z</time>
980 <course>266.000000</course>
981 <speed>22.789888</speed>
982 <geoidheight>0.0</geoidheight>
983 <fix>3d</fix>
984 <sat>8</sat>
985 <hdop>0.800000</hdop>
986 </trkpt>
987 <trkpt lat="-30.055390000" lon="-51.465510000">
988 <ele>46.100000</ele>
989 <time>2069-11-30T11:58:27.008Z</time>
990 <course>266.000000</course>
991 <speed>22.789888</speed>
992 <geoidheight>0.0</geoidheight>
993 <fix>3d</fix>
994 <sat>8</sat>
995 <hdop>0.800000</hdop>
996 </trkpt>
997 <trkpt lat="-30.055410000" lon="-51.465850000">
998 <ele>46.100000</ele>
999 <time>2069-11-30T11:58:29.312Z</time>
1000 <course>266.000000</course>
1001 <speed>22.789888</speed>
1002 <geoidheight>0.0</geoidheight>
1003 <fix>3d</fix>
1004 <sat>8</sat>
1005 <hdop>0.800000</hdop>
1006 </trkpt>
1007 <trkpt lat="-30.055430000" lon="-51.466200000">
1008 <ele>46.100000</ele>
1009 <time>2069-11-30T11:58:31.683Z</time>
1010 <course>265.000000</course>
1011 <speed>22.789888</speed>
1012 <geoidheight>0.0</geoidheight>
1013 <fix>3d</fix>
1014 <sat>8</sat>
1015 <hdop>0.800000</hdop>
1016 </trkpt>
1017 <trkpt lat="-30.055460000" lon="-51.466540000">
1018 <ele>46.100000</ele>
1019 <time>2069-11-30T11:58:33.991Z</time>
1020 <course>265.000000</course>
1021 <speed>22.789888</speed>
1022 <geoidheight>0.0</geoidheight>
1023 <fix>3d</fix>
1024 <sat>8</sat>
1025 <hdop>0.800000</hdop>
1026 </trkpt>
1027 <trkpt lat="-30.055480000" lon="-51.466880000">
1028 <ele>46.100000</ele>
1029 <time>2069-11-30T11:58:36.295Z</time>
1030 <course>266.000000</course>
1031 <speed>22.789888</speed>
1032 <geoidheight>0.0</geoidheight>
1033 <fix>3d</fix>
1034 <sat>8</sat>
1035 <hdop>0.800000</hdop>
1036 </trkpt>
1037 <trkpt lat="-30.055500000" lon="-51.467220000">
1038 <ele>46.100000</ele>
1039 <time>2069-11-30T11:58:38.598Z</time>
1040 <course>265.000000</course>
1041 <speed>22.789888</speed>
1042 <geoidheight>0.0</geoidheight>
1043 <fix>3d</fix>
1044 <sat>8</sat>
1045 <hdop>0.800000</hdop>
1046 </trkpt>
1047 <trkpt lat="-30.055530000" lon="-51.467560000">
1048 <ele>46.100000</ele>
1049 <time>2069-11-30T11:58:40.906Z</time>
1050 <course>265.000000</course>
1051 <speed>22.789888</speed>
1052 <geoidheight>0.0</geoidheight>
1053 <fix>3d</fix>
1054 <sat>8</sat>
1055 <hdop>0.800000</hdop>
1056 </trkpt>
1057 <trkpt lat="-30.055550000" lon="-51.467900000">
1058 <ele>46.100000</ele>
1059 <time>2069-11-30T11:58:43.210Z</time>
1060 <course>266.000000</course>
1061 <speed>22.789888</speed>
1062 <geoidheight>0.0</geoidheight>
1063 <fix>3d</fix>
1064 <sat>8</sat>
1065 <hdop>0.800000</hdop>
1066 </trkpt>
1067 <trkpt lat="-30.055570000" lon="-51.468250000">
1068 <ele>46.100000</ele>
1069 <time>2069-11-30T11:58:45.581Z</time>
1070 <course>266.000000</course>
1071 <speed>22.789888</speed>
1072 <geoidheight>0.0</geoidheight>
1073 <fix>3d</fix>
1074 <sat>8</sat>
1075 <hdop>0.800000</hdop>
1076 </trkpt>
1077 <trkpt lat="-30.055590000" lon="-51.468590000">
1078 <ele>46.100000</ele>
1079 <time>2069-11-30T11:58:47.884Z</time>
1080 <course>265.000000</course>
1081 <speed>22.789888</speed>
1082 <geoidheight>0.0</geoidheight>
1083 <fix>3d</fix>
1084 <sat>8</sat>
1085 <hdop>0.800000</hdop>
1086 </trkpt>
1087 <trkpt lat="-30.055620000" lon="-51.468930000">
1088 <ele>46.100000</ele>
1089 <time>2069-11-30T11:58:50.193Z</time>
1090 <course>265.000000</course>
1091 <speed>22.789888</speed>
1092 <geoidheight>0.0</geoidheight>
1093 <fix>3d</fix>
1094 <sat>8</sat>
1095 <hdop>0.800000</hdop>
1096 </trkpt>
1097 <trkpt lat="-30.055640000" lon="-51.469270000">
1098 <ele>46.100000</ele>
1099 <time>2069-11-30T11:58:52.496Z</time>
1100 <course>266.000000</course>
1101 <speed>22.789888</speed>
1102 <geoidheight>0.0</geoidheight>
1103 <fix>3d</fix>
1104 <sat>8</sat>
1105 <hdop>0.800000</hdop>
1106 </trkpt>
1107 <trkpt lat="-30.055660000" lon="-51.469610000">
1108 <ele>46.100000</ele>
1109 <time>2069-11-30T11:58:54.800Z</time>
1110 <course>265.000000</course>
1111 <speed>22.789888</speed>
1112 <geoidheight>0.0</geoidheight>
1113 <fix>3d</fix>
1114 <sat>8</sat>
1115 <hdop>0.800000</hdop>
1116 </trkpt>
1117 <trkpt lat="-30.055690000" lon="-51.469960000">
1118 <ele>46.100000</ele>
1119 <time>2069-11-30T11:58:57.176Z</time>
1120 <course>265.000000</course>
1121 <speed>22.789888</speed>
1122 <geoidheight>0.0</geoidheight>
1123 <fix>3d</fix>
1124 <sat>8</sat>
1125 <hdop>0.800000</hdop>
1126 </trkpt>
1127 <trkpt lat="-30.055710000" lon="-51.470300000">
1128 <ele>46.100000</ele>
1129 <time>2069-11-30T11:58:59.479Z</time>
1130 <course>266.000000</course>
1131 <speed>22.789888</speed>
1132 <geoidheight>0.0</geoidheight>
1133 <fix>3d</fix>
1134 <sat>8</sat>
1135 <hdop>0.800000</hdop>
1136 </trkpt>
1137 <trkpt lat="-30.055730000" lon="-51.470640000">
1138 <ele>46.100000</ele>
1139 <time>2069-11-30T11:59:01.783Z</time>
1140 <course>265.000000</course>
1141 <speed>22.789888</speed>
1142 <geoidheight>0.0</geoidheight>
1143 <fix>3d</fix>
1144 <sat>8</sat>
1145 <hdop>0.800000</hdop>
1146 </trkpt>
1147 <trkpt lat="-30.055760000" lon="-51.470980000">
1148 <ele>46.100000</ele>
1149 <time>2069-11-30T11:59:04.091Z</time>
1150 <course>265.000000</course>
1151 <speed>22.789888</speed>
1152 <geoidheight>0.0</geoidheight>
1153 <fix>3d</fix>
1154 <sat>8</sat>
1155 <hdop>0.800000</hdop>
1156 </trkpt>
1157 <trkpt lat="-30.055780000" lon="-51.471320000">
1158 <ele>46.100000</ele>
1159 <time>2069-11-30T11:59:06.395Z</time>
1160 <course>266.000000</course>
1161 <speed>22.789888</speed>
1162 <geoidheight>0.0</geoidheight>
1163 <fix>3d</fix>
1164 <sat>8</sat>
1165 <hdop>0.800000</hdop>
1166 </trkpt>
1167 <trkpt lat="-30.055800000" lon="-51.471670000">
1168 <ele>46.100000</ele>
1169 <time>2069-11-30T11:59:08.766Z</time>
1170 <course>266.000000</course>
1171 <speed>22.789888</speed>
1172 <geoidheight>0.0</geoidheight>
1173 <fix>3d</fix>
1174 <sat>8</sat>
1175 <hdop>0.800000</hdop>
1176 </trkpt>
1177 <trkpt lat="-30.055820000" lon="-51.472010000">
1178 <ele>46.100000</ele>
1179 <time>2069-11-30T11:59:11.069Z</time>
1180 <course>265.000000</course>
1181 <speed>22.789888</speed>
1182 <geoidheight>0.0</geoidheight>
1183 <fix>3d</fix>
1184 <sat>8</sat>
1185 <hdop>0.800000</hdop>
1186 </trkpt>
1187 <trkpt lat="-30.055850000" lon="-51.472350000">
1188 <ele>46.100000</ele>
1189 <time>2069-11-30T11:59:13.378Z</time>
1190 <course>265.000000</course>
1191 <speed>22.789888</speed>
1192 <geoidheight>0.0</geoidheight>
1193 <fix>3d</fix>
1194 <sat>8</sat>
1195 <hdop>0.800000</hdop>
1196 </trkpt>
1197 <trkpt lat="-30.055870000" lon="-51.472690000">
1198 <ele>46.100000</ele>
1199 <time>2069-11-30T11:59:15.681Z</time>
1200 <course>266.000000</course>
1201 <speed>22.789888</speed>
1202 <geoidheight>0.0</geoidheight>
1203 <fix>3d</fix>
1204 <sat>8</sat>
1205 <hdop>0.800000</hdop>
1206 </trkpt>
1207 <trkpt lat="-30.055890000" lon="-51.473030000">
1208 <ele>46.100000</ele>
1209 <time>2069-11-30T11:59:17.985Z</time>
1210 <course>265.000000</course>
1211 <speed>22.789888</speed>
1212 <geoidheight>0.0</geoidheight>
1213 <fix>3d</fix>
1214 <sat>8</sat>
1215 <hdop>0.800000</hdop>
1216 </trkpt>
1217 <trkpt lat="-30.055920000" lon="-51.473380000">
1218 <ele>46.100000</ele>
1219 <time>2069-11-30T11:59:20.360Z</time>
1220 <course>265.000000</course>
1221 <speed>22.789888</speed>
1222 <geoidheight>0.0</geoidheight>
1223 <fix>3d</fix>
1224 <sat>8</sat>
1225 <hdop>0.800000</hdop>
1226 </trkpt>
1227 <trkpt lat="-30.055940000" lon="-51.473720000">
1228 <ele>46.100000</ele>
1229 <time>2069-11-30T11:59:22.664Z</time>
1230 <course>266.000000</course>
1231 <speed>22.789888</speed>
1232 <geoidheight>0.0</geoidheight>
1233 <fix>3d</fix>
1234 <sat>8</sat>
1235 <hdop>0.800000</hdop>
1236 </trkpt>
1237 <trkpt lat="-30.055960000" lon="-51.474060000">
1238 <ele>46.100000</ele>
1239 <time>2069-11-30T11:59:24.967Z</time>
1240 <course>266.000000</course>
1241 <speed>22.789888</speed>
1242 <geoidheight>0.0</geoidheight>
1243 <fix>3d</fix>
1244 <sat>8</sat>
1245 <hdop>0.800000</hdop>
1246 </trkpt>
1247 <trkpt lat="-30.055980000" lon="-51.474400000">
1248 <ele>46.100000</ele>
1249 <time>2069-11-30T11:59:27.271Z</time>
1250 <course>265.000000</course>
1251 <speed>22.789888</speed>
1252 <geoidheight>0.0</geoidheight>
1253 <fix>3d</fix>
1254 <sat>8</sat>
1255 <hdop>0.800000</hdop>
1256 </trkpt>
1257 <trkpt lat="-30.056010000" lon="-51.474740000">
1258 <ele>46.100000</ele>
1259 <time>2069-11-30T11:59:29.579Z</time>
1260 <course>265.000000</course>
1261 <speed>22.789888</speed>
1262 <geoidheight>0.0</geoidheight>
1263 <fix>3d</fix>
1264 <sat>8</sat>
1265 <hdop>0.800000</hdop>
1266 </trkpt>
1267 <trkpt lat="-30.056030000" lon="-51.475080000">
1268 <ele>46.100000</ele>
1269 <time>2069-11-30T11:59:31.883Z</time>
1270 <course>266.000000</course>
1271 <speed>22.789888</speed>
1272 <geoidheight>0.0</geoidheight>
1273 <fix>3d</fix>
1274 <sat>8</sat>
1275 <hdop>0.800000</hdop>
1276 </trkpt>
1277 <trkpt lat="-30.056050000" lon="-51.475430000">
1278 <ele>46.100000</ele>
1279 <time>2069-11-30T11:59:34.254Z</time>
1280 <course>265.000000</course>
1281 <speed>22.789888</speed>
1282 <geoidheight>0.0</geoidheight>
1283 <fix>3d</fix>
1284 <sat>8</sat>
1285 <hdop>0.800000</hdop>
1286 </trkpt>
1287 <trkpt lat="-30.056080000" lon="-51.475770000">
1288 <ele>46.100000</ele>
1289 <time>2069-11-30T11:59:36.562Z</time>
1290 <course>265.000000</course>
1291 <speed>22.789888</speed>
1292 <geoidheight>0.0</geoidheight>
1293 <fix>3d</fix>
1294 <sat>8</sat>
1295 <hdop>0.800000</hdop>
1296 </trkpt>
1297 <trkpt lat="-30.056100000" lon="-51.476110000">
1298 <ele>46.100000</ele>
1299 <time>2069-11-30T11:59:38.866Z</time>
1300 <course>266.000000</course>
1301 <speed>22.789888</speed>
1302 <geoidheight>0.0</geoidheight>
1303 <fix>3d</fix>
1304 <sat>8</sat>
1305 <hdop>0.800000</hdop>
1306 </trkpt>
1307 <trkpt lat="-30.056120000" lon="-51.476450000">
1308 <ele>46.100000</ele>
1309 <time>2069-11-30T11:59:41.169Z</time>
1310 <course>265.000000</course>
1311 <speed>22.789888</speed>
1312 <geoidheight>0.0</geoidheight>
1313 <fix>3d</fix>
1314 <sat>8</sat>
1315 <hdop>0.800000</hdop>
1316 </trkpt>
1317 <trkpt lat="-30.056150000" lon="-51.476790000">
1318 <ele>46.100000</ele>
1319 <time>2069-11-30T11:59:43.478Z</time>
1320 <course>265.000000</course>
1321 <speed>22.789888</speed>
1322 <geoidheight>0.0</geoidheight>
1323 <fix>3d</fix>
1324 <sat>8</sat>
1325 <hdop>0.800000</hdop>
1326 </trkpt>
1327 <trkpt lat="-30.056170000" lon="-51.477140000">
1328 <ele>46.100000</ele>
1329 <time>2069-11-30T11:59:45.849Z</time>
1330 <course>266.000000</course>
1331 <speed>22.789888</speed>
1332 <geoidheight>0.0</geoidheight>
1333 <fix>3d</fix>
1334 <sat>8</sat>
1335 <hdop>0.800000</hdop>
1336 </trkpt>
1337 <trkpt lat="-30.056190000" lon="-51.477480000">
1338 <ele>46.100000</ele>
1339 <time>2069-11-30T11:59:48.152Z</time>
1340 <course>266.000000</course>
1341 <speed>22.789888</speed>
1342 <geoidheight>0.0</geoidheight>
1343 <fix>3d</fix>
1344 <sat>8</sat>
1345 <hdop>0.800000</hdop>
1346 </trkpt>
1347 <trkpt lat="-30.056210000" lon="-51.477820000">
1348 <ele>46.100000</ele>
1349 <time>2069-11-30T11:59:50.456Z</time>
1350 <course>265.000000</course>
1351 <speed>22.789888</speed>
1352 <geoidheight>0.0</geoidheight>
1353 <fix>3d</fix>
1354 <sat>8</sat>
1355 <hdop>0.800000</hdop>
1356 </trkpt>
1357 <trkpt lat="-30.056240000" lon="-51.478160000">
1358 <ele>46.100000</ele>
1359 <time>2069-11-30T11:59:52.764Z</time>
1360 <course>265.000000</course>
1361 <speed>22.789888</speed>
1362 <geoidheight>0.0</geoidheight>
1363 <fix>3d</fix>
1364 <sat>8</sat>
1365 <hdop>0.800000</hdop>
1366 </trkpt>
1367 <trkpt lat="-30.056260000" lon="-51.478500000">
1368 <ele>46.100000</ele>
1369 <time>2069-11-30T11:59:55.068Z</time>
1370 <course>266.000000</course>
1371 <speed>22.789888</speed>
1372 <geoidheight>0.0</geoidheight>
1373 <fix>3d</fix>
1374 <sat>8</sat>
1375 <hdop>0.800000</hdop>
1376 </trkpt>
1377 <trkpt lat="-30.056280000" lon="-51.478850000">
1378 <ele>46.100000</ele>
1379 <time>2069-11-30T11:59:57.439Z</time>
1380 <course>265.000000</course>
1381 <speed>22.789888</speed>
1382 <geoidheight>0.0</geoidheight>
1383 <fix>3d</fix>
1384 <sat>8</sat>
1385 <hdop>0.800000</hdop>
1386 </trkpt>
1387 <trkpt lat="-30.056310000" lon="-51.479190000">
1388 <ele>46.100000</ele>
1389 <time>2069-11-30T11:59:59.747Z</time>
1390 <course>265.000000</course>
1391 <speed>22.789888</speed>
1392 <geoidheight>0.0</geoidheight>
1393 <fix>3d</fix>
1394 <sat>8</sat>
1395 <hdop>0.800000</hdop>
1396 </trkpt>
1397 <trkpt lat="-30.056330000" lon="-51.479530000">
1398 <ele>46.100000</ele>
1399 <time>2069-11-30T12:00:02.051Z</time>
1400 <course>266.000000</course>
1401 <speed>22.789888</speed>
1402 <geoidheight>0.0</geoidheight>
1403 <fix>3d</fix>
1404 <sat>8</sat>
1405 <hdop>0.800000</hdop>
1406 </trkpt>
1407 <trkpt lat="-30.056350000" lon="-51.479870000">
1408 <ele>46.100000</ele>
1409 <time>2069-11-30T12:00:04.354Z</time>
1410 <course>265.000000</course>
1411 <speed>22.789888</speed>
1412 <geoidheight>0.0</geoidheight>
1413 <fix>3d</fix>
1414 <sat>8</sat>
1415 <hdop>0.800000</hdop>
1416 </trkpt>
1417 <trkpt lat="-30.056380000" lon="-51.480210000">
1418 <ele>46.100000</ele>
1419 <time>2069-11-30T12:00:06.663Z</time>
1420 <course>265.000000</course>
1421 <speed>22.789888</speed>
1422 <geoidheight>0.0</geoidheight>
1423 <fix>3d</fix>
1424 <sat>8</sat>
1425 <hdop>0.800000</hdop>
1426 </trkpt>
1427 <trkpt lat="-30.056400000" lon="-51.480560000">
1428 <ele>46.100000</ele>
1429 <time>2069-11-30T12:00:09.034Z</time>
1430 <course>266.000000</course>
1431 <speed>22.789888</speed>
1432 <geoidheight>0.0</geoidheight>
1433 <fix>3d</fix>
1434 <sat>8</sat>
1435 <hdop>0.800000</hdop>
1436 </trkpt>
1437 <trkpt lat="-30.056420000" lon="-51.480900000">
1438 <ele>46.100000</ele>
1439 <time>2069-11-30T12:00:11.337Z</time>
1440 <course>265.000000</course>
1441 <speed>22.789888</speed>
1442 <geoidheight>0.0</geoidheight>
1443 <fix>3d</fix>
1444 <sat>8</sat>
1445 <hdop>0.800000</hdop>
1446 </trkpt>
1447 <trkpt lat="-30.056450000" lon="-51.481240000">
1448 <ele>46.100000</ele>
1449 <time>2069-11-30T12:00:13.646Z</time>
1450 <course>265.000000</course>
1451 <speed>22.789888</speed>
1452 <geoidheight>0.0</geoidheight>
1453 <fix>3d</fix>
1454 <sat>8</sat>
1455 <hdop>0.800000</hdop>
1456 </trkpt>
1457 <trkpt lat="-30.056470000" lon="-51.481580000">
1458 <ele>46.100000</ele>
1459 <time>2069-11-30T12:00:15.949Z</time>
1460 <course>266.000000</course>
1461 <speed>22.789888</speed>
1462 <geoidheight>0.0</geoidheight>
1463 <fix>3d</fix>
1464 <sat>8</sat>
1465 <hdop>0.800000</hdop>
1466 </trkpt>
1467 <trkpt lat="-30.056490000" lon="-51.481930000">
1468 <ele>46.100000</ele>
1469 <time>2069-11-30T12:00:18.320Z</time>
1470 <course>265.000000</course>
1471 <speed>22.789888</speed>
1472 <geoidheight>0.0</geoidheight>
1473 <fix>3d</fix>
1474 <sat>8</sat>
1475 <hdop>0.800000</hdop>
1476 </trkpt>
1477 <trkpt lat="-30.056520000" lon="-51.482270000">
1478 <ele>46.100000</ele>
1479 <time>2069-11-30T12:00:20.628Z</time>
1480 <course>265.000000</course>
1481 <speed>22.789888</speed>
1482 <geoidheight>0.0</geoidheight>
1483 <fix>3d</fix>
1484 <sat>8</sat>
1485 <hdop>0.800000</hdop>
1486 </trkpt>
1487 <trkpt lat="-30.056540000" lon="-51.482610000">
1488 <ele>46.100000</ele>
1489 <time>2069-11-30T12:00:22.932Z</time>
1490 <course>266.000000</course>
1491 <speed>22.789888</speed>
1492 <geoidheight>0.0</geoidheight>
1493 <fix>3d</fix>
1494 <sat>8</sat>
1495 <hdop>0.800000</hdop>
1496 </trkpt>
1497 <trkpt lat="-30.056560000" lon="-51.482950000">
1498 <ele>46.100000</ele>
1499 <time>2069-11-30T12:00:25.235Z</time>
1500 <course>265.000000</course>
1501 <speed>22.789888</speed>
1502 <geoidheight>0.0</geoidheight>
1503 <fix>3d</fix>
1504 <sat>8</sat>
1505 <hdop>0.800000</hdop>
1506 </trkpt>
1507 <trkpt lat="-30.056590000" lon="-51.483290000">
1508 <ele>46.100000</ele>
1509 <time>2069-11-30T12:00:27.544Z</time>
1510 <course>265.000000</course>
1511 <speed>22.789888</speed>
1512 <geoidheight>0.0</geoidheight>
1513 <fix>3d</fix>
1514 <sat>8</sat>
1515 <hdop>0.800000</hdop>
1516 </trkpt>
1517 <trkpt lat="-30.056610000" lon="-51.483640000">
1518 <ele>46.100000</ele>
1519 <time>2069-11-30T12:00:29.915Z</time>
1520 <course>266.000000</course>
1521 <speed>22.789888</speed>
1522 <geoidheight>0.0</geoidheight>
1523 <fix>3d</fix>
1524 <sat>8</sat>
1525 <hdop>0.800000</hdop>
1526 </trkpt>
1527 <trkpt lat="-30.056630000" lon="-51.483980000">
1528 <ele>46.100000</ele>
1529 <time>2069-11-30T12:00:32.218Z</time>
1530 <course>265.000000</course>
1531 <speed>22.789888</speed>
1532 <geoidheight>0.0</geoidheight>
1533 <fix>3d</fix>
1534 <sat>8</sat>
1535 <hdop>0.800000</hdop>
1536 </trkpt>
1537 <trkpt lat="-30.056660000" lon="-51.484320000">
1538 <ele>46.100000</ele>
1539 <time>2069-11-30T12:00:34.527Z</time>
1540 <course>265.000000</course>
1541 <speed>22.789888</speed>
1542 <geoidheight>0.0</geoidheight>
1543 <fix>3d</fix>
1544 <sat>8</sat>
1545 <hdop>0.800000</hdop>
1546 </trkpt>
1547 <trkpt lat="-30.056680000" lon="-51.484660000">
1548 <ele>46.100000</ele>
1549 <time>2069-11-30T12:00:36.830Z</time>
1550 <course>265.000000</course>
1551 <speed>22.789888</speed>
1552 <geoidheight>0.0</geoidheight>
1553 <fix>3d</fix>
1554 <sat>8</sat>
1555 <hdop>0.800000</hdop>
1556 </trkpt>
1557 <trkpt lat="-30.056710000" lon="-51.485010000">
1558 <ele>46.100000</ele>
1559 <time>2069-11-30T12:00:39.206Z</time>
1560 <course>265.000000</course>
1561 <speed>22.789888</speed>
1562 <geoidheight>0.0</geoidheight>
1563 <fix>3d</fix>
1564 <sat>8</sat>
1565 <hdop>0.800000</hdop>
1566 </trkpt>
1567 <trkpt lat="-30.056730000" lon="-51.485350000">
1568 <ele>46.100000</ele>
1569 <time>2069-11-30T12:00:41.510Z</time>
1570 <course>266.000000</course>
1571 <speed>22.789888</speed>
1572 <geoidheight>0.0</geoidheight>
1573 <fix>3d</fix>
1574 <sat>8</sat>
1575 <hdop>0.800000</hdop>
1576 </trkpt>
1577 <trkpt lat="-30.056750000" lon="-51.485690000">
1578 <ele>46.100000</ele>
1579 <time>2069-11-30T12:00:43.813Z</time>
1580 <course>265.000000</course>
1581 <speed>22.789888</speed>
1582 <geoidheight>0.0</geoidheight>
1583 <fix>3d</fix>
1584 <sat>8</sat>
1585 <hdop>0.800000</hdop>
1586 </trkpt>
1587 <trkpt lat="-30.056780000" lon="-51.486030000">
1588 <ele>46.100000</ele>
1589 <time>2069-11-30T12:00:46.122Z</time>
1590 <course>265.000000</course>
1591 <speed>22.789888</speed>
1592 <geoidheight>0.0</geoidheight>
1593 <fix>3d</fix>
1594 <sat>8</sat>
1595 <hdop>0.800000</hdop>
1596 </trkpt>
1597 <trkpt lat="-30.056800000" lon="-51.486370000">
1598 <ele>46.100000</ele>
1599 <time>2069-11-30T12:00:48.425Z</time>
1600 <course>266.000000</course>
1601 <speed>22.789888</speed>
1602 <geoidheight>0.0</geoidheight>
1603 <fix>3d</fix>
1604 <sat>8</sat>
1605 <hdop>0.800000</hdop>
1606 </trkpt>
1607 <trkpt lat="-30.056820000" lon="-51.486720000">
1608 <ele>46.100000</ele>
1609 <time>2069-11-30T12:00:50.796Z</time>
1610 <course>265.000000</course>
1611 <speed>22.789888</speed>
1612 <geoidheight>0.0</geoidheight>
1613 <fix>3d</fix>
1614 <sat>8</sat>
1615 <hdop>0.800000</hdop>
1616 </trkpt>
1617 <trkpt lat="-30.056850000" lon="-51.487060000">
1618 <ele>46.100000</ele>
1619 <time>2069-11-30T12:00:53.105Z</time>
1620 <course>265.000000</course>
1621 <speed>22.789888</speed>
1622 <geoidheight>0.0</geoidheight>
1623 <fix>3d</fix>
1624 <sat>8</sat>
1625 <hdop>0.800000</hdop>
1626 </trkpt>
1627 <trkpt lat="-30.056870000" lon="-51.487400000">
1628 <ele>46.100000</ele>
1629 <time>2069-11-30T12:00:55.408Z</time>
1630 <course>266.000000</course>
1631 <speed>22.789888</speed>
1632 <geoidheight>0.0</geoidheight>
1633 <fix>3d</fix>
1634 <sat>8</sat>
1635 <hdop>0.800000</hdop>
1636 </trkpt>
1637 <trkpt lat="-30.056890000" lon="-51.487740000">
1638 <ele>46.100000</ele>
1639 <time>2069-11-30T12:00:57.712Z</time>
1640 <course>265.000000</course>
1641 <speed>22.789888</speed>
1642 <geoidheight>0.0</geoidheight>
1643 <fix>3d</fix>
1644 <sat>8</sat>
1645 <hdop>0.800000</hdop>
1646 </trkpt>
1647 <trkpt lat="-30.056920000" lon="-51.488080000">
1648 <ele>46.100000</ele>
1649 <time>2069-11-30T12:01:00.020Z</time>
1650 <course>265.000000</course>
1651 <speed>22.789888</speed>
1652 <geoidheight>0.0</geoidheight>
1653 <fix>3d</fix>
1654 <sat>8</sat>
1655 <hdop>0.800000</hdop>
1656 </trkpt>
1657 <trkpt lat="-30.056940000" lon="-51.488430000">
1658 <ele>46.100000</ele>
1659 <time>2069-11-30T12:01:02.391Z</time>
1660 <course>266.000000</course>
1661 <speed>22.789888</speed>
1662 <geoidheight>0.0</geoidheight>
1663 <fix>3d</fix>
1664 <sat>8</sat>
1665 <hdop>0.800000</hdop>
1666 </trkpt>
1667 <trkpt lat="-30.056960000" lon="-51.488770000">
1668 <ele>46.100000</ele>
1669 <time>2069-11-30T12:01:04.695Z</time>
1670 <course>265.000000</course>
1671 <speed>22.789888</speed>
1672 <geoidheight>0.0</geoidheight>
1673 <fix>3d</fix>
1674 <sat>8</sat>
1675 <hdop>0.800000</hdop>
1676 </trkpt>
1677 <trkpt lat="-30.056990000" lon="-51.489110000">
1678 <ele>46.100000</ele>
1679 <time>2069-11-30T12:01:07.003Z</time>
1680 <course>265.000000</course>
1681 <speed>22.789888</speed>
1682 <geoidheight>0.0</geoidheight>
1683 <fix>3d</fix>
1684 <sat>8</sat>
1685 <hdop>0.800000</hdop>
1686 </trkpt>
1687 <trkpt lat="-30.057010000" lon="-51.489450000">
1688 <ele>46.100000</ele>
1689 <time>2069-11-30T12:01:09.306Z</time>
1690 <course>265.000000</course>
1691 <speed>22.789888</speed>
1692 <geoidheight>0.0</geoidheight>
1693 <fix>3d</fix>
1694 <sat>8</sat>
1695 <hdop>0.800000</hdop>
1696 </trkpt>
1697 <trkpt lat="-30.057040000" lon="-51.489790000">
1698 <ele>46.100000</ele>
1699 <time>2069-11-30T12:01:11.615Z</time>
1700 <course>265.000000</course>
1701 <speed>22.789888</speed>
1702 <geoidheight>0.0</geoidheight>
1703 <fix>3d</fix>
1704 <sat>8</sat>
1705 <hdop>0.800000</hdop>
1706 </trkpt>
1707 <trkpt lat="-30.057060000" lon="-51.490140000">
1708 <ele>46.100000</ele>
1709 <time>2069-11-30T12:01:13.986Z</time>
1710 <course>265.000000</course>
1711 <speed>22.789888</speed>
1712 <geoidheight>0.0</geoidheight>
1713 <fix>3d</fix>
1714 <sat>8</sat>
1715 <hdop>0.800000</hdop>
1716 </trkpt>
1717 <trkpt lat="-30.057090000" lon="-51.490480000">
1718 <ele>46.100000</ele>
1719 <time>2069-11-30T12:01:16.294Z</time>
1720 <course>264.000000</course>
1721 <speed>22.789888</speed>
1722 <geoidheight>0.0</geoidheight>
1723 <fix>3d</fix>
1724 <sat>8</sat>
1725 <hdop>0.800000</hdop>
1726 </trkpt>
1727 <trkpt lat="-30.057120000" lon="-51.490820000">
1728 <ele>46.100000</ele>
1729 <time>2069-11-30T12:01:18.603Z</time>
1730 <course>265.000000</course>
1731 <speed>22.789888</speed>
1732 <geoidheight>0.0</geoidheight>
1733 <fix>3d</fix>
1734 <sat>8</sat>
1735 <hdop>0.800000</hdop>
1736 </trkpt>
1737 <trkpt lat="-30.057140000" lon="-51.491160000">
1738 <ele>46.100000</ele>
1739 <time>2069-11-30T12:01:20.906Z</time>
1740 <course>265.000000</course>
1741 <speed>22.789888</speed>
1742 <geoidheight>0.0</geoidheight>
1743 <fix>3d</fix>
1744 <sat>8</sat>
1745 <hdop>0.800000</hdop>
1746 </trkpt>
1747 <trkpt lat="-30.057170000" lon="-51.491500000">
1748 <ele>46.100000</ele>
1749 <time>2069-11-30T12:01:23.215Z</time>
1750 <course>265.000000</course>
1751 <speed>22.789888</speed>
1752 <geoidheight>0.0</geoidheight>
1753 <fix>3d</fix>
1754 <sat>8</sat>
1755 <hdop>0.800000</hdop>
1756 </trkpt>
1757 <trkpt lat="-30.057190000" lon="-51.491850000">
1758 <ele>46.100000</ele>
1759 <time>2069-11-30T12:01:25.586Z</time>
1760 <course>265.000000</course>
1761 <speed>22.789888</speed>
1762 <geoidheight>0.0</geoidheight>
1763 <fix>3d</fix>
1764 <sat>8</sat>
1765 <hdop>0.800000</hdop>
1766 </trkpt>
1767 <trkpt lat="-30.057220000" lon="-51.492190000">
1768 <ele>46.100000</ele>
1769 <time>2069-11-30T12:01:27.894Z</time>
1770 <course>265.000000</course>
1771 <speed>22.789888</speed>
1772 <geoidheight>0.0</geoidheight>
1773 <fix>3d</fix>
1774 <sat>8</sat>
1775 <hdop>0.800000</hdop>
1776 </trkpt>
1777 <trkpt lat="-30.057240000" lon="-51.492530000">
1778 <ele>46.100000</ele>
1779 <time>2069-11-30T12:01:30.198Z</time>
1780 <course>265.000000</course>
1781 <speed>22.789888</speed>
1782 <geoidheight>0.0</geoidheight>
1783 <fix>3d</fix>
1784 <sat>8</sat>
1785 <hdop>0.800000</hdop>
1786 </trkpt>
1787 <trkpt lat="-30.057270000" lon="-51.492870000">
1788 <ele>46.100000</ele>
1789 <time>2069-11-30T12:01:32.506Z</time>
1790 <course>265.000000</course>
1791 <speed>22.789888</speed>
1792 <geoidheight>0.0</geoidheight>
1793 <fix>3d</fix>
1794 <sat>8</sat>
1795 <hdop>0.800000</hdop>
1796 </trkpt>
1797 <trkpt lat="-30.057290000" lon="-51.493210000">
1798 <ele>46.100000</ele>
1799 <time>2069-11-30T12:01:34.810Z</time>
1800 <course>265.000000</course>
1801 <speed>22.789888</speed>
1802 <geoidheight>0.0</geoidheight>
1803 <fix>3d</fix>
1804 <sat>8</sat>
1805 <hdop>0.800000</hdop>
1806 </trkpt>
1807 <trkpt lat="-30.057320000" lon="-51.493550000">
1808 <ele>46.100000</ele>
1809 <time>2069-11-30T12:01:37.118Z</time>
1810 <course>264.000000</course>
1811 <speed>22.789888</speed>
1812 <geoidheight>0.0</geoidheight>
1813 <fix>3d</fix>
1814 <sat>8</sat>
1815 <hdop>0.800000</hdop>
1816 </trkpt>
1817 <trkpt lat="-30.057350000" lon="-51.493900000">
1818 <ele>46.100000</ele>
1819 <time>2069-11-30T12:01:39.494Z</time>
1820 <course>265.000000</course>
1821 <speed>22.789888</speed>
1822 <geoidheight>0.0</geoidheight>
1823 <fix>3d</fix>
1824 <sat>8</sat>
1825 <hdop>0.800000</hdop>
1826 </trkpt>
1827 <trkpt lat="-30.057370000" lon="-51.494240000">
1828 <ele>46.100000</ele>
1829 <time>2069-11-30T12:01:41.797Z</time>
1830 <course>265.000000</course>
1831 <speed>22.789888</speed>
1832 <geoidheight>0.0</geoidheight>
1833 <fix>3d</fix>
1834 <sat>8</sat>
1835 <hdop>0.800000</hdop>
1836 </trkpt>
1837 <trkpt lat="-30.057400000" lon="-51.494580000">
1838 <ele>46.100000</ele>
1839 <time>2069-11-30T12:01:44.106Z</time>
1840 <course>265.000000</course>
1841 <speed>22.789888</speed>
1842 <geoidheight>0.0</geoidheight>
1843 <fix>3d</fix>
1844 <sat>8</sat>
1845 <hdop>0.800000</hdop>
1846 </trkpt>
1847 <trkpt lat="-30.057420000" lon="-51.494920000">
1848 <ele>46.100000</ele>
1849 <time>2069-11-30T12:01:46.409Z</time>
1850 <course>265.000000</course>
1851 <speed>22.789888</speed>
1852 <geoidheight>0.0</geoidheight>
1853 <fix>3d</fix>
1854 <sat>8</sat>
1855 <hdop>0.800000</hdop>
1856 </trkpt>
1857 <trkpt lat="-30.057450000" lon="-51.495260000">
1858 <ele>46.100000</ele>
1859 <time>2069-11-30T12:01:48.718Z</time>
1860 <course>265.000000</course>
1861 <speed>22.789888</speed>
1862 <geoidheight>0.0</geoidheight>
1863 <fix>3d</fix>
1864 <sat>8</sat>
1865 <hdop>0.800000</hdop>
1866 </trkpt>
1867 <trkpt lat="-30.057470000" lon="-51.495610000">
1868 <ele>46.100000</ele>
1869 <time>2069-11-30T12:01:51.089Z</time>
1870 <course>265.000000</course>
1871 <speed>22.789888</speed>
1872 <geoidheight>0.0</geoidheight>
1873 <fix>3d</fix>
1874 <sat>8</sat>
1875 <hdop>0.800000</hdop>
1876 </trkpt>
1877 <trkpt lat="-30.057500000" lon="-51.495950000">
1878 <ele>46.100000</ele>
1879 <time>2069-11-30T12:01:53.397Z</time>
1880 <course>265.000000</course>
1881 <speed>22.789888</speed>
1882 <geoidheight>0.0</geoidheight>
1883 <fix>3d</fix>
1884 <sat>8</sat>
1885 <hdop>0.800000</hdop>
1886 </trkpt>
1887 <trkpt lat="-30.057520000" lon="-51.496290000">
1888 <ele>46.100000</ele>
1889 <time>2069-11-30T12:01:55.701Z</time>
1890 <course>265.000000</course>
1891 <speed>22.789888</speed>
1892 <geoidheight>0.0</geoidheight>
1893 <fix>3d</fix>
1894 <sat>8</sat>
1895 <hdop>0.800000</hdop>
1896 </trkpt>
1897 <trkpt lat="-30.057550000" lon="-51.496630000">
1898 <ele>46.100000</ele>
1899 <time>2069-11-30T12:01:58.009Z</time>
1900 <course>265.000000</course>
1901 <speed>22.789888</speed>
1902 <geoidheight>0.0</geoidheight>
1903 <fix>3d</fix>
1904 <sat>8</sat>
1905 <hdop>0.800000</hdop>
1906 </trkpt>
1907 <trkpt lat="-30.057570000" lon="-51.496970000">
1908 <ele>46.100000</ele>
1909 <time>2069-11-30T12:02:00.313Z</time>
1910 <course>266.000000</course>
1911 <speed>22.789888</speed>
1912 <geoidheight>0.0</geoidheight>
1913 <fix>3d</fix>
1914 <sat>8</sat>
1915 <hdop>0.800000</hdop>
1916 </trkpt>
1917 <trkpt lat="-30.057590000" lon="-51.497310000">
1918 <ele>46.100000</ele>
1919 <time>2069-11-30T12:02:02.616Z</time>
1920 <course>266.000000</course>
1921 <speed>22.789888</speed>
1922 <geoidheight>0.0</geoidheight>
1923 <fix>3d</fix>
1924 <sat>8</sat>
1925 <hdop>0.800000</hdop>
1926 </trkpt>
1927 <trkpt lat="-30.057610000" lon="-51.497660000">
1928 <ele>46.100000</ele>
1929 <time>2069-11-30T12:02:04.987Z</time>
1930 <course>265.000000</course>
1931 <speed>22.789888</speed>
1932 <geoidheight>0.0</geoidheight>
1933 <fix>3d</fix>
1934 <sat>8</sat>
1935 <hdop>0.800000</hdop>
1936 </trkpt>
1937 <trkpt lat="-30.057640000" lon="-51.498000000">
1938 <ele>46.100000</ele>
1939 <time>2069-11-30T12:02:07.296Z</time>
1940 <course>265.000000</course>
1941 <speed>22.789888</speed>
1942 <geoidheight>0.0</geoidheight>
1943 <fix>3d</fix>
1944 <sat>8</sat>
1945 <hdop>0.800000</hdop>
1946 </trkpt>
1947 <trkpt lat="-30.057660000" lon="-51.498340000">
1948 <ele>46.100000</ele>
1949 <time>2069-11-30T12:02:09.599Z</time>
1950 <course>266.000000</course>
1951 <speed>22.789888</speed>
1952 <geoidheight>0.0</geoidheight>
1953 <fix>3d</fix>
1954 <sat>8</sat>
1955 <hdop>0.800000</hdop>
1956 </trkpt>
1957 <trkpt lat="-30.057680000" lon="-51.498680000">
1958 <ele>46.100000</ele>
1959 <time>2069-11-30T12:02:11.903Z</time>
1960 <course>266.000000</course>
1961 <speed>22.789888</speed>
1962 <geoidheight>0.0</geoidheight>
1963 <fix>3d</fix>
1964 <sat>8</sat>
1965 <hdop>0.800000</hdop>
1966 </trkpt>
1967 <trkpt lat="-30.057700000" lon="-51.499020000">
1968 <ele>46.100000</ele>
1969 <time>2069-11-30T12:02:14.206Z</time>
1970 <course>265.000000</course>
1971 <speed>22.789888</speed>
1972 <geoidheight>0.0</geoidheight>
1973 <fix>3d</fix>
1974 <sat>8</sat>
1975 <hdop>0.800000</hdop>
1976 </trkpt>
1977 <trkpt lat="-30.057730000" lon="-51.499360000">
1978 <ele>46.100000</ele>
1979 <time>2069-11-30T12:02:16.515Z</time>
1980 <course>265.000000</course>
1981 <speed>22.789888</speed>
1982 <geoidheight>0.0</geoidheight>
1983 <fix>3d</fix>
1984 <sat>8</sat>
1985 <hdop>0.800000</hdop>
1986 </trkpt>
1987 <trkpt lat="-30.057750000" lon="-51.499710000">
1988 <ele>46.100000</ele>
1989 <time>2069-11-30T12:02:18.886Z</time>
1990 <course>266.000000</course>
1991 <speed>22.789888</speed>
1992 <geoidheight>0.0</geoidheight>
1993 <fix>3d</fix>
1994 <sat>8</sat>
1995 <hdop>0.800000</hdop>
1996 </trkpt>
1997 <trkpt lat="-30.057770000" lon="-51.500050000">
1998 <ele>46.100000</ele>
1999 <time>2069-11-30T12:02:21.189Z</time>
2000 <course>266.000000</course>
2001 <speed>22.789888</speed>
2002 <geoidheight>0.0</geoidheight>
2003 <fix>3d</fix>
2004 <sat>8</sat>
2005 <hdop>0.800000</hdop>
2006 </trkpt>
2007 <trkpt lat="-30.057790000" lon="-51.500390000">
2008 <ele>46.100000</ele>
2009 <time>2069-11-30T12:02:23.493Z</time>
2010 <course>265.000000</course>
2011 <speed>22.789888</speed>
2012 <geoidheight>0.0</geoidheight>
2013 <fix>3d</fix>
2014 <sat>8</sat>
2015 <hdop>0.800000</hdop>
2016 </trkpt>
2017 <trkpt lat="-30.057820000" lon="-51.500730000">
2018 <ele>46.100000</ele>
2019 <time>2069-11-30T12:02:25.801Z</time>
2020 <course>265.000000</course>
2021 <speed>22.789888</speed>
2022 <geoidheight>0.0</geoidheight>
2023 <fix>3d</fix>
2024 <sat>8</sat>
2025 <hdop>0.800000</hdop>
2026 </trkpt>
2027 <trkpt lat="-30.057840000" lon="-51.501070000">
2028 <ele>46.100000</ele>
2029 <time>2069-11-30T12:02:28.105Z</time>
2030 <course>266.000000</course>
2031 <speed>22.789888</speed>
2032 <geoidheight>0.0</geoidheight>
2033 <fix>3d</fix>
2034 <sat>8</sat>
2035 <hdop>0.800000</hdop>
2036 </trkpt>
2037 <trkpt lat="-30.057860000" lon="-51.501410000">
2038 <ele>46.100000</ele>
2039 <time>2069-11-30T12:02:30.408Z</time>
2040 <course>265.000000</course>
2041 <speed>22.789888</speed>
2042 <geoidheight>0.0</geoidheight>
2043 <fix>3d</fix>
2044 <sat>8</sat>
2045 <hdop>0.800000</hdop>
2046 </trkpt>
2047 <trkpt lat="-30.057890000" lon="-51.501760000">
2048 <ele>46.100000</ele>
2049 <time>2069-11-30T12:02:32.784Z</time>
2050 <course>266.000000</course>
2051 <speed>22.789888</speed>
2052 <geoidheight>0.0</geoidheight>
2053 <fix>3d</fix>
2054 <sat>8</sat>
2055 <hdop>0.800000</hdop>
2056 </trkpt>
2057 <trkpt lat="-30.057900000" lon="-51.502100000">
2058 <ele>46.100000</ele>
2059 <time>2069-11-30T12:02:35.084Z</time>
2060 <course>267.000000</course>
2061 <speed>22.789888</speed>
2062 <geoidheight>0.0</geoidheight>
2063 <fix>3d</fix>
2064 <sat>8</sat>
2065 <hdop>0.800000</hdop>
2066 </trkpt>
2067 <trkpt lat="-30.057920000" lon="-51.502440000">
2068 <ele>46.100000</ele>
2069 <time>2069-11-30T12:02:37.388Z</time>
2070 <course>266.000000</course>
2071 <speed>22.789888</speed>
2072 <geoidheight>0.0</geoidheight>
2073 <fix>3d</fix>
2074 <sat>8</sat>
2075 <hdop>0.800000</hdop>
2076 </trkpt>
2077 <trkpt lat="-30.057940000" lon="-51.502780000">
2078 <ele>46.100000</ele>
2079 <time>2069-11-30T12:02:39.691Z</time>
2080 <course>266.000000</course>
2081 <speed>22.789888</speed>
2082 <geoidheight>0.0</geoidheight>
2083 <fix>3d</fix>
2084 <sat>8</sat>
2085 <hdop>0.800000</hdop>
2086 </trkpt>
2087 <trkpt lat="-30.057960000" lon="-51.503120000">
2088 <ele>46.100000</ele>
2089 <time>2069-11-30T12:02:41.995Z</time>
2090 <course>266.000000</course>
2091 <speed>22.789888</speed>
2092 <geoidheight>0.0</geoidheight>
2093 <fix>3d</fix>
2094 <sat>8</sat>
2095 <hdop>0.800000</hdop>
2096 </trkpt>
2097 <trkpt lat="-30.057980000" lon="-51.503460000">
2098 <ele>46.100000</ele>
2099 <time>2069-11-30T12:02:44.298Z</time>
2100 <course>266.000000</course>
2101 <speed>22.789888</speed>
2102 <geoidheight>0.0</geoidheight>
2103 <fix>3d</fix>
2104 <sat>8</sat>
2105 <hdop>0.800000</hdop>
2106 </trkpt>
2107 <trkpt lat="-30.058000000" lon="-51.503800000">
2108 <ele>46.100000</ele>
2109 <time>2069-11-30T12:02:46.602Z</time>
2110 <course>266.000000</course>
2111 <speed>22.789888</speed>
2112 <geoidheight>0.0</geoidheight>
2113 <fix>3d</fix>
2114 <sat>8</sat>
2115 <hdop>0.800000</hdop>
2116 </trkpt>
2117 <trkpt lat="-30.058020000" lon="-51.504150000">
2118 <ele>46.100000</ele>
2119 <time>2069-11-30T12:02:48.973Z</time>
2120 <course>266.000000</course>
2121 <speed>22.789888</speed>
2122 <geoidheight>0.0</geoidheight>
2123 <fix>3d</fix>
2124 <sat>8</sat>
2125 <hdop>0.800000</hdop>
2126 </trkpt>
2127 <trkpt lat="-30.058040000" lon="-51.504490000">
2128 <ele>46.100000</ele>
2129 <time>2069-11-30T12:02:51.276Z</time>
2130 <course>266.000000</course>
2131 <speed>22.789888</speed>
2132 <geoidheight>0.0</geoidheight>
2133 <fix>3d</fix>
2134 <sat>8</sat>
2135 <hdop>0.800000</hdop>
2136 </trkpt>
2137 <trkpt lat="-30.058060000" lon="-51.504830000">
2138 <ele>46.100000</ele>
2139 <time>2069-11-30T12:02:53.580Z</time>
2140 <course>266.000000</course>
2141 <speed>22.789888</speed>
2142 <geoidheight>0.0</geoidheight>
2143 <fix>3d</fix>
2144 <sat>8</sat>
2145 <hdop>0.800000</hdop>
2146 </trkpt>
2147 <trkpt lat="-30.058080000" lon="-51.505170000">
2148 <ele>46.100000</ele>
2149 <time>2069-11-30T12:02:55.883Z</time>
2150 <course>266.000000</course>
2151 <speed>22.789888</speed>
2152 <geoidheight>0.0</geoidheight>
2153 <fix>3d</fix>
2154 <sat>8</sat>
2155 <hdop>0.800000</hdop>
2156 </trkpt>
2157 <trkpt lat="-30.058100000" lon="-51.505510000">
2158 <ele>46.100000</ele>
2159 <time>2069-11-30T12:02:58.187Z</time>
2160 <course>266.000000</course>
2161 <speed>22.789888</speed>
2162 <geoidheight>0.0</geoidheight>
2163 <fix>3d</fix>
2164 <sat>8</sat>
2165 <hdop>0.800000</hdop>
2166 </trkpt>
2167 <trkpt lat="-30.058120000" lon="-51.505850000">
2168 <ele>46.100000</ele>
2169 <time>2069-11-30T12:03:00.490Z</time>
2170 <course>266.000000</course>
2171 <speed>22.789888</speed>
2172 <geoidheight>0.0</geoidheight>
2173 <fix>3d</fix>
2174 <sat>8</sat>
2175 <hdop>0.800000</hdop>
2176 </trkpt>
2177 <trkpt lat="-30.058140000" lon="-51.506200000">
2178 <ele>46.100000</ele>
2179 <time>2069-11-30T12:03:02.861Z</time>
2180 <course>267.000000</course>
2181 <speed>22.789888</speed>
2182 <geoidheight>0.0</geoidheight>
2183 <fix>3d</fix>
2184 <sat>8</sat>
2185 <hdop>0.800000</hdop>
2186 </trkpt>
2187 <trkpt lat="-30.058150000" lon="-51.506540000">
2188 <ele>46.100000</ele>
2189 <time>2069-11-30T12:03:05.162Z</time>
2190 <course>267.000000</course>
2191 <speed>22.789888</speed>
2192 <geoidheight>0.0</geoidheight>
2193 <fix>3d</fix>
2194 <sat>8</sat>
2195 <hdop>0.800000</hdop>
2196 </trkpt>
2197 <trkpt lat="-30.058170000" lon="-51.506880000">
2198 <ele>46.100000</ele>
2199 <time>2069-11-30T12:03:07.465Z</time>
2200 <course>267.000000</course>
2201 <speed>22.789888</speed>
2202 <geoidheight>0.0</geoidheight>
2203 <fix>3d</fix>
2204 <sat>8</sat>
2205 <hdop>0.800000</hdop>
2206 </trkpt>
2207 <trkpt lat="-30.058180000" lon="-51.507220000">
2208 <ele>46.100000</ele>
2209 <time>2069-11-30T12:03:09.766Z</time>
2210 <course>267.000000</course>
2211 <speed>22.789888</speed>
2212 <geoidheight>0.0</geoidheight>
2213 <fix>3d</fix>
2214 <sat>8</sat>
2215 <hdop>0.800000</hdop>
2216 </trkpt>
2217 <trkpt lat="-30.058200000" lon="-51.507570000">
2218 <ele>46.100000</ele>
2219 <time>2069-11-30T12:03:12.137Z</time>
2220 <course>267.000000</course>
2221 <speed>22.789888</speed>
2222 <geoidheight>0.0</geoidheight>
2223 <fix>3d</fix>
2224 <sat>8</sat>
2225 <hdop>0.800000</hdop>
2226 </trkpt>
2227 <trkpt lat="-30.058210000" lon="-51.507910000">
2228 <ele>46.100000</ele>
2229 <time>2069-11-30T12:03:14.437Z</time>
2230 <course>267.000000</course>
2231 <speed>22.789888</speed>
2232 <geoidheight>0.0</geoidheight>
2233 <fix>3d</fix>
2234 <sat>8</sat>
2235 <hdop>0.800000</hdop>
2236 </trkpt>
2237 <trkpt lat="-30.058230000" lon="-51.508250000">
2238 <ele>46.100000</ele>
2239 <time>2069-11-30T12:03:16.741Z</time>
2240 <course>266.000000</course>
2241 <speed>22.789888</speed>
2242 <geoidheight>0.0</geoidheight>
2243 <fix>3d</fix>
2244 <sat>8</sat>
2245 <hdop>0.800000</hdop>
2246 </trkpt>
2247 <trkpt lat="-30.058250000" lon="-51.508590000">
2248 <ele>46.100000</ele>
2249 <time>2069-11-30T12:03:19.044Z</time>
2250 <course>266.000000</course>
2251 <speed>22.789888</speed>
2252 <geoidheight>0.0</geoidheight>
2253 <fix>3d</fix>
2254 <sat>8</sat>
2255 <hdop>0.800000</hdop>
2256 </trkpt>
2257 <trkpt lat="-30.058270000" lon="-51.508930000">
2258 <ele>46.100000</ele>
2259 <time>2069-11-30T12:03:21.348Z</time>
2260 <course>265.000000</course>
2261 <speed>22.789888</speed>
2262 <geoidheight>0.0</geoidheight>
2263 <fix>3d</fix>
2264 <sat>8</sat>
2265 <hdop>0.800000</hdop>
2266 </trkpt>
2267 <trkpt lat="-30.058300000" lon="-51.509270000">
2268 <ele>46.100000</ele>
2269 <time>2069-11-30T12:03:23.656Z</time>
2270 <course>264.000000</course>
2271 <speed>22.789888</speed>
2272 <geoidheight>0.0</geoidheight>
2273 <fix>3d</fix>
2274 <sat>8</sat>
2275 <hdop>0.800000</hdop>
2276 </trkpt>
2277 <trkpt lat="-30.058330000" lon="-51.509610000">
2278 <ele>46.100000</ele>
2279 <time>2069-11-30T12:03:25.965Z</time>
2280 <course>265.000000</course>
2281 <speed>22.789888</speed>
2282 <geoidheight>0.0</geoidheight>
2283 <fix>3d</fix>
2284 <sat>8</sat>
2285 <hdop>0.800000</hdop>
2286 </trkpt>
2287 <trkpt lat="-30.058350000" lon="-51.509950000">
2288 <ele>46.100000</ele>
2289 <time>2069-11-30T12:03:28.268Z</time>
2290 <course>265.000000</course>
2291 <speed>22.789888</speed>
2292 <geoidheight>0.0</geoidheight>
2293 <fix>3d</fix>
2294 <sat>8</sat>
2295 <hdop>0.800000</hdop>
2296 </trkpt>
2297 <trkpt lat="-30.058380000" lon="-51.510300000">
2298 <ele>46.100000</ele>
2299 <time>2069-11-30T12:03:30.644Z</time>
2300 <course>265.000000</course>
2301 <speed>22.789888</speed>
2302 <geoidheight>0.0</geoidheight>
2303 <fix>3d</fix>
2304 <sat>8</sat>
2305 <hdop>0.800000</hdop>
2306 </trkpt>
2307 <trkpt lat="-30.058400000" lon="-51.510640000">
2308 <ele>46.100000</ele>
2309 <time>2069-11-30T12:03:32.948Z</time>
2310 <course>265.000000</course>
2311 <speed>22.789888</speed>
2312 <geoidheight>0.0</geoidheight>
2313 <fix>3d</fix>
2314 <sat>8</sat>
2315 <hdop>0.800000</hdop>
2316 </trkpt>
2317 <trkpt lat="-30.058430000" lon="-51.510980000">
2318 <ele>46.100000</ele>
2319 <time>2069-11-30T12:03:35.256Z</time>
2320 <course>264.000000</course>
2321 <speed>22.789888</speed>
2322 <geoidheight>0.0</geoidheight>
2323 <fix>3d</fix>
2324 <sat>8</sat>
2325 <hdop>0.800000</hdop>
2326 </trkpt>
2327 <trkpt lat="-30.058460000" lon="-51.511320000">
2328 <ele>46.100000</ele>
2329 <time>2069-11-30T12:03:37.564Z</time>
2330 <course>265.000000</course>
2331 <speed>22.789888</speed>
2332 <geoidheight>0.0</geoidheight>
2333 <fix>3d</fix>
2334 <sat>8</sat>
2335 <hdop>0.800000</hdop>
2336 </trkpt>
2337 <trkpt lat="-30.058480000" lon="-51.511660000">
2338 <ele>46.100000</ele>
2339 <time>2069-11-30T12:03:39.868Z</time>
2340 <course>263.000000</course>
2341 <speed>22.789888</speed>
2342 <geoidheight>0.0</geoidheight>
2343 <fix>3d</fix>
2344 <sat>8</sat>
2345 <hdop>0.800000</hdop>
2346 </trkpt>
2347 <trkpt lat="-30.058530000" lon="-51.512000000">
2348 <ele>46.100000</ele>
2349 <time>2069-11-30T12:03:42.192Z</time>
2350 <course>259.000000</course>
2351 <speed>22.789888</speed>
2352 <geoidheight>0.0</geoidheight>
2353 <fix>3d</fix>
2354 <sat>8</sat>
2355 <hdop>0.800000</hdop>
2356 </trkpt>
2357 <trkpt lat="-30.058590000" lon="-51.512330000">
2358 <ele>46.100000</ele>
2359 <time>2069-11-30T12:03:44.461Z</time>
2360 <course>257.000000</course>
2361 <speed>22.789888</speed>
2362 <geoidheight>0.0</geoidheight>
2363 <fix>3d</fix>
2364 <sat>8</sat>
2365 <hdop>0.800000</hdop>
2366 </trkpt>
2367 <trkpt lat="-30.058660000" lon="-51.512670000">
2368 <ele>46.100000</ele>
2369 <time>2069-11-30T12:03:46.808Z</time>
2370 <course>256.000000</course>
2371 <speed>22.789888</speed>
2372 <geoidheight>0.0</geoidheight>
2373 <fix>3d</fix>
2374 <sat>8</sat>
2375 <hdop>0.800000</hdop>
2376 </trkpt>
2377 <trkpt lat="-30.058730000" lon="-51.513000000">
2378 <ele>46.100000</ele>
2379 <time>2069-11-30T12:03:49.090Z</time>
2380 <course>257.000000</course>
2381 <speed>22.789888</speed>
2382 <geoidheight>0.0</geoidheight>
2383 <fix>3d</fix>
2384 <sat>8</sat>
2385 <hdop>0.800000</hdop>
2386 </trkpt>
2387 <trkpt lat="-30.058790000" lon="-51.513330000">
2388 <ele>46.100000</ele>
2389 <time>2069-11-30T12:03:51.358Z</time>
2390 <course>257.000000</course>
2391 <speed>22.789888</speed>
2392 <geoidheight>0.0</geoidheight>
2393 <fix>3d</fix>
2394 <sat>8</sat>
2395 <hdop>0.800000</hdop>
2396 </trkpt>
2397 <trkpt lat="-30.058860000" lon="-51.513670000">
2398 <ele>46.100000</ele>
2399 <time>2069-11-30T12:03:53.706Z</time>
2400 <course>256.000000</course>
2401 <speed>22.789888</speed>
2402 <geoidheight>0.0</geoidheight>
2403 <fix>3d</fix>
2404 <sat>8</sat>
2405 <hdop>0.800000</hdop>
2406 </trkpt>
2407 <trkpt lat="-30.058930000" lon="-51.514000000">
2408 <ele>46.100000</ele>
2409 <time>2069-11-30T12:03:55.988Z</time>
2410 <course>256.000000</course>
2411 <speed>22.789888</speed>
2412 <geoidheight>0.0</geoidheight>
2413 <fix>3d</fix>
2414 <sat>8</sat>
2415 <hdop>0.800000</hdop>
2416 </trkpt>
2417 <trkpt lat="-30.059000000" lon="-51.514340000">
2418 <ele>46.100000</ele>
2419 <time>2069-11-30T12:03:58.335Z</time>
2420 <course>257.000000</course>
2421 <speed>22.789888</speed>
2422 <geoidheight>0.0</geoidheight>
2423 <fix>3d</fix>
2424 <sat>8</sat>
2425 <hdop>0.800000</hdop>
2426 </trkpt>
2427 <trkpt lat="-30.059060000" lon="-51.514670000">
2428 <ele>46.100000</ele>
2429 <time>2069-11-30T12:04:00.604Z</time>
2430 <course>257.000000</course>
2431 <speed>22.789888</speed>
2432 <geoidheight>0.0</geoidheight>
2433 <fix>3d</fix>
2434 <sat>8</sat>
2435 <hdop>0.800000</hdop>
2436 </trkpt>
2437 <trkpt lat="-30.059130000" lon="-51.515000000">
2438 <ele>46.100000</ele>
2439 <time>2069-11-30T12:04:02.885Z</time>
2440 <course>256.000000</course>
2441 <speed>22.789888</speed>
2442 <geoidheight>0.0</geoidheight>
2443 <fix>3d</fix>
2444 <sat>8</sat>
2445 <hdop>0.800000</hdop>
2446 </trkpt>
2447 <trkpt lat="-30.059200000" lon="-51.515340000">
2448 <ele>46.100000</ele>
2449 <time>2069-11-30T12:04:05.233Z</time>
2450 <course>257.000000</course>
2451 <speed>22.789888</speed>
2452 <geoidheight>0.0</geoidheight>
2453 <fix>3d</fix>
2454 <sat>8</sat>
2455 <hdop>0.800000</hdop>
2456 </trkpt>
2457 <trkpt lat="-30.059260000" lon="-51.515670000">
2458 <ele>46.100000</ele>
2459 <time>2069-11-30T12:04:07.502Z</time>
2460 <course>257.000000</course>
2461 <speed>22.789888</speed>
2462 <geoidheight>0.0</geoidheight>
2463 <fix>3d</fix>
2464 <sat>8</sat>
2465 <hdop>0.800000</hdop>
2466 </trkpt>
2467 <trkpt lat="-30.059330000" lon="-51.516010000">
2468 <ele>46.100000</ele>
2469 <time>2069-11-30T12:04:09.849Z</time>
2470 <course>258.000000</course>
2471 <speed>22.789888</speed>
2472 <geoidheight>0.0</geoidheight>
2473 <fix>3d</fix>
2474 <sat>8</sat>
2475 <hdop>0.800000</hdop>
2476 </trkpt>
2477 <trkpt lat="-30.059380000" lon="-51.516340000">
2478 <ele>46.100000</ele>
2479 <time>2069-11-30T12:04:12.107Z</time>
2480 <course>260.000000</course>
2481 <speed>22.789888</speed>
2482 <geoidheight>0.0</geoidheight>
2483 <fix>3d</fix>
2484 <sat>8</sat>
2485 <hdop>0.800000</hdop>
2486 </trkpt>
2487 <trkpt lat="-30.059430000" lon="-51.516680000">
2488 <ele>46.100000</ele>
2489 <time>2069-11-30T12:04:14.431Z</time>
2490 <course>260.000000</course>
2491 <speed>22.789888</speed>
2492 <geoidheight>0.0</geoidheight>
2493 <fix>3d</fix>
2494 <sat>8</sat>
2495 <hdop>0.800000</hdop>
2496 </trkpt>
2497 <trkpt lat="-30.059480000" lon="-51.517020000">
2498 <ele>46.100000</ele>
2499 <time>2069-11-30T12:04:16.755Z</time>
2500 <course>260.000000</course>
2501 <speed>22.789888</speed>
2502 <geoidheight>0.0</geoidheight>
2503 <fix>3d</fix>
2504 <sat>8</sat>
2505 <hdop>0.800000</hdop>
2506 </trkpt>
2507 <trkpt lat="-30.059530000" lon="-51.517360000">
2508 <ele>46.100000</ele>
2509 <time>2069-11-30T12:04:19.080Z</time>
2510 <course>259.000000</course>
2511 <speed>22.789888</speed>
2512 <geoidheight>0.0</geoidheight>
2513 <fix>3d</fix>
2514 <sat>8</sat>
2515 <hdop>0.800000</hdop>
2516 </trkpt>
2517 <trkpt lat="-30.059590000" lon="-51.517690000">
2518 <ele>46.100000</ele>
2519 <time>2069-11-30T12:04:21.348Z</time>
2520 <course>259.000000</course>
2521 <speed>22.789888</speed>
2522 <geoidheight>0.0</geoidheight>
2523 <fix>3d</fix>
2524 <sat>8</sat>
2525 <hdop>0.800000</hdop>
2526 </trkpt>
2527 <trkpt lat="-30.059640000" lon="-51.518030000">
2528 <ele>46.100000</ele>
2529 <time>2069-11-30T12:04:23.672Z</time>
2530 <course>260.000000</course>
2531 <speed>22.789888</speed>
2532 <geoidheight>0.0</geoidheight>
2533 <fix>3d</fix>
2534 <sat>8</sat>
2535 <hdop>0.800000</hdop>
2536 </trkpt>
2537 <trkpt lat="-30.059690000" lon="-51.518370000">
2538 <ele>46.100000</ele>
2539 <time>2069-11-30T12:04:25.997Z</time>
2540 <course>260.000000</course>
2541 <speed>22.789888</speed>
2542 <geoidheight>0.0</geoidheight>
2543 <fix>3d</fix>
2544 <sat>8</sat>
2545 <hdop>0.800000</hdop>
2546 </trkpt>
2547 <trkpt lat="-30.059740000" lon="-51.518710000">
2548 <ele>46.100000</ele>
2549 <time>2069-11-30T12:04:28.321Z</time>
2550 <course>259.000000</course>
2551 <speed>22.789888</speed>
2552 <geoidheight>0.0</geoidheight>
2553 <fix>3d</fix>
2554 <sat>8</sat>
2555 <hdop>0.800000</hdop>
2556 </trkpt>
2557 <trkpt lat="-30.059800000" lon="-51.519050000">
2558 <ele>46.100000</ele>
2559 <time>2069-11-30T12:04:30.656Z</time>
2560 <course>259.000000</course>
2561 <speed>22.789888</speed>
2562 <geoidheight>0.0</geoidheight>
2563 <fix>3d</fix>
2564 <sat>8</sat>
2565 <hdop>0.800000</hdop>
2566 </trkpt>
2567 <trkpt lat="-30.059850000" lon="-51.519380000">
2568 <ele>46.100000</ele>
2569 <time>2069-11-30T12:04:32.913Z</time>
2570 <course>260.000000</course>
2571 <speed>22.789888</speed>
2572 <geoidheight>0.0</geoidheight>
2573 <fix>3d</fix>
2574 <sat>8</sat>
2575 <hdop>0.800000</hdop>
2576 </trkpt>
2577 <trkpt lat="-30.059900000" lon="-51.519720000">
2578 <ele>46.100000</ele>
2579 <time>2069-11-30T12:04:35.237Z</time>
2580 <course>260.000000</course>
2581 <speed>22.789888</speed>
2582 <geoidheight>0.0</geoidheight>
2583 <fix>3d</fix>
2584 <sat>8</sat>
2585 <hdop>0.800000</hdop>
2586 </trkpt>
2587 <trkpt lat="-30.059950000" lon="-51.520060000">
2588 <ele>46.100000</ele>
2589 <time>2069-11-30T12:04:37.562Z</time>
2590 <course>260.000000</course>
2591 <speed>22.789888</speed>
2592 <geoidheight>0.0</geoidheight>
2593 <fix>3d</fix>
2594 <sat>8</sat>
2595 <hdop>0.800000</hdop>
2596 </trkpt>
2597 <trkpt lat="-30.060000000" lon="-51.520400000">
2598 <ele>46.100000</ele>
2599 <time>2069-11-30T12:04:39.886Z</time>
2600 <course>259.000000</course>
2601 <speed>22.789888</speed>
2602 <geoidheight>0.0</geoidheight>
2603 <fix>3d</fix>
2604 <sat>8</sat>
2605 <hdop>0.800000</hdop>
2606 </trkpt>
2607 <trkpt lat="-30.060060000" lon="-51.520730000">
2608 <ele>46.100000</ele>
2609 <time>2069-11-30T12:04:42.154Z</time>
2610 <course>259.000000</course>
2611 <speed>22.789888</speed>
2612 <geoidheight>0.0</geoidheight>
2613 <fix>3d</fix>
2614 <sat>8</sat>
2615 <hdop>0.800000</hdop>
2616 </trkpt>
2617 <trkpt lat="-30.060110000" lon="-51.521070000">
2618 <ele>46.100000</ele>
2619 <time>2069-11-30T12:04:44.479Z</time>
2620 <course>260.000000</course>
2621 <speed>22.789888</speed>
2622 <geoidheight>0.0</geoidheight>
2623 <fix>3d</fix>
2624 <sat>8</sat>
2625 <hdop>0.800000</hdop>
2626 </trkpt>
2627 <trkpt lat="-30.060160000" lon="-51.521410000">
2628 <ele>46.100000</ele>
2629 <time>2069-11-30T12:04:46.803Z</time>
2630 <course>260.000000</course>
2631 <speed>22.789888</speed>
2632 <geoidheight>0.0</geoidheight>
2633 <fix>3d</fix>
2634 <sat>8</sat>
2635 <hdop>0.800000</hdop>
2636 </trkpt>
2637 <trkpt lat="-30.060210000" lon="-51.521750000">
2638 <ele>46.100000</ele>
2639 <time>2069-11-30T12:04:49.127Z</time>
2640 <course>260.000000</course>
2641 <speed>22.789888</speed>
2642 <geoidheight>0.0</geoidheight>
2643 <fix>3d</fix>
2644 <sat>8</sat>
2645 <hdop>0.800000</hdop>
2646 </trkpt>
2647 <trkpt lat="-30.060260000" lon="-51.522080000">
2648 <ele>46.100000</ele>
2649 <time>2069-11-30T12:04:51.385Z</time>
2650 <course>259.000000</course>
2651 <speed>22.789888</speed>
2652 <geoidheight>0.0</geoidheight>
2653 <fix>3d</fix>
2654 <sat>8</sat>
2655 <hdop>0.800000</hdop>
2656 </trkpt>
2657 <trkpt lat="-30.060320000" lon="-51.522420000">
2658 <ele>46.100000</ele>
2659 <time>2069-11-30T12:04:53.720Z</time>
2660 <course>259.000000</course>
2661 <speed>22.789888</speed>
2662 <geoidheight>0.0</geoidheight>
2663 <fix>3d</fix>
2664 <sat>8</sat>
2665 <hdop>0.800000</hdop>
2666 </trkpt>
2667 <trkpt lat="-30.060370000" lon="-51.522760000">
2668 <ele>46.100000</ele>
2669 <time>2069-11-30T12:04:56.044Z</time>
2670 <course>260.000000</course>
2671 <speed>22.789888</speed>
2672 <geoidheight>0.0</geoidheight>
2673 <fix>3d</fix>
2674 <sat>8</sat>
2675 <hdop>0.800000</hdop>
2676 </trkpt>
2677 <trkpt lat="-30.060420000" lon="-51.523100000">
2678 <ele>46.100000</ele>
2679 <time>2069-11-30T12:04:58.368Z</time>
2680 <course>260.000000</course>
2681 <speed>22.789888</speed>
2682 <geoidheight>0.0</geoidheight>
2683 <fix>3d</fix>
2684 <sat>8</sat>
2685 <hdop>0.800000</hdop>
2686 </trkpt>
2687 <trkpt lat="-30.060470000" lon="-51.523440000">
2688 <ele>46.100000</ele>
2689 <time>2069-11-30T12:05:00.692Z</time>
2690 <course>259.000000</course>
2691 <speed>22.789888</speed>
2692 <geoidheight>0.0</geoidheight>
2693 <fix>3d</fix>
2694 <sat>8</sat>
2695 <hdop>0.800000</hdop>
2696 </trkpt>
2697 <trkpt lat="-30.060530000" lon="-51.523770000">
2698 <ele>46.100000</ele>
2699 <time>2069-11-30T12:05:02.961Z</time>
2700 <course>259.000000</course>
2701 <speed>22.789888</speed>
2702 <geoidheight>0.0</geoidheight>
2703 <fix>3d</fix>
2704 <sat>8</sat>
2705 <hdop>0.800000</hdop>
2706 </trkpt>
2707 <trkpt lat="-30.060580000" lon="-51.524110000">
2708 <ele>46.100000</ele>
2709 <time>2069-11-30T12:05:05.285Z</time>
2710 <course>260.000000</course>
2711 <speed>22.789888</speed>
2712 <geoidheight>0.0</geoidheight>
2713 <fix>3d</fix>
2714 <sat>8</sat>
2715 <hdop>0.800000</hdop>
2716 </trkpt>
2717 <trkpt lat="-30.060630000" lon="-51.524450000">
2718 <ele>46.100000</ele>
2719 <time>2069-11-30T12:05:07.609Z</time>
2720 <course>260.000000</course>
2721 <speed>22.789888</speed>
2722 <geoidheight>0.0</geoidheight>
2723 <fix>3d</fix>
2724 <sat>8</sat>
2725 <hdop>0.800000</hdop>
2726 </trkpt>
2727 <trkpt lat="-30.060680000" lon="-51.524790000">
2728 <ele>46.100000</ele>
2729 <time>2069-11-30T12:05:09.934Z</time>
2730 <course>260.000000</course>
2731 <speed>22.789888</speed>
2732 <geoidheight>0.0</geoidheight>
2733 <fix>3d</fix>
2734 <sat>8</sat>
2735 <hdop>0.800000</hdop>
2736 </trkpt>
2737 <trkpt lat="-30.060730000" lon="-51.525120000">
2738 <ele>46.100000</ele>
2739 <time>2069-11-30T12:05:12.191Z</time>
2740 <course>259.000000</course>
2741 <speed>22.789888</speed>
2742 <geoidheight>0.0</geoidheight>
2743 <fix>3d</fix>
2744 <sat>8</sat>
2745 <hdop>0.800000</hdop>
2746 </trkpt>
2747 <trkpt lat="-30.060790000" lon="-51.525460000">
2748 <ele>46.100000</ele>
2749 <time>2069-11-30T12:05:14.526Z</time>
2750 <course>259.000000</course>
2751 <speed>22.789888</speed>
2752 <geoidheight>0.0</geoidheight>
2753 <fix>3d</fix>
2754 <sat>8</sat>
2755 <hdop>0.800000</hdop>
2756 </trkpt>
2757 <trkpt lat="-30.060840000" lon="-51.525800000">
2758 <ele>46.100000</ele>
2759 <time>2069-11-30T12:05:16.850Z</time>
2760 <course>260.000000</course>
2761 <speed>22.789888</speed>
2762 <geoidheight>0.0</geoidheight>
2763 <fix>3d</fix>
2764 <sat>8</sat>
2765 <hdop>0.800000</hdop>
2766 </trkpt>
2767 <trkpt lat="-30.060890000" lon="-51.526140000">
2768 <ele>46.100000</ele>
2769 <time>2069-11-30T12:05:19.174Z</time>
2770 <course>260.000000</course>
2771 <speed>22.789888</speed>
2772 <geoidheight>0.0</geoidheight>
2773 <fix>3d</fix>
2774 <sat>8</sat>
2775 <hdop>0.800000</hdop>
2776 </trkpt>
2777 <trkpt lat="-30.060940000" lon="-51.526470000">
2778 <ele>46.100000</ele>
2779 <time>2069-11-30T12:05:21.432Z</time>
2780 <course>259.000000</course>
2781 <speed>22.789888</speed>
2782 <geoidheight>0.0</geoidheight>
2783 <fix>3d</fix>
2784 <sat>8</sat>
2785 <hdop>0.800000</hdop>
2786 </trkpt>
2787 <trkpt lat="-30.061000000" lon="-51.526810000">
2788 <ele>46.100000</ele>
2789 <time>2069-11-30T12:05:23.767Z</time>
2790 <course>259.000000</course>
2791 <speed>22.789888</speed>
2792 <geoidheight>0.0</geoidheight>
2793 <fix>3d</fix>
2794 <sat>8</sat>
2795 <hdop>0.800000</hdop>
2796 </trkpt>
2797 <trkpt lat="-30.061050000" lon="-51.527150000">
2798 <ele>46.100000</ele>
2799 <time>2069-11-30T12:05:26.091Z</time>
2800 <course>260.000000</course>
2801 <speed>22.789888</speed>
2802 <geoidheight>0.0</geoidheight>
2803 <fix>3d</fix>
2804 <sat>8</sat>
2805 <hdop>0.800000</hdop>
2806 </trkpt>
2807 <trkpt lat="-30.061100000" lon="-51.527490000">
2808 <ele>46.100000</ele>
2809 <time>2069-11-30T12:05:28.415Z</time>
2810 <course>260.000000</course>
2811 <speed>22.789888</speed>
2812 <geoidheight>0.0</geoidheight>
2813 <fix>3d</fix>
2814 <sat>8</sat>
2815 <hdop>0.800000</hdop>
2816 </trkpt>
2817 <trkpt lat="-30.061150000" lon="-51.527820000">
2818 <ele>46.100000</ele>
2819 <time>2069-11-30T12:05:30.673Z</time>
2820 <course>260.000000</course>
2821 <speed>22.789888</speed>
2822 <geoidheight>0.0</geoidheight>
2823 <fix>3d</fix>
2824 <sat>8</sat>
2825 <hdop>0.800000</hdop>
2826 </trkpt>
2827 <trkpt lat="-30.061200000" lon="-51.528160000">
2828 <ele>46.100000</ele>
2829 <time>2069-11-30T12:05:32.997Z</time>
2830 <course>259.000000</course>
2831 <speed>22.789888</speed>
2832 <geoidheight>0.0</geoidheight>
2833 <fix>3d</fix>
2834 <sat>8</sat>
2835 <hdop>0.800000</hdop>
2836 </trkpt>
2837 <trkpt lat="-30.061260000" lon="-51.528500000">
2838 <ele>46.100000</ele>
2839 <time>2069-11-30T12:05:35.332Z</time>
2840 <course>259.000000</course>
2841 <speed>22.789888</speed>
2842 <geoidheight>0.0</geoidheight>
2843 <fix>3d</fix>
2844 <sat>8</sat>
2845 <hdop>0.800000</hdop>
2846 </trkpt>
2847 <trkpt lat="-30.061310000" lon="-51.528840000">
2848 <ele>46.100000</ele>
2849 <time>2069-11-30T12:05:37.656Z</time>
2850 <course>260.000000</course>
2851 <speed>22.789888</speed>
2852 <geoidheight>0.0</geoidheight>
2853 <fix>3d</fix>
2854 <sat>8</sat>
2855 <hdop>0.800000</hdop>
2856 </trkpt>
2857 <trkpt lat="-30.061360000" lon="-51.529180000">
2858 <ele>46.100000</ele>
2859 <time>2069-11-30T12:05:39.980Z</time>
2860 <course>260.000000</course>
2861 <speed>22.789888</speed>
2862 <geoidheight>0.0</geoidheight>
2863 <fix>3d</fix>
2864 <sat>8</sat>
2865 <hdop>0.800000</hdop>
2866 </trkpt>
2867 <trkpt lat="-30.061410000" lon="-51.529510000">
2868 <ele>46.100000</ele>
2869 <time>2069-11-30T12:05:42.238Z</time>
2870 <course>259.000000</course>
2871 <speed>22.789888</speed>
2872 <geoidheight>0.0</geoidheight>
2873 <fix>3d</fix>
2874 <sat>8</sat>
2875 <hdop>0.800000</hdop>
2876 </trkpt>
2877 <trkpt lat="-30.061470000" lon="-51.529850000">
2878 <ele>46.100000</ele>
2879 <time>2069-11-30T12:05:44.573Z</time>
2880 <course>259.000000</course>
2881 <speed>22.789888</speed>
2882 <geoidheight>0.0</geoidheight>
2883 <fix>3d</fix>
2884 <sat>8</sat>
2885 <hdop>0.800000</hdop>
2886 </trkpt>
2887 <trkpt lat="-30.061520000" lon="-51.530190000">
2888 <ele>46.100000</ele>
2889 <time>2069-11-30T12:05:46.897Z</time>
2890 <course>259.000000</course>
2891 <speed>22.789888</speed>
2892 <geoidheight>0.0</geoidheight>
2893 <fix>3d</fix>
2894 <sat>8</sat>
2895 <hdop>0.800000</hdop>
2896 </trkpt>
2897 <trkpt lat="-30.061580000" lon="-51.530520000">
2898 <ele>46.100000</ele>
2899 <time>2069-11-30T12:05:49.166Z</time>
2900 <course>258.000000</course>
2901 <speed>22.789888</speed>
2902 <geoidheight>0.0</geoidheight>
2903 <fix>3d</fix>
2904 <sat>8</sat>
2905 <hdop>0.800000</hdop>
2906 </trkpt>
2907 <trkpt lat="-30.061640000" lon="-51.530860000">
2908 <ele>46.100000</ele>
2909 <time>2069-11-30T12:05:51.501Z</time>
2910 <course>259.000000</course>
2911 <speed>22.789888</speed>
2912 <geoidheight>0.0</geoidheight>
2913 <fix>3d</fix>
2914 <sat>8</sat>
2915 <hdop>0.800000</hdop>
2916 </trkpt>
2917 <trkpt lat="-30.061690000" lon="-51.531200000">
2918 <ele>46.100000</ele>
2919 <time>2069-11-30T12:05:53.825Z</time>
2920 <course>259.000000</course>
2921 <speed>22.789888</speed>
2922 <geoidheight>0.0</geoidheight>
2923 <fix>3d</fix>
2924 <sat>8</sat>
2925 <hdop>0.800000</hdop>
2926 </trkpt>
2927 <trkpt lat="-30.061750000" lon="-51.531530000">
2928 <ele>46.100000</ele>
2929 <time>2069-11-30T12:05:56.093Z</time>
2930 <course>258.000000</course>
2931 <speed>22.789888</speed>
2932 <geoidheight>0.0</geoidheight>
2933 <fix>3d</fix>
2934 <sat>8</sat>
2935 <hdop>0.800000</hdop>
2936 </trkpt>
2937 <trkpt lat="-30.061810000" lon="-51.531870000">
2938 <ele>46.100000</ele>
2939 <time>2069-11-30T12:05:58.428Z</time>
2940 <course>259.000000</course>
2941 <speed>22.789888</speed>
2942 <geoidheight>0.0</geoidheight>
2943 <fix>3d</fix>
2944 <sat>8</sat>
2945 <hdop>0.800000</hdop>
2946 </trkpt>
2947 <trkpt lat="-30.061860000" lon="-51.532210000">
2948 <ele>46.100000</ele>
2949 <time>2069-11-30T12:06:00.753Z</time>
2950 <course>259.000000</course>
2951 <speed>22.789888</speed>
2952 <geoidheight>0.0</geoidheight>
2953 <fix>3d</fix>
2954 <sat>8</sat>
2955 <hdop>0.800000</hdop>
2956 </trkpt>
2957 <trkpt lat="-30.061920000" lon="-51.532540000">
2958 <ele>46.100000</ele>
2959 <time>2069-11-30T12:06:03.021Z</time>
2960 <course>258.000000</course>
2961 <speed>22.789888</speed>
2962 <geoidheight>0.0</geoidheight>
2963 <fix>3d</fix>
2964 <sat>8</sat>
2965 <hdop>0.800000</hdop>
2966 </trkpt>
2967 <trkpt lat="-30.061980000" lon="-51.532880000">
2968 <ele>46.100000</ele>
2969 <time>2069-11-30T12:06:05.356Z</time>
2970 <course>259.000000</course>
2971 <speed>22.789888</speed>
2972 <geoidheight>0.0</geoidheight>
2973 <fix>3d</fix>
2974 <sat>8</sat>
2975 <hdop>0.800000</hdop>
2976 </trkpt>
2977 <trkpt lat="-30.062030000" lon="-51.533220000">
2978 <ele>46.100000</ele>
2979 <time>2069-11-30T12:06:07.680Z</time>
2980 <course>259.000000</course>
2981 <speed>22.789888</speed>
2982 <geoidheight>0.0</geoidheight>
2983 <fix>3d</fix>
2984 <sat>8</sat>
2985 <hdop>0.800000</hdop>
2986 </trkpt>
2987 <trkpt lat="-30.062090000" lon="-51.533550000">
2988 <ele>46.100000</ele>
2989 <time>2069-11-30T12:06:09.949Z</time>
2990 <course>258.000000</course>
2991 <speed>22.789888</speed>
2992 <geoidheight>0.0</geoidheight>
2993 <fix>3d</fix>
2994 <sat>8</sat>
2995 <hdop>0.800000</hdop>
2996 </trkpt>
2997 <trkpt lat="-30.062150000" lon="-51.533890000">
2998 <ele>46.100000</ele>
2999 <time>2069-11-30T12:06:12.284Z</time>
3000 <course>259.000000</course>
3001 <speed>22.789888</speed>
3002 <geoidheight>0.0</geoidheight>
3003 <fix>3d</fix>
3004 <sat>8</sat>
3005 <hdop>0.800000</hdop>
3006 </trkpt>
3007 <trkpt lat="-30.062210000" lon="-51.534230000">
3008 <ele>46.100000</ele>
3009 <time>2069-11-30T12:06:14.619Z</time>
3010 <course>259.000000</course>
3011 <speed>22.789888</speed>
3012 <geoidheight>0.0</geoidheight>
3013 <fix>3d</fix>
3014 <sat>8</sat>
3015 <hdop>0.800000</hdop>
3016 </trkpt>
3017 <trkpt lat="-30.062260000" lon="-51.534560000">
3018 <ele>46.100000</ele>
3019 <time>2069-11-30T12:06:16.876Z</time>
3020 <course>259.000000</course>
3021 <speed>22.789888</speed>
3022 <geoidheight>0.0</geoidheight>
3023 <fix>3d</fix>
3024 <sat>8</sat>
3025 <hdop>0.800000</hdop>
3026 </trkpt>
3027 <trkpt lat="-30.062320000" lon="-51.534900000">
3028 <ele>46.100000</ele>
3029 <time>2069-11-30T12:06:19.211Z</time>
3030 <course>259.000000</course>
3031 <speed>22.789888</speed>
3032 <geoidheight>0.0</geoidheight>
3033 <fix>3d</fix>
3034 <sat>8</sat>
3035 <hdop>0.800000</hdop>
3036 </trkpt>
3037 <trkpt lat="-30.062380000" lon="-51.535240000">
3038 <ele>46.100000</ele>
3039 <time>2069-11-30T12:06:21.546Z</time>
3040 <course>259.000000</course>
3041 <speed>22.789888</speed>
3042 <geoidheight>0.0</geoidheight>
3043 <fix>3d</fix>
3044 <sat>8</sat>
3045 <hdop>0.800000</hdop>
3046 </trkpt>
3047 <trkpt lat="-30.062430000" lon="-51.535570000">
3048 <ele>46.100000</ele>
3049 <time>2069-11-30T12:06:23.804Z</time>
3050 <course>259.000000</course>
3051 <speed>22.789888</speed>
3052 <geoidheight>0.0</geoidheight>
3053 <fix>3d</fix>
3054 <sat>8</sat>
3055 <hdop>0.800000</hdop>
3056 </trkpt>
3057 <trkpt lat="-30.062490000" lon="-51.535910000">
3058 <ele>46.100000</ele>
3059 <time>2069-11-30T12:06:26.139Z</time>
3060 <course>259.000000</course>
3061 <speed>22.789888</speed>
3062 <geoidheight>0.0</geoidheight>
3063 <fix>3d</fix>
3064 <sat>8</sat>
3065 <hdop>0.800000</hdop>
3066 </trkpt>
3067 <trkpt lat="-30.062550000" lon="-51.536250000">
3068 <ele>46.100000</ele>
3069 <time>2069-11-30T12:06:28.474Z</time>
3070 <course>259.000000</course>
3071 <speed>22.789888</speed>
3072 <geoidheight>0.0</geoidheight>
3073 <fix>3d</fix>
3074 <sat>8</sat>
3075 <hdop>0.800000</hdop>
3076 </trkpt>
3077 <trkpt lat="-30.062600000" lon="-51.536580000">
3078 <ele>46.100000</ele>
3079 <time>2069-11-30T12:06:30.731Z</time>
3080 <course>259.000000</course>
3081 <speed>22.789888</speed>
3082 <geoidheight>0.0</geoidheight>
3083 <fix>3d</fix>
3084 <sat>8</sat>
3085 <hdop>0.800000</hdop>
3086 </trkpt>
3087 <trkpt lat="-30.062660000" lon="-51.536920000">
3088 <ele>46.100000</ele>
3089 <time>2069-11-30T12:06:33.066Z</time>
3090 <course>259.000000</course>
3091 <speed>22.789888</speed>
3092 <geoidheight>0.0</geoidheight>
3093 <fix>3d</fix>
3094 <sat>8</sat>
3095 <hdop>0.800000</hdop>
3096 </trkpt>
3097 <trkpt lat="-30.062720000" lon="-51.537260000">
3098 <ele>46.100000</ele>
3099 <time>2069-11-30T12:06:35.401Z</time>
3100 <course>259.000000</course>
3101 <speed>22.789888</speed>
3102 <geoidheight>0.0</geoidheight>
3103 <fix>3d</fix>
3104 <sat>8</sat>
3105 <hdop>0.800000</hdop>
3106 </trkpt>
3107 <trkpt lat="-30.062770000" lon="-51.537590000">
3108 <ele>46.100000</ele>
3109 <time>2069-11-30T12:06:37.659Z</time>
3110 <course>259.000000</course>
3111 <speed>22.789888</speed>
3112 <geoidheight>0.0</geoidheight>
3113 <fix>3d</fix>
3114 <sat>8</sat>
3115 <hdop>0.800000</hdop>
3116 </trkpt>
3117 <trkpt lat="-30.062830000" lon="-51.537930000">
3118 <ele>46.100000</ele>
3119 <time>2069-11-30T12:06:39.994Z</time>
3120 <course>259.000000</course>
3121 <speed>22.789888</speed>
3122 <geoidheight>0.0</geoidheight>
3123 <fix>3d</fix>
3124 <sat>8</sat>
3125 <hdop>0.800000</hdop>
3126 </trkpt>
3127 <trkpt lat="-30.062890000" lon="-51.538270000">
3128 <ele>46.100000</ele>
3129 <time>2069-11-30T12:06:42.329Z</time>
3130 <course>259.000000</course>
3131 <speed>22.789888</speed>
3132 <geoidheight>0.0</geoidheight>
3133 <fix>3d</fix>
3134 <sat>8</sat>
3135 <hdop>0.800000</hdop>
3136 </trkpt>
3137 <trkpt lat="-30.062940000" lon="-51.538600000">
3138 <ele>46.100000</ele>
3139 <time>2069-11-30T12:06:44.586Z</time>
3140 <course>259.000000</course>
3141 <speed>22.789888</speed>
3142 <geoidheight>0.0</geoidheight>
3143 <fix>3d</fix>
3144 <sat>8</sat>
3145 <hdop>0.800000</hdop>
3146 </trkpt>
3147 <trkpt lat="-30.063000000" lon="-51.538940000">
3148 <ele>46.100000</ele>
3149 <time>2069-11-30T12:06:46.921Z</time>
3150 <course>259.000000</course>
3151 <speed>22.789888</speed>
3152 <geoidheight>0.0</geoidheight>
3153 <fix>3d</fix>
3154 <sat>8</sat>
3155 <hdop>0.800000</hdop>
3156 </trkpt>
3157 <trkpt lat="-30.063060000" lon="-51.539280000">
3158 <ele>46.100000</ele>
3159 <time>2069-11-30T12:06:49.256Z</time>
3160 <course>259.000000</course>
3161 <speed>22.789888</speed>
3162 <geoidheight>0.0</geoidheight>
3163 <fix>3d</fix>
3164 <sat>8</sat>
3165 <hdop>0.800000</hdop>
3166 </trkpt>
3167 <trkpt lat="-30.063110000" lon="-51.539610000">
3168 <ele>46.100000</ele>
3169 <time>2069-11-30T12:06:51.514Z</time>
3170 <course>259.000000</course>
3171 <speed>22.789888</speed>
3172 <geoidheight>0.0</geoidheight>
3173 <fix>3d</fix>
3174 <sat>8</sat>
3175 <hdop>0.800000</hdop>
3176 </trkpt>
3177 <trkpt lat="-30.063170000" lon="-51.539950000">
3178 <ele>46.100000</ele>
3179 <time>2069-11-30T12:06:53.849Z</time>
3180 <course>259.000000</course>
3181 <speed>22.789888</speed>
3182 <geoidheight>0.0</geoidheight>
3183 <fix>3d</fix>
3184 <sat>8</sat>
3185 <hdop>0.800000</hdop>
3186 </trkpt>
3187 <trkpt lat="-30.063230000" lon="-51.540290000">
3188 <ele>46.100000</ele>
3189 <time>2069-11-30T12:06:56.184Z</time>
3190 <course>259.000000</course>
3191 <speed>22.789888</speed>
3192 <geoidheight>0.0</geoidheight>
3193 <fix>3d</fix>
3194 <sat>8</sat>
3195 <hdop>0.800000</hdop>
3196 </trkpt>
3197 <trkpt lat="-30.063280000" lon="-51.540620000">
3198 <ele>46.100000</ele>
3199 <time>2069-11-30T12:06:58.441Z</time>
3200 <course>259.000000</course>
3201 <speed>22.789888</speed>
3202 <geoidheight>0.0</geoidheight>
3203 <fix>3d</fix>
3204 <sat>8</sat>
3205 <hdop>0.800000</hdop>
3206 </trkpt>
3207 <trkpt lat="-30.063340000" lon="-51.540960000">
3208 <ele>46.100000</ele>
3209 <time>2069-11-30T12:07:00.776Z</time>
3210 <course>259.000000</course>
3211 <speed>22.789888</speed>
3212 <geoidheight>0.0</geoidheight>
3213 <fix>3d</fix>
3214 <sat>8</sat>
3215 <hdop>0.800000</hdop>
3216 </trkpt>
3217 <trkpt lat="-30.063390000" lon="-51.541300000">
3218 <ele>46.100000</ele>
3219 <time>2069-11-30T12:07:03.100Z</time>
3220 <course>260.000000</course>
3221 <speed>22.789888</speed>
3222 <geoidheight>0.0</geoidheight>
3223 <fix>3d</fix>
3224 <sat>8</sat>
3225 <hdop>0.800000</hdop>
3226 </trkpt>
3227 <trkpt lat="-30.063440000" lon="-51.541640000">
3228 <ele>46.100000</ele>
3229 <time>2069-11-30T12:07:05.425Z</time>
3230 <course>259.000000</course>
3231 <speed>22.789888</speed>
3232 <geoidheight>0.0</geoidheight>
3233 <fix>3d</fix>
3234 <sat>8</sat>
3235 <hdop>0.800000</hdop>
3236 </trkpt>
3237 <trkpt lat="-30.063500000" lon="-51.541970000">
3238 <ele>46.100000</ele>
3239 <time>2069-11-30T12:07:07.693Z</time>
3240 <course>259.000000</course>
3241 <speed>22.789888</speed>
3242 <geoidheight>0.0</geoidheight>
3243 <fix>3d</fix>
3244 <sat>8</sat>
3245 <hdop>0.800000</hdop>
3246 </trkpt>
3247 <trkpt lat="-30.063550000" lon="-51.542310000">
3248 <ele>46.100000</ele>
3249 <time>2069-11-30T12:07:10.017Z</time>
3250 <course>260.000000</course>
3251 <speed>22.789888</speed>
3252 <geoidheight>0.0</geoidheight>
3253 <fix>3d</fix>
3254 <sat>8</sat>
3255 <hdop>0.800000</hdop>
3256 </trkpt>
3257 <trkpt lat="-30.063600000" lon="-51.542650000">
3258 <ele>46.100000</ele>
3259 <time>2069-11-30T12:07:12.342Z</time>
3260 <course>260.000000</course>
3261 <speed>22.789888</speed>
3262 <geoidheight>0.0</geoidheight>
3263 <fix>3d</fix>
3264 <sat>8</sat>
3265 <hdop>0.800000</hdop>
3266 </trkpt>
3267 <trkpt lat="-30.063650000" lon="-51.542990000">
3268 <ele>46.100000</ele>
3269 <time>2069-11-30T12:07:14.666Z</time>
3270 <course>260.000000</course>
3271 <speed>22.789888</speed>
3272 <geoidheight>0.0</geoidheight>
3273 <fix>3d</fix>
3274 <sat>8</sat>
3275 <hdop>0.800000</hdop>
3276 </trkpt>
3277 <trkpt lat="-30.063700000" lon="-51.543320000">
3278 <ele>46.100000</ele>
3279 <time>2069-11-30T12:07:16.923Z</time>
3280 <course>260.000000</course>
3281 <speed>22.789888</speed>
3282 <geoidheight>0.0</geoidheight>
3283 <fix>3d</fix>
3284 <sat>8</sat>
3285 <hdop>0.800000</hdop>
3286 </trkpt>
3287 <trkpt lat="-30.063750000" lon="-51.543660000">
3288 <ele>46.100000</ele>
3289 <time>2069-11-30T12:07:19.247Z</time>
3290 <course>260.000000</course>
3291 <speed>22.789888</speed>
3292 <geoidheight>0.0</geoidheight>
3293 <fix>3d</fix>
3294 <sat>8</sat>
3295 <hdop>0.800000</hdop>
3296 </trkpt>
3297 <trkpt lat="-30.063800000" lon="-51.544000000">
3298 <ele>46.100000</ele>
3299 <time>2069-11-30T12:07:21.572Z</time>
3300 <course>260.000000</course>
3301 <speed>22.789888</speed>
3302 <geoidheight>0.0</geoidheight>
3303 <fix>3d</fix>
3304 <sat>8</sat>
3305 <hdop>0.800000</hdop>
3306 </trkpt>
3307 <trkpt lat="-30.063850000" lon="-51.544340000">
3308 <ele>46.100000</ele>
3309 <time>2069-11-30T12:07:23.896Z</time>
3310 <course>260.000000</course>
3311 <speed>22.789888</speed>
3312 <geoidheight>0.0</geoidheight>
3313 <fix>3d</fix>
3314 <sat>8</sat>
3315 <hdop>0.800000</hdop>
3316 </trkpt>
3317 <trkpt lat="-30.063900000" lon="-51.544680000">
3318 <ele>46.100000</ele>
3319 <time>2069-11-30T12:07:26.220Z</time>
3320 <course>260.000000</course>
3321 <speed>22.789888</speed>
3322 <geoidheight>0.0</geoidheight>
3323 <fix>3d</fix>
3324 <sat>8</sat>
3325 <hdop>0.800000</hdop>
3326 </trkpt>
3327 <trkpt lat="-30.063950000" lon="-51.545010000">
3328 <ele>46.100000</ele>
3329 <time>2069-11-30T12:07:28.478Z</time>
3330 <course>260.000000</course>
3331 <speed>22.789888</speed>
3332 <geoidheight>0.0</geoidheight>
3333 <fix>3d</fix>
3334 <sat>8</sat>
3335 <hdop>0.800000</hdop>
3336 </trkpt>
3337 <trkpt lat="-30.064000000" lon="-51.545350000">
3338 <ele>46.100000</ele>
3339 <time>2069-11-30T12:07:30.802Z</time>
3340 <course>260.000000</course>
3341 <speed>22.789888</speed>
3342 <geoidheight>0.0</geoidheight>
3343 <fix>3d</fix>
3344 <sat>8</sat>
3345 <hdop>0.800000</hdop>
3346 </trkpt>
3347 <trkpt lat="-30.064050000" lon="-51.545690000">
3348 <ele>46.100000</ele>
3349 <time>2069-11-30T12:07:33.126Z</time>
3350 <course>260.000000</course>
3351 <speed>22.789888</speed>
3352 <geoidheight>0.0</geoidheight>
3353 <fix>3d</fix>
3354 <sat>8</sat>
3355 <hdop>0.800000</hdop>
3356 </trkpt>
3357 <trkpt lat="-30.064100000" lon="-51.546030000">
3358 <ele>46.100000</ele>
3359 <time>2069-11-30T12:07:35.450Z</time>
3360 <course>259.000000</course>
3361 <speed>22.789888</speed>
3362 <geoidheight>0.0</geoidheight>
3363 <fix>3d</fix>
3364 <sat>8</sat>
3365 <hdop>0.800000</hdop>
3366 </trkpt>
3367 <trkpt lat="-30.064160000" lon="-51.546360000">
3368 <ele>46.100000</ele>
3369 <time>2069-11-30T12:07:37.719Z</time>
3370 <course>259.000000</course>
3371 <speed>22.789888</speed>
3372 <geoidheight>0.0</geoidheight>
3373 <fix>3d</fix>
3374 <sat>8</sat>
3375 <hdop>0.800000</hdop>
3376 </trkpt>
3377 <trkpt lat="-30.064210000" lon="-51.546700000">
3378 <ele>46.100000</ele>
3379 <time>2069-11-30T12:07:40.043Z</time>
3380 <course>260.000000</course>
3381 <speed>22.789888</speed>
3382 <geoidheight>0.0</geoidheight>
3383 <fix>3d</fix>
3384 <sat>8</sat>
3385 <hdop>0.800000</hdop>
3386 </trkpt>
3387 <trkpt lat="-30.064260000" lon="-51.547040000">
3388 <ele>46.100000</ele>
3389 <time>2069-11-30T12:07:42.367Z</time>
3390 <course>260.000000</course>
3391 <speed>22.789888</speed>
3392 <geoidheight>0.0</geoidheight>
3393 <fix>3d</fix>
3394 <sat>8</sat>
3395 <hdop>0.800000</hdop>
3396 </trkpt>
3397 <trkpt lat="-30.064310000" lon="-51.547380000">
3398 <ele>46.100000</ele>
3399 <time>2069-11-30T12:07:44.692Z</time>
3400 <course>260.000000</course>
3401 <speed>22.789888</speed>
3402 <geoidheight>0.0</geoidheight>
3403 <fix>3d</fix>
3404 <sat>8</sat>
3405 <hdop>0.800000</hdop>
3406 </trkpt>
3407 <trkpt lat="-30.064360000" lon="-51.547710000">
3408 <ele>46.100000</ele>
3409 <time>2069-11-30T12:07:46.949Z</time>
3410 <course>260.000000</course>
3411 <speed>22.789888</speed>
3412 <geoidheight>0.0</geoidheight>
3413 <fix>3d</fix>
3414 <sat>8</sat>
3415 <hdop>0.800000</hdop>
3416 </trkpt>
3417 <trkpt lat="-30.064410000" lon="-51.548050000">
3418 <ele>46.100000</ele>
3419 <time>2069-11-30T12:07:49.273Z</time>
3420 <course>260.000000</course>
3421 <speed>22.789888</speed>
3422 <geoidheight>0.0</geoidheight>
3423 <fix>3d</fix>
3424 <sat>8</sat>
3425 <hdop>0.800000</hdop>
3426 </trkpt>
3427 <trkpt lat="-30.064460000" lon="-51.548390000">
3428 <ele>46.100000</ele>
3429 <time>2069-11-30T12:07:51.597Z</time>
3430 <course>260.000000</course>
3431 <speed>22.789888</speed>
3432 <geoidheight>0.0</geoidheight>
3433 <fix>3d</fix>
3434 <sat>8</sat>
3435 <hdop>0.800000</hdop>
3436 </trkpt>
3437 <trkpt lat="-30.064510000" lon="-51.548730000">
3438 <ele>46.100000</ele>
3439 <time>2069-11-30T12:07:53.922Z</time>
3440 <course>260.000000</course>
3441 <speed>22.789888</speed>
3442 <geoidheight>0.0</geoidheight>
3443 <fix>3d</fix>
3444 <sat>8</sat>
3445 <hdop>0.800000</hdop>
3446 </trkpt>
3447 <trkpt lat="-30.064560000" lon="-51.549070000">
3448 <ele>46.100000</ele>
3449 <time>2069-11-30T12:07:56.246Z</time>
3450 <course>260.000000</course>
3451 <speed>22.789888</speed>
3452 <geoidheight>0.0</geoidheight>
3453 <fix>3d</fix>
3454 <sat>8</sat>
3455 <hdop>0.800000</hdop>
3456 </trkpt>
3457 <trkpt lat="-30.064610000" lon="-51.549400000">
3458 <ele>46.100000</ele>
3459 <time>2069-11-30T12:07:58.503Z</time>
3460 <course>260.000000</course>
3461 <speed>22.789888</speed>
3462 <geoidheight>0.0</geoidheight>
3463 <fix>3d</fix>
3464 <sat>8</sat>
3465 <hdop>0.800000</hdop>
3466 </trkpt>
3467 <trkpt lat="-30.064660000" lon="-51.549740000">
3468 <ele>46.100000</ele>
3469 <time>2069-11-30T12:08:00.828Z</time>
3470 <course>260.000000</course>
3471 <speed>22.789888</speed>
3472 <geoidheight>0.0</geoidheight>
3473 <fix>3d</fix>
3474 <sat>8</sat>
3475 <hdop>0.800000</hdop>
3476 </trkpt>
3477 <trkpt lat="-30.064710000" lon="-51.550080000">
3478 <ele>46.100000</ele>
3479 <time>2069-11-30T12:08:03.152Z</time>
3480 <course>260.000000</course>
3481 <speed>22.789888</speed>
3482 <geoidheight>0.0</geoidheight>
3483 <fix>3d</fix>
3484 <sat>8</sat>
3485 <hdop>0.800000</hdop>
3486 </trkpt>
3487 <trkpt lat="-30.064760000" lon="-51.550420000">
3488 <ele>46.100000</ele>
3489 <time>2069-11-30T12:08:05.476Z</time>
3490 <course>259.000000</course>
3491 <speed>22.789888</speed>
3492 <geoidheight>0.0</geoidheight>
3493 <fix>3d</fix>
3494 <sat>8</sat>
3495 <hdop>0.800000</hdop>
3496 </trkpt>
3497 <trkpt lat="-30.064820000" lon="-51.550750000">
3498 <ele>46.100000</ele>
3499 <time>2069-11-30T12:08:07.744Z</time>
3500 <course>259.000000</course>
3501 <speed>22.789888</speed>
3502 <geoidheight>0.0</geoidheight>
3503 <fix>3d</fix>
3504 <sat>8</sat>
3505 <hdop>0.800000</hdop>
3506 </trkpt>
3507 <trkpt lat="-30.064870000" lon="-51.551090000">
3508 <ele>46.100000</ele>
3509 <time>2069-11-30T12:08:10.069Z</time>
3510 <course>260.000000</course>
3511 <speed>22.789888</speed>
3512 <geoidheight>0.0</geoidheight>
3513 <fix>3d</fix>
3514 <sat>8</sat>
3515 <hdop>0.800000</hdop>
3516 </trkpt>
3517 <trkpt lat="-30.064920000" lon="-51.551430000">
3518 <ele>46.100000</ele>
3519 <time>2069-11-30T12:08:12.393Z</time>
3520 <course>260.000000</course>
3521 <speed>22.789888</speed>
3522 <geoidheight>0.0</geoidheight>
3523 <fix>3d</fix>
3524 <sat>8</sat>
3525 <hdop>0.800000</hdop>
3526 </trkpt>
3527 <trkpt lat="-30.064970000" lon="-51.551770000">
3528 <ele>46.100000</ele>
3529 <time>2069-11-30T12:08:14.717Z</time>
3530 <course>259.000000</course>
3531 <speed>22.789888</speed>
3532 <geoidheight>0.0</geoidheight>
3533 <fix>3d</fix>
3534 <sat>8</sat>
3535 <hdop>0.800000</hdop>
3536 </trkpt>
3537 <trkpt lat="-30.065030000" lon="-51.552110000">
3538 <ele>46.100000</ele>
3539 <time>2069-11-30T12:08:17.052Z</time>
3540 <course>259.000000</course>
3541 <speed>22.789888</speed>
3542 <geoidheight>0.0</geoidheight>
3543 <fix>3d</fix>
3544 <sat>8</sat>
3545 <hdop>0.800000</hdop>
3546 </trkpt>
3547 <trkpt lat="-30.065080000" lon="-51.552440000">
3548 <ele>46.100000</ele>
3549 <time>2069-11-30T12:08:19.310Z</time>
3550 <course>260.000000</course>
3551 <speed>22.789888</speed>
3552 <geoidheight>0.0</geoidheight>
3553 <fix>3d</fix>
3554 <sat>8</sat>
3555 <hdop>0.800000</hdop>
3556 </trkpt>
3557 <trkpt lat="-30.065130000" lon="-51.552780000">
3558 <ele>46.100000</ele>
3559 <time>2069-11-30T12:08:21.634Z</time>
3560 <course>259.000000</course>
3561 <speed>22.789888</speed>
3562 <geoidheight>0.0</geoidheight>
3563 <fix>3d</fix>
3564 <sat>8</sat>
3565 <hdop>0.800000</hdop>
3566 </trkpt>
3567 <trkpt lat="-30.065190000" lon="-51.553120000">
3568 <ele>46.100000</ele>
3569 <time>2069-11-30T12:08:23.969Z</time>
3570 <course>259.000000</course>
3571 <speed>22.789888</speed>
3572 <geoidheight>0.0</geoidheight>
3573 <fix>3d</fix>
3574 <sat>8</sat>
3575 <hdop>0.800000</hdop>
3576 </trkpt>
3577 <trkpt lat="-30.065240000" lon="-51.553460000">
3578 <ele>46.100000</ele>
3579 <time>2069-11-30T12:08:26.293Z</time>
3580 <course>260.000000</course>
3581 <speed>22.789888</speed>
3582 <geoidheight>0.0</geoidheight>
3583 <fix>3d</fix>
3584 <sat>8</sat>
3585 <hdop>0.800000</hdop>
3586 </trkpt>
3587 <trkpt lat="-30.065290000" lon="-51.553790000">
3588 <ele>46.100000</ele>
3589 <time>2069-11-30T12:08:28.551Z</time>
3590 <course>259.000000</course>
3591 <speed>22.789888</speed>
3592 <geoidheight>0.0</geoidheight>
3593 <fix>3d</fix>
3594 <sat>8</sat>
3595 <hdop>0.800000</hdop>
3596 </trkpt>
3597 <trkpt lat="-30.065350000" lon="-51.554130000">
3598 <ele>46.100000</ele>
3599 <time>2069-11-30T12:08:30.886Z</time>
3600 <course>259.000000</course>
3601 <speed>22.789888</speed>
3602 <geoidheight>0.0</geoidheight>
3603 <fix>3d</fix>
3604 <sat>8</sat>
3605 <hdop>0.800000</hdop>
3606 </trkpt>
3607 <trkpt lat="-30.065400000" lon="-51.554470000">
3608 <ele>46.100000</ele>
3609 <time>2069-11-30T12:08:33.210Z</time>
3610 <course>260.000000</course>
3611 <speed>22.789888</speed>
3612 <geoidheight>0.0</geoidheight>
3613 <fix>3d</fix>
3614 <sat>8</sat>
3615 <hdop>0.800000</hdop>
3616 </trkpt>
3617 <trkpt lat="-30.065450000" lon="-51.554810000">
3618 <ele>46.100000</ele>
3619 <time>2069-11-30T12:08:35.534Z</time>
3620 <course>259.000000</course>
3621 <speed>22.789888</speed>
3622 <geoidheight>0.0</geoidheight>
3623 <fix>3d</fix>
3624 <sat>8</sat>
3625 <hdop>0.800000</hdop>
3626 </trkpt>
3627 <trkpt lat="-30.065510000" lon="-51.555140000">
3628 <ele>46.100000</ele>
3629 <time>2069-11-30T12:08:37.803Z</time>
3630 <course>259.000000</course>
3631 <speed>22.789888</speed>
3632 <geoidheight>0.0</geoidheight>
3633 <fix>3d</fix>
3634 <sat>8</sat>
3635 <hdop>0.800000</hdop>
3636 </trkpt>
3637 <trkpt lat="-30.065560000" lon="-51.555480000">
3638 <ele>46.100000</ele>
3639 <time>2069-11-30T12:08:40.127Z</time>
3640 <course>260.000000</course>
3641 <speed>22.789888</speed>
3642 <geoidheight>0.0</geoidheight>
3643 <fix>3d</fix>
3644 <sat>8</sat>
3645 <hdop>0.800000</hdop>
3646 </trkpt>
3647 <trkpt lat="-30.065610000" lon="-51.555820000">
3648 <ele>46.100000</ele>
3649 <time>2069-11-30T12:08:42.451Z</time>
3650 <course>259.000000</course>
3651 <speed>22.789888</speed>
3652 <geoidheight>0.0</geoidheight>
3653 <fix>3d</fix>
3654 <sat>8</sat>
3655 <hdop>0.800000</hdop>
3656 </trkpt>
3657 <trkpt lat="-30.065670000" lon="-51.556160000">
3658 <ele>46.100000</ele>
3659 <time>2069-11-30T12:08:44.786Z</time>
3660 <course>259.000000</course>
3661 <speed>22.789888</speed>
3662 <geoidheight>0.0</geoidheight>
3663 <fix>3d</fix>
3664 <sat>8</sat>
3665 <hdop>0.800000</hdop>
3666 </trkpt>
3667 <trkpt lat="-30.065720000" lon="-51.556490000">
3668 <ele>46.100000</ele>
3669 <time>2069-11-30T12:08:47.043Z</time>
3670 <course>260.000000</course>
3671 <speed>22.789888</speed>
3672 <geoidheight>0.0</geoidheight>
3673 <fix>3d</fix>
3674 <sat>8</sat>
3675 <hdop>0.800000</hdop>
3676 </trkpt>
3677 <trkpt lat="-30.065770000" lon="-51.556830000">
3678 <ele>46.100000</ele>
3679 <time>2069-11-30T12:08:49.368Z</time>
3680 <course>259.000000</course>
3681 <speed>22.789888</speed>
3682 <geoidheight>0.0</geoidheight>
3683 <fix>3d</fix>
3684 <sat>8</sat>
3685 <hdop>0.800000</hdop>
3686 </trkpt>
3687 <trkpt lat="-30.065830000" lon="-51.557170000">
3688 <ele>46.100000</ele>
3689 <time>2069-11-30T12:08:51.703Z</time>
3690 <course>259.000000</course>
3691 <speed>22.789888</speed>
3692 <geoidheight>0.0</geoidheight>
3693 <fix>3d</fix>
3694 <sat>8</sat>
3695 <hdop>0.800000</hdop>
3696 </trkpt>
3697 <trkpt lat="-30.065880000" lon="-51.557510000">
3698 <ele>46.100000</ele>
3699 <time>2069-11-30T12:08:54.027Z</time>
3700 <course>260.000000</course>
3701 <speed>22.789888</speed>
3702 <geoidheight>0.0</geoidheight>
3703 <fix>3d</fix>
3704 <sat>8</sat>
3705 <hdop>0.800000</hdop>
3706 </trkpt>
3707 <trkpt lat="-30.065930000" lon="-51.557840000">
3708 <ele>46.100000</ele>
3709 <time>2069-11-30T12:08:56.284Z</time>
3710 <course>259.000000</course>
3711 <speed>22.789888</speed>
3712 <geoidheight>0.0</geoidheight>
3713 <fix>3d</fix>
3714 <sat>8</sat>
3715 <hdop>0.800000</hdop>
3716 </trkpt>
3717 <trkpt lat="-30.065990000" lon="-51.558180000">
3718 <ele>46.100000</ele>
3719 <time>2069-11-30T12:08:58.619Z</time>
3720 <course>259.000000</course>
3721 <speed>22.789888</speed>
3722 <geoidheight>0.0</geoidheight>
3723 <fix>3d</fix>
3724 <sat>8</sat>
3725 <hdop>0.800000</hdop>
3726 </trkpt>
3727 <trkpt lat="-30.066040000" lon="-51.558520000">
3728 <ele>46.100000</ele>
3729 <time>2069-11-30T12:09:00.944Z</time>
3730 <course>260.000000</course>
3731 <speed>22.789888</speed>
3732 <geoidheight>0.0</geoidheight>
3733 <fix>3d</fix>
3734 <sat>8</sat>
3735 <hdop>0.800000</hdop>
3736 </trkpt>
3737 <trkpt lat="-30.066090000" lon="-51.558860000">
3738 <ele>46.100000</ele>
3739 <time>2069-11-30T12:09:03.268Z</time>
3740 <course>259.000000</course>
3741 <speed>22.789888</speed>
3742 <geoidheight>0.0</geoidheight>
3743 <fix>3d</fix>
3744 <sat>8</sat>
3745 <hdop>0.800000</hdop>
3746 </trkpt>
3747 <trkpt lat="-30.066150000" lon="-51.559190000">
3748 <ele>46.100000</ele>
3749 <time>2069-11-30T12:09:05.536Z</time>
3750 <course>259.000000</course>
3751 <speed>22.789888</speed>
3752 <geoidheight>0.0</geoidheight>
3753 <fix>3d</fix>
3754 <sat>8</sat>
3755 <hdop>0.800000</hdop>
3756 </trkpt>
3757 <trkpt lat="-30.066200000" lon="-51.559530000">
3758 <ele>46.100000</ele>
3759 <time>2069-11-30T12:09:07.861Z</time>
3760 <course>260.000000</course>
3761 <speed>22.789888</speed>
3762 <geoidheight>0.0</geoidheight>
3763 <fix>3d</fix>
3764 <sat>8</sat>
3765 <hdop>0.800000</hdop>
3766 </trkpt>
3767 <trkpt lat="-30.066250000" lon="-51.559870000">
3768 <ele>46.100000</ele>
3769 <time>2069-11-30T12:09:10.185Z</time>
3770 <course>259.000000</course>
3771 <speed>22.789888</speed>
3772 <geoidheight>0.0</geoidheight>
3773 <fix>3d</fix>
3774 <sat>8</sat>
3775 <hdop>0.800000</hdop>
3776 </trkpt>
3777 <trkpt lat="-30.066310000" lon="-51.560210000">
3778 <ele>46.100000</ele>
3779 <time>2069-11-30T12:09:12.520Z</time>
3780 <course>259.000000</course>
3781 <speed>22.789888</speed>
3782 <geoidheight>0.0</geoidheight>
3783 <fix>3d</fix>
3784 <sat>8</sat>
3785 <hdop>0.800000</hdop>
3786 </trkpt>
3787 <trkpt lat="-30.066360000" lon="-51.560550000">
3788 <ele>46.100000</ele>
3789 <time>2069-11-30T12:09:14.844Z</time>
3790 <course>259.000000</course>
3791 <speed>22.789888</speed>
3792 <geoidheight>0.0</geoidheight>
3793 <fix>3d</fix>
3794 <sat>8</sat>
3795 <hdop>0.800000</hdop>
3796 </trkpt>
3797 <trkpt lat="-30.066420000" lon="-51.560880000">
3798 <ele>46.100000</ele>
3799 <time>2069-11-30T12:09:17.113Z</time>
3800 <course>259.000000</course>
3801 <speed>22.789888</speed>
3802 <geoidheight>0.0</geoidheight>
3803 <fix>3d</fix>
3804 <sat>8</sat>
3805 <hdop>0.800000</hdop>
3806 </trkpt>
3807 <trkpt lat="-30.066470000" lon="-51.561220000">
3808 <ele>46.100000</ele>
3809 <time>2069-11-30T12:09:19.437Z</time>
3810 <course>260.000000</course>
3811 <speed>22.789888</speed>
3812 <geoidheight>0.0</geoidheight>
3813 <fix>3d</fix>
3814 <sat>8</sat>
3815 <hdop>0.800000</hdop>
3816 </trkpt>
3817 <trkpt lat="-30.066520000" lon="-51.561560000">
3818 <ele>46.100000</ele>
3819 <time>2069-11-30T12:09:21.761Z</time>
3820 <course>259.000000</course>
3821 <speed>22.789888</speed>
3822 <geoidheight>0.0</geoidheight>
3823 <fix>3d</fix>
3824 <sat>8</sat>
3825 <hdop>0.800000</hdop>
3826 </trkpt>
3827 <trkpt lat="-30.066580000" lon="-51.561900000">
3828 <ele>46.100000</ele>
3829 <time>2069-11-30T12:09:24.096Z</time>
3830 <course>259.000000</course>
3831 <speed>22.789888</speed>
3832 <geoidheight>0.0</geoidheight>
3833 <fix>3d</fix>
3834 <sat>8</sat>
3835 <hdop>0.800000</hdop>
3836 </trkpt>
3837 <trkpt lat="-30.066630000" lon="-51.562230000">
3838 <ele>46.100000</ele>
3839 <time>2069-11-30T12:09:26.354Z</time>
3840 <course>260.000000</course>
3841 <speed>22.789888</speed>
3842 <geoidheight>0.0</geoidheight>
3843 <fix>3d</fix>
3844 <sat>8</sat>
3845 <hdop>0.800000</hdop>
3846 </trkpt>
3847 <trkpt lat="-30.066680000" lon="-51.562570000">
3848 <ele>46.100000</ele>
3849 <time>2069-11-30T12:09:28.678Z</time>
3850 <course>259.000000</course>
3851 <speed>22.789888</speed>
3852 <geoidheight>0.0</geoidheight>
3853 <fix>3d</fix>
3854 <sat>8</sat>
3855 <hdop>0.800000</hdop>
3856 </trkpt>
3857 <trkpt lat="-30.066740000" lon="-51.562910000">
3858 <ele>46.100000</ele>
3859 <time>2069-11-30T12:09:31.013Z</time>
3860 <course>259.000000</course>
3861 <speed>22.789888</speed>
3862 <geoidheight>0.0</geoidheight>
3863 <fix>3d</fix>
3864 <sat>8</sat>
3865 <hdop>0.800000</hdop>
3866 </trkpt>
3867 <trkpt lat="-30.066790000" lon="-51.563250000">
3868 <ele>46.100000</ele>
3869 <time>2069-11-30T12:09:33.337Z</time>
3870 <course>260.000000</course>
3871 <speed>22.789888</speed>
3872 <geoidheight>0.0</geoidheight>
3873 <fix>3d</fix>
3874 <sat>8</sat>
3875 <hdop>0.800000</hdop>
3876 </trkpt>
3877 <trkpt lat="-30.066840000" lon="-51.563580000">
3878 <ele>46.100000</ele>
3879 <time>2069-11-30T12:09:35.594Z</time>
3880 <course>259.000000</course>
3881 <speed>22.789888</speed>
3882 <geoidheight>0.0</geoidheight>
3883 <fix>3d</fix>
3884 <sat>8</sat>
3885 <hdop>0.800000</hdop>
3886 </trkpt>
3887 <trkpt lat="-30.066900000" lon="-51.563920000">
3888 <ele>46.100000</ele>
3889 <time>2069-11-30T12:09:37.930Z</time>
3890 <course>259.000000</course>
3891 <speed>22.789888</speed>
3892 <geoidheight>0.0</geoidheight>
3893 <fix>3d</fix>
3894 <sat>8</sat>
3895 <hdop>0.800000</hdop>
3896 </trkpt>
3897 <trkpt lat="-30.066950000" lon="-51.564260000">
3898 <ele>46.100000</ele>
3899 <time>2069-11-30T12:09:40.254Z</time>
3900 <course>260.000000</course>
3901 <speed>22.789888</speed>
3902 <geoidheight>0.0</geoidheight>
3903 <fix>3d</fix>
3904 <sat>8</sat>
3905 <hdop>0.800000</hdop>
3906 </trkpt>
3907 <trkpt lat="-30.067000000" lon="-51.564600000">
3908 <ele>46.100000</ele>
3909 <time>2069-11-30T12:09:42.578Z</time>
3910 <course>259.000000</course>
3911 <speed>22.789888</speed>
3912 <geoidheight>0.0</geoidheight>
3913 <fix>3d</fix>
3914 <sat>8</sat>
3915 <hdop>0.800000</hdop>
3916 </trkpt>
3917 <trkpt lat="-30.067060000" lon="-51.564930000">
3918 <ele>46.100000</ele>
3919 <time>2069-11-30T12:09:44.846Z</time>
3920 <course>259.000000</course>
3921 <speed>22.789888</speed>
3922 <geoidheight>0.0</geoidheight>
3923 <fix>3d</fix>
3924 <sat>8</sat>
3925 <hdop>0.800000</hdop>
3926 </trkpt>
3927 <trkpt lat="-30.067110000" lon="-51.565270000">
3928 <ele>46.100000</ele>
3929 <time>2069-11-30T12:09:47.171Z</time>
3930 <course>260.000000</course>
3931 <speed>22.789888</speed>
3932 <geoidheight>0.0</geoidheight>
3933 <fix>3d</fix>
3934 <sat>8</sat>
3935 <hdop>0.800000</hdop>
3936 </trkpt>
3937 <trkpt lat="-30.067160000" lon="-51.565610000">
3938 <ele>46.100000</ele>
3939 <time>2069-11-30T12:09:49.495Z</time>
3940 <course>259.000000</course>
3941 <speed>22.789888</speed>
3942 <geoidheight>0.0</geoidheight>
3943 <fix>3d</fix>
3944 <sat>8</sat>
3945 <hdop>0.800000</hdop>
3946 </trkpt>
3947 <trkpt lat="-30.067220000" lon="-51.565950000">
3948 <ele>46.100000</ele>
3949 <time>2069-11-30T12:09:51.830Z</time>
3950 <course>259.000000</course>
3951 <speed>22.789888</speed>
3952 <geoidheight>0.0</geoidheight>
3953 <fix>3d</fix>
3954 <sat>8</sat>
3955 <hdop>0.800000</hdop>
3956 </trkpt>
3957 <trkpt lat="-30.067270000" lon="-51.566280000">
3958 <ele>46.100000</ele>
3959 <time>2069-11-30T12:09:54.087Z</time>
3960 <course>260.000000</course>
3961 <speed>22.789888</speed>
3962 <geoidheight>0.0</geoidheight>
3963 <fix>3d</fix>
3964 <sat>8</sat>
3965 <hdop>0.800000</hdop>
3966 </trkpt>
3967 <trkpt lat="-30.067320000" lon="-51.566620000">
3968 <ele>46.100000</ele>
3969 <time>2069-11-30T12:09:56.412Z</time>
3970 <course>259.000000</course>
3971 <speed>22.789888</speed>
3972 <geoidheight>0.0</geoidheight>
3973 <fix>3d</fix>
3974 <sat>8</sat>
3975 <hdop>0.800000</hdop>
3976 </trkpt>
3977 <trkpt lat="-30.067380000" lon="-51.566960000">
3978 <ele>46.100000</ele>
3979 <time>2069-11-30T12:09:58.747Z</time>
3980 <course>259.000000</course>
3981 <speed>22.789888</speed>
3982 <geoidheight>0.0</geoidheight>
3983 <fix>3d</fix>
3984 <sat>8</sat>
3985 <hdop>0.800000</hdop>
3986 </trkpt>
3987 <trkpt lat="-30.067430000" lon="-51.567300000">
3988 <ele>46.100000</ele>
3989 <time>2069-11-30T12:10:01.071Z</time>
3990 <course>260.000000</course>
3991 <speed>22.789888</speed>
3992 <geoidheight>0.0</geoidheight>
3993 <fix>3d</fix>
3994 <sat>8</sat>
3995 <hdop>0.800000</hdop>
3996 </trkpt>
3997 <trkpt lat="-30.067480000" lon="-51.567630000">
3998 <ele>46.100000</ele>
3999 <time>2069-11-30T12:10:03.328Z</time>
4000 <course>259.000000</course>
4001 <speed>22.789888</speed>
4002 <geoidheight>0.0</geoidheight>
4003 <fix>3d</fix>
4004 <sat>8</sat>
4005 <hdop>0.800000</hdop>
4006 </trkpt>
4007 <trkpt lat="-30.067540000" lon="-51.567970000">
4008 <ele>46.100000</ele>
4009 <time>2069-11-30T12:10:05.663Z</time>
4010 <course>259.000000</course>
4011 <speed>22.789888</speed>
4012 <geoidheight>0.0</geoidheight>
4013 <fix>3d</fix>
4014 <sat>8</sat>
4015 <hdop>0.800000</hdop>
4016 </trkpt>
4017 <trkpt lat="-30.067590000" lon="-51.568310000">
4018 <ele>46.100000</ele>
4019 <time>2069-11-30T12:10:07.988Z</time>
4020 <course>259.000000</course>
4021 <speed>22.789888</speed>
4022 <geoidheight>0.0</geoidheight>
4023 <fix>3d</fix>
4024 <sat>8</sat>
4025 <hdop>0.800000</hdop>
4026 </trkpt>
4027 <trkpt lat="-30.067650000" lon="-51.568650000">
4028 <ele>46.100000</ele>
4029 <time>2069-11-30T12:10:10.323Z</time>
4030 <course>258.000000</course>
4031 <speed>22.789888</speed>
4032 <geoidheight>0.0</geoidheight>
4033 <fix>3d</fix>
4034 <sat>8</sat>
4035 <hdop>0.800000</hdop>
4036 </trkpt>
4037 <trkpt lat="-30.067710000" lon="-51.568980000">
4038 <ele>46.100000</ele>
4039 <time>2069-11-30T12:10:12.591Z</time>
4040 <course>259.000000</course>
4041 <speed>22.789888</speed>
4042 <geoidheight>0.0</geoidheight>
4043 <fix>3d</fix>
4044 <sat>8</sat>
4045 <hdop>0.800000</hdop>
4046 </trkpt>
4047 <trkpt lat="-30.067760000" lon="-51.569320000">
4048 <ele>46.100000</ele>
4049 <time>2069-11-30T12:10:14.915Z</time>
4050 <course>259.000000</course>
4051 <speed>22.789888</speed>
4052 <geoidheight>0.0</geoidheight>
4053 <fix>3d</fix>
4054 <sat>8</sat>
4055 <hdop>0.800000</hdop>
4056 </trkpt>
4057 <trkpt lat="-30.067820000" lon="-51.569660000">
4058 <ele>46.100000</ele>
4059 <time>2069-11-30T12:10:17.250Z</time>
4060 <course>258.000000</course>
4061 <speed>22.789888</speed>
4062 <geoidheight>0.0</geoidheight>
4063 <fix>3d</fix>
4064 <sat>8</sat>
4065 <hdop>0.800000</hdop>
4066 </trkpt>
4067 <trkpt lat="-30.067880000" lon="-51.569990000">
4068 <ele>46.100000</ele>
4069 <time>2069-11-30T12:10:19.519Z</time>
4070 <course>258.000000</course>
4071 <speed>22.789888</speed>
4072 <geoidheight>0.0</geoidheight>
4073 <fix>3d</fix>
4074 <sat>8</sat>
4075 <hdop>0.800000</hdop>
4076 </trkpt>
4077 <trkpt lat="-30.067940000" lon="-51.570330000">
4078 <ele>46.100000</ele>
4079 <time>2069-11-30T12:10:21.854Z</time>
4080 <course>259.000000</course>
4081 <speed>22.789888</speed>
4082 <geoidheight>0.0</geoidheight>
4083 <fix>3d</fix>
4084 <sat>8</sat>
4085 <hdop>0.800000</hdop>
4086 </trkpt>
4087 <trkpt lat="-30.067990000" lon="-51.570670000">
4088 <ele>46.100000</ele>
4089 <time>2069-11-30T12:10:24.178Z</time>
4090 <course>259.000000</course>
4091 <speed>22.789888</speed>
4092 <geoidheight>0.0</geoidheight>
4093 <fix>3d</fix>
4094 <sat>8</sat>
4095 <hdop>0.800000</hdop>
4096 </trkpt>
4097 <trkpt lat="-30.068050000" lon="-51.571000000">
4098 <ele>46.100000</ele>
4099 <time>2069-11-30T12:10:26.447Z</time>
4100 <course>258.000000</course>
4101 <speed>22.789888</speed>
4102 <geoidheight>0.0</geoidheight>
4103 <fix>3d</fix>
4104 <sat>8</sat>
4105 <hdop>0.800000</hdop>
4106 </trkpt>
4107 <trkpt lat="-30.068110000" lon="-51.571340000">
4108 <ele>46.100000</ele>
4109 <time>2069-11-30T12:10:28.782Z</time>
4110 <course>259.000000</course>
4111 <speed>22.789888</speed>
4112 <geoidheight>0.0</geoidheight>
4113 <fix>3d</fix>
4114 <sat>8</sat>
4115 <hdop>0.800000</hdop>
4116 </trkpt>
4117 <trkpt lat="-30.068160000" lon="-51.571680000">
4118 <ele>46.100000</ele>
4119 <time>2069-11-30T12:10:31.106Z</time>
4120 <course>259.000000</course>
4121 <speed>22.789888</speed>
4122 <geoidheight>0.0</geoidheight>
4123 <fix>3d</fix>
4124 <sat>8</sat>
4125 <hdop>0.800000</hdop>
4126 </trkpt>
4127 <trkpt lat="-30.068220000" lon="-51.572010000">
4128 <ele>46.100000</ele>
4129 <time>2069-11-30T12:10:33.374Z</time>
4130 <course>258.000000</course>
4131 <speed>22.789888</speed>
4132 <geoidheight>0.0</geoidheight>
4133 <fix>3d</fix>
4134 <sat>8</sat>
4135 <hdop>0.800000</hdop>
4136 </trkpt>
4137 <trkpt lat="-30.068280000" lon="-51.572350000">
4138 <ele>46.100000</ele>
4139 <time>2069-11-30T12:10:35.709Z</time>
4140 <course>259.000000</course>
4141 <speed>22.789888</speed>
4142 <geoidheight>0.0</geoidheight>
4143 <fix>3d</fix>
4144 <sat>8</sat>
4145 <hdop>0.800000</hdop>
4146 </trkpt>
4147 <trkpt lat="-30.068330000" lon="-51.572690000">
4148 <ele>46.100000</ele>
4149 <time>2069-11-30T12:10:38.034Z</time>
4150 <course>260.000000</course>
4151 <speed>22.789888</speed>
4152 <geoidheight>0.0</geoidheight>
4153 <fix>3d</fix>
4154 <sat>8</sat>
4155 <hdop>0.800000</hdop>
4156 </trkpt>
4157 <trkpt lat="-30.068380000" lon="-51.573030000">
4158 <ele>46.100000</ele>
4159 <time>2069-11-30T12:10:40.358Z</time>
4160 <course>260.000000</course>
4161 <speed>22.789888</speed>
4162 <geoidheight>0.0</geoidheight>
4163 <fix>3d</fix>
4164 <sat>8</sat>
4165 <hdop>0.800000</hdop>
4166 </trkpt>
4167 <trkpt lat="-30.068430000" lon="-51.573360000">
4168 <ele>46.100000</ele>
4169 <time>2069-11-30T12:10:42.615Z</time>
4170 <course>259.000000</course>
4171 <speed>22.789888</speed>
4172 <geoidheight>0.0</geoidheight>
4173 <fix>3d</fix>
4174 <sat>8</sat>
4175 <hdop>0.800000</hdop>
4176 </trkpt>
4177 <trkpt lat="-30.068490000" lon="-51.573700000">
4178 <ele>46.100000</ele>
4179 <time>2069-11-30T12:10:44.950Z</time>
4180 <course>259.000000</course>
4181 <speed>22.789888</speed>
4182 <geoidheight>0.0</geoidheight>
4183 <fix>3d</fix>
4184 <sat>8</sat>
4185 <hdop>0.800000</hdop>
4186 </trkpt>
4187 <trkpt lat="-30.068540000" lon="-51.574040000">
4188 <ele>46.100000</ele>
4189 <time>2069-11-30T12:10:47.275Z</time>
4190 <course>260.000000</course>
4191 <speed>22.789888</speed>
4192 <geoidheight>0.0</geoidheight>
4193 <fix>3d</fix>
4194 <sat>8</sat>
4195 <hdop>0.800000</hdop>
4196 </trkpt>
4197 <trkpt lat="-30.068590000" lon="-51.574370000">
4198 <ele>46.100000</ele>
4199 <time>2069-11-30T12:10:49.532Z</time>
4200 <course>260.000000</course>
4201 <speed>22.789888</speed>
4202 <geoidheight>0.0</geoidheight>
4203 <fix>3d</fix>
4204 <sat>8</sat>
4205 <hdop>0.800000</hdop>
4206 </trkpt>
4207 <trkpt lat="-30.068640000" lon="-51.574710000">
4208 <ele>46.100000</ele>
4209 <time>2069-11-30T12:10:51.856Z</time>
4210 <course>260.000000</course>
4211 <speed>22.789888</speed>
4212 <geoidheight>0.0</geoidheight>
4213 <fix>3d</fix>
4214 <sat>8</sat>
4215 <hdop>0.800000</hdop>
4216 </trkpt>
4217 <trkpt lat="-30.068690000" lon="-51.575050000">
4218 <ele>46.100000</ele>
4219 <time>2069-11-30T12:10:54.180Z</time>
4220 <course>260.000000</course>
4221 <speed>22.789888</speed>
4222 <geoidheight>0.0</geoidheight>
4223 <fix>3d</fix>
4224 <sat>8</sat>
4225 <hdop>0.800000</hdop>
4226 </trkpt>
4227 <trkpt lat="-30.068740000" lon="-51.575390000">
4228 <ele>46.100000</ele>
4229 <time>2069-11-30T12:10:56.505Z</time>
4230 <course>260.000000</course>
4231 <speed>22.789888</speed>
4232 <geoidheight>0.0</geoidheight>
4233 <fix>3d</fix>
4234 <sat>8</sat>
4235 <hdop>0.800000</hdop>
4236 </trkpt>
4237 <trkpt lat="-30.068790000" lon="-51.575720000">
4238 <ele>46.100000</ele>
4239 <time>2069-11-30T12:10:58.762Z</time>
4240 <course>260.000000</course>
4241 <speed>22.789888</speed>
4242 <geoidheight>0.0</geoidheight>
4243 <fix>3d</fix>
4244 <sat>8</sat>
4245 <hdop>0.800000</hdop>
4246 </trkpt>
4247 <trkpt lat="-30.068840000" lon="-51.576060000">
4248 <ele>46.100000</ele>
4249 <time>2069-11-30T12:11:01.086Z</time>
4250 <course>259.000000</course>
4251 <speed>22.789888</speed>
4252 <geoidheight>0.0</geoidheight>
4253 <fix>3d</fix>
4254 <sat>8</sat>
4255 <hdop>0.800000</hdop>
4256 </trkpt>
4257 <trkpt lat="-30.068900000" lon="-51.576400000">
4258 <ele>46.100000</ele>
4259 <time>2069-11-30T12:11:03.421Z</time>
4260 <course>259.000000</course>
4261 <speed>22.789888</speed>
4262 <geoidheight>0.0</geoidheight>
4263 <fix>3d</fix>
4264 <sat>8</sat>
4265 <hdop>0.800000</hdop>
4266 </trkpt>
4267 <trkpt lat="-30.068950000" lon="-51.576730000">
4268 <ele>46.100000</ele>
4269 <time>2069-11-30T12:11:05.679Z</time>
4270 <course>260.000000</course>
4271 <speed>22.789888</speed>
4272 <geoidheight>0.0</geoidheight>
4273 <fix>3d</fix>
4274 <sat>8</sat>
4275 <hdop>0.800000</hdop>
4276 </trkpt>
4277 <trkpt lat="-30.069000000" lon="-51.577070000">
4278 <ele>46.100000</ele>
4279 <time>2069-11-30T12:11:08.003Z</time>
4280 <course>260.000000</course>
4281 <speed>22.789888</speed>
4282 <geoidheight>0.0</geoidheight>
4283 <fix>3d</fix>
4284 <sat>8</sat>
4285 <hdop>0.800000</hdop>
4286 </trkpt>
4287 <trkpt lat="-30.069050000" lon="-51.577410000">
4288 <ele>46.100000</ele>
4289 <time>2069-11-30T12:11:10.327Z</time>
4290 <course>260.000000</course>
4291 <speed>22.789888</speed>
4292 <geoidheight>0.0</geoidheight>
4293 <fix>3d</fix>
4294 <sat>8</sat>
4295 <hdop>0.800000</hdop>
4296 </trkpt>
4297 <trkpt lat="-30.069100000" lon="-51.577750000">
4298 <ele>46.100000</ele>
4299 <time>2069-11-30T12:11:12.651Z</time>
4300 <course>260.000000</course>
4301 <speed>22.789888</speed>
4302 <geoidheight>0.0</geoidheight>
4303 <fix>3d</fix>
4304 <sat>8</sat>
4305 <hdop>0.800000</hdop>
4306 </trkpt>
4307 <trkpt lat="-30.069150000" lon="-51.578080000">
4308 <ele>46.100000</ele>
4309 <time>2069-11-30T12:11:14.909Z</time>
4310 <course>259.000000</course>
4311 <speed>22.789888</speed>
4312 <geoidheight>0.0</geoidheight>
4313 <fix>3d</fix>
4314 <sat>8</sat>
4315 <hdop>0.800000</hdop>
4316 </trkpt>
4317 <trkpt lat="-30.069210000" lon="-51.578420000">
4318 <ele>46.100000</ele>
4319 <time>2069-11-30T12:11:17.244Z</time>
4320 <course>258.000000</course>
4321 <speed>22.789888</speed>
4322 <geoidheight>0.0</geoidheight>
4323 <fix>3d</fix>
4324 <sat>8</sat>
4325 <hdop>0.800000</hdop>
4326 </trkpt>
4327 <trkpt lat="-30.069270000" lon="-51.578750000">
4328 <ele>46.100000</ele>
4329 <time>2069-11-30T12:11:19.512Z</time>
4330 <course>258.000000</course>
4331 <speed>22.789888</speed>
4332 <geoidheight>0.0</geoidheight>
4333 <fix>3d</fix>
4334 <sat>8</sat>
4335 <hdop>0.800000</hdop>
4336 </trkpt>
4337 <trkpt lat="-30.069330000" lon="-51.579090000">
4338 <ele>46.100000</ele>
4339 <time>2069-11-30T12:11:21.847Z</time>
4340 <course>257.000000</course>
4341 <speed>22.789888</speed>
4342 <geoidheight>0.0</geoidheight>
4343 <fix>3d</fix>
4344 <sat>8</sat>
4345 <hdop>0.800000</hdop>
4346 </trkpt>
4347 <trkpt lat="-30.069400000" lon="-51.579420000">
4348 <ele>46.100000</ele>
4349 <time>2069-11-30T12:11:24.129Z</time>
4350 <course>257.000000</course>
4351 <speed>22.789888</speed>
4352 <geoidheight>0.0</geoidheight>
4353 <fix>3d</fix>
4354 <sat>8</sat>
4355 <hdop>0.800000</hdop>
4356 </trkpt>
4357 <trkpt lat="-30.069460000" lon="-51.579760000">
4358 <ele>46.100000</ele>
4359 <time>2069-11-30T12:11:26.464Z</time>
4360 <course>258.000000</course>
4361 <speed>22.789888</speed>
4362 <geoidheight>0.0</geoidheight>
4363 <fix>3d</fix>
4364 <sat>8</sat>
4365 <hdop>0.800000</hdop>
4366 </trkpt>
4367 <trkpt lat="-30.069520000" lon="-51.580090000">
4368 <ele>46.100000</ele>
4369 <time>2069-11-30T12:11:28.732Z</time>
4370 <course>254.000000</course>
4371 <speed>22.789888</speed>
4372 <geoidheight>0.0</geoidheight>
4373 <fix>3d</fix>
4374 <sat>8</sat>
4375 <hdop>0.800000</hdop>
4376 </trkpt>
4377 <trkpt lat="-30.069620000" lon="-51.580420000">
4378 <ele>46.100000</ele>
4379 <time>2069-11-30T12:11:31.065Z</time>
4380 <course>249.000000</course>
4381 <speed>22.789888</speed>
4382 <geoidheight>0.0</geoidheight>
4383 <fix>3d</fix>
4384 <sat>8</sat>
4385 <hdop>0.800000</hdop>
4386 </trkpt>
4387 <trkpt lat="-30.069730000" lon="-51.580730000">
4388 <ele>46.100000</ele>
4389 <time>2069-11-30T12:11:33.289Z</time>
4390 <course>248.000000</course>
4391 <speed>22.789888</speed>
4392 <geoidheight>0.0</geoidheight>
4393 <fix>3d</fix>
4394 <sat>8</sat>
4395 <hdop>0.800000</hdop>
4396 </trkpt>
4397 <trkpt lat="-30.069840000" lon="-51.581050000">
4398 <ele>46.100000</ele>
4399 <time>2069-11-30T12:11:35.578Z</time>
4400 <course>248.000000</course>
4401 <speed>22.789888</speed>
4402 <geoidheight>0.0</geoidheight>
4403 <fix>3d</fix>
4404 <sat>8</sat>
4405 <hdop>0.800000</hdop>
4406 </trkpt>
4407 <trkpt lat="-30.069950000" lon="-51.581370000">
4408 <ele>46.100000</ele>
4409 <time>2069-11-30T12:11:37.866Z</time>
4410 <course>247.000000</course>
4411 <speed>22.789888</speed>
4412 <geoidheight>0.0</geoidheight>
4413 <fix>3d</fix>
4414 <sat>8</sat>
4415 <hdop>0.800000</hdop>
4416 </trkpt>
4417 <trkpt lat="-30.070070000" lon="-51.581680000">
4418 <ele>46.100000</ele>
4419 <time>2069-11-30T12:11:40.115Z</time>
4420 <course>241.000000</course>
4421 <speed>22.789888</speed>
4422 <geoidheight>0.0</geoidheight>
4423 <fix>3d</fix>
4424 <sat>8</sat>
4425 <hdop>0.800000</hdop>
4426 </trkpt>
4427 <trkpt lat="-30.070230000" lon="-51.581970000">
4428 <ele>46.100000</ele>
4429 <time>2069-11-30T12:11:42.355Z</time>
4430 <course>238.000000</course>
4431 <speed>22.789888</speed>
4432 <geoidheight>0.0</geoidheight>
4433 <fix>3d</fix>
4434 <sat>8</sat>
4435 <hdop>0.800000</hdop>
4436 </trkpt>
4437 <trkpt lat="-30.070390000" lon="-51.582260000">
4438 <ele>46.100000</ele>
4439 <time>2069-11-30T12:11:44.595Z</time>
4440 <course>237.000000</course>
4441 <speed>22.789888</speed>
4442 <geoidheight>0.0</geoidheight>
4443 <fix>3d</fix>
4444 <sat>8</sat>
4445 <hdop>0.800000</hdop>
4446 </trkpt>
4447 <trkpt lat="-30.070550000" lon="-51.582540000">
4448 <ele>46.100000</ele>
4449 <time>2069-11-30T12:11:46.776Z</time>
4450 <course>237.000000</course>
4451 <speed>22.789888</speed>
4452 <geoidheight>0.0</geoidheight>
4453 <fix>3d</fix>
4454 <sat>8</sat>
4455 <hdop>0.800000</hdop>
4456 </trkpt>
4457 <trkpt lat="-30.070710000" lon="-51.582830000">
4458 <ele>46.100000</ele>
4459 <time>2069-11-30T12:11:49.016Z</time>
4460 <course>238.000000</course>
4461 <speed>22.789888</speed>
4462 <geoidheight>0.0</geoidheight>
4463 <fix>3d</fix>
4464 <sat>8</sat>
4465 <hdop>0.800000</hdop>
4466 </trkpt>
4467 <trkpt lat="-30.070870000" lon="-51.583120000">
4468 <ele>46.100000</ele>
4469 <time>2069-11-30T12:11:51.256Z</time>
4470 <course>236.000000</course>
4471 <speed>22.789888</speed>
4472 <geoidheight>0.0</geoidheight>
4473 <fix>3d</fix>
4474 <sat>8</sat>
4475 <hdop>0.800000</hdop>
4476 </trkpt>
4477 <trkpt lat="-30.071040000" lon="-51.583400000">
4478 <ele>46.100000</ele>
4479 <time>2069-11-30T12:11:53.471Z</time>
4480 <course>235.000000</course>
4481 <speed>22.789888</speed>
4482 <geoidheight>0.0</geoidheight>
4483 <fix>3d</fix>
4484 <sat>8</sat>
4485 <hdop>0.800000</hdop>
4486 </trkpt>
4487 <trkpt lat="-30.071210000" lon="-51.583680000">
4488 <ele>46.100000</ele>
4489 <time>2069-11-30T12:11:55.687Z</time>
4490 <course>235.000000</course>
4491 <speed>22.789888</speed>
4492 <geoidheight>0.0</geoidheight>
4493 <fix>3d</fix>
4494 <sat>8</sat>
4495 <hdop>0.800000</hdop>
4496 </trkpt>
4497 <trkpt lat="-30.071380000" lon="-51.583960000">
4498 <ele>46.100000</ele>
4499 <time>2069-11-30T12:11:57.902Z</time>
4500 <course>235.000000</course>
4501 <speed>22.789888</speed>
4502 <geoidheight>0.0</geoidheight>
4503 <fix>3d</fix>
4504 <sat>8</sat>
4505 <hdop>0.800000</hdop>
4506 </trkpt>
4507 <trkpt lat="-30.071550000" lon="-51.584240000">
4508 <ele>46.100000</ele>
4509 <time>2069-11-30T12:12:00.118Z</time>
4510 <course>235.000000</course>
4511 <speed>22.789888</speed>
4512 <geoidheight>0.0</geoidheight>
4513 <fix>3d</fix>
4514 <sat>8</sat>
4515 <hdop>0.800000</hdop>
4516 </trkpt>
4517 <trkpt lat="-30.071720000" lon="-51.584520000">
4518 <ele>46.100000</ele>
4519 <time>2069-11-30T12:12:02.333Z</time>
4520 <course>235.000000</course>
4521 <speed>22.789888</speed>
4522 <geoidheight>0.0</geoidheight>
4523 <fix>3d</fix>
4524 <sat>8</sat>
4525 <hdop>0.800000</hdop>
4526 </trkpt>
4527 <trkpt lat="-30.071890000" lon="-51.584800000">
4528 <ele>46.100000</ele>
4529 <time>2069-11-30T12:12:04.549Z</time>
4530 <course>235.000000</course>
4531 <speed>22.789888</speed>
4532 <geoidheight>0.0</geoidheight>
4533 <fix>3d</fix>
4534 <sat>8</sat>
4535 <hdop>0.800000</hdop>
4536 </trkpt>
4537 <trkpt lat="-30.072060000" lon="-51.585080000">
4538 <ele>46.100000</ele>
4539 <time>2069-11-30T12:12:06.764Z</time>
4540 <course>235.000000</course>
4541 <speed>22.789888</speed>
4542 <geoidheight>0.0</geoidheight>
4543 <fix>3d</fix>
4544 <sat>8</sat>
4545 <hdop>0.800000</hdop>
4546 </trkpt>
4547 <trkpt lat="-30.072230000" lon="-51.585360000">
4548 <ele>46.100000</ele>
4549 <time>2069-11-30T12:12:08.979Z</time>
4550 <course>234.000000</course>
4551 <speed>22.789888</speed>
4552 <geoidheight>0.0</geoidheight>
4553 <fix>3d</fix>
4554 <sat>8</sat>
4555 <hdop>0.800000</hdop>
4556 </trkpt>
4557 <trkpt lat="-30.072410000" lon="-51.585640000">
4558 <ele>46.100000</ele>
4559 <time>2069-11-30T12:12:11.231Z</time>
4560 <course>234.000000</course>
4561 <speed>22.789888</speed>
4562 <geoidheight>0.0</geoidheight>
4563 <fix>3d</fix>
4564 <sat>8</sat>
4565 <hdop>0.800000</hdop>
4566 </trkpt>
4567 <trkpt lat="-30.072580000" lon="-51.585920000">
4568 <ele>46.100000</ele>
4569 <time>2069-11-30T12:12:13.446Z</time>
4570 <course>235.000000</course>
4571 <speed>22.789888</speed>
4572 <geoidheight>0.0</geoidheight>
4573 <fix>3d</fix>
4574 <sat>8</sat>
4575 <hdop>0.800000</hdop>
4576 </trkpt>
4577 <trkpt lat="-30.072750000" lon="-51.586200000">
4578 <ele>46.100000</ele>
4579 <time>2069-11-30T12:12:15.662Z</time>
4580 <course>235.000000</course>
4581 <speed>22.789888</speed>
4582 <geoidheight>0.0</geoidheight>
4583 <fix>3d</fix>
4584 <sat>8</sat>
4585 <hdop>0.800000</hdop>
4586 </trkpt>
4587 <trkpt lat="-30.072920000" lon="-51.586480000">
4588 <ele>46.100000</ele>
4589 <time>2069-11-30T12:12:17.877Z</time>
4590 <course>235.000000</course>
4591 <speed>22.789888</speed>
4592 <geoidheight>0.0</geoidheight>
4593 <fix>3d</fix>
4594 <sat>8</sat>
4595 <hdop>0.800000</hdop>
4596 </trkpt>
4597 <trkpt lat="-30.073090000" lon="-51.586760000">
4598 <ele>46.100000</ele>
4599 <time>2069-11-30T12:12:20.092Z</time>
4600 <course>235.000000</course>
4601 <speed>22.789888</speed>
4602 <geoidheight>0.0</geoidheight>
4603 <fix>3d</fix>
4604 <sat>8</sat>
4605 <hdop>0.800000</hdop>
4606 </trkpt>
4607 <trkpt lat="-30.073260000" lon="-51.587040000">
4608 <ele>46.100000</ele>
4609 <time>2069-11-30T12:12:22.308Z</time>
4610 <course>235.000000</course>
4611 <speed>22.789888</speed>
4612 <geoidheight>0.0</geoidheight>
4613 <fix>3d</fix>
4614 <sat>8</sat>
4615 <hdop>0.800000</hdop>
4616 </trkpt>
4617 <trkpt lat="-30.073430000" lon="-51.587320000">
4618 <ele>46.100000</ele>
4619 <time>2069-11-30T12:12:24.523Z</time>
4620 <course>235.000000</course>
4621 <speed>22.789888</speed>
4622 <geoidheight>0.0</geoidheight>
4623 <fix>3d</fix>
4624 <sat>8</sat>
4625 <hdop>0.800000</hdop>
4626 </trkpt>
4627 <trkpt lat="-30.073600000" lon="-51.587600000">
4628 <ele>46.100000</ele>
4629 <time>2069-11-30T12:12:26.739Z</time>
4630 <course>235.000000</course>
4631 <speed>22.789888</speed>
4632 <geoidheight>0.0</geoidheight>
4633 <fix>3d</fix>
4634 <sat>8</sat>
4635 <hdop>0.800000</hdop>
4636 </trkpt>
4637 <trkpt lat="-30.073770000" lon="-51.587880000">
4638 <ele>46.100000</ele>
4639 <time>2069-11-30T12:12:28.954Z</time>
4640 <course>234.000000</course>
4641 <speed>22.789888</speed>
4642 <geoidheight>0.0</geoidheight>
4643 <fix>3d</fix>
4644 <sat>8</sat>
4645 <hdop>0.800000</hdop>
4646 </trkpt>
4647 <trkpt lat="-30.073950000" lon="-51.588160000">
4648 <ele>46.100000</ele>
4649 <time>2069-11-30T12:12:31.205Z</time>
4650 <course>234.000000</course>
4651 <speed>22.789888</speed>
4652 <geoidheight>0.0</geoidheight>
4653 <fix>3d</fix>
4654 <sat>8</sat>
4655 <hdop>0.800000</hdop>
4656 </trkpt>
4657 <trkpt lat="-30.074120000" lon="-51.588440000">
4658 <ele>46.100000</ele>
4659 <time>2069-11-30T12:12:33.421Z</time>
4660 <course>235.000000</course>
4661 <speed>22.789888</speed>
4662 <geoidheight>0.0</geoidheight>
4663 <fix>3d</fix>
4664 <sat>8</sat>
4665 <hdop>0.800000</hdop>
4666 </trkpt>
4667 <trkpt lat="-30.074290000" lon="-51.588720000">
4668 <ele>46.100000</ele>
4669 <time>2069-11-30T12:12:35.636Z</time>
4670 <course>238.000000</course>
4671 <speed>22.789888</speed>
4672 <geoidheight>0.0</geoidheight>
4673 <fix>3d</fix>
4674 <sat>8</sat>
4675 <hdop>0.800000</hdop>
4676 </trkpt>
4677 <trkpt lat="-30.074440000" lon="-51.589020000">
4678 <ele>46.100000</ele>
4679 <time>2069-11-30T12:12:37.905Z</time>
4680 <course>241.000000</course>
4681 <speed>22.789888</speed>
4682 <geoidheight>0.0</geoidheight>
4683 <fix>3d</fix>
4684 <sat>8</sat>
4685 <hdop>0.800000</hdop>
4686 </trkpt>
4687 <trkpt lat="-30.074570000" lon="-51.589320000">
4688 <ele>46.100000</ele>
4689 <time>2069-11-30T12:12:40.116Z</time>
4690 <course>242.000000</course>
4691 <speed>22.789888</speed>
4692 <geoidheight>0.0</geoidheight>
4693 <fix>3d</fix>
4694 <sat>8</sat>
4695 <hdop>0.800000</hdop>
4696 </trkpt>
4697 <trkpt lat="-30.074710000" lon="-51.589620000">
4698 <ele>46.100000</ele>
4699 <time>2069-11-30T12:12:42.355Z</time>
4700 <course>241.000000</course>
4701 <speed>22.789888</speed>
4702 <geoidheight>0.0</geoidheight>
4703 <fix>3d</fix>
4704 <sat>8</sat>
4705 <hdop>0.800000</hdop>
4706 </trkpt>
4707 <trkpt lat="-30.074850000" lon="-51.589920000">
4708 <ele>46.100000</ele>
4709 <time>2069-11-30T12:12:44.594Z</time>
4710 <course>241.000000</course>
4711 <speed>22.789888</speed>
4712 <geoidheight>0.0</geoidheight>
4713 <fix>3d</fix>
4714 <sat>8</sat>
4715 <hdop>0.800000</hdop>
4716 </trkpt>
4717 <trkpt lat="-30.074990000" lon="-51.590220000">
4718 <ele>46.100000</ele>
4719 <time>2069-11-30T12:12:46.833Z</time>
4720 <course>243.000000</course>
4721 <speed>22.789888</speed>
4722 <geoidheight>0.0</geoidheight>
4723 <fix>3d</fix>
4724 <sat>8</sat>
4725 <hdop>0.800000</hdop>
4726 </trkpt>
4727 <trkpt lat="-30.075120000" lon="-51.590530000">
4728 <ele>46.100000</ele>
4729 <time>2069-11-30T12:12:49.107Z</time>
4730 <course>245.000000</course>
4731 <speed>22.789888</speed>
4732 <geoidheight>0.0</geoidheight>
4733 <fix>3d</fix>
4734 <sat>8</sat>
4735 <hdop>0.800000</hdop>
4736 </trkpt>
4737 <trkpt lat="-30.075240000" lon="-51.590840000">
4738 <ele>46.100000</ele>
4739 <time>2069-11-30T12:12:51.355Z</time>
4740 <course>245.000000</course>
4741 <speed>22.789888</speed>
4742 <geoidheight>0.0</geoidheight>
4743 <fix>3d</fix>
4744 <sat>8</sat>
4745 <hdop>0.800000</hdop>
4746 </trkpt>
4747 <trkpt lat="-30.075370000" lon="-51.591150000">
4748 <ele>46.100000</ele>
4749 <time>2069-11-30T12:12:53.628Z</time>
4750 <course>245.000000</course>
4751 <speed>22.789888</speed>
4752 <geoidheight>0.0</geoidheight>
4753 <fix>3d</fix>
4754 <sat>8</sat>
4755 <hdop>0.800000</hdop>
4756 </trkpt>
4757 <trkpt lat="-30.075490000" lon="-51.591460000">
4758 <ele>46.100000</ele>
4759 <time>2069-11-30T12:12:55.877Z</time>
4760 <course>245.000000</course>
4761 <speed>22.789888</speed>
4762 <geoidheight>0.0</geoidheight>
4763 <fix>3d</fix>
4764 <sat>8</sat>
4765 <hdop>0.800000</hdop>
4766 </trkpt>
4767 <trkpt lat="-30.075620000" lon="-51.591770000">
4768 <ele>46.100000</ele>
4769 <time>2069-11-30T12:12:58.150Z</time>
4770 <course>245.000000</course>
4771 <speed>22.789888</speed>
4772 <geoidheight>0.0</geoidheight>
4773 <fix>3d</fix>
4774 <sat>8</sat>
4775 <hdop>0.800000</hdop>
4776 </trkpt>
4777 <trkpt lat="-30.075740000" lon="-51.592080000">
4778 <ele>46.100000</ele>
4779 <time>2069-11-30T12:13:00.398Z</time>
4780 <course>245.000000</course>
4781 <speed>22.789888</speed>
4782 <geoidheight>0.0</geoidheight>
4783 <fix>3d</fix>
4784 <sat>8</sat>
4785 <hdop>0.800000</hdop>
4786 </trkpt>
4787 <trkpt lat="-30.075870000" lon="-51.592390000">
4788 <ele>46.100000</ele>
4789 <time>2069-11-30T12:13:02.672Z</time>
4790 <course>244.000000</course>
4791 <speed>22.789888</speed>
4792 <geoidheight>0.0</geoidheight>
4793 <fix>3d</fix>
4794 <sat>8</sat>
4795 <hdop>0.800000</hdop>
4796 </trkpt>
4797 <trkpt lat="-30.076000000" lon="-51.592700000">
4798 <ele>46.100000</ele>
4799 <time>2069-11-30T12:13:04.945Z</time>
4800 <course>245.000000</course>
4801 <speed>22.789888</speed>
4802 <geoidheight>0.0</geoidheight>
4803 <fix>3d</fix>
4804 <sat>8</sat>
4805 <hdop>0.800000</hdop>
4806 </trkpt>
4807 <trkpt lat="-30.076120000" lon="-51.593010000">
4808 <ele>46.100000</ele>
4809 <time>2069-11-30T12:13:07.194Z</time>
4810 <course>245.000000</course>
4811 <speed>22.789888</speed>
4812 <geoidheight>0.0</geoidheight>
4813 <fix>3d</fix>
4814 <sat>8</sat>
4815 <hdop>0.800000</hdop>
4816 </trkpt>
4817 <trkpt lat="-30.076250000" lon="-51.593320000">
4818 <ele>46.100000</ele>
4819 <time>2069-11-30T12:13:09.467Z</time>
4820 <course>245.000000</course>
4821 <speed>22.789888</speed>
4822 <geoidheight>0.0</geoidheight>
4823 <fix>3d</fix>
4824 <sat>8</sat>
4825 <hdop>0.800000</hdop>
4826 </trkpt>
4827 <trkpt lat="-30.076370000" lon="-51.593630000">
4828 <ele>46.100000</ele>
4829 <time>2069-11-30T12:13:11.715Z</time>
4830 <course>246.000000</course>
4831 <speed>22.789888</speed>
4832 <geoidheight>0.0</geoidheight>
4833 <fix>3d</fix>
4834 <sat>8</sat>
4835 <hdop>0.800000</hdop>
4836 </trkpt>
4837 <trkpt lat="-30.076490000" lon="-51.593940000">
4838 <ele>46.100000</ele>
4839 <time>2069-11-30T12:13:13.963Z</time>
4840 <course>246.000000</course>
4841 <speed>22.789888</speed>
4842 <geoidheight>0.0</geoidheight>
4843 <fix>3d</fix>
4844 <sat>8</sat>
4845 <hdop>0.800000</hdop>
4846 </trkpt>
4847 <trkpt lat="-30.076610000" lon="-51.594260000">
4848 <ele>46.100000</ele>
4849 <time>2069-11-30T12:13:16.275Z</time>
4850 <course>246.000000</course>
4851 <speed>22.789888</speed>
4852 <geoidheight>0.0</geoidheight>
4853 <fix>3d</fix>
4854 <sat>8</sat>
4855 <hdop>0.800000</hdop>
4856 </trkpt>
4857 <trkpt lat="-30.076730000" lon="-51.594570000">
4858 <ele>46.100000</ele>
4859 <time>2069-11-30T12:13:18.523Z</time>
4860 <course>246.000000</course>
4861 <speed>22.789888</speed>
4862 <geoidheight>0.0</geoidheight>
4863 <fix>3d</fix>
4864 <sat>8</sat>
4865 <hdop>0.800000</hdop>
4866 </trkpt>
4867 <trkpt lat="-30.076850000" lon="-51.594890000">
4868 <ele>46.100000</ele>
4869 <time>2069-11-30T12:13:20.835Z</time>
4870 <course>246.000000</course>
4871 <speed>22.789888</speed>
4872 <geoidheight>0.0</geoidheight>
4873 <fix>3d</fix>
4874 <sat>8</sat>
4875 <hdop>0.800000</hdop>
4876 </trkpt>
4877 <trkpt lat="-30.076970000" lon="-51.595200000">
4878 <ele>46.100000</ele>
4879 <time>2069-11-30T12:13:23.083Z</time>
4880 <course>247.000000</course>
4881 <speed>22.789888</speed>
4882 <geoidheight>0.0</geoidheight>
4883 <fix>3d</fix>
4884 <sat>8</sat>
4885 <hdop>0.800000</hdop>
4886 </trkpt>
4887 <trkpt lat="-30.077080000" lon="-51.595510000">
4888 <ele>46.100000</ele>
4889 <time>2069-11-30T12:13:25.307Z</time>
4890 <course>247.000000</course>
4891 <speed>22.789888</speed>
4892 <geoidheight>0.0</geoidheight>
4893 <fix>3d</fix>
4894 <sat>8</sat>
4895 <hdop>0.800000</hdop>
4896 </trkpt>
4897 <trkpt lat="-30.077200000" lon="-51.595830000">
4898 <ele>46.100000</ele>
4899 <time>2069-11-30T12:13:27.619Z</time>
4900 <course>246.000000</course>
4901 <speed>22.789888</speed>
4902 <geoidheight>0.0</geoidheight>
4903 <fix>3d</fix>
4904 <sat>8</sat>
4905 <hdop>0.800000</hdop>
4906 </trkpt>
4907 <trkpt lat="-30.077320000" lon="-51.596140000">
4908 <ele>46.100000</ele>
4909 <time>2069-11-30T12:13:29.867Z</time>
4910 <course>246.000000</course>
4911 <speed>22.789888</speed>
4912 <geoidheight>0.0</geoidheight>
4913 <fix>3d</fix>
4914 <sat>8</sat>
4915 <hdop>0.800000</hdop>
4916 </trkpt>
4917 <trkpt lat="-30.077440000" lon="-51.596460000">
4918 <ele>46.100000</ele>
4919 <time>2069-11-30T12:13:32.179Z</time>
4920 <course>246.000000</course>
4921 <speed>22.789888</speed>
4922 <geoidheight>0.0</geoidheight>
4923 <fix>3d</fix>
4924 <sat>8</sat>
4925 <hdop>0.800000</hdop>
4926 </trkpt>
4927 <trkpt lat="-30.077560000" lon="-51.596770000">
4928 <ele>46.100000</ele>
4929 <time>2069-11-30T12:13:34.427Z</time>
4930 <course>246.000000</course>
4931 <speed>22.789888</speed>
4932 <geoidheight>0.0</geoidheight>
4933 <fix>3d</fix>
4934 <sat>8</sat>
4935 <hdop>0.800000</hdop>
4936 </trkpt>
4937 <trkpt lat="-30.077680000" lon="-51.597090000">
4938 <ele>46.100000</ele>
4939 <time>2069-11-30T12:13:36.738Z</time>
4940 <course>246.000000</course>
4941 <speed>22.789888</speed>
4942 <geoidheight>0.0</geoidheight>
4943 <fix>3d</fix>
4944 <sat>8</sat>
4945 <hdop>0.800000</hdop>
4946 </trkpt>
4947 <trkpt lat="-30.077800000" lon="-51.597400000">
4948 <ele>46.100000</ele>
4949 <time>2069-11-30T12:13:38.986Z</time>
4950 <course>246.000000</course>
4951 <speed>22.789888</speed>
4952 <geoidheight>0.0</geoidheight>
4953 <fix>3d</fix>
4954 <sat>8</sat>
4955 <hdop>0.800000</hdop>
4956 </trkpt>
4957 <trkpt lat="-30.077920000" lon="-51.597710000">
4958 <ele>46.100000</ele>
4959 <time>2069-11-30T12:13:41.235Z</time>
4960 <course>247.000000</course>
4961 <speed>22.789888</speed>
4962 <geoidheight>0.0</geoidheight>
4963 <fix>3d</fix>
4964 <sat>8</sat>
4965 <hdop>0.800000</hdop>
4966 </trkpt>
4967 <trkpt lat="-30.078030000" lon="-51.598030000">
4968 <ele>46.100000</ele>
4969 <time>2069-11-30T12:13:43.523Z</time>
4970 <course>247.000000</course>
4971 <speed>22.789888</speed>
4972 <geoidheight>0.0</geoidheight>
4973 <fix>3d</fix>
4974 <sat>8</sat>
4975 <hdop>0.800000</hdop>
4976 </trkpt>
4977 <trkpt lat="-30.078150000" lon="-51.598340000">
4978 <ele>46.100000</ele>
4979 <time>2069-11-30T12:13:45.771Z</time>
4980 <course>246.000000</course>
4981 <speed>22.789888</speed>
4982 <geoidheight>0.0</geoidheight>
4983 <fix>3d</fix>
4984 <sat>8</sat>
4985 <hdop>0.800000</hdop>
4986 </trkpt>
4987 <trkpt lat="-30.078270000" lon="-51.598660000">
4988 <ele>46.100000</ele>
4989 <time>2069-11-30T12:13:48.083Z</time>
4990 <course>246.000000</course>
4991 <speed>22.789888</speed>
4992 <geoidheight>0.0</geoidheight>
4993 <fix>3d</fix>
4994 <sat>8</sat>
4995 <hdop>0.800000</hdop>
4996 </trkpt>
4997 <trkpt lat="-30.078390000" lon="-51.598970000">
4998 <ele>46.100000</ele>
4999 <time>2069-11-30T12:13:50.331Z</time>
5000 <course>246.000000</course>
5001 <speed>22.789888</speed>
5002 <geoidheight>0.0</geoidheight>
5003 <fix>3d</fix>
5004 <sat>8</sat>
5005 <hdop>0.800000</hdop>
5006 </trkpt>
5007 <trkpt lat="-30.078510000" lon="-51.599290000">
5008 <ele>46.100000</ele>
5009 <time>2069-11-30T12:13:52.642Z</time>
5010 <course>246.000000</course>
5011 <speed>22.789888</speed>
5012 <geoidheight>0.0</geoidheight>
5013 <fix>3d</fix>
5014 <sat>8</sat>
5015 <hdop>0.800000</hdop>
5016 </trkpt>
5017 <trkpt lat="-30.078630000" lon="-51.599600000">
5018 <ele>46.100000</ele>
5019 <time>2069-11-30T12:13:54.891Z</time>
5020 <course>246.000000</course>
5021 <speed>22.789888</speed>
5022 <geoidheight>0.0</geoidheight>
5023 <fix>3d</fix>
5024 <sat>8</sat>
5025 <hdop>0.800000</hdop>
5026 </trkpt>
5027 <trkpt lat="-30.078750000" lon="-51.599910000">
5028 <ele>46.100000</ele>
5029 <time>2069-11-30T12:13:57.139Z</time>
5030 <course>246.000000</course>
5031 <speed>22.789888</speed>
5032 <geoidheight>0.0</geoidheight>
5033 <fix>3d</fix>
5034 <sat>8</sat>
5035 <hdop>0.800000</hdop>
5036 </trkpt>
5037 <trkpt lat="-30.078870000" lon="-51.600230000">
5038 <ele>46.100000</ele>
5039 <time>2069-11-30T12:13:59.450Z</time>
5040 <course>247.000000</course>
5041 <speed>22.789888</speed>
5042 <geoidheight>0.0</geoidheight>
5043 <fix>3d</fix>
5044 <sat>8</sat>
5045 <hdop>0.800000</hdop>
5046 </trkpt>
5047 <trkpt lat="-30.078980000" lon="-51.600540000">
5048 <ele>46.100000</ele>
5049 <time>2069-11-30T12:14:01.675Z</time>
5050 <course>247.000000</course>
5051 <speed>22.789888</speed>
5052 <geoidheight>0.0</geoidheight>
5053 <fix>3d</fix>
5054 <sat>8</sat>
5055 <hdop>0.800000</hdop>
5056 </trkpt>
5057 <trkpt lat="-30.079100000" lon="-51.600860000">
5058 <ele>46.100000</ele>
5059 <time>2069-11-30T12:14:03.986Z</time>
5060 <course>246.000000</course>
5061 <speed>22.789888</speed>
5062 <geoidheight>0.0</geoidheight>
5063 <fix>3d</fix>
5064 <sat>8</sat>
5065 <hdop>0.800000</hdop>
5066 </trkpt>
5067 <trkpt lat="-30.079220000" lon="-51.601170000">
5068 <ele>46.100000</ele>
5069 <time>2069-11-30T12:14:06.235Z</time>
5070 <course>246.000000</course>
5071 <speed>22.789888</speed>
5072 <geoidheight>0.0</geoidheight>
5073 <fix>3d</fix>
5074 <sat>8</sat>
5075 <hdop>0.800000</hdop>
5076 </trkpt>
5077 <trkpt lat="-30.079340000" lon="-51.601490000">
5078 <ele>46.100000</ele>
5079 <time>2069-11-30T12:14:08.546Z</time>
5080 <course>246.000000</course>
5081 <speed>22.789888</speed>
5082 <geoidheight>0.0</geoidheight>
5083 <fix>3d</fix>
5084 <sat>8</sat>
5085 <hdop>0.800000</hdop>
5086 </trkpt>
5087 <trkpt lat="-30.079460000" lon="-51.601800000">
5088 <ele>46.100000</ele>
5089 <time>2069-11-30T12:14:10.794Z</time>
5090 <course>246.000000</course>
5091 <speed>22.789888</speed>
5092 <geoidheight>0.0</geoidheight>
5093 <fix>3d</fix>
5094 <sat>8</sat>
5095 <hdop>0.800000</hdop>
5096 </trkpt>
5097 <trkpt lat="-30.079580000" lon="-51.602110000">
5098 <ele>46.100000</ele>
5099 <time>2069-11-30T12:14:13.043Z</time>
5100 <course>246.000000</course>
5101 <speed>22.789888</speed>
5102 <geoidheight>0.0</geoidheight>
5103 <fix>3d</fix>
5104 <sat>8</sat>
5105 <hdop>0.800000</hdop>
5106 </trkpt>
5107 <trkpt lat="-30.079700000" lon="-51.602430000">
5108 <ele>46.100000</ele>
5109 <time>2069-11-30T12:14:15.354Z</time>
5110 <course>246.000000</course>
5111 <speed>22.789888</speed>
5112 <geoidheight>0.0</geoidheight>
5113 <fix>3d</fix>
5114 <sat>8</sat>
5115 <hdop>0.800000</hdop>
5116 </trkpt>
5117 <trkpt lat="-30.079820000" lon="-51.602740000">
5118 <ele>46.100000</ele>
5119 <time>2069-11-30T12:14:17.602Z</time>
5120 <course>247.000000</course>
5121 <speed>22.789888</speed>
5122 <geoidheight>0.0</geoidheight>
5123 <fix>3d</fix>
5124 <sat>8</sat>
5125 <hdop>0.800000</hdop>
5126 </trkpt>
5127 <trkpt lat="-30.079930000" lon="-51.603060000">
5128 <ele>46.100000</ele>
5129 <time>2069-11-30T12:14:19.891Z</time>
5130 <course>247.000000</course>
5131 <speed>22.789888</speed>
5132 <geoidheight>0.0</geoidheight>
5133 <fix>3d</fix>
5134 <sat>8</sat>
5135 <hdop>0.800000</hdop>
5136 </trkpt>
5137 <trkpt lat="-30.080050000" lon="-51.603370000">
5138 <ele>46.100000</ele>
5139 <time>2069-11-30T12:14:22.139Z</time>
5140 <course>246.000000</course>
5141 <speed>22.789888</speed>
5142 <geoidheight>0.0</geoidheight>
5143 <fix>3d</fix>
5144 <sat>8</sat>
5145 <hdop>0.800000</hdop>
5146 </trkpt>
5147 <trkpt lat="-30.080170000" lon="-51.603690000">
5148 <ele>46.100000</ele>
5149 <time>2069-11-30T12:14:24.450Z</time>
5150 <course>246.000000</course>
5151 <speed>22.789888</speed>
5152 <geoidheight>0.0</geoidheight>
5153 <fix>3d</fix>
5154 <sat>8</sat>
5155 <hdop>0.800000</hdop>
5156 </trkpt>
5157 <trkpt lat="-30.080290000" lon="-51.604000000">
5158 <ele>46.100000</ele>
5159 <time>2069-11-30T12:14:26.699Z</time>
5160 <course>246.000000</course>
5161 <speed>22.789888</speed>
5162 <geoidheight>0.0</geoidheight>
5163 <fix>3d</fix>
5164 <sat>8</sat>
5165 <hdop>0.800000</hdop>
5166 </trkpt>
5167 <trkpt lat="-30.080410000" lon="-51.604310000">
5168 <ele>46.100000</ele>
5169 <time>2069-11-30T12:14:28.947Z</time>
5170 <course>246.000000</course>
5171 <speed>22.789888</speed>
5172 <geoidheight>0.0</geoidheight>
5173 <fix>3d</fix>
5174 <sat>8</sat>
5175 <hdop>0.800000</hdop>
5176 </trkpt>
5177 <trkpt lat="-30.080530000" lon="-51.604630000">
5178 <ele>46.100000</ele>
5179 <time>2069-11-30T12:14:31.258Z</time>
5180 <course>246.000000</course>
5181 <speed>22.789888</speed>
5182 <geoidheight>0.0</geoidheight>
5183 <fix>3d</fix>
5184 <sat>8</sat>
5185 <hdop>0.800000</hdop>
5186 </trkpt>
5187 <trkpt lat="-30.080650000" lon="-51.604940000">
5188 <ele>46.100000</ele>
5189 <time>2069-11-30T12:14:33.506Z</time>
5190 <course>246.000000</course>
5191 <speed>22.789888</speed>
5192 <geoidheight>0.0</geoidheight>
5193 <fix>3d</fix>
5194 <sat>8</sat>
5195 <hdop>0.800000</hdop>
5196 </trkpt>
5197 <trkpt lat="-30.080770000" lon="-51.605250000">
5198 <ele>46.100000</ele>
5199 <time>2069-11-30T12:14:35.755Z</time>
5200 <course>246.000000</course>
5201 <speed>22.789888</speed>
5202 <geoidheight>0.0</geoidheight>
5203 <fix>3d</fix>
5204 <sat>8</sat>
5205 <hdop>0.800000</hdop>
5206 </trkpt>
5207 <trkpt lat="-30.080890000" lon="-51.605570000">
5208 <ele>46.100000</ele>
5209 <time>2069-11-30T12:14:38.066Z</time>
5210 <course>246.000000</course>
5211 <speed>22.789888</speed>
5212 <geoidheight>0.0</geoidheight>
5213 <fix>3d</fix>
5214 <sat>8</sat>
5215 <hdop>0.800000</hdop>
5216 </trkpt>
5217 <trkpt lat="-30.081010000" lon="-51.605880000">
5218 <ele>46.100000</ele>
5219 <time>2069-11-30T12:14:40.314Z</time>
5220 <course>245.000000</course>
5221 <speed>22.789888</speed>
5222 <geoidheight>0.0</geoidheight>
5223 <fix>3d</fix>
5224 <sat>8</sat>
5225 <hdop>0.800000</hdop>
5226 </trkpt>
5227 <trkpt lat="-30.081140000" lon="-51.606190000">
5228 <ele>46.100000</ele>
5229 <time>2069-11-30T12:14:42.588Z</time>
5230 <course>245.000000</course>
5231 <speed>22.789888</speed>
5232 <geoidheight>0.0</geoidheight>
5233 <fix>3d</fix>
5234 <sat>8</sat>
5235 <hdop>0.800000</hdop>
5236 </trkpt>
5237 <trkpt lat="-30.081260000" lon="-51.606510000">
5238 <ele>46.100000</ele>
5239 <time>2069-11-30T12:14:44.899Z</time>
5240 <course>246.000000</course>
5241 <speed>22.789888</speed>
5242 <geoidheight>0.0</geoidheight>
5243 <fix>3d</fix>
5244 <sat>8</sat>
5245 <hdop>0.800000</hdop>
5246 </trkpt>
5247 <trkpt lat="-30.081380000" lon="-51.606820000">
5248 <ele>46.100000</ele>
5249 <time>2069-11-30T12:14:47.147Z</time>
5250 <course>246.000000</course>
5251 <speed>22.789888</speed>
5252 <geoidheight>0.0</geoidheight>
5253 <fix>3d</fix>
5254 <sat>8</sat>
5255 <hdop>0.800000</hdop>
5256 </trkpt>
5257 <trkpt lat="-30.081500000" lon="-51.607130000">
5258 <ele>46.100000</ele>
5259 <time>2069-11-30T12:14:49.396Z</time>
5260 <course>246.000000</course>
5261 <speed>22.789888</speed>
5262 <geoidheight>0.0</geoidheight>
5263 <fix>3d</fix>
5264 <sat>8</sat>
5265 <hdop>0.800000</hdop>
5266 </trkpt>
5267 <trkpt lat="-30.081620000" lon="-51.607450000">
5268 <ele>46.100000</ele>
5269 <time>2069-11-30T12:14:51.707Z</time>
5270 <course>246.000000</course>
5271 <speed>22.789888</speed>
5272 <geoidheight>0.0</geoidheight>
5273 <fix>3d</fix>
5274 <sat>8</sat>
5275 <hdop>0.800000</hdop>
5276 </trkpt>
5277 <trkpt lat="-30.081740000" lon="-51.607760000">
5278 <ele>46.100000</ele>
5279 <time>2069-11-30T12:14:53.955Z</time>
5280 <course>246.000000</course>
5281 <speed>22.789888</speed>
5282 <geoidheight>0.0</geoidheight>
5283 <fix>3d</fix>
5284 <sat>8</sat>
5285 <hdop>0.800000</hdop>
5286 </trkpt>
5287 <trkpt lat="-30.081860000" lon="-51.608070000">
5288 <ele>46.100000</ele>
5289 <time>2069-11-30T12:14:56.204Z</time>
5290 <course>246.000000</course>
5291 <speed>22.789888</speed>
5292 <geoidheight>0.0</geoidheight>
5293 <fix>3d</fix>
5294 <sat>8</sat>
5295 <hdop>0.800000</hdop>
5296 </trkpt>
5297 <trkpt lat="-30.081980000" lon="-51.608390000">
5298 <ele>46.100000</ele>
5299 <time>2069-11-30T12:14:58.515Z</time>
5300 <course>246.000000</course>
5301 <speed>22.789888</speed>
5302 <geoidheight>0.0</geoidheight>
5303 <fix>3d</fix>
5304 <sat>8</sat>
5305 <hdop>0.800000</hdop>
5306 </trkpt>
5307 <trkpt lat="-30.082100000" lon="-51.608700000">
5308 <ele>46.100000</ele>
5309 <time>2069-11-30T12:15:00.763Z</time>
5310 <course>246.000000</course>
5311 <speed>22.789888</speed>
5312 <geoidheight>0.0</geoidheight>
5313 <fix>3d</fix>
5314 <sat>8</sat>
5315 <hdop>0.800000</hdop>
5316 </trkpt>
5317 <trkpt lat="-30.082220000" lon="-51.609020000">
5318 <ele>46.100000</ele>
5319 <time>2069-11-30T12:15:03.075Z</time>
5320 <course>246.000000</course>
5321 <speed>22.789888</speed>
5322 <geoidheight>0.0</geoidheight>
5323 <fix>3d</fix>
5324 <sat>8</sat>
5325 <hdop>0.800000</hdop>
5326 </trkpt>
5327 <trkpt lat="-30.082340000" lon="-51.609330000">
5328 <ele>46.100000</ele>
5329 <time>2069-11-30T12:15:05.323Z</time>
5330 <course>246.000000</course>
5331 <speed>22.789888</speed>
5332 <geoidheight>0.0</geoidheight>
5333 <fix>3d</fix>
5334 <sat>8</sat>
5335 <hdop>0.800000</hdop>
5336 </trkpt>
5337 <trkpt lat="-30.082460000" lon="-51.609640000">
5338 <ele>46.100000</ele>
5339 <time>2069-11-30T12:15:07.571Z</time>
5340 <course>246.000000</course>
5341 <speed>22.789888</speed>
5342 <geoidheight>0.0</geoidheight>
5343 <fix>3d</fix>
5344 <sat>8</sat>
5345 <hdop>0.800000</hdop>
5346 </trkpt>
5347 <trkpt lat="-30.082580000" lon="-51.609960000">
5348 <ele>46.100000</ele>
5349 <time>2069-11-30T12:15:09.882Z</time>
5350 <course>246.000000</course>
5351 <speed>22.789888</speed>
5352 <geoidheight>0.0</geoidheight>
5353 <fix>3d</fix>
5354 <sat>8</sat>
5355 <hdop>0.800000</hdop>
5356 </trkpt>
5357 <trkpt lat="-30.082700000" lon="-51.610270000">
5358 <ele>46.100000</ele>
5359 <time>2069-11-30T12:15:12.131Z</time>
5360 <course>246.000000</course>
5361 <speed>22.789888</speed>
5362 <geoidheight>0.0</geoidheight>
5363 <fix>3d</fix>
5364 <sat>8</sat>
5365 <hdop>0.800000</hdop>
5366 </trkpt>
5367 <trkpt lat="-30.082820000" lon="-51.610580000">
5368 <ele>46.100000</ele>
5369 <time>2069-11-30T12:15:14.379Z</time>
5370 <course>246.000000</course>
5371 <speed>22.789888</speed>
5372 <geoidheight>0.0</geoidheight>
5373 <fix>3d</fix>
5374 <sat>8</sat>
5375 <hdop>0.800000</hdop>
5376 </trkpt>
5377 <trkpt lat="-30.082940000" lon="-51.610900000">
5378 <ele>46.100000</ele>
5379 <time>2069-11-30T12:15:16.690Z</time>
5380 <course>246.000000</course>
5381 <speed>22.789888</speed>
5382 <geoidheight>0.0</geoidheight>
5383 <fix>3d</fix>
5384 <sat>8</sat>
5385 <hdop>0.800000</hdop>
5386 </trkpt>
5387 <trkpt lat="-30.083060000" lon="-51.611210000">
5388 <ele>46.100000</ele>
5389 <time>2069-11-30T12:15:18.939Z</time>
5390 <course>246.000000</course>
5391 <speed>22.789888</speed>
5392 <geoidheight>0.0</geoidheight>
5393 <fix>3d</fix>
5394 <sat>8</sat>
5395 <hdop>0.800000</hdop>
5396 </trkpt>
5397 <trkpt lat="-30.083180000" lon="-51.611520000">
5398 <ele>46.100000</ele>
5399 <time>2069-11-30T12:15:21.187Z</time>
5400 <course>246.000000</course>
5401 <speed>22.789888</speed>
5402 <geoidheight>0.0</geoidheight>
5403 <fix>3d</fix>
5404 <sat>8</sat>
5405 <hdop>0.800000</hdop>
5406 </trkpt>
5407 <trkpt lat="-30.083300000" lon="-51.611840000">
5408 <ele>46.100000</ele>
5409 <time>2069-11-30T12:15:23.498Z</time>
5410 <course>246.000000</course>
5411 <speed>22.789888</speed>
5412 <geoidheight>0.0</geoidheight>
5413 <fix>3d</fix>
5414 <sat>8</sat>
5415 <hdop>0.800000</hdop>
5416 </trkpt>
5417 <trkpt lat="-30.083420000" lon="-51.612150000">
5418 <ele>46.100000</ele>
5419 <time>2069-11-30T12:15:25.746Z</time>
5420 <course>246.000000</course>
5421 <speed>22.789888</speed>
5422 <geoidheight>0.0</geoidheight>
5423 <fix>3d</fix>
5424 <sat>8</sat>
5425 <hdop>0.800000</hdop>
5426 </trkpt>
5427 <trkpt lat="-30.083540000" lon="-51.612460000">
5428 <ele>46.100000</ele>
5429 <time>2069-11-30T12:15:27.995Z</time>
5430 <course>245.000000</course>
5431 <speed>22.789888</speed>
5432 <geoidheight>0.0</geoidheight>
5433 <fix>3d</fix>
5434 <sat>8</sat>
5435 <hdop>0.800000</hdop>
5436 </trkpt>
5437 <trkpt lat="-30.083670000" lon="-51.612780000">
5438 <ele>46.100000</ele>
5439 <time>2069-11-30T12:15:30.331Z</time>
5440 <course>245.000000</course>
5441 <speed>22.789888</speed>
5442 <geoidheight>0.0</geoidheight>
5443 <fix>3d</fix>
5444 <sat>8</sat>
5445 <hdop>0.800000</hdop>
5446 </trkpt>
5447 <trkpt lat="-30.083790000" lon="-51.613090000">
5448 <ele>46.100000</ele>
5449 <time>2069-11-30T12:15:32.579Z</time>
5450 <course>246.000000</course>
5451 <speed>22.789888</speed>
5452 <geoidheight>0.0</geoidheight>
5453 <fix>3d</fix>
5454 <sat>8</sat>
5455 <hdop>0.800000</hdop>
5456 </trkpt>
5457 <trkpt lat="-30.083910000" lon="-51.613400000">
5458 <ele>46.100000</ele>
5459 <time>2069-11-30T12:15:34.827Z</time>
5460 <course>246.000000</course>
5461 <speed>22.789888</speed>
5462 <geoidheight>0.0</geoidheight>
5463 <fix>3d</fix>
5464 <sat>8</sat>
5465 <hdop>0.800000</hdop>
5466 </trkpt>
5467 <trkpt lat="-30.084030000" lon="-51.613720000">
5468 <ele>46.100000</ele>
5469 <time>2069-11-30T12:15:37.139Z</time>
5470 <course>246.000000</course>
5471 <speed>22.789888</speed>
5472 <geoidheight>0.0</geoidheight>
5473 <fix>3d</fix>
5474 <sat>8</sat>
5475 <hdop>0.800000</hdop>
5476 </trkpt>
5477 <trkpt lat="-30.084150000" lon="-51.614030000">
5478 <ele>46.100000</ele>
5479 <time>2069-11-30T12:15:39.387Z</time>
5480 <course>246.000000</course>
5481 <speed>22.789888</speed>
5482 <geoidheight>0.0</geoidheight>
5483 <fix>3d</fix>
5484 <sat>8</sat>
5485 <hdop>0.800000</hdop>
5486 </trkpt>
5487 <trkpt lat="-30.084270000" lon="-51.614340000">
5488 <ele>46.100000</ele>
5489 <time>2069-11-30T12:15:41.635Z</time>
5490 <course>246.000000</course>
5491 <speed>22.789888</speed>
5492 <geoidheight>0.0</geoidheight>
5493 <fix>3d</fix>
5494 <sat>8</sat>
5495 <hdop>0.800000</hdop>
5496 </trkpt>
5497 <trkpt lat="-30.084390000" lon="-51.614660000">
5498 <ele>46.100000</ele>
5499 <time>2069-11-30T12:15:43.946Z</time>
5500 <course>246.000000</course>
5501 <speed>22.789888</speed>
5502 <geoidheight>0.0</geoidheight>
5503 <fix>3d</fix>
5504 <sat>8</sat>
5505 <hdop>0.800000</hdop>
5506 </trkpt>
5507 <trkpt lat="-30.084510000" lon="-51.614970000">
5508 <ele>46.100000</ele>
5509 <time>2069-11-30T12:15:46.195Z</time>
5510 <course>246.000000</course>
5511 <speed>22.789888</speed>
5512 <geoidheight>0.0</geoidheight>
5513 <fix>3d</fix>
5514 <sat>8</sat>
5515 <hdop>0.800000</hdop>
5516 </trkpt>
5517 <trkpt lat="-30.084630000" lon="-51.615290000">
5518 <ele>46.100000</ele>
5519 <time>2069-11-30T12:15:48.506Z</time>
5520 <course>246.000000</course>
5521 <speed>22.789888</speed>
5522 <geoidheight>0.0</geoidheight>
5523 <fix>3d</fix>
5524 <sat>8</sat>
5525 <hdop>0.800000</hdop>
5526 </trkpt>
5527 <trkpt lat="-30.084750000" lon="-51.615600000">
5528 <ele>46.100000</ele>
5529 <time>2069-11-30T12:15:50.754Z</time>
5530 <course>246.000000</course>
5531 <speed>22.789888</speed>
5532 <geoidheight>0.0</geoidheight>
5533 <fix>3d</fix>
5534 <sat>8</sat>
5535 <hdop>0.800000</hdop>
5536 </trkpt>
5537 <trkpt lat="-30.084870000" lon="-51.615910000">
5538 <ele>46.100000</ele>
5539 <time>2069-11-30T12:15:53.002Z</time>
5540 <course>246.000000</course>
5541 <speed>22.789888</speed>
5542 <geoidheight>0.0</geoidheight>
5543 <fix>3d</fix>
5544 <sat>8</sat>
5545 <hdop>0.800000</hdop>
5546 </trkpt>
5547 <trkpt lat="-30.084990000" lon="-51.616230000">
5548 <ele>46.100000</ele>
5549 <time>2069-11-30T12:15:55.314Z</time>
5550 <course>246.000000</course>
5551 <speed>22.789888</speed>
5552 <geoidheight>0.0</geoidheight>
5553 <fix>3d</fix>
5554 <sat>8</sat>
5555 <hdop>0.800000</hdop>
5556 </trkpt>
5557 <trkpt lat="-30.085110000" lon="-51.616540000">
5558 <ele>46.100000</ele>
5559 <time>2069-11-30T12:15:57.562Z</time>
5560 <course>246.000000</course>
5561 <speed>22.789888</speed>
5562 <geoidheight>0.0</geoidheight>
5563 <fix>3d</fix>
5564 <sat>8</sat>
5565 <hdop>0.800000</hdop>
5566 </trkpt>
5567 <trkpt lat="-30.085230000" lon="-51.616850000">
5568 <ele>46.100000</ele>
5569 <time>2069-11-30T12:15:59.810Z</time>
5570 <course>246.000000</course>
5571 <speed>22.789888</speed>
5572 <geoidheight>0.0</geoidheight>
5573 <fix>3d</fix>
5574 <sat>8</sat>
5575 <hdop>0.800000</hdop>
5576 </trkpt>
5577 <trkpt lat="-30.085350000" lon="-51.617170000">
5578 <ele>46.100000</ele>
5579 <time>2069-11-30T12:16:02.122Z</time>
5580 <course>246.000000</course>
5581 <speed>22.789888</speed>
5582 <geoidheight>0.0</geoidheight>
5583 <fix>3d</fix>
5584 <sat>8</sat>
5585 <hdop>0.800000</hdop>
5586 </trkpt>
5587 <trkpt lat="-30.085470000" lon="-51.617480000">
5588 <ele>46.100000</ele>
5589 <time>2069-11-30T12:16:04.370Z</time>
5590 <course>246.000000</course>
5591 <speed>22.789888</speed>
5592 <geoidheight>0.0</geoidheight>
5593 <fix>3d</fix>
5594 <sat>8</sat>
5595 <hdop>0.800000</hdop>
5596 </trkpt>
5597 <trkpt lat="-30.085590000" lon="-51.617790000">
5598 <ele>46.100000</ele>
5599 <time>2069-11-30T12:16:06.618Z</time>
5600 <course>246.000000</course>
5601 <speed>22.789888</speed>
5602 <geoidheight>0.0</geoidheight>
5603 <fix>3d</fix>
5604 <sat>8</sat>
5605 <hdop>0.800000</hdop>
5606 </trkpt>
5607 <trkpt lat="-30.085710000" lon="-51.618110000">
5608 <ele>46.100000</ele>
5609 <time>2069-11-30T12:16:08.930Z</time>
5610 <course>246.000000</course>
5611 <speed>22.789888</speed>
5612 <geoidheight>0.0</geoidheight>
5613 <fix>3d</fix>
5614 <sat>8</sat>
5615 <hdop>0.800000</hdop>
5616 </trkpt>
5617 <trkpt lat="-30.085830000" lon="-51.618420000">
5618 <ele>46.100000</ele>
5619 <time>2069-11-30T12:16:11.178Z</time>
5620 <course>246.000000</course>
5621 <speed>22.789888</speed>
5622 <geoidheight>0.0</geoidheight>
5623 <fix>3d</fix>
5624 <sat>8</sat>
5625 <hdop>0.800000</hdop>
5626 </trkpt>
5627 <trkpt lat="-30.085950000" lon="-51.618740000">
5628 <ele>46.100000</ele>
5629 <time>2069-11-30T12:16:13.489Z</time>
5630 <course>246.000000</course>
5631 <speed>22.789888</speed>
5632 <geoidheight>0.0</geoidheight>
5633 <fix>3d</fix>
5634 <sat>8</sat>
5635 <hdop>0.800000</hdop>
5636 </trkpt>
5637 <trkpt lat="-30.086070000" lon="-51.619050000">
5638 <ele>46.100000</ele>
5639 <time>2069-11-30T12:16:15.737Z</time>
5640 <course>246.000000</course>
5641 <speed>22.789888</speed>
5642 <geoidheight>0.0</geoidheight>
5643 <fix>3d</fix>
5644 <sat>8</sat>
5645 <hdop>0.800000</hdop>
5646 </trkpt>
5647 <trkpt lat="-30.086190000" lon="-51.619360000">
5648 <ele>46.100000</ele>
5649 <time>2069-11-30T12:16:17.986Z</time>
5650 <course>247.000000</course>
5651 <speed>22.789888</speed>
5652 <geoidheight>0.0</geoidheight>
5653 <fix>3d</fix>
5654 <sat>8</sat>
5655 <hdop>0.800000</hdop>
5656 </trkpt>
5657 <trkpt lat="-30.086300000" lon="-51.619680000">
5658 <ele>46.100000</ele>
5659 <time>2069-11-30T12:16:20.274Z</time>
5660 <course>247.000000</course>
5661 <speed>22.789888</speed>
5662 <geoidheight>0.0</geoidheight>
5663 <fix>3d</fix>
5664 <sat>8</sat>
5665 <hdop>0.800000</hdop>
5666 </trkpt>
5667 <trkpt lat="-30.086420000" lon="-51.619990000">
5668 <ele>46.100000</ele>
5669 <time>2069-11-30T12:16:22.522Z</time>
5670 <course>246.000000</course>
5671 <speed>22.789888</speed>
5672 <geoidheight>0.0</geoidheight>
5673 <fix>3d</fix>
5674 <sat>8</sat>
5675 <hdop>0.800000</hdop>
5676 </trkpt>
5677 <trkpt lat="-30.086540000" lon="-51.620310000">
5678 <ele>46.100000</ele>
5679 <time>2069-11-30T12:16:24.834Z</time>
5680 <course>246.000000</course>
5681 <speed>22.789888</speed>
5682 <geoidheight>0.0</geoidheight>
5683 <fix>3d</fix>
5684 <sat>8</sat>
5685 <hdop>0.800000</hdop>
5686 </trkpt>
5687 <trkpt lat="-30.086660000" lon="-51.620620000">
5688 <ele>46.100000</ele>
5689 <time>2069-11-30T12:16:27.082Z</time>
5690 <course>246.000000</course>
5691 <speed>22.789888</speed>
5692 <geoidheight>0.0</geoidheight>
5693 <fix>3d</fix>
5694 <sat>8</sat>
5695 <hdop>0.800000</hdop>
5696 </trkpt>
5697 <trkpt lat="-30.086780000" lon="-51.620930000">
5698 <ele>46.100000</ele>
5699 <time>2069-11-30T12:16:29.330Z</time>
5700 <course>246.000000</course>
5701 <speed>22.789888</speed>
5702 <geoidheight>0.0</geoidheight>
5703 <fix>3d</fix>
5704 <sat>8</sat>
5705 <hdop>0.800000</hdop>
5706 </trkpt>
5707 <trkpt lat="-30.086900000" lon="-51.621250000">
5708 <ele>46.100000</ele>
5709 <time>2069-11-30T12:16:31.642Z</time>
5710 <course>246.000000</course>
5711 <speed>22.789888</speed>
5712 <geoidheight>0.0</geoidheight>
5713 <fix>3d</fix>
5714 <sat>8</sat>
5715 <hdop>0.800000</hdop>
5716 </trkpt>
5717 <trkpt lat="-30.087020000" lon="-51.621560000">
5718 <ele>46.100000</ele>
5719 <time>2069-11-30T12:16:33.890Z</time>
5720 <course>246.000000</course>
5721 <speed>22.789888</speed>
5722 <geoidheight>0.0</geoidheight>
5723 <fix>3d</fix>
5724 <sat>8</sat>
5725 <hdop>0.800000</hdop>
5726 </trkpt>
5727 <trkpt lat="-30.087140000" lon="-51.621870000">
5728 <ele>46.100000</ele>
5729 <time>2069-11-30T12:16:36.138Z</time>
5730 <course>246.000000</course>
5731 <speed>22.789888</speed>
5732 <geoidheight>0.0</geoidheight>
5733 <fix>3d</fix>
5734 <sat>8</sat>
5735 <hdop>0.800000</hdop>
5736 </trkpt>
5737 <trkpt lat="-30.087260000" lon="-51.622190000">
5738 <ele>46.100000</ele>
5739 <time>2069-11-30T12:16:38.450Z</time>
5740 <course>246.000000</course>
5741 <speed>22.789888</speed>
5742 <geoidheight>0.0</geoidheight>
5743 <fix>3d</fix>
5744 <sat>8</sat>
5745 <hdop>0.800000</hdop>
5746 </trkpt>
5747 <trkpt lat="-30.087380000" lon="-51.622500000">
5748 <ele>46.100000</ele>
5749 <time>2069-11-30T12:16:40.698Z</time>
5750 <course>246.000000</course>
5751 <speed>22.789888</speed>
5752 <geoidheight>0.0</geoidheight>
5753 <fix>3d</fix>
5754 <sat>8</sat>
5755 <hdop>0.800000</hdop>
5756 </trkpt>
5757 <trkpt lat="-30.087500000" lon="-51.622810000">
5758 <ele>46.100000</ele>
5759 <time>2069-11-30T12:16:42.946Z</time>
5760 <course>246.000000</course>
5761 <speed>22.789888</speed>
5762 <geoidheight>0.0</geoidheight>
5763 <fix>3d</fix>
5764 <sat>8</sat>
5765 <hdop>0.800000</hdop>
5766 </trkpt>
5767 <trkpt lat="-30.087620000" lon="-51.623130000">
5768 <ele>46.100000</ele>
5769 <time>2069-11-30T12:16:45.257Z</time>
5770 <course>246.000000</course>
5771 <speed>22.789888</speed>
5772 <geoidheight>0.0</geoidheight>
5773 <fix>3d</fix>
5774 <sat>8</sat>
5775 <hdop>0.800000</hdop>
5776 </trkpt>
5777 <trkpt lat="-30.087740000" lon="-51.623440000">
5778 <ele>46.100000</ele>
5779 <time>2069-11-30T12:16:47.506Z</time>
5780 <course>246.000000</course>
5781 <speed>22.789888</speed>
5782 <geoidheight>0.0</geoidheight>
5783 <fix>3d</fix>
5784 <sat>8</sat>
5785 <hdop>0.800000</hdop>
5786 </trkpt>
5787 <trkpt lat="-30.087860000" lon="-51.623750000">
5788 <ele>46.100000</ele>
5789 <time>2069-11-30T12:16:49.754Z</time>
5790 <course>246.000000</course>
5791 <speed>22.789888</speed>
5792 <geoidheight>0.0</geoidheight>
5793 <fix>3d</fix>
5794 <sat>8</sat>
5795 <hdop>0.800000</hdop>
5796 </trkpt>
5797 <trkpt lat="-30.087980000" lon="-51.624060000">
5798 <ele>46.100000</ele>
5799 <time>2069-11-30T12:16:52.002Z</time>
5800 <course>246.000000</course>
5801 <speed>22.789888</speed>
5802 <geoidheight>0.0</geoidheight>
5803 <fix>3d</fix>
5804 <sat>8</sat>
5805 <hdop>0.800000</hdop>
5806 </trkpt>
5807 <trkpt lat="-30.088100000" lon="-51.624380000">
5808 <ele>46.100000</ele>
5809 <time>2069-11-30T12:16:54.314Z</time>
5810 <course>246.000000</course>
5811 <speed>22.789888</speed>
5812 <geoidheight>0.0</geoidheight>
5813 <fix>3d</fix>
5814 <sat>8</sat>
5815 <hdop>0.800000</hdop>
5816 </trkpt>
5817 <trkpt lat="-30.088220000" lon="-51.624690000">
5818 <ele>46.100000</ele>
5819 <time>2069-11-30T12:16:56.562Z</time>
5820 <course>246.000000</course>
5821 <speed>22.789888</speed>
5822 <geoidheight>0.0</geoidheight>
5823 <fix>3d</fix>
5824 <sat>8</sat>
5825 <hdop>0.800000</hdop>
5826 </trkpt>
5827 <trkpt lat="-30.088340000" lon="-51.625000000">
5828 <ele>46.100000</ele>
5829 <time>2069-11-30T12:16:58.810Z</time>
5830 <course>246.000000</course>
5831 <speed>22.789888</speed>
5832 <geoidheight>0.0</geoidheight>
5833 <fix>3d</fix>
5834 <sat>8</sat>
5835 <hdop>0.800000</hdop>
5836 </trkpt>
5837 <trkpt lat="-30.088460000" lon="-51.625320000">
5838 <ele>46.100000</ele>
5839 <time>2069-11-30T12:17:01.121Z</time>
5840 <course>246.000000</course>
5841 <speed>22.789888</speed>
5842 <geoidheight>0.0</geoidheight>
5843 <fix>3d</fix>
5844 <sat>8</sat>
5845 <hdop>0.800000</hdop>
5846 </trkpt>
5847 <trkpt lat="-30.088580000" lon="-51.625630000">
5848 <ele>46.100000</ele>
5849 <time>2069-11-30T12:17:03.370Z</time>
5850 <course>246.000000</course>
5851 <speed>22.789888</speed>
5852 <geoidheight>0.0</geoidheight>
5853 <fix>3d</fix>
5854 <sat>8</sat>
5855 <hdop>0.800000</hdop>
5856 </trkpt>
5857 <trkpt lat="-30.088700000" lon="-51.625940000">
5858 <ele>46.100000</ele>
5859 <time>2069-11-30T12:17:05.618Z</time>
5860 <course>246.000000</course>
5861 <speed>22.789888</speed>
5862 <geoidheight>0.0</geoidheight>
5863 <fix>3d</fix>
5864 <sat>8</sat>
5865 <hdop>0.800000</hdop>
5866 </trkpt>
5867 <trkpt lat="-30.088820000" lon="-51.626260000">
5868 <ele>46.100000</ele>
5869 <time>2069-11-30T12:17:07.929Z</time>
5870 <course>246.000000</course>
5871 <speed>22.789888</speed>
5872 <geoidheight>0.0</geoidheight>
5873 <fix>3d</fix>
5874 <sat>8</sat>
5875 <hdop>0.800000</hdop>
5876 </trkpt>
5877 <trkpt lat="-30.088940000" lon="-51.626570000">
5878 <ele>46.100000</ele>
5879 <time>2069-11-30T12:17:10.177Z</time>
5880 <course>246.000000</course>
5881 <speed>22.789888</speed>
5882 <geoidheight>0.0</geoidheight>
5883 <fix>3d</fix>
5884 <sat>8</sat>
5885 <hdop>0.800000</hdop>
5886 </trkpt>
5887 <trkpt lat="-30.089060000" lon="-51.626880000">
5888 <ele>46.100000</ele>
5889 <time>2069-11-30T12:17:12.426Z</time>
5890 <course>246.000000</course>
5891 <speed>22.789888</speed>
5892 <geoidheight>0.0</geoidheight>
5893 <fix>3d</fix>
5894 <sat>8</sat>
5895 <hdop>0.800000</hdop>
5896 </trkpt>
5897 <trkpt lat="-30.089180000" lon="-51.627200000">
5898 <ele>46.100000</ele>
5899 <time>2069-11-30T12:17:14.737Z</time>
5900 <course>246.000000</course>
5901 <speed>22.789888</speed>
5902 <geoidheight>0.0</geoidheight>
5903 <fix>3d</fix>
5904 <sat>8</sat>
5905 <hdop>0.800000</hdop>
5906 </trkpt>
5907 <trkpt lat="-30.089300000" lon="-51.627510000">
5908 <ele>46.100000</ele>
5909 <time>2069-11-30T12:17:16.985Z</time>
5910 <course>246.000000</course>
5911 <speed>22.789888</speed>
5912 <geoidheight>0.0</geoidheight>
5913 <fix>3d</fix>
5914 <sat>8</sat>
5915 <hdop>0.800000</hdop>
5916 </trkpt>
5917 <trkpt lat="-30.089420000" lon="-51.627820000">
5918 <ele>46.100000</ele>
5919 <time>2069-11-30T12:17:19.234Z</time>
5920 <course>246.000000</course>
5921 <speed>22.789888</speed>
5922 <geoidheight>0.0</geoidheight>
5923 <fix>3d</fix>
5924 <sat>8</sat>
5925 <hdop>0.800000</hdop>
5926 </trkpt>
5927 <trkpt lat="-30.089540000" lon="-51.628140000">
5928 <ele>46.100000</ele>
5929 <time>2069-11-30T12:17:21.545Z</time>
5930 <course>246.000000</course>
5931 <speed>22.789888</speed>
5932 <geoidheight>0.0</geoidheight>
5933 <fix>3d</fix>
5934 <sat>8</sat>
5935 <hdop>0.800000</hdop>
5936 </trkpt>
5937 <trkpt lat="-30.089660000" lon="-51.628450000">
5938 <ele>46.100000</ele>
5939 <time>2069-11-30T12:17:23.793Z</time>
5940 <course>246.000000</course>
5941 <speed>22.789888</speed>
5942 <geoidheight>0.0</geoidheight>
5943 <fix>3d</fix>
5944 <sat>8</sat>
5945 <hdop>0.800000</hdop>
5946 </trkpt>
5947 <trkpt lat="-30.089780000" lon="-51.628760000">
5948 <ele>46.100000</ele>
5949 <time>2069-11-30T12:17:26.041Z</time>
5950 <course>246.000000</course>
5951 <speed>22.789888</speed>
5952 <geoidheight>0.0</geoidheight>
5953 <fix>3d</fix>
5954 <sat>8</sat>
5955 <hdop>0.800000</hdop>
5956 </trkpt>
5957 <trkpt lat="-30.089900000" lon="-51.629080000">
5958 <ele>46.100000</ele>
5959 <time>2069-11-30T12:17:28.353Z</time>
5960 <course>246.000000</course>
5961 <speed>22.789888</speed>
5962 <geoidheight>0.0</geoidheight>
5963 <fix>3d</fix>
5964 <sat>8</sat>
5965 <hdop>0.800000</hdop>
5966 </trkpt>
5967 <trkpt lat="-30.090020000" lon="-51.629390000">
5968 <ele>46.100000</ele>
5969 <time>2069-11-30T12:17:30.601Z</time>
5970 <course>246.000000</course>
5971 <speed>22.789888</speed>
5972 <geoidheight>0.0</geoidheight>
5973 <fix>3d</fix>
5974 <sat>8</sat>
5975 <hdop>0.800000</hdop>
5976 </trkpt>
5977 <trkpt lat="-30.090140000" lon="-51.629700000">
5978 <ele>46.100000</ele>
5979 <time>2069-11-30T12:17:32.849Z</time>
5980 <course>246.000000</course>
5981 <speed>22.789888</speed>
5982 <geoidheight>0.0</geoidheight>
5983 <fix>3d</fix>
5984 <sat>8</sat>
5985 <hdop>0.800000</hdop>
5986 </trkpt>
5987 <trkpt lat="-30.090260000" lon="-51.630020000">
5988 <ele>46.100000</ele>
5989 <time>2069-11-30T12:17:35.161Z</time>
5990 <course>246.000000</course>
5991 <speed>22.789888</speed>
5992 <geoidheight>0.0</geoidheight>
5993 <fix>3d</fix>
5994 <sat>8</sat>
5995 <hdop>0.800000</hdop>
5996 </trkpt>
5997 <trkpt lat="-30.090380000" lon="-51.630330000">
5998 <ele>46.100000</ele>
5999 <time>2069-11-30T12:17:37.409Z</time>
6000 <course>246.000000</course>
6001 <speed>22.789888</speed>
6002 <geoidheight>0.0</geoidheight>
6003 <fix>3d</fix>
6004 <sat>8</sat>
6005 <hdop>0.800000</hdop>
6006 </trkpt>
6007 <trkpt lat="-30.090500000" lon="-51.630650000">
6008 <ele>46.100000</ele>
6009 <time>2069-11-30T12:17:39.720Z</time>
6010 <course>246.000000</course>
6011 <speed>22.789888</speed>
6012 <geoidheight>0.0</geoidheight>
6013 <fix>3d</fix>
6014 <sat>8</sat>
6015 <hdop>0.800000</hdop>
6016 </trkpt>
6017 <trkpt lat="-30.090620000" lon="-51.630960000">
6018 <ele>46.100000</ele>
6019 <time>2069-11-30T12:17:41.969Z</time>
6020 <course>246.000000</course>
6021 <speed>22.789888</speed>
6022 <geoidheight>0.0</geoidheight>
6023 <fix>3d</fix>
6024 <sat>8</sat>
6025 <hdop>0.800000</hdop>
6026 </trkpt>
6027 <trkpt lat="-30.090740000" lon="-51.631270000">
6028 <ele>46.100000</ele>
6029 <time>2069-11-30T12:17:44.217Z</time>
6030 <course>246.000000</course>
6031 <speed>22.789888</speed>
6032 <geoidheight>0.0</geoidheight>
6033 <fix>3d</fix>
6034 <sat>8</sat>
6035 <hdop>0.800000</hdop>
6036 </trkpt>
6037 <trkpt lat="-30.090860000" lon="-51.631580000">
6038 <ele>46.100000</ele>
6039 <time>2069-11-30T12:17:46.465Z</time>
6040 <course>246.000000</course>
6041 <speed>22.789888</speed>
6042 <geoidheight>0.0</geoidheight>
6043 <fix>3d</fix>
6044 <sat>8</sat>
6045 <hdop>0.800000</hdop>
6046 </trkpt>
6047 <trkpt lat="-30.090980000" lon="-51.631900000">
6048 <ele>46.100000</ele>
6049 <time>2069-11-30T12:17:48.776Z</time>
6050 <course>246.000000</course>
6051 <speed>22.789888</speed>
6052 <geoidheight>0.0</geoidheight>
6053 <fix>3d</fix>
6054 <sat>8</sat>
6055 <hdop>0.800000</hdop>
6056 </trkpt>
6057 <trkpt lat="-30.091100000" lon="-51.632210000">
6058 <ele>46.100000</ele>
6059 <time>2069-11-30T12:17:51.025Z</time>
6060 <course>246.000000</course>
6061 <speed>22.789888</speed>
6062 <geoidheight>0.0</geoidheight>
6063 <fix>3d</fix>
6064 <sat>8</sat>
6065 <hdop>0.800000</hdop>
6066 </trkpt>
6067 <trkpt lat="-30.091220000" lon="-51.632530000">
6068 <ele>46.100000</ele>
6069 <time>2069-11-30T12:17:53.336Z</time>
6070 <course>246.000000</course>
6071 <speed>22.789888</speed>
6072 <geoidheight>0.0</geoidheight>
6073 <fix>3d</fix>
6074 <sat>8</sat>
6075 <hdop>0.800000</hdop>
6076 </trkpt>
6077 <trkpt lat="-30.091340000" lon="-51.632840000">
6078 <ele>46.100000</ele>
6079 <time>2069-11-30T12:17:55.584Z</time>
6080 <course>246.000000</course>
6081 <speed>22.789888</speed>
6082 <geoidheight>0.0</geoidheight>
6083 <fix>3d</fix>
6084 <sat>8</sat>
6085 <hdop>0.800000</hdop>
6086 </trkpt>
6087 <trkpt lat="-30.091460000" lon="-51.633150000">
6088 <ele>46.100000</ele>
6089 <time>2069-11-30T12:17:57.833Z</time>
6090 <course>246.000000</course>
6091 <speed>22.789888</speed>
6092 <geoidheight>0.0</geoidheight>
6093 <fix>3d</fix>
6094 <sat>8</sat>
6095 <hdop>0.800000</hdop>
6096 </trkpt>
6097 <trkpt lat="-30.091580000" lon="-51.633470000">
6098 <ele>46.100000</ele>
6099 <time>2069-11-30T12:18:00.144Z</time>
6100 <course>246.000000</course>
6101 <speed>22.789888</speed>
6102 <geoidheight>0.0</geoidheight>
6103 <fix>3d</fix>
6104 <sat>8</sat>
6105 <hdop>0.800000</hdop>
6106 </trkpt>
6107 <trkpt lat="-30.091700000" lon="-51.633780000">
6108 <ele>46.100000</ele>
6109 <time>2069-11-30T12:18:02.392Z</time>
6110 <course>246.000000</course>
6111 <speed>22.789888</speed>
6112 <geoidheight>0.0</geoidheight>
6113 <fix>3d</fix>
6114 <sat>8</sat>
6115 <hdop>0.800000</hdop>
6116 </trkpt>
6117 <trkpt lat="-30.091820000" lon="-51.634100000">
6118 <ele>46.100000</ele>
6119 <time>2069-11-30T12:18:04.704Z</time>
6120 <course>246.000000</course>
6121 <speed>22.789888</speed>
6122 <geoidheight>0.0</geoidheight>
6123 <fix>3d</fix>
6124 <sat>8</sat>
6125 <hdop>0.800000</hdop>
6126 </trkpt>
6127 <trkpt lat="-30.091940000" lon="-51.634410000">
6128 <ele>46.100000</ele>
6129 <time>2069-11-30T12:18:06.952Z</time>
6130 <course>246.000000</course>
6131 <speed>22.789888</speed>
6132 <geoidheight>0.0</geoidheight>
6133 <fix>3d</fix>
6134 <sat>8</sat>
6135 <hdop>0.800000</hdop>
6136 </trkpt>
6137 <trkpt lat="-30.092060000" lon="-51.634720000">
6138 <ele>46.100000</ele>
6139 <time>2069-11-30T12:18:09.200Z</time>
6140 <course>246.000000</course>
6141 <speed>22.789888</speed>
6142 <geoidheight>0.0</geoidheight>
6143 <fix>3d</fix>
6144 <sat>8</sat>
6145 <hdop>0.800000</hdop>
6146 </trkpt>
6147 <trkpt lat="-30.092180000" lon="-51.635040000">
6148 <ele>46.100000</ele>
6149 <time>2069-11-30T12:18:11.511Z</time>
6150 <course>246.000000</course>
6151 <speed>22.789888</speed>
6152 <geoidheight>0.0</geoidheight>
6153 <fix>3d</fix>
6154 <sat>8</sat>
6155 <hdop>0.800000</hdop>
6156 </trkpt>
6157 <trkpt lat="-30.092300000" lon="-51.635350000">
6158 <ele>46.100000</ele>
6159 <time>2069-11-30T12:18:13.760Z</time>
6160 <course>246.000000</course>
6161 <speed>22.789888</speed>
6162 <geoidheight>0.0</geoidheight>
6163 <fix>3d</fix>
6164 <sat>8</sat>
6165 <hdop>0.800000</hdop>
6166 </trkpt>
6167 <trkpt lat="-30.092420000" lon="-51.635670000">
6168 <ele>46.100000</ele>
6169 <time>2069-11-30T12:18:16.071Z</time>
6170 <course>246.000000</course>
6171 <speed>22.789888</speed>
6172 <geoidheight>0.0</geoidheight>
6173 <fix>3d</fix>
6174 <sat>8</sat>
6175 <hdop>0.800000</hdop>
6176 </trkpt>
6177 <trkpt lat="-30.092540000" lon="-51.635980000">
6178 <ele>46.100000</ele>
6179 <time>2069-11-30T12:18:18.319Z</time>
6180 <course>246.000000</course>
6181 <speed>22.789888</speed>
6182 <geoidheight>0.0</geoidheight>
6183 <fix>3d</fix>
6184 <sat>8</sat>
6185 <hdop>0.800000</hdop>
6186 </trkpt>
6187 <trkpt lat="-30.092660000" lon="-51.636290000">
6188 <ele>46.100000</ele>
6189 <time>2069-11-30T12:18:20.568Z</time>
6190 <course>246.000000</course>
6191 <speed>22.789888</speed>
6192 <geoidheight>0.0</geoidheight>
6193 <fix>3d</fix>
6194 <sat>8</sat>
6195 <hdop>0.800000</hdop>
6196 </trkpt>
6197 <trkpt lat="-30.092780000" lon="-51.636610000">
6198 <ele>46.100000</ele>
6199 <time>2069-11-30T12:18:22.879Z</time>
6200 <course>246.000000</course>
6201 <speed>22.789888</speed>
6202 <geoidheight>0.0</geoidheight>
6203 <fix>3d</fix>
6204 <sat>8</sat>
6205 <hdop>0.800000</hdop>
6206 </trkpt>
6207 <trkpt lat="-30.092900000" lon="-51.636920000">
6208 <ele>46.100000</ele>
6209 <time>2069-11-30T12:18:25.127Z</time>
6210 <course>246.000000</course>
6211 <speed>22.789888</speed>
6212 <geoidheight>0.0</geoidheight>
6213 <fix>3d</fix>
6214 <sat>8</sat>
6215 <hdop>0.800000</hdop>
6216 </trkpt>
6217 <trkpt lat="-30.093020000" lon="-51.637230000">
6218 <ele>46.100000</ele>
6219 <time>2069-11-30T12:18:27.375Z</time>
6220 <course>246.000000</course>
6221 <speed>22.789888</speed>
6222 <geoidheight>0.0</geoidheight>
6223 <fix>3d</fix>
6224 <sat>8</sat>
6225 <hdop>0.800000</hdop>
6226 </trkpt>
6227 <trkpt lat="-30.093140000" lon="-51.637550000">
6228 <ele>46.100000</ele>
6229 <time>2069-11-30T12:18:29.687Z</time>
6230 <course>246.000000</course>
6231 <speed>22.789888</speed>
6232 <geoidheight>0.0</geoidheight>
6233 <fix>3d</fix>
6234 <sat>8</sat>
6235 <hdop>0.800000</hdop>
6236 </trkpt>
6237 <trkpt lat="-30.093260000" lon="-51.637860000">
6238 <ele>46.100000</ele>
6239 <time>2069-11-30T12:18:31.935Z</time>
6240 <course>246.000000</course>
6241 <speed>22.789888</speed>
6242 <geoidheight>0.0</geoidheight>
6243 <fix>3d</fix>
6244 <sat>8</sat>
6245 <hdop>0.800000</hdop>
6246 </trkpt>
6247 <trkpt lat="-30.093380000" lon="-51.638170000">
6248 <ele>46.100000</ele>
6249 <time>2069-11-30T12:18:34.183Z</time>
6250 <course>246.000000</course>
6251 <speed>22.789888</speed>
6252 <geoidheight>0.0</geoidheight>
6253 <fix>3d</fix>
6254 <sat>8</sat>
6255 <hdop>0.800000</hdop>
6256 </trkpt>
6257 <trkpt lat="-30.093500000" lon="-51.638490000">
6258 <ele>46.100000</ele>
6259 <time>2069-11-30T12:18:36.495Z</time>
6260 <course>246.000000</course>
6261 <speed>22.789888</speed>
6262 <geoidheight>0.0</geoidheight>
6263 <fix>3d</fix>
6264 <sat>8</sat>
6265 <hdop>0.800000</hdop>
6266 </trkpt>
6267 <trkpt lat="-30.093620000" lon="-51.638800000">
6268 <ele>46.100000</ele>
6269 <time>2069-11-30T12:18:38.743Z</time>
6270 <course>246.000000</course>
6271 <speed>22.789888</speed>
6272 <geoidheight>0.0</geoidheight>
6273 <fix>3d</fix>
6274 <sat>8</sat>
6275 <hdop>0.800000</hdop>
6276 </trkpt>
6277 <trkpt lat="-30.093740000" lon="-51.639120000">
6278 <ele>46.100000</ele>
6279 <time>2069-11-30T12:18:41.054Z</time>
6280 <course>247.000000</course>
6281 <speed>22.789888</speed>
6282 <geoidheight>0.0</geoidheight>
6283 <fix>3d</fix>
6284 <sat>8</sat>
6285 <hdop>0.800000</hdop>
6286 </trkpt>
6287 <trkpt lat="-30.093850000" lon="-51.639430000">
6288 <ele>46.100000</ele>
6289 <time>2069-11-30T12:18:43.279Z</time>
6290 <course>247.000000</course>
6291 <speed>22.789888</speed>
6292 <geoidheight>0.0</geoidheight>
6293 <fix>3d</fix>
6294 <sat>8</sat>
6295 <hdop>0.800000</hdop>
6296 </trkpt>
6297 <trkpt lat="-30.093970000" lon="-51.639740000">
6298 <ele>46.100000</ele>
6299 <time>2069-11-30T12:18:45.527Z</time>
6300 <course>246.000000</course>
6301 <speed>22.789888</speed>
6302 <geoidheight>0.0</geoidheight>
6303 <fix>3d</fix>
6304 <sat>8</sat>
6305 <hdop>0.800000</hdop>
6306 </trkpt>
6307 <trkpt lat="-30.094090000" lon="-51.640050000">
6308 <ele>46.100000</ele>
6309 <time>2069-11-30T12:18:47.775Z</time>
6310 <course>246.000000</course>
6311 <speed>22.789888</speed>
6312 <geoidheight>0.0</geoidheight>
6313 <fix>3d</fix>
6314 <sat>8</sat>
6315 <hdop>0.800000</hdop>
6316 </trkpt>
6317 <trkpt lat="-30.094210000" lon="-51.640370000">
6318 <ele>46.100000</ele>
6319 <time>2069-11-30T12:18:50.087Z</time>
6320 <course>246.000000</course>
6321 <speed>22.789888</speed>
6322 <geoidheight>0.0</geoidheight>
6323 <fix>3d</fix>
6324 <sat>8</sat>
6325 <hdop>0.800000</hdop>
6326 </trkpt>
6327 <trkpt lat="-30.094330000" lon="-51.640680000">
6328 <ele>46.100000</ele>
6329 <time>2069-11-30T12:18:52.335Z</time>
6330 <course>246.000000</course>
6331 <speed>22.789888</speed>
6332 <geoidheight>0.0</geoidheight>
6333 <fix>3d</fix>
6334 <sat>8</sat>
6335 <hdop>0.800000</hdop>
6336 </trkpt>
6337 <trkpt lat="-30.094450000" lon="-51.640990000">
6338 <ele>46.100000</ele>
6339 <time>2069-11-30T12:18:54.583Z</time>
6340 <course>246.000000</course>
6341 <speed>22.789888</speed>
6342 <geoidheight>0.0</geoidheight>
6343 <fix>3d</fix>
6344 <sat>8</sat>
6345 <hdop>0.800000</hdop>
6346 </trkpt>
6347 <trkpt lat="-30.094570000" lon="-51.641310000">
6348 <ele>46.100000</ele>
6349 <time>2069-11-30T12:18:56.895Z</time>
6350 <course>246.000000</course>
6351 <speed>22.789888</speed>
6352 <geoidheight>0.0</geoidheight>
6353 <fix>3d</fix>
6354 <sat>8</sat>
6355 <hdop>0.800000</hdop>
6356 </trkpt>
6357 <trkpt lat="-30.094690000" lon="-51.641620000">
6358 <ele>46.100000</ele>
6359 <time>2069-11-30T12:18:59.143Z</time>
6360 <course>246.000000</course>
6361 <speed>22.789888</speed>
6362 <geoidheight>0.0</geoidheight>
6363 <fix>3d</fix>
6364 <sat>8</sat>
6365 <hdop>0.800000</hdop>
6366 </trkpt>
6367 <trkpt lat="-30.094810000" lon="-51.641930000">
6368 <ele>46.100000</ele>
6369 <time>2069-11-30T12:19:01.391Z</time>
6370 <course>246.000000</course>
6371 <speed>22.789888</speed>
6372 <geoidheight>0.0</geoidheight>
6373 <fix>3d</fix>
6374 <sat>8</sat>
6375 <hdop>0.800000</hdop>
6376 </trkpt>
6377 <trkpt lat="-30.094930000" lon="-51.642240000">
6378 <ele>46.100000</ele>
6379 <time>2069-11-30T12:19:03.639Z</time>
6380 <course>246.000000</course>
6381 <speed>22.789888</speed>
6382 <geoidheight>0.0</geoidheight>
6383 <fix>3d</fix>
6384 <sat>8</sat>
6385 <hdop>0.800000</hdop>
6386 </trkpt>
6387 <trkpt lat="-30.095050000" lon="-51.642560000">
6388 <ele>46.100000</ele>
6389 <time>2069-11-30T12:19:05.951Z</time>
6390 <course>246.000000</course>
6391 <speed>22.789888</speed>
6392 <geoidheight>0.0</geoidheight>
6393 <fix>3d</fix>
6394 <sat>8</sat>
6395 <hdop>0.800000</hdop>
6396 </trkpt>
6397 <trkpt lat="-30.095170000" lon="-51.642870000">
6398 <ele>46.100000</ele>
6399 <time>2069-11-30T12:19:08.199Z</time>
6400 <course>246.000000</course>
6401 <speed>22.789888</speed>
6402 <geoidheight>0.0</geoidheight>
6403 <fix>3d</fix>
6404 <sat>8</sat>
6405 <hdop>0.800000</hdop>
6406 </trkpt>
6407 <trkpt lat="-30.095290000" lon="-51.643180000">
6408 <ele>46.100000</ele>
6409 <time>2069-11-30T12:19:10.447Z</time>
6410 <course>247.000000</course>
6411 <speed>22.789888</speed>
6412 <geoidheight>0.0</geoidheight>
6413 <fix>3d</fix>
6414 <sat>8</sat>
6415 <hdop>0.800000</hdop>
6416 </trkpt>
6417 <trkpt lat="-30.095400000" lon="-51.643490000">
6418 <ele>46.100000</ele>
6419 <time>2069-11-30T12:19:12.672Z</time>
6420 <course>247.000000</course>
6421 <speed>22.789888</speed>
6422 <geoidheight>0.0</geoidheight>
6423 <fix>3d</fix>
6424 <sat>8</sat>
6425 <hdop>0.800000</hdop>
6426 </trkpt>
6427 <trkpt lat="-30.095520000" lon="-51.643810000">
6428 <ele>46.100000</ele>
6429 <time>2069-11-30T12:19:14.983Z</time>
6430 <course>246.000000</course>
6431 <speed>22.789888</speed>
6432 <geoidheight>0.0</geoidheight>
6433 <fix>3d</fix>
6434 <sat>8</sat>
6435 <hdop>0.800000</hdop>
6436 </trkpt>
6437 <trkpt lat="-30.095640000" lon="-51.644120000">
6438 <ele>46.100000</ele>
6439 <time>2069-11-30T12:19:17.232Z</time>
6440 <course>246.000000</course>
6441 <speed>22.789888</speed>
6442 <geoidheight>0.0</geoidheight>
6443 <fix>3d</fix>
6444 <sat>8</sat>
6445 <hdop>0.800000</hdop>
6446 </trkpt>
6447 <trkpt lat="-30.095760000" lon="-51.644430000">
6448 <ele>46.100000</ele>
6449 <time>2069-11-30T12:19:19.480Z</time>
6450 <course>246.000000</course>
6451 <speed>22.789888</speed>
6452 <geoidheight>0.0</geoidheight>
6453 <fix>3d</fix>
6454 <sat>8</sat>
6455 <hdop>0.800000</hdop>
6456 </trkpt>
6457 <trkpt lat="-30.095880000" lon="-51.644750000">
6458 <ele>46.100000</ele>
6459 <time>2069-11-30T12:19:21.791Z</time>
6460 <course>246.000000</course>
6461 <speed>22.789888</speed>
6462 <geoidheight>0.0</geoidheight>
6463 <fix>3d</fix>
6464 <sat>8</sat>
6465 <hdop>0.800000</hdop>
6466 </trkpt>
6467 <trkpt lat="-30.096000000" lon="-51.645060000">
6468 <ele>46.100000</ele>
6469 <time>2069-11-30T12:19:24.039Z</time>
6470 <course>246.000000</course>
6471 <speed>22.789888</speed>
6472 <geoidheight>0.0</geoidheight>
6473 <fix>3d</fix>
6474 <sat>8</sat>
6475 <hdop>0.800000</hdop>
6476 </trkpt>
6477 <trkpt lat="-30.096120000" lon="-51.645380000">
6478 <ele>46.100000</ele>
6479 <time>2069-11-30T12:19:26.351Z</time>
6480 <course>246.000000</course>
6481 <speed>22.789888</speed>
6482 <geoidheight>0.0</geoidheight>
6483 <fix>3d</fix>
6484 <sat>8</sat>
6485 <hdop>0.800000</hdop>
6486 </trkpt>
6487 <trkpt lat="-30.096240000" lon="-51.645690000">
6488 <ele>46.100000</ele>
6489 <time>2069-11-30T12:19:28.599Z</time>
6490 <course>246.000000</course>
6491 <speed>22.789888</speed>
6492 <geoidheight>0.0</geoidheight>
6493 <fix>3d</fix>
6494 <sat>8</sat>
6495 <hdop>0.800000</hdop>
6496 </trkpt>
6497 <trkpt lat="-30.096360000" lon="-51.646000000">
6498 <ele>46.100000</ele>
6499 <time>2069-11-30T12:19:30.847Z</time>
6500 <course>246.000000</course>
6501 <speed>22.789888</speed>
6502 <geoidheight>0.0</geoidheight>
6503 <fix>3d</fix>
6504 <sat>8</sat>
6505 <hdop>0.800000</hdop>
6506 </trkpt>
6507 <trkpt lat="-30.096480000" lon="-51.646320000">
6508 <ele>46.100000</ele>
6509 <time>2069-11-30T12:19:33.159Z</time>
6510 <course>246.000000</course>
6511 <speed>22.789888</speed>
6512 <geoidheight>0.0</geoidheight>
6513 <fix>3d</fix>
6514 <sat>8</sat>
6515 <hdop>0.800000</hdop>
6516 </trkpt>
6517 <trkpt lat="-30.096600000" lon="-51.646630000">
6518 <ele>46.100000</ele>
6519 <time>2069-11-30T12:19:35.407Z</time>
6520 <course>246.000000</course>
6521 <speed>22.789888</speed>
6522 <geoidheight>0.0</geoidheight>
6523 <fix>3d</fix>
6524 <sat>8</sat>
6525 <hdop>0.800000</hdop>
6526 </trkpt>
6527 <trkpt lat="-30.096720000" lon="-51.646940000">
6528 <ele>46.100000</ele>
6529 <time>2069-11-30T12:19:37.655Z</time>
6530 <course>246.000000</course>
6531 <speed>22.789888</speed>
6532 <geoidheight>0.0</geoidheight>
6533 <fix>3d</fix>
6534 <sat>8</sat>
6535 <hdop>0.800000</hdop>
6536 </trkpt>
6537 <trkpt lat="-30.096840000" lon="-51.647260000">
6538 <ele>46.100000</ele>
6539 <time>2069-11-30T12:19:39.967Z</time>
6540 <course>246.000000</course>
6541 <speed>22.789888</speed>
6542 <geoidheight>0.0</geoidheight>
6543 <fix>3d</fix>
6544 <sat>8</sat>
6545 <hdop>0.800000</hdop>
6546 </trkpt>
6547 <trkpt lat="-30.096960000" lon="-51.647570000">
6548 <ele>46.100000</ele>
6549 <time>2069-11-30T12:19:42.215Z</time>
6550 <course>246.000000</course>
6551 <speed>22.789888</speed>
6552 <geoidheight>0.0</geoidheight>
6553 <fix>3d</fix>
6554 <sat>8</sat>
6555 <hdop>0.800000</hdop>
6556 </trkpt>
6557 <trkpt lat="-30.097080000" lon="-51.647880000">
6558 <ele>46.100000</ele>
6559 <time>2069-11-30T12:19:44.463Z</time>
6560 <course>246.000000</course>
6561 <speed>22.789888</speed>
6562 <geoidheight>0.0</geoidheight>
6563 <fix>3d</fix>
6564 <sat>8</sat>
6565 <hdop>0.800000</hdop>
6566 </trkpt>
6567 <trkpt lat="-30.097200000" lon="-51.648200000">
6568 <ele>46.100000</ele>
6569 <time>2069-11-30T12:19:46.774Z</time>
6570 <course>246.000000</course>
6571 <speed>22.789888</speed>
6572 <geoidheight>0.0</geoidheight>
6573 <fix>3d</fix>
6574 <sat>8</sat>
6575 <hdop>0.800000</hdop>
6576 </trkpt>
6577 <trkpt lat="-30.097320000" lon="-51.648510000">
6578 <ele>46.100000</ele>
6579 <time>2069-11-30T12:19:49.023Z</time>
6580 <course>246.000000</course>
6581 <speed>22.789888</speed>
6582 <geoidheight>0.0</geoidheight>
6583 <fix>3d</fix>
6584 <sat>8</sat>
6585 <hdop>0.800000</hdop>
6586 </trkpt>
6587 <trkpt lat="-30.097440000" lon="-51.648830000">
6588 <ele>46.100000</ele>
6589 <time>2069-11-30T12:19:51.334Z</time>
6590 <course>246.000000</course>
6591 <speed>22.789888</speed>
6592 <geoidheight>0.0</geoidheight>
6593 <fix>3d</fix>
6594 <sat>8</sat>
6595 <hdop>0.800000</hdop>
6596 </trkpt>
6597 <trkpt lat="-30.097560000" lon="-51.649140000">
6598 <ele>46.100000</ele>
6599 <time>2069-11-30T12:19:53.582Z</time>
6600 <course>246.000000</course>
6601 <speed>22.789888</speed>
6602 <geoidheight>0.0</geoidheight>
6603 <fix>3d</fix>
6604 <sat>8</sat>
6605 <hdop>0.800000</hdop>
6606 </trkpt>
6607 <trkpt lat="-30.097680000" lon="-51.649450000">
6608 <ele>46.100000</ele>
6609 <time>2069-11-30T12:19:55.831Z</time>
6610 <course>246.000000</course>
6611 <speed>22.789888</speed>
6612 <geoidheight>0.0</geoidheight>
6613 <fix>3d</fix>
6614 <sat>8</sat>
6615 <hdop>0.800000</hdop>
6616 </trkpt>
6617 <trkpt lat="-30.097800000" lon="-51.649770000">
6618 <ele>46.100000</ele>
6619 <time>2069-11-30T12:19:58.142Z</time>
6620 <course>246.000000</course>
6621 <speed>22.789888</speed>
6622 <geoidheight>0.0</geoidheight>
6623 <fix>3d</fix>
6624 <sat>8</sat>
6625 <hdop>0.800000</hdop>
6626 </trkpt>
6627 <trkpt lat="-30.097920000" lon="-51.650080000">
6628 <ele>46.100000</ele>
6629 <time>2069-11-30T12:20:00.390Z</time>
6630 <course>246.000000</course>
6631 <speed>22.789888</speed>
6632 <geoidheight>0.0</geoidheight>
6633 <fix>3d</fix>
6634 <sat>8</sat>
6635 <hdop>0.800000</hdop>
6636 </trkpt>
6637 <trkpt lat="-30.098040000" lon="-51.650400000">
6638 <ele>46.100000</ele>
6639 <time>2069-11-30T12:20:02.702Z</time>
6640 <course>246.000000</course>
6641 <speed>22.789888</speed>
6642 <geoidheight>0.0</geoidheight>
6643 <fix>3d</fix>
6644 <sat>8</sat>
6645 <hdop>0.800000</hdop>
6646 </trkpt>
6647 <trkpt lat="-30.098160000" lon="-51.650710000">
6648 <ele>46.100000</ele>
6649 <time>2069-11-30T12:20:04.950Z</time>
6650 <course>246.000000</course>
6651 <speed>22.789888</speed>
6652 <geoidheight>0.0</geoidheight>
6653 <fix>3d</fix>
6654 <sat>8</sat>
6655 <hdop>0.800000</hdop>
6656 </trkpt>
6657 <trkpt lat="-30.098280000" lon="-51.651020000">
6658 <ele>46.100000</ele>
6659 <time>2069-11-30T12:20:07.198Z</time>
6660 <course>246.000000</course>
6661 <speed>22.789888</speed>
6662 <geoidheight>0.0</geoidheight>
6663 <fix>3d</fix>
6664 <sat>8</sat>
6665 <hdop>0.800000</hdop>
6666 </trkpt>
6667 <trkpt lat="-30.098400000" lon="-51.651330000">
6668 <ele>46.100000</ele>
6669 <time>2069-11-30T12:20:09.446Z</time>
6670 <course>246.000000</course>
6671 <speed>22.789888</speed>
6672 <geoidheight>0.0</geoidheight>
6673 <fix>3d</fix>
6674 <sat>8</sat>
6675 <hdop>0.800000</hdop>
6676 </trkpt>
6677 <trkpt lat="-30.098520000" lon="-51.651640000">
6678 <ele>46.100000</ele>
6679 <time>2069-11-30T12:20:11.694Z</time>
6680 <course>246.000000</course>
6681 <speed>22.789888</speed>
6682 <geoidheight>0.0</geoidheight>
6683 <fix>3d</fix>
6684 <sat>8</sat>
6685 <hdop>0.800000</hdop>
6686 </trkpt>
6687 <trkpt lat="-30.098640000" lon="-51.651960000">
6688 <ele>46.100000</ele>
6689 <time>2069-11-30T12:20:14.006Z</time>
6690 <course>247.000000</course>
6691 <speed>22.789888</speed>
6692 <geoidheight>0.0</geoidheight>
6693 <fix>3d</fix>
6694 <sat>8</sat>
6695 <hdop>0.800000</hdop>
6696 </trkpt>
6697 <trkpt lat="-30.098760000" lon="-51.652280000">
6698 <ele>46.100000</ele>
6699 <time>2069-11-30T12:20:16.317Z</time>
6700 <course>246.000000</course>
6701 <speed>22.789888</speed>
6702 <geoidheight>0.0</geoidheight>
6703 <fix>3d</fix>
6704 <sat>8</sat>
6705 <hdop>0.800000</hdop>
6706 </trkpt>
6707 <trkpt lat="-30.098880000" lon="-51.652590000">
6708 <ele>46.100000</ele>
6709 <time>2069-11-30T12:20:18.566Z</time>
6710 <course>246.000000</course>
6711 <speed>22.789888</speed>
6712 <geoidheight>0.0</geoidheight>
6713 <fix>3d</fix>
6714 <sat>8</sat>
6715 <hdop>0.800000</hdop>
6716 </trkpt>
6717 <trkpt lat="-30.099000000" lon="-51.652910000">
6718 <ele>46.100000</ele>
6719 <time>2069-11-30T12:20:20.877Z</time>
6720 <course>245.000000</course>
6721 <speed>22.789888</speed>
6722 <geoidheight>0.0</geoidheight>
6723 <fix>3d</fix>
6724 <sat>8</sat>
6725 <hdop>0.800000</hdop>
6726 </trkpt>
6727 <trkpt lat="-30.099130000" lon="-51.653220000">
6728 <ele>46.100000</ele>
6729 <time>2069-11-30T12:20:23.150Z</time>
6730 <course>245.000000</course>
6731 <speed>22.789888</speed>
6732 <geoidheight>0.0</geoidheight>
6733 <fix>3d</fix>
6734 <sat>8</sat>
6735 <hdop>0.800000</hdop>
6736 </trkpt>
6737 <trkpt lat="-30.099250000" lon="-51.653530000">
6738 <ele>46.100000</ele>
6739 <time>2069-11-30T12:20:25.399Z</time>
6740 <course>246.000000</course>
6741 <speed>22.789888</speed>
6742 <geoidheight>0.0</geoidheight>
6743 <fix>3d</fix>
6744 <sat>8</sat>
6745 <hdop>0.800000</hdop>
6746 </trkpt>
6747 <trkpt lat="-30.099370000" lon="-51.653850000">
6748 <ele>46.100000</ele>
6749 <time>2069-11-30T12:20:27.710Z</time>
6750 <course>246.000000</course>
6751 <speed>22.789888</speed>
6752 <geoidheight>0.0</geoidheight>
6753 <fix>3d</fix>
6754 <sat>8</sat>
6755 <hdop>0.800000</hdop>
6756 </trkpt>
6757 <trkpt lat="-30.099490000" lon="-51.654160000">
6758 <ele>46.100000</ele>
6759 <time>2069-11-30T12:20:29.958Z</time>
6760 <course>246.000000</course>
6761 <speed>22.789888</speed>
6762 <geoidheight>0.0</geoidheight>
6763 <fix>3d</fix>
6764 <sat>8</sat>
6765 <hdop>0.800000</hdop>
6766 </trkpt>
6767 <trkpt lat="-30.099610000" lon="-51.654480000">
6768 <ele>46.100000</ele>
6769 <time>2069-11-30T12:20:32.270Z</time>
6770 <course>246.000000</course>
6771 <speed>22.789888</speed>
6772 <geoidheight>0.0</geoidheight>
6773 <fix>3d</fix>
6774 <sat>8</sat>
6775 <hdop>0.800000</hdop>
6776 </trkpt>
6777 <trkpt lat="-30.099730000" lon="-51.654790000">
6778 <ele>46.100000</ele>
6779 <time>2069-11-30T12:20:34.518Z</time>
6780 <course>246.000000</course>
6781 <speed>22.789888</speed>
6782 <geoidheight>0.0</geoidheight>
6783 <fix>3d</fix>
6784 <sat>8</sat>
6785 <hdop>0.800000</hdop>
6786 </trkpt>
6787 <trkpt lat="-30.099850000" lon="-51.655100000">
6788 <ele>46.100000</ele>
6789 <time>2069-11-30T12:20:36.766Z</time>
6790 <course>246.000000</course>
6791 <speed>22.789888</speed>
6792 <geoidheight>0.0</geoidheight>
6793 <fix>3d</fix>
6794 <sat>8</sat>
6795 <hdop>0.800000</hdop>
6796 </trkpt>
6797 <trkpt lat="-30.099970000" lon="-51.655420000">
6798 <ele>46.100000</ele>
6799 <time>2069-11-30T12:20:39.078Z</time>
6800 <course>246.000000</course>
6801 <speed>22.789888</speed>
6802 <geoidheight>0.0</geoidheight>
6803 <fix>3d</fix>
6804 <sat>8</sat>
6805 <hdop>0.800000</hdop>
6806 </trkpt>
6807 <trkpt lat="-30.100090000" lon="-51.655730000">
6808 <ele>46.100000</ele>
6809 <time>2069-11-30T12:20:41.326Z</time>
6810 <course>246.000000</course>
6811 <speed>22.789888</speed>
6812 <geoidheight>0.0</geoidheight>
6813 <fix>3d</fix>
6814 <sat>8</sat>
6815 <hdop>0.800000</hdop>
6816 </trkpt>
6817 <trkpt lat="-30.100210000" lon="-51.656040000">
6818 <ele>46.100000</ele>
6819 <time>2069-11-30T12:20:43.574Z</time>
6820 <course>245.000000</course>
6821 <speed>22.789888</speed>
6822 <geoidheight>0.0</geoidheight>
6823 <fix>3d</fix>
6824 <sat>8</sat>
6825 <hdop>0.800000</hdop>
6826 </trkpt>
6827 <trkpt lat="-30.100340000" lon="-51.656360000">
6828 <ele>46.100000</ele>
6829 <time>2069-11-30T12:20:45.910Z</time>
6830 <course>246.000000</course>
6831 <speed>22.789888</speed>
6832 <geoidheight>0.0</geoidheight>
6833 <fix>3d</fix>
6834 <sat>8</sat>
6835 <hdop>0.800000</hdop>
6836 </trkpt>
6837 <trkpt lat="-30.100450000" lon="-51.656660000">
6838 <ele>46.100000</ele>
6839 <time>2069-11-30T12:20:48.071Z</time>
6840 <course>246.000000</course>
6841 <speed>22.789888</speed>
6842 <geoidheight>0.0</geoidheight>
6843 <fix>3d</fix>
6844 <sat>8</sat>
6845 <hdop>0.800000</hdop>
6846 </trkpt>
6847 <trkpt lat="-30.100570000" lon="-51.656970000">
6848 <ele>46.100000</ele>
6849 <time>2069-11-30T12:20:50.319Z</time>
6850 <course>246.000000</course>
6851 <speed>22.789888</speed>
6852 <geoidheight>0.0</geoidheight>
6853 <fix>3d</fix>
6854 <sat>8</sat>
6855 <hdop>0.800000</hdop>
6856 </trkpt>
6857 <trkpt lat="-30.100690000" lon="-51.657290000">
6858 <ele>46.100000</ele>
6859 <time>2069-11-30T12:20:52.631Z</time>
6860 <course>246.000000</course>
6861 <speed>22.789888</speed>
6862 <geoidheight>0.0</geoidheight>
6863 <fix>3d</fix>
6864 <sat>8</sat>
6865 <hdop>0.800000</hdop>
6866 </trkpt>
6867 <trkpt lat="-30.100810000" lon="-51.657590000">
6868 <ele>46.100000</ele>
6869 <time>2069-11-30T12:20:54.816Z</time>
6870 <course>245.000000</course>
6871 <speed>22.789888</speed>
6872 <geoidheight>0.0</geoidheight>
6873 <fix>3d</fix>
6874 <sat>8</sat>
6875 <hdop>0.800000</hdop>
6876 </trkpt>
6877 <trkpt lat="-30.100930000" lon="-51.657900000">
6878 <ele>46.100000</ele>
6879 <time>2069-11-30T12:20:57.064Z</time>
6880 <course>246.000000</course>
6881 <speed>22.789888</speed>
6882 <geoidheight>0.0</geoidheight>
6883 <fix>3d</fix>
6884 <sat>8</sat>
6885 <hdop>0.800000</hdop>
6886 </trkpt>
6887 <trkpt lat="-30.101040000" lon="-51.658200000">
6888 <ele>46.100000</ele>
6889 <time>2069-11-30T12:20:59.225Z</time>
6890 <course>246.000000</course>
6891 <speed>22.789888</speed>
6892 <geoidheight>0.0</geoidheight>
6893 <fix>3d</fix>
6894 <sat>8</sat>
6895 <hdop>0.800000</hdop>
6896 </trkpt>
6897 <trkpt lat="-30.101170000" lon="-51.658520000">
6898 <ele>46.100000</ele>
6899 <time>2069-11-30T12:21:01.561Z</time>
6900 <course>246.000000</course>
6901 <speed>22.789888</speed>
6902 <geoidheight>0.0</geoidheight>
6903 <fix>3d</fix>
6904 <sat>8</sat>
6905 <hdop>0.800000</hdop>
6906 </trkpt>
6907 <trkpt lat="-30.101280000" lon="-51.658830000">
6908 <ele>46.100000</ele>
6909 <time>2069-11-30T12:21:03.786Z</time>
6910 <course>247.000000</course>
6911 <speed>22.789888</speed>
6912 <geoidheight>0.0</geoidheight>
6913 <fix>3d</fix>
6914 <sat>8</sat>
6915 <hdop>0.800000</hdop>
6916 </trkpt>
6917 <trkpt lat="-30.101400000" lon="-51.659140000">
6918 <ele>46.100000</ele>
6919 <time>2069-11-30T12:21:06.034Z</time>
6920 <course>246.000000</course>
6921 <speed>22.789888</speed>
6922 <geoidheight>0.0</geoidheight>
6923 <fix>3d</fix>
6924 <sat>8</sat>
6925 <hdop>0.800000</hdop>
6926 </trkpt>
6927 <trkpt lat="-30.101520000" lon="-51.659450000">
6928 <ele>46.100000</ele>
6929 <time>2069-11-30T12:21:08.283Z</time>
6930 <course>246.000000</course>
6931 <speed>22.789888</speed>
6932 <geoidheight>0.0</geoidheight>
6933 <fix>3d</fix>
6934 <sat>8</sat>
6935 <hdop>0.800000</hdop>
6936 </trkpt>
6937 <trkpt lat="-30.101640000" lon="-51.659770000">
6938 <ele>46.100000</ele>
6939 <time>2069-11-30T12:21:10.594Z</time>
6940 <course>246.000000</course>
6941 <speed>22.789888</speed>
6942 <geoidheight>0.0</geoidheight>
6943 <fix>3d</fix>
6944 <sat>8</sat>
6945 <hdop>0.800000</hdop>
6946 </trkpt>
6947 <trkpt lat="-30.101760000" lon="-51.660080000">
6948 <ele>46.100000</ele>
6949 <time>2069-11-30T12:21:12.842Z</time>
6950 <course>246.000000</course>
6951 <speed>22.789888</speed>
6952 <geoidheight>0.0</geoidheight>
6953 <fix>3d</fix>
6954 <sat>8</sat>
6955 <hdop>0.800000</hdop>
6956 </trkpt>
6957 <trkpt lat="-30.101880000" lon="-51.660390000">
6958 <ele>46.100000</ele>
6959 <time>2069-11-30T12:21:15.090Z</time>
6960 <course>246.000000</course>
6961 <speed>22.789888</speed>
6962 <geoidheight>0.0</geoidheight>
6963 <fix>3d</fix>
6964 <sat>8</sat>
6965 <hdop>0.800000</hdop>
6966 </trkpt>
6967 <trkpt lat="-30.102000000" lon="-51.660710000">
6968 <ele>46.100000</ele>
6969 <time>2069-11-30T12:21:17.402Z</time>
6970 <course>246.000000</course>
6971 <speed>22.789888</speed>
6972 <geoidheight>0.0</geoidheight>
6973 <fix>3d</fix>
6974 <sat>8</sat>
6975 <hdop>0.800000</hdop>
6976 </trkpt>
6977 <trkpt lat="-30.102120000" lon="-51.661020000">
6978 <ele>46.100000</ele>
6979 <time>2069-11-30T12:21:19.650Z</time>
6980 <course>245.000000</course>
6981 <speed>22.789888</speed>
6982 <geoidheight>0.0</geoidheight>
6983 <fix>3d</fix>
6984 <sat>8</sat>
6985 <hdop>0.800000</hdop>
6986 </trkpt>
6987 <trkpt lat="-30.102250000" lon="-51.661340000">
6988 <ele>46.100000</ele>
6989 <time>2069-11-30T12:21:21.986Z</time>
6990 <course>245.000000</course>
6991 <speed>22.789888</speed>
6992 <geoidheight>0.0</geoidheight>
6993 <fix>3d</fix>
6994 <sat>8</sat>
6995 <hdop>0.800000</hdop>
6996 </trkpt>
6997 <trkpt lat="-30.102370000" lon="-51.661650000">
6998 <ele>46.100000</ele>
6999 <time>2069-11-30T12:21:24.234Z</time>
7000 <course>246.000000</course>
7001 <speed>22.789888</speed>
7002 <geoidheight>0.0</geoidheight>
7003 <fix>3d</fix>
7004 <sat>8</sat>
7005 <hdop>0.800000</hdop>
7006 </trkpt>
7007 <trkpt lat="-30.102490000" lon="-51.661970000">
7008 <ele>46.100000</ele>
7009 <time>2069-11-30T12:21:26.546Z</time>
7010 <course>246.000000</course>
7011 <speed>22.789888</speed>
7012 <geoidheight>0.0</geoidheight>
7013 <fix>3d</fix>
7014 <sat>8</sat>
7015 <hdop>0.800000</hdop>
7016 </trkpt>
7017 <trkpt lat="-30.102610000" lon="-51.662280000">
7018 <ele>46.100000</ele>
7019 <time>2069-11-30T12:21:28.794Z</time>
7020 <course>246.000000</course>
7021 <speed>22.789888</speed>
7022 <geoidheight>0.0</geoidheight>
7023 <fix>3d</fix>
7024 <sat>8</sat>
7025 <hdop>0.800000</hdop>
7026 </trkpt>
7027 <trkpt lat="-30.102730000" lon="-51.662590000">
7028 <ele>46.100000</ele>
7029 <time>2069-11-30T12:21:31.042Z</time>
7030 <course>246.000000</course>
7031 <speed>22.789888</speed>
7032 <geoidheight>0.0</geoidheight>
7033 <fix>3d</fix>
7034 <sat>8</sat>
7035 <hdop>0.800000</hdop>
7036 </trkpt>
7037 <trkpt lat="-30.102850000" lon="-51.662910000">
7038 <ele>46.100000</ele>
7039 <time>2069-11-30T12:21:33.354Z</time>
7040 <course>246.000000</course>
7041 <speed>22.789888</speed>
7042 <geoidheight>0.0</geoidheight>
7043 <fix>3d</fix>
7044 <sat>8</sat>
7045 <hdop>0.800000</hdop>
7046 </trkpt>
7047 <trkpt lat="-30.102970000" lon="-51.663220000">
7048 <ele>46.100000</ele>
7049 <time>2069-11-30T12:21:35.602Z</time>
7050 <course>246.000000</course>
7051 <speed>22.789888</speed>
7052 <geoidheight>0.0</geoidheight>
7053 <fix>3d</fix>
7054 <sat>8</sat>
7055 <hdop>0.800000</hdop>
7056 </trkpt>
7057 <trkpt lat="-30.103090000" lon="-51.663530000">
7058 <ele>46.100000</ele>
7059 <time>2069-11-30T12:21:37.850Z</time>
7060 <course>246.000000</course>
7061 <speed>22.789888</speed>
7062 <geoidheight>0.0</geoidheight>
7063 <fix>3d</fix>
7064 <sat>8</sat>
7065 <hdop>0.800000</hdop>
7066 </trkpt>
7067 <trkpt lat="-30.103210000" lon="-51.663850000">
7068 <ele>46.100000</ele>
7069 <time>2069-11-30T12:21:40.161Z</time>
7070 <course>246.000000</course>
7071 <speed>22.789888</speed>
7072 <geoidheight>0.0</geoidheight>
7073 <fix>3d</fix>
7074 <sat>8</sat>
7075 <hdop>0.800000</hdop>
7076 </trkpt>
7077 <trkpt lat="-30.103330000" lon="-51.664160000">
7078 <ele>46.100000</ele>
7079 <time>2069-11-30T12:21:42.410Z</time>
7080 <course>246.000000</course>
7081 <speed>22.789888</speed>
7082 <geoidheight>0.0</geoidheight>
7083 <fix>3d</fix>
7084 <sat>8</sat>
7085 <hdop>0.800000</hdop>
7086 </trkpt>
7087 <trkpt lat="-30.103450000" lon="-51.664470000">
7088 <ele>46.100000</ele>
7089 <time>2069-11-30T12:21:44.658Z</time>
7090 <course>246.000000</course>
7091 <speed>22.789888</speed>
7092 <geoidheight>0.0</geoidheight>
7093 <fix>3d</fix>
7094 <sat>8</sat>
7095 <hdop>0.800000</hdop>
7096 </trkpt>
7097 <trkpt lat="-30.103570000" lon="-51.664780000">
7098 <ele>46.100000</ele>
7099 <time>2069-11-30T12:21:46.906Z</time>
7100 <course>246.000000</course>
7101 <speed>22.789888</speed>
7102 <geoidheight>0.0</geoidheight>
7103 <fix>3d</fix>
7104 <sat>8</sat>
7105 <hdop>0.800000</hdop>
7106 </trkpt>
7107 <trkpt lat="-30.103690000" lon="-51.665100000">
7108 <ele>46.100000</ele>
7109 <time>2069-11-30T12:21:49.218Z</time>
7110 <course>247.000000</course>
7111 <speed>22.789888</speed>
7112 <geoidheight>0.0</geoidheight>
7113 <fix>3d</fix>
7114 <sat>8</sat>
7115 <hdop>0.800000</hdop>
7116 </trkpt>
7117 <trkpt lat="-30.103800000" lon="-51.665410000">
7118 <ele>46.100000</ele>
7119 <time>2069-11-30T12:21:51.442Z</time>
7120 <course>247.000000</course>
7121 <speed>22.789888</speed>
7122 <geoidheight>0.0</geoidheight>
7123 <fix>3d</fix>
7124 <sat>8</sat>
7125 <hdop>0.800000</hdop>
7126 </trkpt>
7127 <trkpt lat="-30.103920000" lon="-51.665720000">
7128 <ele>46.100000</ele>
7129 <time>2069-11-30T12:21:53.690Z</time>
7130 <course>246.000000</course>
7131 <speed>22.789888</speed>
7132 <geoidheight>0.0</geoidheight>
7133 <fix>3d</fix>
7134 <sat>8</sat>
7135 <hdop>0.800000</hdop>
7136 </trkpt>
7137 <trkpt lat="-30.104040000" lon="-51.666040000">
7138 <ele>46.100000</ele>
7139 <time>2069-11-30T12:21:56.002Z</time>
7140 <course>246.000000</course>
7141 <speed>22.789888</speed>
7142 <geoidheight>0.0</geoidheight>
7143 <fix>3d</fix>
7144 <sat>8</sat>
7145 <hdop>0.800000</hdop>
7146 </trkpt>
7147 <trkpt lat="-30.104160000" lon="-51.666350000">
7148 <ele>46.100000</ele>
7149 <time>2069-11-30T12:21:58.250Z</time>
7150 <course>246.000000</course>
7151 <speed>22.789888</speed>
7152 <geoidheight>0.0</geoidheight>
7153 <fix>3d</fix>
7154 <sat>8</sat>
7155 <hdop>0.800000</hdop>
7156 </trkpt>
7157 <trkpt lat="-30.104280000" lon="-51.666660000">
7158 <ele>46.100000</ele>
7159 <time>2069-11-30T12:22:00.498Z</time>
7160 <course>247.000000</course>
7161 <speed>22.789888</speed>
7162 <geoidheight>0.0</geoidheight>
7163 <fix>3d</fix>
7164 <sat>8</sat>
7165 <hdop>0.800000</hdop>
7166 </trkpt>
7167 <trkpt lat="-30.104390000" lon="-51.666970000">
7168 <ele>46.100000</ele>
7169 <time>2069-11-30T12:22:02.723Z</time>
7170 <course>247.000000</course>
7171 <speed>22.789888</speed>
7172 <geoidheight>0.0</geoidheight>
7173 <fix>3d</fix>
7174 <sat>8</sat>
7175 <hdop>0.800000</hdop>
7176 </trkpt>
7177 <trkpt lat="-30.104510000" lon="-51.667280000">
7178 <ele>46.100000</ele>
7179 <time>2069-11-30T12:22:04.971Z</time>
7180 <course>246.000000</course>
7181 <speed>22.789888</speed>
7182 <geoidheight>0.0</geoidheight>
7183 <fix>3d</fix>
7184 <sat>8</sat>
7185 <hdop>0.800000</hdop>
7186 </trkpt>
7187 <trkpt lat="-30.104630000" lon="-51.667600000">
7188 <ele>46.100000</ele>
7189 <time>2069-11-30T12:22:07.283Z</time>
7190 <course>246.000000</course>
7191 <speed>22.789888</speed>
7192 <geoidheight>0.0</geoidheight>
7193 <fix>3d</fix>
7194 <sat>8</sat>
7195 <hdop>0.800000</hdop>
7196 </trkpt>
7197 <trkpt lat="-30.104750000" lon="-51.667910000">
7198 <ele>46.100000</ele>
7199 <time>2069-11-30T12:22:09.531Z</time>
7200 <course>245.000000</course>
7201 <speed>22.789888</speed>
7202 <geoidheight>0.0</geoidheight>
7203 <fix>3d</fix>
7204 <sat>8</sat>
7205 <hdop>0.800000</hdop>
7206 </trkpt>
7207 <trkpt lat="-30.104880000" lon="-51.668230000">
7208 <ele>46.100000</ele>
7209 <time>2069-11-30T12:22:11.867Z</time>
7210 <course>245.000000</course>
7211 <speed>22.789888</speed>
7212 <geoidheight>0.0</geoidheight>
7213 <fix>3d</fix>
7214 <sat>8</sat>
7215 <hdop>0.800000</hdop>
7216 </trkpt>
7217 <trkpt lat="-30.105000000" lon="-51.668540000">
7218 <ele>46.100000</ele>
7219 <time>2069-11-30T12:22:14.115Z</time>
7220 <course>246.000000</course>
7221 <speed>22.789888</speed>
7222 <geoidheight>0.0</geoidheight>
7223 <fix>3d</fix>
7224 <sat>8</sat>
7225 <hdop>0.800000</hdop>
7226 </trkpt>
7227 <trkpt lat="-30.105120000" lon="-51.668850000">
7228 <ele>46.100000</ele>
7229 <time>2069-11-30T12:22:16.363Z</time>
7230 <course>246.000000</course>
7231 <speed>22.789888</speed>
7232 <geoidheight>0.0</geoidheight>
7233 <fix>3d</fix>
7234 <sat>8</sat>
7235 <hdop>0.800000</hdop>
7236 </trkpt>
7237 <trkpt lat="-30.105240000" lon="-51.669170000">
7238 <ele>46.100000</ele>
7239 <time>2069-11-30T12:22:18.675Z</time>
7240 <course>246.000000</course>
7241 <speed>22.789888</speed>
7242 <geoidheight>0.0</geoidheight>
7243 <fix>3d</fix>
7244 <sat>8</sat>
7245 <hdop>0.800000</hdop>
7246 </trkpt>
7247 <trkpt lat="-30.105360000" lon="-51.669480000">
7248 <ele>46.100000</ele>
7249 <time>2069-11-30T12:22:20.923Z</time>
7250 <course>246.000000</course>
7251 <speed>22.789888</speed>
7252 <geoidheight>0.0</geoidheight>
7253 <fix>3d</fix>
7254 <sat>8</sat>
7255 <hdop>0.800000</hdop>
7256 </trkpt>
7257 <trkpt lat="-30.105480000" lon="-51.669800000">
7258 <ele>46.100000</ele>
7259 <time>2069-11-30T12:22:23.234Z</time>
7260 <course>246.000000</course>
7261 <speed>22.789888</speed>
7262 <geoidheight>0.0</geoidheight>
7263 <fix>3d</fix>
7264 <sat>8</sat>
7265 <hdop>0.800000</hdop>
7266 </trkpt>
7267 <trkpt lat="-30.105600000" lon="-51.670110000">
7268 <ele>46.100000</ele>
7269 <time>2069-11-30T12:22:25.483Z</time>
7270 <course>246.000000</course>
7271 <speed>22.789888</speed>
7272 <geoidheight>0.0</geoidheight>
7273 <fix>3d</fix>
7274 <sat>8</sat>
7275 <hdop>0.800000</hdop>
7276 </trkpt>
7277 <trkpt lat="-30.105720000" lon="-51.670420000">
7278 <ele>46.100000</ele>
7279 <time>2069-11-30T12:22:27.731Z</time>
7280 <course>246.000000</course>
7281 <speed>22.789888</speed>
7282 <geoidheight>0.0</geoidheight>
7283 <fix>3d</fix>
7284 <sat>8</sat>
7285 <hdop>0.800000</hdop>
7286 </trkpt>
7287 <trkpt lat="-30.105840000" lon="-51.670740000">
7288 <ele>46.100000</ele>
7289 <time>2069-11-30T12:22:30.042Z</time>
7290 <course>252.000000</course>
7291 <speed>22.789888</speed>
7292 <geoidheight>0.0</geoidheight>
7293 <fix>3d</fix>
7294 <sat>8</sat>
7295 <hdop>0.800000</hdop>
7296 </trkpt>
7297 <trkpt lat="-30.105900000" lon="-51.671070000">
7298 <ele>46.100000</ele>
7299 <time>2069-11-30T12:22:32.311Z</time>
7300 <course>259.000000</course>
7301 <speed>22.789888</speed>
7302 <geoidheight>0.0</geoidheight>
7303 <fix>3d</fix>
7304 <sat>8</sat>
7305 <hdop>0.800000</hdop>
7306 </trkpt>
7307 <trkpt lat="-30.105950000" lon="-51.671410000">
7308 <ele>46.100000</ele>
7309 <time>2069-11-30T12:22:34.635Z</time>
7310 <course>260.000000</course>
7311 <speed>22.789888</speed>
7312 <geoidheight>0.0</geoidheight>
7313 <fix>3d</fix>
7314 <sat>8</sat>
7315 <hdop>0.800000</hdop>
7316 </trkpt>
7317 <trkpt lat="-30.106000000" lon="-51.671750000">
7318 <ele>46.100000</ele>
7319 <time>2069-11-30T12:22:36.959Z</time>
7320 <course>260.000000</course>
7321 <speed>22.789888</speed>
7322 <geoidheight>0.0</geoidheight>
7323 <fix>3d</fix>
7324 <sat>8</sat>
7325 <hdop>0.800000</hdop>
7326 </trkpt>
7327 <trkpt lat="-30.106050000" lon="-51.672090000">
7328 <ele>46.100000</ele>
7329 <time>2069-11-30T12:22:39.283Z</time>
7330 <course>260.000000</course>
7331 <speed>22.789888</speed>
7332 <geoidheight>0.0</geoidheight>
7333 <fix>3d</fix>
7334 <sat>8</sat>
7335 <hdop>0.800000</hdop>
7336 </trkpt>
7337 <trkpt lat="-30.106100000" lon="-51.672420000">
7338 <ele>46.100000</ele>
7339 <time>2069-11-30T12:22:41.541Z</time>
7340 <course>260.000000</course>
7341 <speed>22.789888</speed>
7342 <geoidheight>0.0</geoidheight>
7343 <fix>3d</fix>
7344 <sat>8</sat>
7345 <hdop>0.800000</hdop>
7346 </trkpt>
7347 <trkpt lat="-30.106150000" lon="-51.672760000">
7348 <ele>46.100000</ele>
7349 <time>2069-11-30T12:22:43.865Z</time>
7350 <course>260.000000</course>
7351 <speed>22.789888</speed>
7352 <geoidheight>0.0</geoidheight>
7353 <fix>3d</fix>
7354 <sat>8</sat>
7355 <hdop>0.800000</hdop>
7356 </trkpt>
7357 <trkpt lat="-30.106200000" lon="-51.673100000">
7358 <ele>46.100000</ele>
7359 <time>2069-11-30T12:22:46.189Z</time>
7360 <course>260.000000</course>
7361 <speed>22.789888</speed>
7362 <geoidheight>0.0</geoidheight>
7363 <fix>3d</fix>
7364 <sat>8</sat>
7365 <hdop>0.800000</hdop>
7366 </trkpt>
7367 <trkpt lat="-30.106250000" lon="-51.673440000">
7368 <ele>46.100000</ele>
7369 <time>2069-11-30T12:22:48.514Z</time>
7370 <course>260.000000</course>
7371 <speed>22.789888</speed>
7372 <geoidheight>0.0</geoidheight>
7373 <fix>3d</fix>
7374 <sat>8</sat>
7375 <hdop>0.800000</hdop>
7376 </trkpt>
7377 <trkpt lat="-30.106300000" lon="-51.673780000">
7378 <ele>46.100000</ele>
7379 <time>2069-11-30T12:22:50.838Z</time>
7380 <course>260.000000</course>
7381 <speed>22.789888</speed>
7382 <geoidheight>0.0</geoidheight>
7383 <fix>3d</fix>
7384 <sat>8</sat>
7385 <hdop>0.800000</hdop>
7386 </trkpt>
7387 <trkpt lat="-30.106350000" lon="-51.674120000">
7388 <ele>46.100000</ele>
7389 <time>2069-11-30T12:22:53.162Z</time>
7390 <course>260.000000</course>
7391 <speed>22.789888</speed>
7392 <geoidheight>0.0</geoidheight>
7393 <fix>3d</fix>
7394 <sat>8</sat>
7395 <hdop>0.800000</hdop>
7396 </trkpt>
7397 <trkpt lat="-30.106400000" lon="-51.674450000">
7398 <ele>46.100000</ele>
7399 <time>2069-11-30T12:22:55.419Z</time>
7400 <course>260.000000</course>
7401 <speed>22.789888</speed>
7402 <geoidheight>0.0</geoidheight>
7403 <fix>3d</fix>
7404 <sat>8</sat>
7405 <hdop>0.800000</hdop>
7406 </trkpt>
7407 <trkpt lat="-30.106450000" lon="-51.674790000">
7408 <ele>46.100000</ele>
7409 <time>2069-11-30T12:22:57.744Z</time>
7410 <course>260.000000</course>
7411 <speed>22.789888</speed>
7412 <geoidheight>0.0</geoidheight>
7413 <fix>3d</fix>
7414 <sat>8</sat>
7415 <hdop>0.800000</hdop>
7416 </trkpt>
7417 <trkpt lat="-30.106500000" lon="-51.675130000">
7418 <ele>46.100000</ele>
7419 <time>2069-11-30T12:23:00.068Z</time>
7420 <course>260.000000</course>
7421 <speed>22.789888</speed>
7422 <geoidheight>0.0</geoidheight>
7423 <fix>3d</fix>
7424 <sat>8</sat>
7425 <hdop>0.800000</hdop>
7426 </trkpt>
7427 <trkpt lat="-30.106550000" lon="-51.675470000">
7428 <ele>46.100000</ele>
7429 <time>2069-11-30T12:23:02.392Z</time>
7430 <course>260.000000</course>
7431 <speed>22.789888</speed>
7432 <geoidheight>0.0</geoidheight>
7433 <fix>3d</fix>
7434 <sat>8</sat>
7435 <hdop>0.800000</hdop>
7436 </trkpt>
7437 <trkpt lat="-30.106600000" lon="-51.675810000">
7438 <ele>46.100000</ele>
7439 <time>2069-11-30T12:23:04.716Z</time>
7440 <course>260.000000</course>
7441 <speed>22.789888</speed>
7442 <geoidheight>0.0</geoidheight>
7443 <fix>3d</fix>
7444 <sat>8</sat>
7445 <hdop>0.800000</hdop>
7446 </trkpt>
7447 <trkpt lat="-30.106650000" lon="-51.676150000">
7448 <ele>46.100000</ele>
7449 <time>2069-11-30T12:23:07.041Z</time>
7450 <course>260.000000</course>
7451 <speed>22.789888</speed>
7452 <geoidheight>0.0</geoidheight>
7453 <fix>3d</fix>
7454 <sat>8</sat>
7455 <hdop>0.800000</hdop>
7456 </trkpt>
7457 <trkpt lat="-30.106700000" lon="-51.676480000">
7458 <ele>46.100000</ele>
7459 <time>2069-11-30T12:23:09.298Z</time>
7460 <course>260.000000</course>
7461 <speed>22.789888</speed>
7462 <geoidheight>0.0</geoidheight>
7463 <fix>3d</fix>
7464 <sat>8</sat>
7465 <hdop>0.800000</hdop>
7466 </trkpt>
7467 <trkpt lat="-30.106750000" lon="-51.676820000">
7468 <ele>46.100000</ele>
7469 <time>2069-11-30T12:23:11.622Z</time>
7470 <course>260.000000</course>
7471 <speed>22.789888</speed>
7472 <geoidheight>0.0</geoidheight>
7473 <fix>3d</fix>
7474 <sat>8</sat>
7475 <hdop>0.800000</hdop>
7476 </trkpt>
7477 <trkpt lat="-30.106800000" lon="-51.677160000">
7478 <ele>46.100000</ele>
7479 <time>2069-11-30T12:23:13.947Z</time>
7480 <course>259.000000</course>
7481 <speed>22.789888</speed>
7482 <geoidheight>0.0</geoidheight>
7483 <fix>3d</fix>
7484 <sat>8</sat>
7485 <hdop>0.800000</hdop>
7486 </trkpt>
7487 <trkpt lat="-30.106860000" lon="-51.677500000">
7488 <ele>46.100000</ele>
7489 <time>2069-11-30T12:23:16.282Z</time>
7490 <course>259.000000</course>
7491 <speed>22.789888</speed>
7492 <geoidheight>0.0</geoidheight>
7493 <fix>3d</fix>
7494 <sat>8</sat>
7495 <hdop>0.800000</hdop>
7496 </trkpt>
7497 <trkpt lat="-30.106910000" lon="-51.677840000">
7498 <ele>46.100000</ele>
7499 <time>2069-11-30T12:23:18.606Z</time>
7500 <course>260.000000</course>
7501 <speed>22.789888</speed>
7502 <geoidheight>0.0</geoidheight>
7503 <fix>3d</fix>
7504 <sat>8</sat>
7505 <hdop>0.800000</hdop>
7506 </trkpt>
7507 <trkpt lat="-30.106960000" lon="-51.678170000">
7508 <ele>46.100000</ele>
7509 <time>2069-11-30T12:23:20.863Z</time>
7510 <course>260.000000</course>
7511 <speed>22.789888</speed>
7512 <geoidheight>0.0</geoidheight>
7513 <fix>3d</fix>
7514 <sat>8</sat>
7515 <hdop>0.800000</hdop>
7516 </trkpt>
7517 <trkpt lat="-30.107010000" lon="-51.678510000">
7518 <ele>46.100000</ele>
7519 <time>2069-11-30T12:23:23.187Z</time>
7520 <course>260.000000</course>
7521 <speed>22.789888</speed>
7522 <geoidheight>0.0</geoidheight>
7523 <fix>3d</fix>
7524 <sat>8</sat>
7525 <hdop>0.800000</hdop>
7526 </trkpt>
7527 <trkpt lat="-30.107060000" lon="-51.678850000">
7528 <ele>46.100000</ele>
7529 <time>2069-11-30T12:23:25.512Z</time>
7530 <course>260.000000</course>
7531 <speed>22.789888</speed>
7532 <geoidheight>0.0</geoidheight>
7533 <fix>3d</fix>
7534 <sat>8</sat>
7535 <hdop>0.800000</hdop>
7536 </trkpt>
7537 <trkpt lat="-30.107110000" lon="-51.679190000">
7538 <ele>46.100000</ele>
7539 <time>2069-11-30T12:23:27.836Z</time>
7540 <course>260.000000</course>
7541 <speed>22.789888</speed>
7542 <geoidheight>0.0</geoidheight>
7543 <fix>3d</fix>
7544 <sat>8</sat>
7545 <hdop>0.800000</hdop>
7546 </trkpt>
7547 <trkpt lat="-30.107160000" lon="-51.679530000">
7548 <ele>46.100000</ele>
7549 <time>2069-11-30T12:23:30.160Z</time>
7550 <course>260.000000</course>
7551 <speed>22.789888</speed>
7552 <geoidheight>0.0</geoidheight>
7553 <fix>3d</fix>
7554 <sat>8</sat>
7555 <hdop>0.800000</hdop>
7556 </trkpt>
7557 <trkpt lat="-30.107210000" lon="-51.679870000">
7558 <ele>46.100000</ele>
7559 <time>2069-11-30T12:23:32.484Z</time>
7560 <course>260.000000</course>
7561 <speed>22.789888</speed>
7562 <geoidheight>0.0</geoidheight>
7563 <fix>3d</fix>
7564 <sat>8</sat>
7565 <hdop>0.800000</hdop>
7566 </trkpt>
7567 <trkpt lat="-30.107260000" lon="-51.680200000">
7568 <ele>46.100000</ele>
7569 <time>2069-11-30T12:23:34.742Z</time>
7570 <course>260.000000</course>
7571 <speed>22.789888</speed>
7572 <geoidheight>0.0</geoidheight>
7573 <fix>3d</fix>
7574 <sat>8</sat>
7575 <hdop>0.800000</hdop>
7576 </trkpt>
7577 <trkpt lat="-30.107310000" lon="-51.680540000">
7578 <ele>46.100000</ele>
7579 <time>2069-11-30T12:23:37.066Z</time>
7580 <course>260.000000</course>
7581 <speed>22.789888</speed>
7582 <geoidheight>0.0</geoidheight>
7583 <fix>3d</fix>
7584 <sat>8</sat>
7585 <hdop>0.800000</hdop>
7586 </trkpt>
7587 <trkpt lat="-30.107360000" lon="-51.680880000">
7588 <ele>46.100000</ele>
7589 <time>2069-11-30T12:23:39.390Z</time>
7590 <course>260.000000</course>
7591 <speed>22.789888</speed>
7592 <geoidheight>0.0</geoidheight>
7593 <fix>3d</fix>
7594 <sat>8</sat>
7595 <hdop>0.800000</hdop>
7596 </trkpt>
7597 <trkpt lat="-30.107410000" lon="-51.681220000">
7598 <ele>46.100000</ele>
7599 <time>2069-11-30T12:23:41.715Z</time>
7600 <course>260.000000</course>
7601 <speed>22.789888</speed>
7602 <geoidheight>0.0</geoidheight>
7603 <fix>3d</fix>
7604 <sat>8</sat>
7605 <hdop>0.800000</hdop>
7606 </trkpt>
7607 <trkpt lat="-30.107460000" lon="-51.681560000">
7608 <ele>46.100000</ele>
7609 <time>2069-11-30T12:23:44.039Z</time>
7610 <course>260.000000</course>
7611 <speed>22.789888</speed>
7612 <geoidheight>0.0</geoidheight>
7613 <fix>3d</fix>
7614 <sat>8</sat>
7615 <hdop>0.800000</hdop>
7616 </trkpt>
7617 <trkpt lat="-30.107510000" lon="-51.681890000">
7618 <ele>46.100000</ele>
7619 <time>2069-11-30T12:23:46.296Z</time>
7620 <course>260.000000</course>
7621 <speed>22.789888</speed>
7622 <geoidheight>0.0</geoidheight>
7623 <fix>3d</fix>
7624 <sat>8</sat>
7625 <hdop>0.800000</hdop>
7626 </trkpt>
7627 <trkpt lat="-30.107560000" lon="-51.682230000">
7628 <ele>46.100000</ele>
7629 <time>2069-11-30T12:23:48.620Z</time>
7630 <course>260.000000</course>
7631 <speed>22.789888</speed>
7632 <geoidheight>0.0</geoidheight>
7633 <fix>3d</fix>
7634 <sat>8</sat>
7635 <hdop>0.800000</hdop>
7636 </trkpt>
7637 <trkpt lat="-30.107610000" lon="-51.682570000">
7638 <ele>46.100000</ele>
7639 <time>2069-11-30T12:23:50.945Z</time>
7640 <course>260.000000</course>
7641 <speed>22.789888</speed>
7642 <geoidheight>0.0</geoidheight>
7643 <fix>3d</fix>
7644 <sat>8</sat>
7645 <hdop>0.800000</hdop>
7646 </trkpt>
7647 <trkpt lat="-30.107660000" lon="-51.682910000">
7648 <ele>46.100000</ele>
7649 <time>2069-11-30T12:23:53.269Z</time>
7650 <course>260.000000</course>
7651 <speed>22.789888</speed>
7652 <geoidheight>0.0</geoidheight>
7653 <fix>3d</fix>
7654 <sat>8</sat>
7655 <hdop>0.800000</hdop>
7656 </trkpt>
7657 <trkpt lat="-30.107710000" lon="-51.683250000">
7658 <ele>46.100000</ele>
7659 <time>2069-11-30T12:23:55.593Z</time>
7660 <course>260.000000</course>
7661 <speed>22.789888</speed>
7662 <geoidheight>0.0</geoidheight>
7663 <fix>3d</fix>
7664 <sat>8</sat>
7665 <hdop>0.800000</hdop>
7666 </trkpt>
7667 <trkpt lat="-30.107760000" lon="-51.683590000">
7668 <ele>46.100000</ele>
7669 <time>2069-11-30T12:23:57.917Z</time>
7670 <course>260.000000</course>
7671 <speed>22.789888</speed>
7672 <geoidheight>0.0</geoidheight>
7673 <fix>3d</fix>
7674 <sat>8</sat>
7675 <hdop>0.800000</hdop>
7676 </trkpt>
7677 <trkpt lat="-30.107810000" lon="-51.683920000">
7678 <ele>46.100000</ele>
7679 <time>2069-11-30T12:24:00.175Z</time>
7680 <course>260.000000</course>
7681 <speed>22.789888</speed>
7682 <geoidheight>0.0</geoidheight>
7683 <fix>3d</fix>
7684 <sat>8</sat>
7685 <hdop>0.800000</hdop>
7686 </trkpt>
7687 <trkpt lat="-30.107860000" lon="-51.684260000">
7688 <ele>46.100000</ele>
7689 <time>2069-11-30T12:24:02.499Z</time>
7690 <course>260.000000</course>
7691 <speed>22.789888</speed>
7692 <geoidheight>0.0</geoidheight>
7693 <fix>3d</fix>
7694 <sat>8</sat>
7695 <hdop>0.800000</hdop>
7696 </trkpt>
7697 <trkpt lat="-30.107910000" lon="-51.684600000">
7698 <ele>46.100000</ele>
7699 <time>2069-11-30T12:24:04.823Z</time>
7700 <course>260.000000</course>
7701 <speed>22.789888</speed>
7702 <geoidheight>0.0</geoidheight>
7703 <fix>3d</fix>
7704 <sat>8</sat>
7705 <hdop>0.800000</hdop>
7706 </trkpt>
7707 <trkpt lat="-30.107960000" lon="-51.684940000">
7708 <ele>46.100000</ele>
7709 <time>2069-11-30T12:24:07.147Z</time>
7710 <course>260.000000</course>
7711 <speed>22.789888</speed>
7712 <geoidheight>0.0</geoidheight>
7713 <fix>3d</fix>
7714 <sat>8</sat>
7715 <hdop>0.800000</hdop>
7716 </trkpt>
7717 <trkpt lat="-30.108010000" lon="-51.685280000">
7718 <ele>46.100000</ele>
7719 <time>2069-11-30T12:24:09.472Z</time>
7720 <course>259.000000</course>
7721 <speed>22.789888</speed>
7722 <geoidheight>0.0</geoidheight>
7723 <fix>3d</fix>
7724 <sat>8</sat>
7725 <hdop>0.800000</hdop>
7726 </trkpt>
7727 <trkpt lat="-30.108070000" lon="-51.685620000">
7728 <ele>46.100000</ele>
7729 <time>2069-11-30T12:24:11.807Z</time>
7730 <course>265.000000</course>
7731 <speed>22.789888</speed>
7732 <geoidheight>0.0</geoidheight>
7733 <fix>3d</fix>
7734 <sat>8</sat>
7735 <hdop>0.800000</hdop>
7736 </trkpt>
7737 <trkpt lat="-30.108060000" lon="-51.685960000">
7738 <ele>46.100000</ele>
7739 <time>2069-11-30T12:24:14.107Z</time>
7740 <course>273.000000</course>
7741 <speed>22.789888</speed>
7742 <geoidheight>0.0</geoidheight>
7743 <fix>3d</fix>
7744 <sat>8</sat>
7745 <hdop>0.800000</hdop>
7746 </trkpt>
7747 <trkpt lat="-30.108040000" lon="-51.686300000">
7748 <ele>46.100000</ele>
7749 <time>2069-11-30T12:24:16.411Z</time>
7750 <course>274.000000</course>
7751 <speed>22.789888</speed>
7752 <geoidheight>0.0</geoidheight>
7753 <fix>3d</fix>
7754 <sat>8</sat>
7755 <hdop>0.800000</hdop>
7756 </trkpt>
7757 <trkpt lat="-30.108020000" lon="-51.686640000">
7758 <ele>46.100000</ele>
7759 <time>2069-11-30T12:24:18.714Z</time>
7760 <course>274.000000</course>
7761 <speed>22.789888</speed>
7762 <geoidheight>0.0</geoidheight>
7763 <fix>3d</fix>
7764 <sat>8</sat>
7765 <hdop>0.800000</hdop>
7766 </trkpt>
7767 <trkpt lat="-30.108000000" lon="-51.686980000">
7768 <ele>46.100000</ele>
7769 <time>2069-11-30T12:24:21.018Z</time>
7770 <course>274.000000</course>
7771 <speed>22.789888</speed>
7772 <geoidheight>0.0</geoidheight>
7773 <fix>3d</fix>
7774 <sat>8</sat>
7775 <hdop>0.800000</hdop>
7776 </trkpt>
7777 <trkpt lat="-30.107980000" lon="-51.687330000">
7778 <ele>46.100000</ele>
7779 <time>2069-11-30T12:24:23.389Z</time>
7780 <course>274.000000</course>
7781 <speed>22.789888</speed>
7782 <geoidheight>0.0</geoidheight>
7783 <fix>3d</fix>
7784 <sat>8</sat>
7785 <hdop>0.800000</hdop>
7786 </trkpt>
7787 <trkpt lat="-30.107960000" lon="-51.687670000">
7788 <ele>46.100000</ele>
7789 <time>2069-11-30T12:24:25.692Z</time>
7790 <course>274.000000</course>
7791 <speed>22.789888</speed>
7792 <geoidheight>0.0</geoidheight>
7793 <fix>3d</fix>
7794 <sat>8</sat>
7795 <hdop>0.800000</hdop>
7796 </trkpt>
7797 <trkpt lat="-30.107940000" lon="-51.688010000">
7798 <ele>46.100000</ele>
7799 <time>2069-11-30T12:24:27.996Z</time>
7800 <course>274.000000</course>
7801 <speed>22.789888</speed>
7802 <geoidheight>0.0</geoidheight>
7803 <fix>3d</fix>
7804 <sat>8</sat>
7805 <hdop>0.800000</hdop>
7806 </trkpt>
7807 <trkpt lat="-30.107920000" lon="-51.688350000">
7808 <ele>46.100000</ele>
7809 <time>2069-11-30T12:24:30.299Z</time>
7810 <course>274.000000</course>
7811 <speed>22.789888</speed>
7812 <geoidheight>0.0</geoidheight>
7813 <fix>3d</fix>
7814 <sat>8</sat>
7815 <hdop>0.800000</hdop>
7816 </trkpt>
7817 <trkpt lat="-30.107900000" lon="-51.688700000">
7818 <ele>46.100000</ele>
7819 <time>2069-11-30T12:24:32.670Z</time>
7820 <course>274.000000</course>
7821 <speed>22.789888</speed>
7822 <geoidheight>0.0</geoidheight>
7823 <fix>3d</fix>
7824 <sat>8</sat>
7825 <hdop>0.800000</hdop>
7826 </trkpt>
7827 <trkpt lat="-30.107880000" lon="-51.689040000">
7828 <ele>46.100000</ele>
7829 <time>2069-11-30T12:24:34.974Z</time>
7830 <course>274.000000</course>
7831 <speed>22.789888</speed>
7832 <geoidheight>0.0</geoidheight>
7833 <fix>3d</fix>
7834 <sat>8</sat>
7835 <hdop>0.800000</hdop>
7836 </trkpt>
7837 <trkpt lat="-30.107860000" lon="-51.689380000">
7838 <ele>46.100000</ele>
7839 <time>2069-11-30T12:24:37.277Z</time>
7840 <course>274.000000</course>
7841 <speed>22.789888</speed>
7842 <geoidheight>0.0</geoidheight>
7843 <fix>3d</fix>
7844 <sat>8</sat>
7845 <hdop>0.800000</hdop>
7846 </trkpt>
7847 <trkpt lat="-30.107840000" lon="-51.689720000">
7848 <ele>46.100000</ele>
7849 <time>2069-11-30T12:24:39.581Z</time>
7850 <course>275.000000</course>
7851 <speed>22.789888</speed>
7852 <geoidheight>0.0</geoidheight>
7853 <fix>3d</fix>
7854 <sat>8</sat>
7855 <hdop>0.800000</hdop>
7856 </trkpt>
7857 <trkpt lat="-30.107810000" lon="-51.690070000">
7858 <ele>46.100000</ele>
7859 <time>2069-11-30T12:24:41.957Z</time>
7860 <course>275.000000</course>
7861 <speed>22.789888</speed>
7862 <geoidheight>0.0</geoidheight>
7863 <fix>3d</fix>
7864 <sat>8</sat>
7865 <hdop>0.800000</hdop>
7866 </trkpt>
7867 <trkpt lat="-30.107790000" lon="-51.690410000">
7868 <ele>46.100000</ele>
7869 <time>2069-11-30T12:24:44.260Z</time>
7870 <course>274.000000</course>
7871 <speed>22.789888</speed>
7872 <geoidheight>0.0</geoidheight>
7873 <fix>3d</fix>
7874 <sat>8</sat>
7875 <hdop>0.800000</hdop>
7876 </trkpt>
7877 <trkpt lat="-30.107770000" lon="-51.690750000">
7878 <ele>46.100000</ele>
7879 <time>2069-11-30T12:24:46.564Z</time>
7880 <course>274.000000</course>
7881 <speed>22.789888</speed>
7882 <geoidheight>0.0</geoidheight>
7883 <fix>3d</fix>
7884 <sat>8</sat>
7885 <hdop>0.800000</hdop>
7886 </trkpt>
7887 <trkpt lat="-30.107750000" lon="-51.691090000">
7888 <ele>46.100000</ele>
7889 <time>2069-11-30T12:24:48.867Z</time>
7890 <course>274.000000</course>
7891 <speed>22.789888</speed>
7892 <geoidheight>0.0</geoidheight>
7893 <fix>3d</fix>
7894 <sat>8</sat>
7895 <hdop>0.800000</hdop>
7896 </trkpt>
7897 <trkpt lat="-30.107730000" lon="-51.691430000">
7898 <ele>46.100000</ele>
7899 <time>2069-11-30T12:24:51.171Z</time>
7900 <course>274.000000</course>
7901 <speed>22.789888</speed>
7902 <geoidheight>0.0</geoidheight>
7903 <fix>3d</fix>
7904 <sat>8</sat>
7905 <hdop>0.800000</hdop>
7906 </trkpt>
7907 <trkpt lat="-30.107710000" lon="-51.691780000">
7908 <ele>46.100000</ele>
7909 <time>2069-11-30T12:24:53.542Z</time>
7910 <course>274.000000</course>
7911 <speed>22.789888</speed>
7912 <geoidheight>0.0</geoidheight>
7913 <fix>3d</fix>
7914 <sat>8</sat>
7915 <hdop>0.800000</hdop>
7916 </trkpt>
7917 <trkpt lat="-30.107690000" lon="-51.692120000">
7918 <ele>46.100000</ele>
7919 <time>2069-11-30T12:24:55.845Z</time>
7920 <course>274.000000</course>
7921 <speed>22.789888</speed>
7922 <geoidheight>0.0</geoidheight>
7923 <fix>3d</fix>
7924 <sat>8</sat>
7925 <hdop>0.800000</hdop>
7926 </trkpt>
7927 <trkpt lat="-30.107670000" lon="-51.692460000">
7928 <ele>46.100000</ele>
7929 <time>2069-11-30T12:24:58.149Z</time>
7930 <course>274.000000</course>
7931 <speed>22.789888</speed>
7932 <geoidheight>0.0</geoidheight>
7933 <fix>3d</fix>
7934 <sat>8</sat>
7935 <hdop>0.800000</hdop>
7936 </trkpt>
7937 <trkpt lat="-30.107650000" lon="-51.692800000">
7938 <ele>46.100000</ele>
7939 <time>2069-11-30T12:25:00.452Z</time>
7940 <course>275.000000</course>
7941 <speed>22.789888</speed>
7942 <geoidheight>0.0</geoidheight>
7943 <fix>3d</fix>
7944 <sat>8</sat>
7945 <hdop>0.800000</hdop>
7946 </trkpt>
7947 <trkpt lat="-30.107620000" lon="-51.693140000">
7948 <ele>46.100000</ele>
7949 <time>2069-11-30T12:25:02.760Z</time>
7950 <course>275.000000</course>
7951 <speed>22.789888</speed>
7952 <geoidheight>0.0</geoidheight>
7953 <fix>3d</fix>
7954 <sat>8</sat>
7955 <hdop>0.800000</hdop>
7956 </trkpt>
7957 <trkpt lat="-30.107600000" lon="-51.693480000">
7958 <ele>46.100000</ele>
7959 <time>2069-11-30T12:25:05.064Z</time>
7960 <course>274.000000</course>
7961 <speed>22.789888</speed>
7962 <geoidheight>0.0</geoidheight>
7963 <fix>3d</fix>
7964 <sat>8</sat>
7965 <hdop>0.800000</hdop>
7966 </trkpt>
7967 <trkpt lat="-30.107580000" lon="-51.693830000">
7968 <ele>46.100000</ele>
7969 <time>2069-11-30T12:25:07.435Z</time>
7970 <course>274.000000</course>
7971 <speed>22.789888</speed>
7972 <geoidheight>0.0</geoidheight>
7973 <fix>3d</fix>
7974 <sat>8</sat>
7975 <hdop>0.800000</hdop>
7976 </trkpt>
7977 <trkpt lat="-30.107560000" lon="-51.694170000">
7978 <ele>46.100000</ele>
7979 <time>2069-11-30T12:25:09.738Z</time>
7980 <course>274.000000</course>
7981 <speed>22.789888</speed>
7982 <geoidheight>0.0</geoidheight>
7983 <fix>3d</fix>
7984 <sat>8</sat>
7985 <hdop>0.800000</hdop>
7986 </trkpt>
7987 <trkpt lat="-30.107540000" lon="-51.694510000">
7988 <ele>46.100000</ele>
7989 <time>2069-11-30T12:25:12.042Z</time>
7990 <course>274.000000</course>
7991 <speed>22.789888</speed>
7992 <geoidheight>0.0</geoidheight>
7993 <fix>3d</fix>
7994 <sat>8</sat>
7995 <hdop>0.800000</hdop>
7996 </trkpt>
7997 <trkpt lat="-30.107520000" lon="-51.694850000">
7998 <ele>46.100000</ele>
7999 <time>2069-11-30T12:25:14.345Z</time>
8000 <course>274.000000</course>
8001 <speed>22.789888</speed>
8002 <geoidheight>0.0</geoidheight>
8003 <fix>3d</fix>
8004 <sat>8</sat>
8005 <hdop>0.800000</hdop>
8006 </trkpt>
8007 <trkpt lat="-30.107500000" lon="-51.695190000">
8008 <ele>46.100000</ele>
8009 <time>2069-11-30T12:25:16.649Z</time>
8010 <course>274.000000</course>
8011 <speed>22.789888</speed>
8012 <geoidheight>0.0</geoidheight>
8013 <fix>3d</fix>
8014 <sat>8</sat>
8015 <hdop>0.800000</hdop>
8016 </trkpt>
8017 <trkpt lat="-30.107480000" lon="-51.695530000">
8018 <ele>46.100000</ele>
8019 <time>2069-11-30T12:25:18.952Z</time>
8020 <course>274.000000</course>
8021 <speed>22.789888</speed>
8022 <geoidheight>0.0</geoidheight>
8023 <fix>3d</fix>
8024 <sat>8</sat>
8025 <hdop>0.800000</hdop>
8026 </trkpt>
8027 <trkpt lat="-30.107460000" lon="-51.695880000">
8028 <ele>46.100000</ele>
8029 <time>2069-11-30T12:25:21.323Z</time>
8030 <course>273.000000</course>
8031 <speed>22.789888</speed>
8032 <geoidheight>0.0</geoidheight>
8033 <fix>3d</fix>
8034 <sat>8</sat>
8035 <hdop>0.800000</hdop>
8036 </trkpt>
8037 <trkpt lat="-30.107450000" lon="-51.696220000">
8038 <ele>46.100000</ele>
8039 <time>2069-11-30T12:25:23.624Z</time>
8040 <course>273.000000</course>
8041 <speed>22.789888</speed>
8042 <geoidheight>0.0</geoidheight>
8043 <fix>3d</fix>
8044 <sat>8</sat>
8045 <hdop>0.800000</hdop>
8046 </trkpt>
8047 <trkpt lat="-30.107430000" lon="-51.696560000">
8048 <ele>46.100000</ele>
8049 <time>2069-11-30T12:25:25.927Z</time>
8050 <course>274.000000</course>
8051 <speed>22.789888</speed>
8052 <geoidheight>0.0</geoidheight>
8053 <fix>3d</fix>
8054 <sat>8</sat>
8055 <hdop>0.800000</hdop>
8056 </trkpt>
8057 <trkpt lat="-30.107410000" lon="-51.696900000">
8058 <ele>46.100000</ele>
8059 <time>2069-11-30T12:25:28.231Z</time>
8060 <course>274.000000</course>
8061 <speed>22.789888</speed>
8062 <geoidheight>0.0</geoidheight>
8063 <fix>3d</fix>
8064 <sat>8</sat>
8065 <hdop>0.800000</hdop>
8066 </trkpt>
8067 <trkpt lat="-30.107390000" lon="-51.697250000">
8068 <ele>46.100000</ele>
8069 <time>2069-11-30T12:25:30.602Z</time>
8070 <course>274.000000</course>
8071 <speed>22.789888</speed>
8072 <geoidheight>0.0</geoidheight>
8073 <fix>3d</fix>
8074 <sat>8</sat>
8075 <hdop>0.800000</hdop>
8076 </trkpt>
8077 <trkpt lat="-30.107370000" lon="-51.697590000">
8078 <ele>46.100000</ele>
8079 <time>2069-11-30T12:25:32.905Z</time>
8080 <course>274.000000</course>
8081 <speed>22.789888</speed>
8082 <geoidheight>0.0</geoidheight>
8083 <fix>3d</fix>
8084 <sat>8</sat>
8085 <hdop>0.800000</hdop>
8086 </trkpt>
8087 <trkpt lat="-30.107350000" lon="-51.697930000">
8088 <ele>46.100000</ele>
8089 <time>2069-11-30T12:25:35.209Z</time>
8090 <course>273.000000</course>
8091 <speed>22.789888</speed>
8092 <geoidheight>0.0</geoidheight>
8093 <fix>3d</fix>
8094 <sat>8</sat>
8095 <hdop>0.800000</hdop>
8096 </trkpt>
8097 <trkpt lat="-30.107340000" lon="-51.698270000">
8098 <ele>46.100000</ele>
8099 <time>2069-11-30T12:25:37.509Z</time>
8100 <course>273.000000</course>
8101 <speed>22.789888</speed>
8102 <geoidheight>0.0</geoidheight>
8103 <fix>3d</fix>
8104 <sat>8</sat>
8105 <hdop>0.800000</hdop>
8106 </trkpt>
8107 <trkpt lat="-30.107320000" lon="-51.698620000">
8108 <ele>46.100000</ele>
8109 <time>2069-11-30T12:25:39.880Z</time>
8110 <course>274.000000</course>
8111 <speed>22.789888</speed>
8112 <geoidheight>0.0</geoidheight>
8113 <fix>3d</fix>
8114 <sat>8</sat>
8115 <hdop>0.800000</hdop>
8116 </trkpt>
8117 <trkpt lat="-30.107300000" lon="-51.698960000">
8118 <ele>46.100000</ele>
8119 <time>2069-11-30T12:25:42.184Z</time>
8120 <course>274.000000</course>
8121 <speed>22.789888</speed>
8122 <geoidheight>0.0</geoidheight>
8123 <fix>3d</fix>
8124 <sat>8</sat>
8125 <hdop>0.800000</hdop>
8126 </trkpt>
8127 <trkpt lat="-30.107280000" lon="-51.699300000">
8128 <ele>46.100000</ele>
8129 <time>2069-11-30T12:25:44.487Z</time>
8130 <course>274.000000</course>
8131 <speed>22.789888</speed>
8132 <geoidheight>0.0</geoidheight>
8133 <fix>3d</fix>
8134 <sat>8</sat>
8135 <hdop>0.800000</hdop>
8136 </trkpt>
8137 <trkpt lat="-30.107260000" lon="-51.699640000">
8138 <ele>46.100000</ele>
8139 <time>2069-11-30T12:25:46.791Z</time>
8140 <course>274.000000</course>
8141 <speed>22.789888</speed>
8142 <geoidheight>0.0</geoidheight>
8143 <fix>3d</fix>
8144 <sat>8</sat>
8145 <hdop>0.800000</hdop>
8146 </trkpt>
8147 <trkpt lat="-30.107240000" lon="-51.699990000">
8148 <ele>46.100000</ele>
8149 <time>2069-11-30T12:25:49.162Z</time>
8150 <course>273.000000</course>
8151 <speed>22.789888</speed>
8152 <geoidheight>0.0</geoidheight>
8153 <fix>3d</fix>
8154 <sat>8</sat>
8155 <hdop>0.800000</hdop>
8156 </trkpt>
8157 <trkpt lat="-30.107230000" lon="-51.700330000">
8158 <ele>46.100000</ele>
8159 <time>2069-11-30T12:25:51.462Z</time>
8160 <course>273.000000</course>
8161 <speed>22.789888</speed>
8162 <geoidheight>0.0</geoidheight>
8163 <fix>3d</fix>
8164 <sat>8</sat>
8165 <hdop>0.800000</hdop>
8166 </trkpt>
8167 <trkpt lat="-30.107210000" lon="-51.700670000">
8168 <ele>46.100000</ele>
8169 <time>2069-11-30T12:25:53.766Z</time>
8170 <course>274.000000</course>
8171 <speed>22.789888</speed>
8172 <geoidheight>0.0</geoidheight>
8173 <fix>3d</fix>
8174 <sat>8</sat>
8175 <hdop>0.800000</hdop>
8176 </trkpt>
8177 <trkpt lat="-30.107190000" lon="-51.701020000">
8178 <ele>46.100000</ele>
8179 <time>2069-11-30T12:25:56.137Z</time>
8180 <course>274.000000</course>
8181 <speed>22.789888</speed>
8182 <geoidheight>0.0</geoidheight>
8183 <fix>3d</fix>
8184 <sat>8</sat>
8185 <hdop>0.800000</hdop>
8186 </trkpt>
8187 <trkpt lat="-30.107170000" lon="-51.701360000">
8188 <ele>46.100000</ele>
8189 <time>2069-11-30T12:25:58.440Z</time>
8190 <course>274.000000</course>
8191 <speed>22.789888</speed>
8192 <geoidheight>0.0</geoidheight>
8193 <fix>3d</fix>
8194 <sat>8</sat>
8195 <hdop>0.800000</hdop>
8196 </trkpt>
8197 <trkpt lat="-30.107150000" lon="-51.701700000">
8198 <ele>46.100000</ele>
8199 <time>2069-11-30T12:26:00.744Z</time>
8200 <course>274.000000</course>
8201 <speed>22.789888</speed>
8202 <geoidheight>0.0</geoidheight>
8203 <fix>3d</fix>
8204 <sat>8</sat>
8205 <hdop>0.800000</hdop>
8206 </trkpt>
8207 <trkpt lat="-30.107130000" lon="-51.702040000">
8208 <ele>46.100000</ele>
8209 <time>2069-11-30T12:26:03.047Z</time>
8210 <course>273.000000</course>
8211 <speed>22.789888</speed>
8212 <geoidheight>0.0</geoidheight>
8213 <fix>3d</fix>
8214 <sat>8</sat>
8215 <hdop>0.800000</hdop>
8216 </trkpt>
8217 <trkpt lat="-30.107120000" lon="-51.702390000">
8218 <ele>46.100000</ele>
8219 <time>2069-11-30T12:26:05.416Z</time>
8220 <course>273.000000</course>
8221 <speed>22.789888</speed>
8222 <geoidheight>0.0</geoidheight>
8223 <fix>3d</fix>
8224 <sat>8</sat>
8225 <hdop>0.800000</hdop>
8226 </trkpt>
8227 <trkpt lat="-30.107100000" lon="-51.702730000">
8228 <ele>46.100000</ele>
8229 <time>2069-11-30T12:26:07.719Z</time>
8230 <course>274.000000</course>
8231 <speed>22.789888</speed>
8232 <geoidheight>0.0</geoidheight>
8233 <fix>3d</fix>
8234 <sat>8</sat>
8235 <hdop>0.800000</hdop>
8236 </trkpt>
8237 <trkpt lat="-30.107080000" lon="-51.703070000">
8238 <ele>46.100000</ele>
8239 <time>2069-11-30T12:26:10.023Z</time>
8240 <course>274.000000</course>
8241 <speed>22.789888</speed>
8242 <geoidheight>0.0</geoidheight>
8243 <fix>3d</fix>
8244 <sat>8</sat>
8245 <hdop>0.800000</hdop>
8246 </trkpt>
8247 <trkpt lat="-30.107060000" lon="-51.703410000">
8248 <ele>46.100000</ele>
8249 <time>2069-11-30T12:26:12.326Z</time>
8250 <course>274.000000</course>
8251 <speed>22.789888</speed>
8252 <geoidheight>0.0</geoidheight>
8253 <fix>3d</fix>
8254 <sat>8</sat>
8255 <hdop>0.800000</hdop>
8256 </trkpt>
8257 <trkpt lat="-30.107040000" lon="-51.703760000">
8258 <ele>46.100000</ele>
8259 <time>2069-11-30T12:26:14.697Z</time>
8260 <course>274.000000</course>
8261 <speed>22.789888</speed>
8262 <geoidheight>0.0</geoidheight>
8263 <fix>3d</fix>
8264 <sat>8</sat>
8265 <hdop>0.800000</hdop>
8266 </trkpt>
8267 <trkpt lat="-30.107020000" lon="-51.704100000">
8268 <ele>46.100000</ele>
8269 <time>2069-11-30T12:26:17.001Z</time>
8270 <course>273.000000</course>
8271 <speed>22.789888</speed>
8272 <geoidheight>0.0</geoidheight>
8273 <fix>3d</fix>
8274 <sat>8</sat>
8275 <hdop>0.800000</hdop>
8276 </trkpt>
8277 <trkpt lat="-30.107010000" lon="-51.704440000">
8278 <ele>46.100000</ele>
8279 <time>2069-11-30T12:26:19.301Z</time>
8280 <course>273.000000</course>
8281 <speed>22.789888</speed>
8282 <geoidheight>0.0</geoidheight>
8283 <fix>3d</fix>
8284 <sat>8</sat>
8285 <hdop>0.800000</hdop>
8286 </trkpt>
8287 <trkpt lat="-30.106990000" lon="-51.704780000">
8288 <ele>46.100000</ele>
8289 <time>2069-11-30T12:26:21.605Z</time>
8290 <course>274.000000</course>
8291 <speed>22.789888</speed>
8292 <geoidheight>0.0</geoidheight>
8293 <fix>3d</fix>
8294 <sat>8</sat>
8295 <hdop>0.800000</hdop>
8296 </trkpt>
8297 <trkpt lat="-30.106970000" lon="-51.705130000">
8298 <ele>46.100000</ele>
8299 <time>2069-11-30T12:26:23.976Z</time>
8300 <course>274.000000</course>
8301 <speed>22.789888</speed>
8302 <geoidheight>0.0</geoidheight>
8303 <fix>3d</fix>
8304 <sat>8</sat>
8305 <hdop>0.800000</hdop>
8306 </trkpt>
8307 <trkpt lat="-30.106950000" lon="-51.705470000">
8308 <ele>46.100000</ele>
8309 <time>2069-11-30T12:26:26.279Z</time>
8310 <course>274.000000</course>
8311 <speed>22.789888</speed>
8312 <geoidheight>0.0</geoidheight>
8313 <fix>3d</fix>
8314 <sat>8</sat>
8315 <hdop>0.800000</hdop>
8316 </trkpt>
8317 <trkpt lat="-30.106930000" lon="-51.705810000">
8318 <ele>46.100000</ele>
8319 <time>2069-11-30T12:26:28.583Z</time>
8320 <course>274.000000</course>
8321 <speed>22.789888</speed>
8322 <geoidheight>0.0</geoidheight>
8323 <fix>3d</fix>
8324 <sat>8</sat>
8325 <hdop>0.800000</hdop>
8326 </trkpt>
8327 <trkpt lat="-30.106910000" lon="-51.706150000">
8328 <ele>46.100000</ele>
8329 <time>2069-11-30T12:26:30.886Z</time>
8330 <course>273.000000</course>
8331 <speed>22.789888</speed>
8332 <geoidheight>0.0</geoidheight>
8333 <fix>3d</fix>
8334 <sat>8</sat>
8335 <hdop>0.800000</hdop>
8336 </trkpt>
8337 <trkpt lat="-30.106900000" lon="-51.706500000">
8338 <ele>46.100000</ele>
8339 <time>2069-11-30T12:26:33.254Z</time>
8340 <course>273.000000</course>
8341 <speed>22.789888</speed>
8342 <geoidheight>0.0</geoidheight>
8343 <fix>3d</fix>
8344 <sat>8</sat>
8345 <hdop>0.800000</hdop>
8346 </trkpt>
8347 <trkpt lat="-30.106880000" lon="-51.706840000">
8348 <ele>46.100000</ele>
8349 <time>2069-11-30T12:26:35.558Z</time>
8350 <course>274.000000</course>
8351 <speed>22.789888</speed>
8352 <geoidheight>0.0</geoidheight>
8353 <fix>3d</fix>
8354 <sat>8</sat>
8355 <hdop>0.800000</hdop>
8356 </trkpt>
8357 <trkpt lat="-30.106860000" lon="-51.707180000">
8358 <ele>46.100000</ele>
8359 <time>2069-11-30T12:26:37.861Z</time>
8360 <course>274.000000</course>
8361 <speed>22.789888</speed>
8362 <geoidheight>0.0</geoidheight>
8363 <fix>3d</fix>
8364 <sat>8</sat>
8365 <hdop>0.800000</hdop>
8366 </trkpt>
8367 <trkpt lat="-30.106840000" lon="-51.707520000">
8368 <ele>46.100000</ele>
8369 <time>2069-11-30T12:26:40.165Z</time>
8370 <course>274.000000</course>
8371 <speed>22.789888</speed>
8372 <geoidheight>0.0</geoidheight>
8373 <fix>3d</fix>
8374 <sat>8</sat>
8375 <hdop>0.800000</hdop>
8376 </trkpt>
8377 <trkpt lat="-30.106820000" lon="-51.707870000">
8378 <ele>46.100000</ele>
8379 <time>2069-11-30T12:26:42.536Z</time>
8380 <course>274.000000</course>
8381 <speed>22.789888</speed>
8382 <geoidheight>0.0</geoidheight>
8383 <fix>3d</fix>
8384 <sat>8</sat>
8385 <hdop>0.800000</hdop>
8386 </trkpt>
8387 <trkpt lat="-30.106800000" lon="-51.708210000">
8388 <ele>46.100000</ele>
8389 <time>2069-11-30T12:26:44.839Z</time>
8390 <course>273.000000</course>
8391 <speed>22.789888</speed>
8392 <geoidheight>0.0</geoidheight>
8393 <fix>3d</fix>
8394 <sat>8</sat>
8395 <hdop>0.800000</hdop>
8396 </trkpt>
8397 <trkpt lat="-30.106790000" lon="-51.708550000">
8398 <ele>46.100000</ele>
8399 <time>2069-11-30T12:26:47.140Z</time>
8400 <course>273.000000</course>
8401 <speed>22.789888</speed>
8402 <geoidheight>0.0</geoidheight>
8403 <fix>3d</fix>
8404 <sat>8</sat>
8405 <hdop>0.800000</hdop>
8406 </trkpt>
8407 <trkpt lat="-30.106770000" lon="-51.708890000">
8408 <ele>46.100000</ele>
8409 <time>2069-11-30T12:26:49.443Z</time>
8410 <course>274.000000</course>
8411 <speed>22.789888</speed>
8412 <geoidheight>0.0</geoidheight>
8413 <fix>3d</fix>
8414 <sat>8</sat>
8415 <hdop>0.800000</hdop>
8416 </trkpt>
8417 <trkpt lat="-30.106750000" lon="-51.709240000">
8418 <ele>46.100000</ele>
8419 <time>2069-11-30T12:26:51.814Z</time>
8420 <course>274.000000</course>
8421 <speed>22.789888</speed>
8422 <geoidheight>0.0</geoidheight>
8423 <fix>3d</fix>
8424 <sat>8</sat>
8425 <hdop>0.800000</hdop>
8426 </trkpt>
8427 <trkpt lat="-30.106730000" lon="-51.709580000">
8428 <ele>46.100000</ele>
8429 <time>2069-11-30T12:26:54.118Z</time>
8430 <course>274.000000</course>
8431 <speed>22.789888</speed>
8432 <geoidheight>0.0</geoidheight>
8433 <fix>3d</fix>
8434 <sat>8</sat>
8435 <hdop>0.800000</hdop>
8436 </trkpt>
8437 <trkpt lat="-30.106710000" lon="-51.709920000">
8438 <ele>46.100000</ele>
8439 <time>2069-11-30T12:26:56.421Z</time>
8440 <course>274.000000</course>
8441 <speed>22.789888</speed>
8442 <geoidheight>0.0</geoidheight>
8443 <fix>3d</fix>
8444 <sat>8</sat>
8445 <hdop>0.800000</hdop>
8446 </trkpt>
8447 <trkpt lat="-30.106690000" lon="-51.710260000">
8448 <ele>46.100000</ele>
8449 <time>2069-11-30T12:26:58.725Z</time>
8450 <course>273.000000</course>
8451 <speed>22.789888</speed>
8452 <geoidheight>0.0</geoidheight>
8453 <fix>3d</fix>
8454 <sat>8</sat>
8455 <hdop>0.800000</hdop>
8456 </trkpt>
8457 <trkpt lat="-30.106680000" lon="-51.710610000">
8458 <ele>46.100000</ele>
8459 <time>2069-11-30T12:27:01.093Z</time>
8460 <course>273.000000</course>
8461 <speed>22.789888</speed>
8462 <geoidheight>0.0</geoidheight>
8463 <fix>3d</fix>
8464 <sat>8</sat>
8465 <hdop>0.800000</hdop>
8466 </trkpt>
8467 <trkpt lat="-30.106660000" lon="-51.710950000">
8468 <ele>46.100000</ele>
8469 <time>2069-11-30T12:27:03.396Z</time>
8470 <course>274.000000</course>
8471 <speed>22.789888</speed>
8472 <geoidheight>0.0</geoidheight>
8473 <fix>3d</fix>
8474 <sat>8</sat>
8475 <hdop>0.800000</hdop>
8476 </trkpt>
8477 <trkpt lat="-30.106640000" lon="-51.711290000">
8478 <ele>46.100000</ele>
8479 <time>2069-11-30T12:27:05.700Z</time>
8480 <course>274.000000</course>
8481 <speed>22.789888</speed>
8482 <geoidheight>0.0</geoidheight>
8483 <fix>3d</fix>
8484 <sat>8</sat>
8485 <hdop>0.800000</hdop>
8486 </trkpt>
8487 <trkpt lat="-30.106620000" lon="-51.711630000">
8488 <ele>46.100000</ele>
8489 <time>2069-11-30T12:27:08.003Z</time>
8490 <course>273.000000</course>
8491 <speed>22.789888</speed>
8492 <geoidheight>0.0</geoidheight>
8493 <fix>3d</fix>
8494 <sat>8</sat>
8495 <hdop>0.800000</hdop>
8496 </trkpt>
8497 <trkpt lat="-30.106610000" lon="-51.711970000">
8498 <ele>46.100000</ele>
8499 <time>2069-11-30T12:27:10.304Z</time>
8500 <course>273.000000</course>
8501 <speed>22.789888</speed>
8502 <geoidheight>0.0</geoidheight>
8503 <fix>3d</fix>
8504 <sat>8</sat>
8505 <hdop>0.800000</hdop>
8506 </trkpt>
8507 <trkpt lat="-30.106590000" lon="-51.712320000">
8508 <ele>46.100000</ele>
8509 <time>2069-11-30T12:27:12.675Z</time>
8510 <course>274.000000</course>
8511 <speed>22.789888</speed>
8512 <geoidheight>0.0</geoidheight>
8513 <fix>3d</fix>
8514 <sat>8</sat>
8515 <hdop>0.800000</hdop>
8516 </trkpt>
8517 <trkpt lat="-30.106570000" lon="-51.712660000">
8518 <ele>46.100000</ele>
8519 <time>2069-11-30T12:27:14.978Z</time>
8520 <course>274.000000</course>
8521 <speed>22.789888</speed>
8522 <geoidheight>0.0</geoidheight>
8523 <fix>3d</fix>
8524 <sat>8</sat>
8525 <hdop>0.800000</hdop>
8526 </trkpt>
8527 <trkpt lat="-30.106550000" lon="-51.713000000">
8528 <ele>46.100000</ele>
8529 <time>2069-11-30T12:27:17.282Z</time>
8530 <course>274.000000</course>
8531 <speed>22.789888</speed>
8532 <geoidheight>0.0</geoidheight>
8533 <fix>3d</fix>
8534 <sat>8</sat>
8535 <hdop>0.800000</hdop>
8536 </trkpt>
8537 <trkpt lat="-30.106530000" lon="-51.713340000">
8538 <ele>46.100000</ele>
8539 <time>2069-11-30T12:27:19.585Z</time>
8540 <course>274.000000</course>
8541 <speed>22.789888</speed>
8542 <geoidheight>0.0</geoidheight>
8543 <fix>3d</fix>
8544 <sat>8</sat>
8545 <hdop>0.800000</hdop>
8546 </trkpt>
8547 <trkpt lat="-30.106510000" lon="-51.713690000">
8548 <ele>46.100000</ele>
8549 <time>2069-11-30T12:27:21.956Z</time>
8550 <course>274.000000</course>
8551 <speed>22.789888</speed>
8552 <geoidheight>0.0</geoidheight>
8553 <fix>3d</fix>
8554 <sat>8</sat>
8555 <hdop>0.800000</hdop>
8556 </trkpt>
8557 <trkpt lat="-30.106490000" lon="-51.714030000">
8558 <ele>46.100000</ele>
8559 <time>2069-11-30T12:27:24.260Z</time>
8560 <course>274.000000</course>
8561 <speed>22.789888</speed>
8562 <geoidheight>0.0</geoidheight>
8563 <fix>3d</fix>
8564 <sat>8</sat>
8565 <hdop>0.800000</hdop>
8566 </trkpt>
8567 <trkpt lat="-30.106470000" lon="-51.714370000">
8568 <ele>46.100000</ele>
8569 <time>2069-11-30T12:27:26.563Z</time>
8570 <course>274.000000</course>
8571 <speed>22.789888</speed>
8572 <geoidheight>0.0</geoidheight>
8573 <fix>3d</fix>
8574 <sat>8</sat>
8575 <hdop>0.800000</hdop>
8576 </trkpt>
8577 <trkpt lat="-30.106450000" lon="-51.714710000">
8578 <ele>46.100000</ele>
8579 <time>2069-11-30T12:27:28.867Z</time>
8580 <course>274.000000</course>
8581 <speed>22.789888</speed>
8582 <geoidheight>0.0</geoidheight>
8583 <fix>3d</fix>
8584 <sat>8</sat>
8585 <hdop>0.800000</hdop>
8586 </trkpt>
8587 <trkpt lat="-30.106430000" lon="-51.715060000">
8588 <ele>46.100000</ele>
8589 <time>2069-11-30T12:27:31.238Z</time>
8590 <course>274.000000</course>
8591 <speed>22.789888</speed>
8592 <geoidheight>0.0</geoidheight>
8593 <fix>3d</fix>
8594 <sat>8</sat>
8595 <hdop>0.800000</hdop>
8596 </trkpt>
8597 <trkpt lat="-30.106410000" lon="-51.715400000">
8598 <ele>46.100000</ele>
8599 <time>2069-11-30T12:27:33.541Z</time>
8600 <course>273.000000</course>
8601 <speed>22.789888</speed>
8602 <geoidheight>0.0</geoidheight>
8603 <fix>3d</fix>
8604 <sat>8</sat>
8605 <hdop>0.800000</hdop>
8606 </trkpt>
8607 <trkpt lat="-30.106400000" lon="-51.715740000">
8608 <ele>46.100000</ele>
8609 <time>2069-11-30T12:27:35.842Z</time>
8610 <course>273.000000</course>
8611 <speed>22.789888</speed>
8612 <geoidheight>0.0</geoidheight>
8613 <fix>3d</fix>
8614 <sat>8</sat>
8615 <hdop>0.800000</hdop>
8616 </trkpt>
8617 <trkpt lat="-30.106380000" lon="-51.716080000">
8618 <ele>46.100000</ele>
8619 <time>2069-11-30T12:27:38.145Z</time>
8620 <course>274.000000</course>
8621 <speed>22.789888</speed>
8622 <geoidheight>0.0</geoidheight>
8623 <fix>3d</fix>
8624 <sat>8</sat>
8625 <hdop>0.800000</hdop>
8626 </trkpt>
8627 <trkpt lat="-30.106360000" lon="-51.716430000">
8628 <ele>46.100000</ele>
8629 <time>2069-11-30T12:27:40.516Z</time>
8630 <course>274.000000</course>
8631 <speed>22.789888</speed>
8632 <geoidheight>0.0</geoidheight>
8633 <fix>3d</fix>
8634 <sat>8</sat>
8635 <hdop>0.800000</hdop>
8636 </trkpt>
8637 <trkpt lat="-30.106340000" lon="-51.716770000">
8638 <ele>46.100000</ele>
8639 <time>2069-11-30T12:27:42.820Z</time>
8640 <course>274.000000</course>
8641 <speed>22.789888</speed>
8642 <geoidheight>0.0</geoidheight>
8643 <fix>3d</fix>
8644 <sat>8</sat>
8645 <hdop>0.800000</hdop>
8646 </trkpt>
8647 <trkpt lat="-30.106320000" lon="-51.717110000">
8648 <ele>46.100000</ele>
8649 <time>2069-11-30T12:27:45.123Z</time>
8650 <course>274.000000</course>
8651 <speed>22.789888</speed>
8652 <geoidheight>0.0</geoidheight>
8653 <fix>3d</fix>
8654 <sat>8</sat>
8655 <hdop>0.800000</hdop>
8656 </trkpt>
8657 <trkpt lat="-30.106300000" lon="-51.717460000">
8658 <ele>46.100000</ele>
8659 <time>2069-11-30T12:27:47.494Z</time>
8660 <course>274.000000</course>
8661 <speed>22.789888</speed>
8662 <geoidheight>0.0</geoidheight>
8663 <fix>3d</fix>
8664 <sat>8</sat>
8665 <hdop>0.800000</hdop>
8666 </trkpt>
8667 <trkpt lat="-30.106280000" lon="-51.717800000">
8668 <ele>46.100000</ele>
8669 <time>2069-11-30T12:27:49.798Z</time>
8670 <course>274.000000</course>
8671 <speed>22.789888</speed>
8672 <geoidheight>0.0</geoidheight>
8673 <fix>3d</fix>
8674 <sat>8</sat>
8675 <hdop>0.800000</hdop>
8676 </trkpt>
8677 <trkpt lat="-30.106260000" lon="-51.718140000">
8678 <ele>46.100000</ele>
8679 <time>2069-11-30T12:27:52.101Z</time>
8680 <course>274.000000</course>
8681 <speed>22.789888</speed>
8682 <geoidheight>0.0</geoidheight>
8683 <fix>3d</fix>
8684 <sat>8</sat>
8685 <hdop>0.800000</hdop>
8686 </trkpt>
8687 <trkpt lat="-30.106240000" lon="-51.718480000">
8688 <ele>46.100000</ele>
8689 <time>2069-11-30T12:27:54.405Z</time>
8690 <course>274.000000</course>
8691 <speed>22.789888</speed>
8692 <geoidheight>0.0</geoidheight>
8693 <fix>3d</fix>
8694 <sat>8</sat>
8695 <hdop>0.800000</hdop>
8696 </trkpt>
8697 <trkpt lat="-30.106220000" lon="-51.718830000">
8698 <ele>46.100000</ele>
8699 <time>2069-11-30T12:27:56.776Z</time>
8700 <course>274.000000</course>
8701 <speed>22.789888</speed>
8702 <geoidheight>0.0</geoidheight>
8703 <fix>3d</fix>
8704 <sat>8</sat>
8705 <hdop>0.800000</hdop>
8706 </trkpt>
8707 <trkpt lat="-30.106200000" lon="-51.719170000">
8708 <ele>46.100000</ele>
8709 <time>2069-11-30T12:27:59.079Z</time>
8710 <course>274.000000</course>
8711 <speed>22.789888</speed>
8712 <geoidheight>0.0</geoidheight>
8713 <fix>3d</fix>
8714 <sat>8</sat>
8715 <hdop>0.800000</hdop>
8716 </trkpt>
8717 <trkpt lat="-30.106180000" lon="-51.719510000">
8718 <ele>46.100000</ele>
8719 <time>2069-11-30T12:28:01.383Z</time>
8720 <course>274.000000</course>
8721 <speed>22.789888</speed>
8722 <geoidheight>0.0</geoidheight>
8723 <fix>3d</fix>
8724 <sat>8</sat>
8725 <hdop>0.800000</hdop>
8726 </trkpt>
8727 <trkpt lat="-30.106160000" lon="-51.719850000">
8728 <ele>46.100000</ele>
8729 <time>2069-11-30T12:28:03.686Z</time>
8730 <course>274.000000</course>
8731 <speed>22.789888</speed>
8732 <geoidheight>0.0</geoidheight>
8733 <fix>3d</fix>
8734 <sat>8</sat>
8735 <hdop>0.800000</hdop>
8736 </trkpt>
8737 <trkpt lat="-30.106140000" lon="-51.720200000">
8738 <ele>46.100000</ele>
8739 <time>2069-11-30T12:28:06.057Z</time>
8740 <course>274.000000</course>
8741 <speed>22.789888</speed>
8742 <geoidheight>0.0</geoidheight>
8743 <fix>3d</fix>
8744 <sat>8</sat>
8745 <hdop>0.800000</hdop>
8746 </trkpt>
8747 <trkpt lat="-30.106120000" lon="-51.720540000">
8748 <ele>46.100000</ele>
8749 <time>2069-11-30T12:28:08.361Z</time>
8750 <course>274.000000</course>
8751 <speed>22.789888</speed>
8752 <geoidheight>0.0</geoidheight>
8753 <fix>3d</fix>
8754 <sat>8</sat>
8755 <hdop>0.800000</hdop>
8756 </trkpt>
8757 <trkpt lat="-30.106100000" lon="-51.720880000">
8758 <ele>46.100000</ele>
8759 <time>2069-11-30T12:28:10.664Z</time>
8760 <course>273.000000</course>
8761 <speed>22.789888</speed>
8762 <geoidheight>0.0</geoidheight>
8763 <fix>3d</fix>
8764 <sat>8</sat>
8765 <hdop>0.800000</hdop>
8766 </trkpt>
8767 <trkpt lat="-30.106090000" lon="-51.721220000">
8768 <ele>46.100000</ele>
8769 <time>2069-11-30T12:28:12.965Z</time>
8770 <course>273.000000</course>
8771 <speed>22.789888</speed>
8772 <geoidheight>0.0</geoidheight>
8773 <fix>3d</fix>
8774 <sat>8</sat>
8775 <hdop>0.800000</hdop>
8776 </trkpt>
8777 <trkpt lat="-30.106070000" lon="-51.721570000">
8778 <ele>46.100000</ele>
8779 <time>2069-11-30T12:28:15.336Z</time>
8780 <course>274.000000</course>
8781 <speed>22.789888</speed>
8782 <geoidheight>0.0</geoidheight>
8783 <fix>3d</fix>
8784 <sat>8</sat>
8785 <hdop>0.800000</hdop>
8786 </trkpt>
8787 <trkpt lat="-30.106050000" lon="-51.721910000">
8788 <ele>46.100000</ele>
8789 <time>2069-11-30T12:28:17.639Z</time>
8790 <course>274.000000</course>
8791 <speed>22.789888</speed>
8792 <geoidheight>0.0</geoidheight>
8793 <fix>3d</fix>
8794 <sat>8</sat>
8795 <hdop>0.800000</hdop>
8796 </trkpt>
8797 <trkpt lat="-30.106030000" lon="-51.722250000">
8798 <ele>46.100000</ele>
8799 <time>2069-11-30T12:28:19.943Z</time>
8800 <course>274.000000</course>
8801 <speed>22.789888</speed>
8802 <geoidheight>0.0</geoidheight>
8803 <fix>3d</fix>
8804 <sat>8</sat>
8805 <hdop>0.800000</hdop>
8806 </trkpt>
8807 <trkpt lat="-30.106010000" lon="-51.722590000">
8808 <ele>46.100000</ele>
8809 <time>2069-11-30T12:28:22.246Z</time>
8810 <course>274.000000</course>
8811 <speed>22.789888</speed>
8812 <geoidheight>0.0</geoidheight>
8813 <fix>3d</fix>
8814 <sat>8</sat>
8815 <hdop>0.800000</hdop>
8816 </trkpt>
8817 <trkpt lat="-30.105990000" lon="-51.722940000">
8818 <ele>46.100000</ele>
8819 <time>2069-11-30T12:28:24.617Z</time>
8820 <course>274.000000</course>
8821 <speed>22.789888</speed>
8822 <geoidheight>0.0</geoidheight>
8823 <fix>3d</fix>
8824 <sat>8</sat>
8825 <hdop>0.800000</hdop>
8826 </trkpt>
8827 <trkpt lat="-30.105970000" lon="-51.723280000">
8828 <ele>46.100000</ele>
8829 <time>2069-11-30T12:28:26.921Z</time>
8830 <course>274.000000</course>
8831 <speed>22.789888</speed>
8832 <geoidheight>0.0</geoidheight>
8833 <fix>3d</fix>
8834 <sat>8</sat>
8835 <hdop>0.800000</hdop>
8836 </trkpt>
8837 <trkpt lat="-30.105950000" lon="-51.723620000">
8838 <ele>46.100000</ele>
8839 <time>2069-11-30T12:28:29.224Z</time>
8840 <course>274.000000</course>
8841 <speed>22.789888</speed>
8842 <geoidheight>0.0</geoidheight>
8843 <fix>3d</fix>
8844 <sat>8</sat>
8845 <hdop>0.800000</hdop>
8846 </trkpt>
8847 <trkpt lat="-30.105930000" lon="-51.723960000">
8848 <ele>46.100000</ele>
8849 <time>2069-11-30T12:28:31.528Z</time>
8850 <course>274.000000</course>
8851 <speed>22.789888</speed>
8852 <geoidheight>0.0</geoidheight>
8853 <fix>3d</fix>
8854 <sat>8</sat>
8855 <hdop>0.800000</hdop>
8856 </trkpt>
8857 <trkpt lat="-30.105910000" lon="-51.724310000">
8858 <ele>46.100000</ele>
8859 <time>2069-11-30T12:28:33.899Z</time>
8860 <course>274.000000</course>
8861 <speed>22.789888</speed>
8862 <geoidheight>0.0</geoidheight>
8863 <fix>3d</fix>
8864 <sat>8</sat>
8865 <hdop>0.800000</hdop>
8866 </trkpt>
8867 <trkpt lat="-30.105890000" lon="-51.724650000">
8868 <ele>46.100000</ele>
8869 <time>2069-11-30T12:28:36.202Z</time>
8870 <course>274.000000</course>
8871 <speed>22.789888</speed>
8872 <geoidheight>0.0</geoidheight>
8873 <fix>3d</fix>
8874 <sat>8</sat>
8875 <hdop>0.800000</hdop>
8876 </trkpt>
8877 <trkpt lat="-30.105870000" lon="-51.724990000">
8878 <ele>46.100000</ele>
8879 <time>2069-11-30T12:28:38.506Z</time>
8880 <course>276.000000</course>
8881 <speed>22.789888</speed>
8882 <geoidheight>0.0</geoidheight>
8883 <fix>3d</fix>
8884 <sat>8</sat>
8885 <hdop>0.800000</hdop>
8886 </trkpt>
8887 <trkpt lat="-30.105830000" lon="-51.725330000">
8888 <ele>46.100000</ele>
8889 <time>2069-11-30T12:28:40.821Z</time>
8890 <course>279.000000</course>
8891 <speed>22.789888</speed>
8892 <geoidheight>0.0</geoidheight>
8893 <fix>3d</fix>
8894 <sat>8</sat>
8895 <hdop>0.800000</hdop>
8896 </trkpt>
8897 <trkpt lat="-30.105780000" lon="-51.725660000">
8898 <ele>46.100000</ele>
8899 <time>2069-11-30T12:28:43.078Z</time>
8900 <course>280.000000</course>
8901 <speed>22.789888</speed>
8902 <geoidheight>0.0</geoidheight>
8903 <fix>3d</fix>
8904 <sat>8</sat>
8905 <hdop>0.800000</hdop>
8906 </trkpt>
8907 <trkpt lat="-30.105730000" lon="-51.726000000">
8908 <ele>46.100000</ele>
8909 <time>2069-11-30T12:28:45.403Z</time>
8910 <course>281.000000</course>
8911 <speed>22.789888</speed>
8912 <geoidheight>0.0</geoidheight>
8913 <fix>3d</fix>
8914 <sat>8</sat>
8915 <hdop>0.800000</hdop>
8916 </trkpt>
8917 <trkpt lat="-30.105670000" lon="-51.726330000">
8918 <ele>46.100000</ele>
8919 <time>2069-11-30T12:28:47.671Z</time>
8920 <course>281.000000</course>
8921 <speed>22.789888</speed>
8922 <geoidheight>0.0</geoidheight>
8923 <fix>3d</fix>
8924 <sat>8</sat>
8925 <hdop>0.800000</hdop>
8926 </trkpt>
8927 <trkpt lat="-30.105620000" lon="-51.726670000">
8928 <ele>46.100000</ele>
8929 <time>2069-11-30T12:28:49.995Z</time>
8930 <course>280.000000</course>
8931 <speed>22.789888</speed>
8932 <geoidheight>0.0</geoidheight>
8933 <fix>3d</fix>
8934 <sat>8</sat>
8935 <hdop>0.800000</hdop>
8936 </trkpt>
8937 <trkpt lat="-30.105570000" lon="-51.727000000">
8938 <ele>46.100000</ele>
8939 <time>2069-11-30T12:28:52.253Z</time>
8940 <course>280.000000</course>
8941 <speed>22.789888</speed>
8942 <geoidheight>0.0</geoidheight>
8943 <fix>3d</fix>
8944 <sat>8</sat>
8945 <hdop>0.800000</hdop>
8946 </trkpt>
8947 <trkpt lat="-30.105520000" lon="-51.727340000">
8948 <ele>46.100000</ele>
8949 <time>2069-11-30T12:28:54.577Z</time>
8950 <course>281.000000</course>
8951 <speed>22.789888</speed>
8952 <geoidheight>0.0</geoidheight>
8953 <fix>3d</fix>
8954 <sat>8</sat>
8955 <hdop>0.800000</hdop>
8956 </trkpt>
8957 <trkpt lat="-30.105460000" lon="-51.727680000">
8958 <ele>46.100000</ele>
8959 <time>2069-11-30T12:28:56.912Z</time>
8960 <course>281.000000</course>
8961 <speed>22.789888</speed>
8962 <geoidheight>0.0</geoidheight>
8963 <fix>3d</fix>
8964 <sat>8</sat>
8965 <hdop>0.800000</hdop>
8966 </trkpt>
8967 <trkpt lat="-30.105410000" lon="-51.728010000">
8968 <ele>46.100000</ele>
8969 <time>2069-11-30T12:28:59.169Z</time>
8970 <course>280.000000</course>
8971 <speed>22.789888</speed>
8972 <geoidheight>0.0</geoidheight>
8973 <fix>3d</fix>
8974 <sat>8</sat>
8975 <hdop>0.800000</hdop>
8976 </trkpt>
8977 <trkpt lat="-30.105360000" lon="-51.728350000">
8978 <ele>46.100000</ele>
8979 <time>2069-11-30T12:29:01.494Z</time>
8980 <course>280.000000</course>
8981 <speed>22.789888</speed>
8982 <geoidheight>0.0</geoidheight>
8983 <fix>3d</fix>
8984 <sat>8</sat>
8985 <hdop>0.800000</hdop>
8986 </trkpt>
8987 <trkpt lat="-30.105310000" lon="-51.728680000">
8988 <ele>46.100000</ele>
8989 <time>2069-11-30T12:29:03.751Z</time>
8990 <course>280.000000</course>
8991 <speed>22.789888</speed>
8992 <geoidheight>0.0</geoidheight>
8993 <fix>3d</fix>
8994 <sat>8</sat>
8995 <hdop>0.800000</hdop>
8996 </trkpt>
8997 <trkpt lat="-30.105260000" lon="-51.729020000">
8998 <ele>46.100000</ele>
8999 <time>2069-11-30T12:29:06.075Z</time>
9000 <course>278.000000</course>
9001 <speed>22.789888</speed>
9002 <geoidheight>0.0</geoidheight>
9003 <fix>3d</fix>
9004 <sat>8</sat>
9005 <hdop>0.800000</hdop>
9006 </trkpt>
9007 <trkpt lat="-30.105230000" lon="-51.729360000">
9008 <ele>46.100000</ele>
9009 <time>2069-11-30T12:29:08.384Z</time>
9010 <course>276.000000</course>
9011 <speed>22.789888</speed>
9012 <geoidheight>0.0</geoidheight>
9013 <fix>3d</fix>
9014 <sat>8</sat>
9015 <hdop>0.800000</hdop>
9016 </trkpt>
9017 <trkpt lat="-30.105200000" lon="-51.729710000">
9018 <ele>46.100000</ele>
9019 <time>2069-11-30T12:29:10.760Z</time>
9020 <course>275.000000</course>
9021 <speed>22.789888</speed>
9022 <geoidheight>0.0</geoidheight>
9023 <fix>3d</fix>
9024 <sat>8</sat>
9025 <hdop>0.800000</hdop>
9026 </trkpt>
9027 <trkpt lat="-30.105180000" lon="-51.730050000">
9028 <ele>46.100000</ele>
9029 <time>2069-11-30T12:29:13.063Z</time>
9030 <course>275.000000</course>
9031 <speed>22.789888</speed>
9032 <geoidheight>0.0</geoidheight>
9033 <fix>3d</fix>
9034 <sat>8</sat>
9035 <hdop>0.800000</hdop>
9036 </trkpt>
9037 <trkpt lat="-30.105150000" lon="-51.730390000">
9038 <ele>46.100000</ele>
9039 <time>2069-11-30T12:29:15.371Z</time>
9040 <course>276.000000</course>
9041 <speed>22.789888</speed>
9042 <geoidheight>0.0</geoidheight>
9043 <fix>3d</fix>
9044 <sat>8</sat>
9045 <hdop>0.800000</hdop>
9046 </trkpt>
9047 <trkpt lat="-30.105120000" lon="-51.730730000">
9048 <ele>46.100000</ele>
9049 <time>2069-11-30T12:29:17.680Z</time>
9050 <course>276.000000</course>
9051 <speed>22.789888</speed>
9052 <geoidheight>0.0</geoidheight>
9053 <fix>3d</fix>
9054 <sat>8</sat>
9055 <hdop>0.800000</hdop>
9056 </trkpt>
9057 <trkpt lat="-30.105090000" lon="-51.731070000">
9058 <ele>46.100000</ele>
9059 <time>2069-11-30T12:29:19.988Z</time>
9060 <course>274.000000</course>
9061 <speed>22.789888</speed>
9062 <geoidheight>0.0</geoidheight>
9063 <fix>3d</fix>
9064 <sat>8</sat>
9065 <hdop>0.800000</hdop>
9066 </trkpt>
9067 <trkpt lat="-30.105080000" lon="-51.731420000">
9068 <ele>46.100000</ele>
9069 <time>2069-11-30T12:29:22.356Z</time>
9070 <course>271.000000</course>
9071 <speed>22.789888</speed>
9072 <geoidheight>0.0</geoidheight>
9073 <fix>3d</fix>
9074 <sat>8</sat>
9075 <hdop>0.800000</hdop>
9076 </trkpt>
9077 <trkpt lat="-30.105080000" lon="-51.731760000">
9078 <ele>46.100000</ele>
9079 <time>2069-11-30T12:29:24.656Z</time>
9080 <course>270.000000</course>
9081 <speed>22.789888</speed>
9082 <geoidheight>0.0</geoidheight>
9083 <fix>3d</fix>
9084 <sat>8</sat>
9085 <hdop>0.800000</hdop>
9086 </trkpt>
9087 <trkpt lat="-30.105080000" lon="-51.732100000">
9088 <ele>46.100000</ele>
9089 <time>2069-11-30T12:29:26.955Z</time>
9090 <course>270.000000</course>
9091 <speed>22.789888</speed>
9092 <geoidheight>0.0</geoidheight>
9093 <fix>3d</fix>
9094 <sat>8</sat>
9095 <hdop>0.800000</hdop>
9096 </trkpt>
9097 <trkpt lat="-30.105080000" lon="-51.732450000">
9098 <ele>46.100000</ele>
9099 <time>2069-11-30T12:29:29.323Z</time>
9100 <course>270.000000</course>
9101 <speed>22.789888</speed>
9102 <geoidheight>0.0</geoidheight>
9103 <fix>3d</fix>
9104 <sat>8</sat>
9105 <hdop>0.800000</hdop>
9106 </trkpt>
9107 <trkpt lat="-30.105080000" lon="-51.732790000">
9108 <ele>46.100000</ele>
9109 <time>2069-11-30T12:29:31.622Z</time>
9110 <course>267.000000</course>
9111 <speed>22.789888</speed>
9112 <geoidheight>0.0</geoidheight>
9113 <fix>3d</fix>
9114 <sat>8</sat>
9115 <hdop>0.800000</hdop>
9116 </trkpt>
9117 <trkpt lat="-30.105110000" lon="-51.733120000">
9118 <ele>46.100000</ele>
9119 <time>2069-11-30T12:29:33.863Z</time>
9120 <course>264.000000</course>
9121 <speed>22.789888</speed>
9122 <geoidheight>0.0</geoidheight>
9123 <fix>3d</fix>
9124 <sat>8</sat>
9125 <hdop>0.800000</hdop>
9126 </trkpt>
9127 <trkpt lat="-30.105140000" lon="-51.733460000">
9128 <ele>46.100000</ele>
9129 <time>2069-11-30T12:29:36.172Z</time>
9130 <course>263.000000</course>
9131 <speed>22.789888</speed>
9132 <geoidheight>0.0</geoidheight>
9133 <fix>3d</fix>
9134 <sat>8</sat>
9135 <hdop>0.800000</hdop>
9136 </trkpt>
9137 <trkpt lat="-30.105180000" lon="-51.733810000">
9138 <ele>46.100000</ele>
9139 <time>2069-11-30T12:29:38.554Z</time>
9140 <course>263.000000</course>
9141 <speed>22.789888</speed>
9142 <geoidheight>0.0</geoidheight>
9143 <fix>3d</fix>
9144 <sat>8</sat>
9145 <hdop>0.800000</hdop>
9146 </trkpt>
9147 <trkpt lat="-30.105210000" lon="-51.734150000">
9148 <ele>46.100000</ele>
9149 <time>2069-11-30T12:29:40.863Z</time>
9150 <course>263.000000</course>
9151 <speed>22.789888</speed>
9152 <geoidheight>0.0</geoidheight>
9153 <fix>3d</fix>
9154 <sat>8</sat>
9155 <hdop>0.800000</hdop>
9156 </trkpt>
9157 <trkpt lat="-30.105250000" lon="-51.734490000">
9158 <ele>46.100000</ele>
9159 <time>2069-11-30T12:29:43.178Z</time>
9160 <course>263.000000</course>
9161 <speed>22.789888</speed>
9162 <geoidheight>0.0</geoidheight>
9163 <fix>3d</fix>
9164 <sat>8</sat>
9165 <hdop>0.800000</hdop>
9166 </trkpt>
9167 <trkpt lat="-30.105280000" lon="-51.734830000">
9168 <ele>46.100000</ele>
9169 <time>2069-11-30T12:29:45.487Z</time>
9170 <course>263.000000</course>
9171 <speed>22.789888</speed>
9172 <geoidheight>0.0</geoidheight>
9173 <fix>3d</fix>
9174 <sat>8</sat>
9175 <hdop>0.800000</hdop>
9176 </trkpt>
9177 <trkpt lat="-30.105320000" lon="-51.735160000">
9178 <ele>46.100000</ele>
9179 <time>2069-11-30T12:29:47.735Z</time>
9180 <course>260.000000</course>
9181 <speed>22.789888</speed>
9182 <geoidheight>0.0</geoidheight>
9183 <fix>3d</fix>
9184 <sat>8</sat>
9185 <hdop>0.800000</hdop>
9186 </trkpt>
9187 <trkpt lat="-30.105380000" lon="-51.735490000">
9188 <ele>46.100000</ele>
9189 <time>2069-11-30T12:29:50.003Z</time>
9190 <course>258.000000</course>
9191 <speed>22.789888</speed>
9192 <geoidheight>0.0</geoidheight>
9193 <fix>3d</fix>
9194 <sat>8</sat>
9195 <hdop>0.800000</hdop>
9196 </trkpt>
9197 <trkpt lat="-30.105440000" lon="-51.735820000">
9198 <ele>46.100000</ele>
9199 <time>2069-11-30T12:29:52.272Z</time>
9200 <course>257.000000</course>
9201 <speed>22.789888</speed>
9202 <geoidheight>0.0</geoidheight>
9203 <fix>3d</fix>
9204 <sat>8</sat>
9205 <hdop>0.800000</hdop>
9206 </trkpt>
9207 <trkpt lat="-30.105510000" lon="-51.736150000">
9208 <ele>46.100000</ele>
9209 <time>2069-11-30T12:29:54.553Z</time>
9210 <course>257.000000</course>
9211 <speed>22.789888</speed>
9212 <geoidheight>0.0</geoidheight>
9213 <fix>3d</fix>
9214 <sat>8</sat>
9215 <hdop>0.800000</hdop>
9216 </trkpt>
9217 <trkpt lat="-30.105570000" lon="-51.736480000">
9218 <ele>46.100000</ele>
9219 <time>2069-11-30T12:29:56.822Z</time>
9220 <course>257.000000</course>
9221 <speed>22.789888</speed>
9222 <geoidheight>0.0</geoidheight>
9223 <fix>3d</fix>
9224 <sat>8</sat>
9225 <hdop>0.800000</hdop>
9226 </trkpt>
9227 <trkpt lat="-30.105640000" lon="-51.736810000">
9228 <ele>46.100000</ele>
9229 <time>2069-11-30T12:29:59.103Z</time>
9230 <course>256.000000</course>
9231 <speed>22.789888</speed>
9232 <geoidheight>0.0</geoidheight>
9233 <fix>3d</fix>
9234 <sat>8</sat>
9235 <hdop>0.800000</hdop>
9236 </trkpt>
9237 <trkpt lat="-30.105710000" lon="-51.737150000">
9238 <ele>46.100000</ele>
9239 <time>2069-11-30T12:30:01.451Z</time>
9240 <course>257.000000</course>
9241 <speed>22.789888</speed>
9242 <geoidheight>0.0</geoidheight>
9243 <fix>3d</fix>
9244 <sat>8</sat>
9245 <hdop>0.800000</hdop>
9246 </trkpt>
9247 <trkpt lat="-30.105770000" lon="-51.737480000">
9248 <ele>46.100000</ele>
9249 <time>2069-11-30T12:30:03.719Z</time>
9250 <course>258.000000</course>
9251 <speed>22.789888</speed>
9252 <geoidheight>0.0</geoidheight>
9253 <fix>3d</fix>
9254 <sat>8</sat>
9255 <hdop>0.800000</hdop>
9256 </trkpt>
9257 <trkpt lat="-30.105830000" lon="-51.737820000">
9258 <ele>46.100000</ele>
9259 <time>2069-11-30T12:30:06.055Z</time>
9260 <course>257.000000</course>
9261 <speed>22.789888</speed>
9262 <geoidheight>0.0</geoidheight>
9263 <fix>3d</fix>
9264 <sat>8</sat>
9265 <hdop>0.800000</hdop>
9266 </trkpt>
9267 <trkpt lat="-30.105900000" lon="-51.738160000">
9268 <ele>46.100000</ele>
9269 <time>2069-11-30T12:30:08.402Z</time>
9270 <course>257.000000</course>
9271 <speed>22.789888</speed>
9272 <geoidheight>0.0</geoidheight>
9273 <fix>3d</fix>
9274 <sat>8</sat>
9275 <hdop>0.800000</hdop>
9276 </trkpt>
9277 <trkpt lat="-30.105960000" lon="-51.738490000">
9278 <ele>46.100000</ele>
9279 <time>2069-11-30T12:30:10.671Z</time>
9280 <course>257.000000</course>
9281 <speed>22.789888</speed>
9282 <geoidheight>0.0</geoidheight>
9283 <fix>3d</fix>
9284 <sat>8</sat>
9285 <hdop>0.800000</hdop>
9286 </trkpt>
9287 <trkpt lat="-30.106030000" lon="-51.738830000">
9288 <ele>46.100000</ele>
9289 <time>2069-11-30T12:30:13.019Z</time>
9290 <course>257.000000</course>
9291 <speed>22.789888</speed>
9292 <geoidheight>0.0</geoidheight>
9293 <fix>3d</fix>
9294 <sat>8</sat>
9295 <hdop>0.800000</hdop>
9296 </trkpt>
9297 <trkpt lat="-30.106090000" lon="-51.739160000">
9298 <ele>46.100000</ele>
9299 <time>2069-11-30T12:30:15.287Z</time>
9300 <course>258.000000</course>
9301 <speed>22.789888</speed>
9302 <geoidheight>0.0</geoidheight>
9303 <fix>3d</fix>
9304 <sat>8</sat>
9305 <hdop>0.800000</hdop>
9306 </trkpt>
9307 <trkpt lat="-30.106150000" lon="-51.739500000">
9308 <ele>46.100000</ele>
9309 <time>2069-11-30T12:30:17.622Z</time>
9310 <course>257.000000</course>
9311 <speed>22.789888</speed>
9312 <geoidheight>0.0</geoidheight>
9313 <fix>3d</fix>
9314 <sat>8</sat>
9315 <hdop>0.800000</hdop>
9316 </trkpt>
9317 <trkpt lat="-30.106220000" lon="-51.739830000">
9318 <ele>46.100000</ele>
9319 <time>2069-11-30T12:30:19.904Z</time>
9320 <course>257.000000</course>
9321 <speed>22.789888</speed>
9322 <geoidheight>0.0</geoidheight>
9323 <fix>3d</fix>
9324 <sat>8</sat>
9325 <hdop>0.800000</hdop>
9326 </trkpt>
9327 <trkpt lat="-30.106280000" lon="-51.740170000">
9328 <ele>46.100000</ele>
9329 <time>2069-11-30T12:30:22.239Z</time>
9330 <course>257.000000</course>
9331 <speed>22.789888</speed>
9332 <geoidheight>0.0</geoidheight>
9333 <fix>3d</fix>
9334 <sat>8</sat>
9335 <hdop>0.800000</hdop>
9336 </trkpt>
9337 <trkpt lat="-30.106350000" lon="-51.740510000">
9338 <ele>46.100000</ele>
9339 <time>2069-11-30T12:30:24.586Z</time>
9340 <course>257.000000</course>
9341 <speed>22.789888</speed>
9342 <geoidheight>0.0</geoidheight>
9343 <fix>3d</fix>
9344 <sat>8</sat>
9345 <hdop>0.800000</hdop>
9346 </trkpt>
9347 <trkpt lat="-30.106410000" lon="-51.740840000">
9348 <ele>46.100000</ele>
9349 <time>2069-11-30T12:30:26.855Z</time>
9350 <course>258.000000</course>
9351 <speed>22.789888</speed>
9352 <geoidheight>0.0</geoidheight>
9353 <fix>3d</fix>
9354 <sat>8</sat>
9355 <hdop>0.800000</hdop>
9356 </trkpt>
9357 <trkpt lat="-30.106470000" lon="-51.741180000">
9358 <ele>46.100000</ele>
9359 <time>2069-11-30T12:30:29.190Z</time>
9360 <course>257.000000</course>
9361 <speed>22.789888</speed>
9362 <geoidheight>0.0</geoidheight>
9363 <fix>3d</fix>
9364 <sat>8</sat>
9365 <hdop>0.800000</hdop>
9366 </trkpt>
9367 <trkpt lat="-30.106540000" lon="-51.741510000">
9368 <ele>46.100000</ele>
9369 <time>2069-11-30T12:30:31.471Z</time>
9370 <course>256.000000</course>
9371 <speed>22.789888</speed>
9372 <geoidheight>0.0</geoidheight>
9373 <fix>3d</fix>
9374 <sat>8</sat>
9375 <hdop>0.800000</hdop>
9376 </trkpt>
9377 <trkpt lat="-30.106610000" lon="-51.741850000">
9378 <ele>46.100000</ele>
9379 <time>2069-11-30T12:30:33.819Z</time>
9380 <course>256.000000</course>
9381 <speed>22.789888</speed>
9382 <geoidheight>0.0</geoidheight>
9383 <fix>3d</fix>
9384 <sat>8</sat>
9385 <hdop>0.800000</hdop>
9386 </trkpt>
9387 <trkpt lat="-30.106680000" lon="-51.742180000">
9388 <ele>46.100000</ele>
9389 <time>2069-11-30T12:30:36.101Z</time>
9390 <course>256.000000</course>
9391 <speed>22.789888</speed>
9392 <geoidheight>0.0</geoidheight>
9393 <fix>3d</fix>
9394 <sat>8</sat>
9395 <hdop>0.800000</hdop>
9396 </trkpt>
9397 <trkpt lat="-30.106750000" lon="-51.742510000">
9398 <ele>46.100000</ele>
9399 <time>2069-11-30T12:30:38.382Z</time>
9400 <course>256.000000</course>
9401 <speed>22.789888</speed>
9402 <geoidheight>0.0</geoidheight>
9403 <fix>3d</fix>
9404 <sat>8</sat>
9405 <hdop>0.800000</hdop>
9406 </trkpt>
9407 <trkpt lat="-30.106820000" lon="-51.742840000">
9408 <ele>46.100000</ele>
9409 <time>2069-11-30T12:30:40.664Z</time>
9410 <course>256.000000</course>
9411 <speed>22.789888</speed>
9412 <geoidheight>0.0</geoidheight>
9413 <fix>3d</fix>
9414 <sat>8</sat>
9415 <hdop>0.800000</hdop>
9416 </trkpt>
9417 <trkpt lat="-30.106890000" lon="-51.743180000">
9418 <ele>46.100000</ele>
9419 <time>2069-11-30T12:30:43.012Z</time>
9420 <course>256.000000</course>
9421 <speed>22.789888</speed>
9422 <geoidheight>0.0</geoidheight>
9423 <fix>3d</fix>
9424 <sat>8</sat>
9425 <hdop>0.800000</hdop>
9426 </trkpt>
9427 <trkpt lat="-30.106960000" lon="-51.743510000">
9428 <ele>46.100000</ele>
9429 <time>2069-11-30T12:30:45.293Z</time>
9430 <course>256.000000</course>
9431 <speed>22.789888</speed>
9432 <geoidheight>0.0</geoidheight>
9433 <fix>3d</fix>
9434 <sat>8</sat>
9435 <hdop>0.800000</hdop>
9436 </trkpt>
9437 <trkpt lat="-30.107030000" lon="-51.743840000">
9438 <ele>46.100000</ele>
9439 <time>2069-11-30T12:30:47.575Z</time>
9440 <course>255.000000</course>
9441 <speed>22.789888</speed>
9442 <geoidheight>0.0</geoidheight>
9443 <fix>3d</fix>
9444 <sat>8</sat>
9445 <hdop>0.800000</hdop>
9446 </trkpt>
9447 <trkpt lat="-30.107110000" lon="-51.744170000">
9448 <ele>46.100000</ele>
9449 <time>2069-11-30T12:30:49.871Z</time>
9450 <course>255.000000</course>
9451 <speed>22.789888</speed>
9452 <geoidheight>0.0</geoidheight>
9453 <fix>3d</fix>
9454 <sat>8</sat>
9455 <hdop>0.800000</hdop>
9456 </trkpt>
9457 <trkpt lat="-30.107180000" lon="-51.744510000">
9458 <ele>46.100000</ele>
9459 <time>2069-11-30T12:30:52.219Z</time>
9460 <course>256.000000</course>
9461 <speed>22.789888</speed>
9462 <geoidheight>0.0</geoidheight>
9463 <fix>3d</fix>
9464 <sat>8</sat>
9465 <hdop>0.800000</hdop>
9466 </trkpt>
9467 <trkpt lat="-30.107250000" lon="-51.744840000">
9468 <ele>46.100000</ele>
9469 <time>2069-11-30T12:30:54.500Z</time>
9470 <course>256.000000</course>
9471 <speed>22.789888</speed>
9472 <geoidheight>0.0</geoidheight>
9473 <fix>3d</fix>
9474 <sat>8</sat>
9475 <hdop>0.800000</hdop>
9476 </trkpt>
9477 <trkpt lat="-30.107320000" lon="-51.745170000">
9478 <ele>46.100000</ele>
9479 <time>2069-11-30T12:30:56.782Z</time>
9480 <course>256.000000</course>
9481 <speed>22.789888</speed>
9482 <geoidheight>0.0</geoidheight>
9483 <fix>3d</fix>
9484 <sat>8</sat>
9485 <hdop>0.800000</hdop>
9486 </trkpt>
9487 <trkpt lat="-30.107390000" lon="-51.745500000">
9488 <ele>46.100000</ele>
9489 <time>2069-11-30T12:30:59.064Z</time>
9490 <course>256.000000</course>
9491 <speed>22.789888</speed>
9492 <geoidheight>0.0</geoidheight>
9493 <fix>3d</fix>
9494 <sat>8</sat>
9495 <hdop>0.800000</hdop>
9496 </trkpt>
9497 <trkpt lat="-30.107460000" lon="-51.745830000">
9498 <ele>46.100000</ele>
9499 <time>2069-11-30T12:31:01.345Z</time>
9500 <course>255.000000</course>
9501 <speed>22.789888</speed>
9502 <geoidheight>0.0</geoidheight>
9503 <fix>3d</fix>
9504 <sat>8</sat>
9505 <hdop>0.800000</hdop>
9506 </trkpt>
9507 <trkpt lat="-30.107540000" lon="-51.746160000">
9508 <ele>46.100000</ele>
9509 <time>2069-11-30T12:31:03.642Z</time>
9510 <course>255.000000</course>
9511 <speed>22.789888</speed>
9512 <geoidheight>0.0</geoidheight>
9513 <fix>3d</fix>
9514 <sat>8</sat>
9515 <hdop>0.800000</hdop>
9516 </trkpt>
9517 <trkpt lat="-30.107610000" lon="-51.746490000">
9518 <ele>46.100000</ele>
9519 <time>2069-11-30T12:31:05.923Z</time>
9520 <course>256.000000</course>
9521 <speed>22.789888</speed>
9522 <geoidheight>0.0</geoidheight>
9523 <fix>3d</fix>
9524 <sat>8</sat>
9525 <hdop>0.800000</hdop>
9526 </trkpt>
9527 <trkpt lat="-30.107680000" lon="-51.746820000">
9528 <ele>46.100000</ele>
9529 <time>2069-11-30T12:31:08.205Z</time>
9530 <course>256.000000</course>
9531 <speed>22.789888</speed>
9532 <geoidheight>0.0</geoidheight>
9533 <fix>3d</fix>
9534 <sat>8</sat>
9535 <hdop>0.800000</hdop>
9536 </trkpt>
9537 <trkpt lat="-30.107750000" lon="-51.747150000">
9538 <ele>46.100000</ele>
9539 <time>2069-11-30T12:31:10.486Z</time>
9540 <course>256.000000</course>
9541 <speed>22.789888</speed>
9542 <geoidheight>0.0</geoidheight>
9543 <fix>3d</fix>
9544 <sat>8</sat>
9545 <hdop>0.800000</hdop>
9546 </trkpt>
9547 <trkpt lat="-30.107820000" lon="-51.747480000">
9548 <ele>46.100000</ele>
9549 <time>2069-11-30T12:31:12.768Z</time>
9550 <course>256.000000</course>
9551 <speed>22.789888</speed>
9552 <geoidheight>0.0</geoidheight>
9553 <fix>3d</fix>
9554 <sat>8</sat>
9555 <hdop>0.800000</hdop>
9556 </trkpt>
9557 <trkpt lat="-30.107890000" lon="-51.747820000">
9558 <ele>46.100000</ele>
9559 <time>2069-11-30T12:31:15.116Z</time>
9560 <course>256.000000</course>
9561 <speed>22.789888</speed>
9562 <geoidheight>0.0</geoidheight>
9563 <fix>3d</fix>
9564 <sat>8</sat>
9565 <hdop>0.800000</hdop>
9566 </trkpt>
9567 <trkpt lat="-30.107960000" lon="-51.748150000">
9568 <ele>46.100000</ele>
9569 <time>2069-11-30T12:31:17.397Z</time>
9570 <course>257.000000</course>
9571 <speed>22.789888</speed>
9572 <geoidheight>0.0</geoidheight>
9573 <fix>3d</fix>
9574 <sat>8</sat>
9575 <hdop>0.800000</hdop>
9576 </trkpt>
9577 <trkpt lat="-30.108020000" lon="-51.748490000">
9578 <ele>46.100000</ele>
9579 <time>2069-11-30T12:31:19.732Z</time>
9580 <course>257.000000</course>
9581 <speed>22.789888</speed>
9582 <geoidheight>0.0</geoidheight>
9583 <fix>3d</fix>
9584 <sat>8</sat>
9585 <hdop>0.800000</hdop>
9586 </trkpt>
9587 <trkpt lat="-30.108090000" lon="-51.748820000">
9588 <ele>46.100000</ele>
9589 <time>2069-11-30T12:31:22.014Z</time>
9590 <course>256.000000</course>
9591 <speed>22.789888</speed>
9592 <geoidheight>0.0</geoidheight>
9593 <fix>3d</fix>
9594 <sat>8</sat>
9595 <hdop>0.800000</hdop>
9596 </trkpt>
9597 <trkpt lat="-30.108160000" lon="-51.749150000">
9598 <ele>46.100000</ele>
9599 <time>2069-11-30T12:31:24.295Z</time>
9600 <course>256.000000</course>
9601 <speed>22.789888</speed>
9602 <geoidheight>0.0</geoidheight>
9603 <fix>3d</fix>
9604 <sat>8</sat>
9605 <hdop>0.800000</hdop>
9606 </trkpt>
9607 <trkpt lat="-30.108230000" lon="-51.749490000">
9608 <ele>46.100000</ele>
9609 <time>2069-11-30T12:31:26.643Z</time>
9610 <course>256.000000</course>
9611 <speed>22.789888</speed>
9612 <geoidheight>0.0</geoidheight>
9613 <fix>3d</fix>
9614 <sat>8</sat>
9615 <hdop>0.800000</hdop>
9616 </trkpt>
9617